<?xml version='1.0' encoding='UTF-8'?><gpx version="1.1" creator="JPX - https://github.com/jenetics/jpx" xmlns="http://www.topografix.com/GPX/1/1"><trk><trkseg><trkpt lat="45.5089902" lon="10.4635187"><ele>186.0</ele><time>2026-03-29T06:58:38.512Z</time></trkpt><trkpt lat="45.5091058" lon="10.4634783"><ele>186.0</ele><time>2026-03-29T06:58:39.509Z</time></trkpt><trkpt lat="45.5092253" lon="10.4634375"><ele>186.0</ele><time>2026-03-29T06:58:40.513Z</time></trkpt><trkpt lat="45.5093457" lon="10.4633965"><ele>186.0</ele><time>2026-03-29T06:58:41.513Z</time></trkpt><trkpt lat="45.5094653" lon="10.4633557"><ele>186.5</ele><time>2026-03-29T06:58:42.513Z</time></trkpt><trkpt lat="45.5095863" lon="10.4633122"><ele>187.0</ele><time>2026-03-29T06:58:43.513Z</time></trkpt><trkpt lat="45.509709" lon="10.4632678"><ele>187.5</ele><time>2026-03-29T06:58:44.513Z</time></trkpt><trkpt lat="45.5098333" lon="10.4632243"><ele>188.0</ele><time>2026-03-29T06:58:45.511Z</time></trkpt><trkpt lat="45.5099585" lon="10.46318"><ele>188.0</ele><time>2026-03-29T06:58:46.515Z</time></trkpt><trkpt lat="45.5100853" lon="10.4631373"><ele>188.0</ele><time>2026-03-29T06:58:47.513Z</time></trkpt><trkpt lat="45.5102193" lon="10.463091"><ele>188.0</ele><time>2026-03-29T06:58:48.511Z</time></trkpt><trkpt lat="45.5103642" lon="10.463038"><ele>188.0</ele><time>2026-03-29T06:58:49.509Z</time></trkpt><trkpt lat="45.5105175" lon="10.4629828"><ele>188.0</ele><time>2026-03-29T06:58:50.51Z</time></trkpt><trkpt lat="45.5106698" lon="10.4629302"><ele>188.0</ele><time>2026-03-29T06:58:51.51Z</time></trkpt><trkpt lat="45.5108222" lon="10.4628778"><ele>188.0</ele><time>2026-03-29T06:58:52.51Z</time></trkpt><trkpt lat="45.5109738" lon="10.4628248"><ele>188.0</ele><time>2026-03-29T06:58:53.512Z</time></trkpt><trkpt lat="45.5111242" lon="10.4627728"><ele>188.0</ele><time>2026-03-29T06:58:54.514Z</time></trkpt><trkpt lat="45.5112735" lon="10.4627223"><ele>188.0</ele><time>2026-03-29T06:58:55.513Z</time></trkpt><trkpt lat="45.5114242" lon="10.4626698"><ele>188.33333333333331</ele><time>2026-03-29T06:58:56.513Z</time></trkpt><trkpt lat="45.5115788" lon="10.4626133"><ele>188.66666666666666</ele><time>2026-03-29T06:58:57.513Z</time></trkpt><trkpt lat="45.5117353" lon="10.462558"><ele>189.0</ele><time>2026-03-29T06:58:58.514Z</time></trkpt><trkpt lat="45.5118993" lon="10.4625045"><ele>189.0</ele><time>2026-03-29T06:58:59.513Z</time></trkpt><trkpt lat="45.5120547" lon="10.4624612"><ele>189.0</ele><time>2026-03-29T06:59:00.515Z</time></trkpt><trkpt lat="45.5122002" lon="10.462431"><ele>189.0</ele><time>2026-03-29T06:59:01.512Z</time></trkpt><trkpt lat="45.5123355" lon="10.4624122"><ele>189.0</ele><time>2026-03-29T06:59:02.515Z</time></trkpt><trkpt lat="45.5124672" lon="10.4624003"><ele>189.66666666666666</ele><time>2026-03-29T06:59:03.515Z</time></trkpt><trkpt lat="45.5126122" lon="10.4623903"><ele>190.33333333333331</ele><time>2026-03-29T06:59:04.515Z</time></trkpt><trkpt lat="45.5127667" lon="10.4623792"><ele>191.0</ele><time>2026-03-29T06:59:05.515Z</time></trkpt><trkpt lat="45.5129242" lon="10.4623685"><ele>191.66666666666666</ele><time>2026-03-29T06:59:06.528Z</time></trkpt><trkpt lat="45.513083" lon="10.4623593"><ele>192.33333333333331</ele><time>2026-03-29T06:59:07.515Z</time></trkpt><trkpt lat="45.513241" lon="10.4623508"><ele>193.0</ele><time>2026-03-29T06:59:08.513Z</time></trkpt><trkpt lat="45.5133912" lon="10.4623432"><ele>193.0</ele><time>2026-03-29T06:59:09.513Z</time></trkpt><trkpt lat="45.513534" lon="10.4623368"><ele>193.0</ele><time>2026-03-29T06:59:10.515Z</time></trkpt><trkpt lat="45.5136703" lon="10.4623308"><ele>193.0</ele><time>2026-03-29T06:59:11.515Z</time></trkpt><trkpt lat="45.5137993" lon="10.4623252"><ele>193.0</ele><time>2026-03-29T06:59:12.512Z</time></trkpt><trkpt lat="45.5139188" lon="10.46232"><ele>193.2</ele><time>2026-03-29T06:59:13.511Z</time></trkpt><trkpt lat="45.5140288" lon="10.4623148"><ele>193.4</ele><time>2026-03-29T06:59:14.51Z</time></trkpt><trkpt lat="45.5141268" lon="10.4623097"><ele>193.6</ele><time>2026-03-29T06:59:15.51Z</time></trkpt><trkpt lat="45.5142085" lon="10.4623052"><ele>193.79999999999998</ele><time>2026-03-29T06:59:16.51Z</time></trkpt><trkpt lat="45.514308" lon="10.4623227"><ele>194.0</ele><time>2026-03-29T06:59:18.512Z</time></trkpt><trkpt lat="45.5143352" lon="10.4624135"><ele>194.0</ele><time>2026-03-29T06:59:20.513Z</time></trkpt><trkpt lat="45.5143353" lon="10.4625758"><ele>194.0</ele><time>2026-03-29T06:59:22.514Z</time></trkpt><trkpt lat="45.5143298" lon="10.4626707"><ele>194.0</ele><time>2026-03-29T06:59:23.514Z</time></trkpt><trkpt lat="45.5143217" lon="10.4628442"><ele>194.0</ele><time>2026-03-29T06:59:25.514Z</time></trkpt><trkpt lat="45.51431" lon="10.4629498"><ele>194.0</ele><time>2026-03-29T06:59:27.513Z</time></trkpt><trkpt lat="45.5143138" lon="10.4631138"><ele>194.0</ele><time>2026-03-29T06:59:35.511Z</time></trkpt><trkpt lat="45.5143107" lon="10.463227"><ele>194.0</ele><time>2026-03-29T06:59:36.512Z</time></trkpt><trkpt lat="45.5143032" lon="10.46337"><ele>194.0</ele><time>2026-03-29T06:59:37.513Z</time></trkpt><trkpt lat="45.5142957" lon="10.4635175"><ele>194.0</ele><time>2026-03-29T06:59:38.509Z</time></trkpt><trkpt lat="45.5142875" lon="10.4636588"><ele>194.0</ele><time>2026-03-29T06:59:39.51Z</time></trkpt><trkpt lat="45.5142805" lon="10.4637835"><ele>193.83333333333334</ele><time>2026-03-29T06:59:40.512Z</time></trkpt><trkpt lat="45.5142758" lon="10.4638952"><ele>193.66666666666669</ele><time>2026-03-29T06:59:41.509Z</time></trkpt><trkpt lat="45.5142713" lon="10.4640077"><ele>193.5</ele><time>2026-03-29T06:59:42.512Z</time></trkpt><trkpt lat="45.5142682" lon="10.4641365"><ele>193.33333333333331</ele><time>2026-03-29T06:59:43.512Z</time></trkpt><trkpt lat="45.5142655" lon="10.4642675"><ele>193.16666666666666</ele><time>2026-03-29T06:59:44.51Z</time></trkpt><trkpt lat="45.51426" lon="10.4644122"><ele>193.0</ele><time>2026-03-29T06:59:45.511Z</time></trkpt><trkpt lat="45.5142523" lon="10.4645548"><ele>193.0</ele><time>2026-03-29T06:59:46.512Z</time></trkpt><trkpt lat="45.5142448" lon="10.4647067"><ele>193.0</ele><time>2026-03-29T06:59:47.511Z</time></trkpt><trkpt lat="45.5142375" lon="10.464864"><ele>193.0</ele><time>2026-03-29T06:59:48.512Z</time></trkpt><trkpt lat="45.5142322" lon="10.465027"><ele>193.0</ele><time>2026-03-29T06:59:49.512Z</time></trkpt><trkpt lat="45.514226" lon="10.4651887"><ele>193.0</ele><time>2026-03-29T06:59:50.511Z</time></trkpt><trkpt lat="45.5142183" lon="10.4653447"><ele>193.5</ele><time>2026-03-29T06:59:51.513Z</time></trkpt><trkpt lat="45.5142113" lon="10.4655073"><ele>194.0</ele><time>2026-03-29T06:59:52.512Z</time></trkpt><trkpt lat="45.5142055" lon="10.4656697"><ele>194.5</ele><time>2026-03-29T06:59:53.511Z</time></trkpt><trkpt lat="45.5141988" lon="10.465835"><ele>195.0</ele><time>2026-03-29T06:59:54.511Z</time></trkpt><trkpt lat="45.5141927" lon="10.4660028"><ele>195.0</ele><time>2026-03-29T06:59:55.511Z</time></trkpt><trkpt lat="45.5141867" lon="10.466167"><ele>195.0</ele><time>2026-03-29T06:59:56.511Z</time></trkpt><trkpt lat="45.5141795" lon="10.4663367"><ele>195.0</ele><time>2026-03-29T06:59:57.512Z</time></trkpt><trkpt lat="45.5141735" lon="10.4665085"><ele>195.0</ele><time>2026-03-29T06:59:58.512Z</time></trkpt><trkpt lat="45.5141663" lon="10.466686"><ele>195.25</ele><time>2026-03-29T06:59:59.512Z</time></trkpt><trkpt lat="45.5141592" lon="10.4668638"><ele>195.5</ele><time>2026-03-29T07:00:00.512Z</time></trkpt><trkpt lat="45.5141517" lon="10.4670392"><ele>195.75</ele><time>2026-03-29T07:00:01.511Z</time></trkpt><trkpt lat="45.5141452" lon="10.4672153"><ele>196.0</ele><time>2026-03-29T07:00:02.51Z</time></trkpt><trkpt lat="45.5141388" lon="10.4673928"><ele>196.75</ele><time>2026-03-29T07:00:03.509Z</time></trkpt><trkpt lat="45.514133" lon="10.4675667"><ele>197.5</ele><time>2026-03-29T07:00:04.51Z</time></trkpt><trkpt lat="45.5141277" lon="10.467737"><ele>198.25</ele><time>2026-03-29T07:00:05.509Z</time></trkpt><trkpt lat="45.5141208" lon="10.4679055"><ele>199.0</ele><time>2026-03-29T07:00:06.511Z</time></trkpt><trkpt lat="45.5141127" lon="10.4680733"><ele>199.25</ele><time>2026-03-29T07:00:07.516Z</time></trkpt><trkpt lat="45.5141067" lon="10.4682427"><ele>199.5</ele><time>2026-03-29T07:00:08.512Z</time></trkpt><trkpt lat="45.5140998" lon="10.4684127"><ele>199.75</ele><time>2026-03-29T07:00:09.512Z</time></trkpt><trkpt lat="45.514093" lon="10.4685788"><ele>200.0</ele><time>2026-03-29T07:00:10.512Z</time></trkpt><trkpt lat="45.5140878" lon="10.4687278"><ele>200.0</ele><time>2026-03-29T07:00:11.512Z</time></trkpt><trkpt lat="45.5140838" lon="10.4688598"><ele>200.0</ele><time>2026-03-29T07:00:12.511Z</time></trkpt><trkpt lat="45.5140792" lon="10.4689717"><ele>200.0</ele><time>2026-03-29T07:00:13.513Z</time></trkpt><trkpt lat="45.5140862" lon="10.4691168"><ele>200.0</ele><time>2026-03-29T07:00:15.513Z</time></trkpt><trkpt lat="45.5141858" lon="10.4691898"><ele>200.0</ele><time>2026-03-29T07:00:17.511Z</time></trkpt><trkpt lat="45.5142802" lon="10.469198"><ele>200.0</ele><time>2026-03-29T07:00:18.514Z</time></trkpt><trkpt lat="45.5143865" lon="10.4692058"><ele>200.0</ele><time>2026-03-29T07:00:19.512Z</time></trkpt><trkpt lat="45.5144975" lon="10.4692093"><ele>200.0</ele><time>2026-03-29T07:00:20.513Z</time></trkpt><trkpt lat="45.5146115" lon="10.4692047"><ele>200.0</ele><time>2026-03-29T07:00:21.513Z</time></trkpt><trkpt lat="45.5147218" lon="10.469204"><ele>200.0</ele><time>2026-03-29T07:00:22.513Z</time></trkpt><trkpt lat="45.5148347" lon="10.4692122"><ele>200.0</ele><time>2026-03-29T07:00:23.513Z</time></trkpt><trkpt lat="45.5149473" lon="10.469225"><ele>200.0</ele><time>2026-03-29T07:00:24.512Z</time></trkpt><trkpt lat="45.515061" lon="10.469237"><ele>200.0</ele><time>2026-03-29T07:00:25.516Z</time></trkpt><trkpt lat="45.515165" lon="10.4692487"><ele>200.0</ele><time>2026-03-29T07:00:26.512Z</time></trkpt><trkpt lat="45.5152703" lon="10.4692613"><ele>200.0</ele><time>2026-03-29T07:00:27.511Z</time></trkpt><trkpt lat="45.5153808" lon="10.4692758"><ele>200.5</ele><time>2026-03-29T07:00:28.514Z</time></trkpt><trkpt lat="45.5155002" lon="10.469291"><ele>201.0</ele><time>2026-03-29T07:00:29.511Z</time></trkpt><trkpt lat="45.5156152" lon="10.4693058"><ele>201.5</ele><time>2026-03-29T07:00:30.511Z</time></trkpt><trkpt lat="45.5157258" lon="10.469322"><ele>202.0</ele><time>2026-03-29T07:00:31.513Z</time></trkpt><trkpt lat="45.5158368" lon="10.4693393"><ele>202.0</ele><time>2026-03-29T07:00:32.514Z</time></trkpt><trkpt lat="45.5159437" lon="10.4693543"><ele>202.0</ele><time>2026-03-29T07:00:33.514Z</time></trkpt><trkpt lat="45.5160478" lon="10.4693693"><ele>202.0</ele><time>2026-03-29T07:00:34.512Z</time></trkpt><trkpt lat="45.5161542" lon="10.4693863"><ele>202.0</ele><time>2026-03-29T07:00:35.513Z</time></trkpt><trkpt lat="45.5162608" lon="10.4694025"><ele>202.0</ele><time>2026-03-29T07:00:36.513Z</time></trkpt><trkpt lat="45.5163647" lon="10.4694108"><ele>202.6</ele><time>2026-03-29T07:00:37.518Z</time></trkpt><trkpt lat="45.5164645" lon="10.4694105"><ele>203.2</ele><time>2026-03-29T07:00:38.511Z</time></trkpt><trkpt lat="45.5165585" lon="10.4694092"><ele>203.8</ele><time>2026-03-29T07:00:39.511Z</time></trkpt><trkpt lat="45.5166505" lon="10.4694082"><ele>204.4</ele><time>2026-03-29T07:00:40.51Z</time></trkpt><trkpt lat="45.5167423" lon="10.4694083"><ele>205.0</ele><time>2026-03-29T07:00:41.512Z</time></trkpt><trkpt lat="45.5168345" lon="10.4694087"><ele>204.99999999999997</ele><time>2026-03-29T07:00:42.511Z</time></trkpt><trkpt lat="45.5169213" lon="10.4694092"><ele>205.0</ele><time>2026-03-29T07:00:43.512Z</time></trkpt><trkpt lat="45.5169992" lon="10.4694083"><ele>205.0</ele><time>2026-03-29T07:00:44.513Z</time></trkpt><trkpt lat="45.5170658" lon="10.469406"><ele>205.0</ele><time>2026-03-29T07:00:45.511Z</time></trkpt><trkpt lat="45.51717" lon="10.4694023"><ele>204.99999999999997</ele><time>2026-03-29T07:00:47.515Z</time></trkpt><trkpt lat="45.5172463" lon="10.4694168"><ele>205.0</ele><time>2026-03-29T07:00:49.511Z</time></trkpt><trkpt lat="45.5172753" lon="10.4695645"><ele>205.4</ele><time>2026-03-29T07:00:52.51Z</time></trkpt><trkpt lat="45.5172557" lon="10.4696758"><ele>205.8</ele><time>2026-03-29T07:00:53.509Z</time></trkpt><trkpt lat="45.5172283" lon="10.4698098"><ele>206.2</ele><time>2026-03-29T07:00:54.51Z</time></trkpt><trkpt lat="45.5171915" lon="10.469973"><ele>206.6</ele><time>2026-03-29T07:00:55.512Z</time></trkpt><trkpt lat="45.5171522" lon="10.4701415"><ele>207.0</ele><time>2026-03-29T07:00:56.511Z</time></trkpt><trkpt lat="45.5171172" lon="10.470304"><ele>207.25</ele><time>2026-03-29T07:00:57.514Z</time></trkpt><trkpt lat="45.5170813" lon="10.4704753"><ele>207.5</ele><time>2026-03-29T07:00:58.513Z</time></trkpt><trkpt lat="45.5170342" lon="10.470645"><ele>207.75</ele><time>2026-03-29T07:00:59.512Z</time></trkpt><trkpt lat="45.5169652" lon="10.4708075"><ele>208.0</ele><time>2026-03-29T07:01:00.513Z</time></trkpt><trkpt lat="45.5168733" lon="10.4709602"><ele>208.0</ele><time>2026-03-29T07:01:01.514Z</time></trkpt><trkpt lat="45.5167717" lon="10.4711123"><ele>208.0</ele><time>2026-03-29T07:01:02.525Z</time></trkpt><trkpt lat="45.5166708" lon="10.4712638"><ele>208.0</ele><time>2026-03-29T07:01:03.512Z</time></trkpt><trkpt lat="45.5165767" lon="10.4714143"><ele>208.0</ele><time>2026-03-29T07:01:04.512Z</time></trkpt><trkpt lat="45.5164985" lon="10.4715622"><ele>208.75</ele><time>2026-03-29T07:01:05.515Z</time></trkpt><trkpt lat="45.5164342" lon="10.4717173"><ele>209.5</ele><time>2026-03-29T07:01:06.511Z</time></trkpt><trkpt lat="45.5163792" lon="10.471896"><ele>210.25</ele><time>2026-03-29T07:01:07.515Z</time></trkpt><trkpt lat="45.5163368" lon="10.4720935"><ele>211.0</ele><time>2026-03-29T07:01:08.512Z</time></trkpt><trkpt lat="45.5163148" lon="10.4722953"><ele>211.8</ele><time>2026-03-29T07:01:09.513Z</time></trkpt><trkpt lat="45.516297" lon="10.4724725"><ele>212.60000000000002</ele><time>2026-03-29T07:01:10.512Z</time></trkpt><trkpt lat="45.5162698" lon="10.4726208"><ele>213.4</ele><time>2026-03-29T07:01:11.511Z</time></trkpt><trkpt lat="45.516239" lon="10.4727372"><ele>214.2</ele><time>2026-03-29T07:01:12.511Z</time></trkpt><trkpt lat="45.5162185" lon="10.472836"><ele>215.0</ele><time>2026-03-29T07:01:13.511Z</time></trkpt><trkpt lat="45.5162447" lon="10.472988"><ele>216.25</ele><time>2026-03-29T07:01:15.51Z</time></trkpt><trkpt lat="45.516297" lon="10.4730637"><ele>217.5</ele><time>2026-03-29T07:01:16.507Z</time></trkpt><trkpt lat="45.5163888" lon="10.473159"><ele>218.75</ele><time>2026-03-29T07:01:17.51Z</time></trkpt><trkpt lat="45.5165047" lon="10.4732422"><ele>220.0</ele><time>2026-03-29T07:01:18.507Z</time></trkpt><trkpt lat="45.5166477" lon="10.4733053"><ele>220.0</ele><time>2026-03-29T07:01:19.505Z</time></trkpt><trkpt lat="45.5168003" lon="10.4733285"><ele>220.0</ele><time>2026-03-29T07:01:20.507Z</time></trkpt><trkpt lat="45.5169685" lon="10.4733258"><ele>220.0</ele><time>2026-03-29T07:01:21.51Z</time></trkpt><trkpt lat="45.517123" lon="10.4733197"><ele>220.0</ele><time>2026-03-29T07:01:22.51Z</time></trkpt><trkpt lat="45.5172675" lon="10.4733077"><ele>220.0</ele><time>2026-03-29T07:01:23.507Z</time></trkpt><trkpt lat="45.5173988" lon="10.473291"><ele>220.0</ele><time>2026-03-29T07:01:24.507Z</time></trkpt><trkpt lat="45.5175145" lon="10.4732722"><ele>220.0</ele><time>2026-03-29T07:01:25.509Z</time></trkpt><trkpt lat="45.5176318" lon="10.473249"><ele>220.0</ele><time>2026-03-29T07:01:26.508Z</time></trkpt><trkpt lat="45.5177432" lon="10.47322"><ele>220.0</ele><time>2026-03-29T07:01:27.507Z</time></trkpt><trkpt lat="45.5178467" lon="10.4731833"><ele>220.0</ele><time>2026-03-29T07:01:28.509Z</time></trkpt><trkpt lat="45.5179462" lon="10.4731368"><ele>220.0</ele><time>2026-03-29T07:01:29.508Z</time></trkpt><trkpt lat="45.5180548" lon="10.473062"><ele>220.0</ele><time>2026-03-29T07:01:30.509Z</time></trkpt><trkpt lat="45.5181785" lon="10.4729522"><ele>219.33333333333331</ele><time>2026-03-29T07:01:31.508Z</time></trkpt><trkpt lat="45.5183173" lon="10.4728302"><ele>218.66666666666669</ele><time>2026-03-29T07:01:32.519Z</time></trkpt><trkpt lat="45.518459" lon="10.4727067"><ele>218.0</ele><time>2026-03-29T07:01:33.509Z</time></trkpt><trkpt lat="45.518603" lon="10.4725827"><ele>218.66666666666669</ele><time>2026-03-29T07:01:34.509Z</time></trkpt><trkpt lat="45.518753" lon="10.4724622"><ele>219.33333333333331</ele><time>2026-03-29T07:01:35.507Z</time></trkpt><trkpt lat="45.5189058" lon="10.4723348"><ele>220.0</ele><time>2026-03-29T07:01:36.508Z</time></trkpt><trkpt lat="45.5190427" lon="10.4722228"><ele>220.0</ele><time>2026-03-29T07:01:37.508Z</time></trkpt><trkpt lat="45.519167" lon="10.4721245"><ele>220.0</ele><time>2026-03-29T07:01:38.509Z</time></trkpt><trkpt lat="45.5192858" lon="10.4720325"><ele>220.0</ele><time>2026-03-29T07:01:39.51Z</time></trkpt><trkpt lat="45.5194128" lon="10.4719255"><ele>220.0</ele><time>2026-03-29T07:01:40.508Z</time></trkpt><trkpt lat="45.5195552" lon="10.471798"><ele>219.66666666666666</ele><time>2026-03-29T07:01:41.507Z</time></trkpt><trkpt lat="45.5197008" lon="10.4716687"><ele>219.33333333333331</ele><time>2026-03-29T07:01:42.508Z</time></trkpt><trkpt lat="45.51984" lon="10.471553"><ele>219.0</ele><time>2026-03-29T07:01:43.51Z</time></trkpt><trkpt lat="45.519974" lon="10.4714647"><ele>219.0</ele><time>2026-03-29T07:01:44.509Z</time></trkpt><trkpt lat="45.5201088" lon="10.4714013"><ele>219.0</ele><time>2026-03-29T07:01:45.51Z</time></trkpt><trkpt lat="45.5202445" lon="10.471352"><ele>219.0</ele><time>2026-03-29T07:01:46.512Z</time></trkpt><trkpt lat="45.5203623" lon="10.4713145"><ele>219.0</ele><time>2026-03-29T07:01:47.512Z</time></trkpt><trkpt lat="45.520458" lon="10.4712857"><ele>219.2</ele><time>2026-03-29T07:01:48.511Z</time></trkpt><trkpt lat="45.5205232" lon="10.4712745"><ele>219.39999999999998</ele><time>2026-03-29T07:01:49.51Z</time></trkpt><trkpt lat="45.520596" lon="10.4713183"><ele>219.6</ele><time>2026-03-29T07:01:51.512Z</time></trkpt><trkpt lat="45.5206185" lon="10.4715225"><ele>219.8</ele><time>2026-03-29T07:01:53.511Z</time></trkpt><trkpt lat="45.5206145" lon="10.4717018"><ele>220.0</ele><time>2026-03-29T07:01:54.513Z</time></trkpt><trkpt lat="45.5206172" lon="10.47191"><ele>221.5</ele><time>2026-03-29T07:01:55.51Z</time></trkpt><trkpt lat="45.5206213" lon="10.4721147"><ele>223.0</ele><time>2026-03-29T07:01:56.509Z</time></trkpt><trkpt lat="45.5206225" lon="10.472307"><ele>224.5</ele><time>2026-03-29T07:01:57.51Z</time></trkpt><trkpt lat="45.5206115" lon="10.472492"><ele>226.0</ele><time>2026-03-29T07:01:58.509Z</time></trkpt><trkpt lat="45.5205818" lon="10.4726622"><ele>226.0</ele><time>2026-03-29T07:01:59.509Z</time></trkpt><trkpt lat="45.5205382" lon="10.4728198"><ele>226.0</ele><time>2026-03-29T07:02:00.509Z</time></trkpt><trkpt lat="45.5204855" lon="10.4729877"><ele>226.0</ele><time>2026-03-29T07:02:01.51Z</time></trkpt><trkpt lat="45.5204242" lon="10.47318"><ele>226.0</ele><time>2026-03-29T07:02:02.508Z</time></trkpt><trkpt lat="45.5203588" lon="10.4733993"><ele>229.33333333333331</ele><time>2026-03-29T07:02:03.507Z</time></trkpt><trkpt lat="45.520295" lon="10.4736413"><ele>232.66666666666669</ele><time>2026-03-29T07:02:04.508Z</time></trkpt><trkpt lat="45.5202377" lon="10.4738948"><ele>236.0</ele><time>2026-03-29T07:02:05.503Z</time></trkpt><trkpt lat="45.5201793" lon="10.4741735"><ele>237.0</ele><time>2026-03-29T07:02:06.506Z</time></trkpt><trkpt lat="45.5201232" lon="10.4744708"><ele>238.0</ele><time>2026-03-29T07:02:07.506Z</time></trkpt><trkpt lat="45.5200687" lon="10.474793"><ele>239.0</ele><time>2026-03-29T07:02:08.506Z</time></trkpt><trkpt lat="45.5200112" lon="10.4751378"><ele>239.0</ele><time>2026-03-29T07:02:09.507Z</time></trkpt><trkpt lat="45.5199558" lon="10.4754863"><ele>239.0</ele><time>2026-03-29T07:02:10.507Z</time></trkpt><trkpt lat="45.5198978" lon="10.4758433"><ele>239.0</ele><time>2026-03-29T07:02:11.508Z</time></trkpt><trkpt lat="45.5198402" lon="10.4762063"><ele>239.0</ele><time>2026-03-29T07:02:12.508Z</time></trkpt><trkpt lat="45.5197857" lon="10.4765532"><ele>238.66666666666669</ele><time>2026-03-29T07:02:13.505Z</time></trkpt><trkpt lat="45.5197317" lon="10.4768728"><ele>238.33333333333331</ele><time>2026-03-29T07:02:14.508Z</time></trkpt><trkpt lat="45.5196875" lon="10.4771728"><ele>238.0</ele><time>2026-03-29T07:02:15.507Z</time></trkpt><trkpt lat="45.519653" lon="10.4774625"><ele>240.33333333333331</ele><time>2026-03-29T07:02:16.508Z</time></trkpt><trkpt lat="45.5196403" lon="10.4777445"><ele>242.66666666666669</ele><time>2026-03-29T07:02:17.506Z</time></trkpt><trkpt lat="45.5196508" lon="10.478022"><ele>245.0</ele><time>2026-03-29T07:02:18.507Z</time></trkpt><trkpt lat="45.5196785" lon="10.478279"><ele>246.66666666666669</ele><time>2026-03-29T07:02:19.506Z</time></trkpt><trkpt lat="45.5197188" lon="10.4785123"><ele>248.33333333333331</ele><time>2026-03-29T07:02:20.509Z</time></trkpt><trkpt lat="45.5197572" lon="10.4787192"><ele>250.0</ele><time>2026-03-29T07:02:21.507Z</time></trkpt><trkpt lat="45.5197713" lon="10.4789075"><ele>250.25</ele><time>2026-03-29T07:02:22.506Z</time></trkpt><trkpt lat="45.5197485" lon="10.4790843"><ele>250.5</ele><time>2026-03-29T07:02:23.506Z</time></trkpt><trkpt lat="45.5196868" lon="10.4792675"><ele>250.75</ele><time>2026-03-29T07:02:24.506Z</time></trkpt><trkpt lat="45.5195912" lon="10.4794618"><ele>251.0</ele><time>2026-03-29T07:02:25.508Z</time></trkpt><trkpt lat="45.519472" lon="10.4796643"><ele>251.0</ele><time>2026-03-29T07:02:26.506Z</time></trkpt><trkpt lat="45.5193603" lon="10.4798505"><ele>251.0</ele><time>2026-03-29T07:02:27.507Z</time></trkpt><trkpt lat="45.5192695" lon="10.4800303"><ele>251.0</ele><time>2026-03-29T07:02:28.509Z</time></trkpt><trkpt lat="45.5192062" lon="10.480211"><ele>251.0</ele><time>2026-03-29T07:02:29.505Z</time></trkpt><trkpt lat="45.519168" lon="10.4803962"><ele>251.0</ele><time>2026-03-29T07:02:30.506Z</time></trkpt><trkpt lat="45.5191442" lon="10.4805917"><ele>251.0</ele><time>2026-03-29T07:02:31.506Z</time></trkpt><trkpt lat="45.5191242" lon="10.48079"><ele>251.0</ele><time>2026-03-29T07:02:32.505Z</time></trkpt><trkpt lat="45.5191055" lon="10.4809732"><ele>250.4</ele><time>2026-03-29T07:02:33.507Z</time></trkpt><trkpt lat="45.5190893" lon="10.4811397"><ele>249.8</ele><time>2026-03-29T07:02:34.511Z</time></trkpt><trkpt lat="45.5190842" lon="10.4812867"><ele>249.20000000000002</ele><time>2026-03-29T07:02:35.507Z</time></trkpt><trkpt lat="45.5190995" lon="10.4814222"><ele>248.60000000000002</ele><time>2026-03-29T07:02:36.511Z</time></trkpt><trkpt lat="45.5191377" lon="10.4815607"><ele>248.0</ele><time>2026-03-29T07:02:37.51Z</time></trkpt><trkpt lat="45.5192005" lon="10.4817173"><ele>245.66666666666669</ele><time>2026-03-29T07:02:38.511Z</time></trkpt><trkpt lat="45.5192825" lon="10.4818882"><ele>243.33333333333331</ele><time>2026-03-29T07:02:39.509Z</time></trkpt><trkpt lat="45.5193742" lon="10.4820833"><ele>241.0</ele><time>2026-03-29T07:02:40.509Z</time></trkpt><trkpt lat="45.5194733" lon="10.4822987"><ele>240.66666666666666</ele><time>2026-03-29T07:02:41.509Z</time></trkpt><trkpt lat="45.5195763" lon="10.4825135"><ele>240.33333333333331</ele><time>2026-03-29T07:02:42.51Z</time></trkpt><trkpt lat="45.519682" lon="10.4827255"><ele>240.0</ele><time>2026-03-29T07:02:43.511Z</time></trkpt><trkpt lat="45.51979" lon="10.4829347"><ele>240.0</ele><time>2026-03-29T07:02:44.512Z</time></trkpt><trkpt lat="45.5198975" lon="10.4831367"><ele>240.0</ele><time>2026-03-29T07:02:45.509Z</time></trkpt><trkpt lat="45.5200052" lon="10.4833195"><ele>240.0</ele><time>2026-03-29T07:02:46.51Z</time></trkpt><trkpt lat="45.5201177" lon="10.483485"><ele>240.0</ele><time>2026-03-29T07:02:47.509Z</time></trkpt><trkpt lat="45.5202363" lon="10.4836385"><ele>240.0</ele><time>2026-03-29T07:02:48.508Z</time></trkpt><trkpt lat="45.5203565" lon="10.4837882"><ele>240.0</ele><time>2026-03-29T07:02:49.509Z</time></trkpt><trkpt lat="45.520472" lon="10.4839295"><ele>240.66666666666669</ele><time>2026-03-29T07:02:50.508Z</time></trkpt><trkpt lat="45.520597" lon="10.4840728"><ele>241.33333333333334</ele><time>2026-03-29T07:02:51.507Z</time></trkpt><trkpt lat="45.5207383" lon="10.4842372"><ele>242.0</ele><time>2026-03-29T07:02:52.509Z</time></trkpt><trkpt lat="45.520874" lon="10.4844098"><ele>242.0</ele><time>2026-03-29T07:02:53.518Z</time></trkpt><trkpt lat="45.5210013" lon="10.48458"><ele>242.0</ele><time>2026-03-29T07:02:54.506Z</time></trkpt><trkpt lat="45.5211213" lon="10.4847448"><ele>242.0</ele><time>2026-03-29T07:02:55.506Z</time></trkpt><trkpt lat="45.5212302" lon="10.4849113"><ele>242.0</ele><time>2026-03-29T07:02:56.506Z</time></trkpt><trkpt lat="45.5213195" lon="10.4850905"><ele>242.0</ele><time>2026-03-29T07:02:57.506Z</time></trkpt><trkpt lat="45.5213802" lon="10.4852918"><ele>242.0</ele><time>2026-03-29T07:02:58.508Z</time></trkpt><trkpt lat="45.5214153" lon="10.4855052"><ele>239.75</ele><time>2026-03-29T07:02:59.511Z</time></trkpt><trkpt lat="45.5214392" lon="10.4857145"><ele>237.5</ele><time>2026-03-29T07:03:00.509Z</time></trkpt><trkpt lat="45.5214577" lon="10.4859148"><ele>235.25</ele><time>2026-03-29T07:03:01.51Z</time></trkpt><trkpt lat="45.5214732" lon="10.486107"><ele>233.0</ele><time>2026-03-29T07:03:02.508Z</time></trkpt><trkpt lat="45.5214782" lon="10.4862937"><ele>231.75</ele><time>2026-03-29T07:03:03.509Z</time></trkpt><trkpt lat="45.5214655" lon="10.4864877"><ele>230.5</ele><time>2026-03-29T07:03:04.511Z</time></trkpt><trkpt lat="45.5214347" lon="10.4866885"><ele>229.25</ele><time>2026-03-29T07:03:05.511Z</time></trkpt><trkpt lat="45.5213892" lon="10.4869015"><ele>228.0</ele><time>2026-03-29T07:03:06.511Z</time></trkpt><trkpt lat="45.5213348" lon="10.48713"><ele>226.66666666666669</ele><time>2026-03-29T07:03:07.51Z</time></trkpt><trkpt lat="45.5212792" lon="10.4873492"><ele>225.33333333333334</ele><time>2026-03-29T07:03:08.509Z</time></trkpt><trkpt lat="45.521225" lon="10.487558"><ele>224.0</ele><time>2026-03-29T07:03:09.51Z</time></trkpt><trkpt lat="45.5211718" lon="10.4877718"><ele>223.0</ele><time>2026-03-29T07:03:10.512Z</time></trkpt><trkpt lat="45.5211183" lon="10.4879927"><ele>222.0</ele><time>2026-03-29T07:03:11.511Z</time></trkpt><trkpt lat="45.5210662" lon="10.4882038"><ele>221.0</ele><time>2026-03-29T07:03:12.51Z</time></trkpt><trkpt lat="45.5210138" lon="10.4884002"><ele>221.0</ele><time>2026-03-29T07:03:13.511Z</time></trkpt><trkpt lat="45.5209648" lon="10.4885777"><ele>221.0</ele><time>2026-03-29T07:03:14.512Z</time></trkpt><trkpt lat="45.520921" lon="10.4887402"><ele>221.0</ele><time>2026-03-29T07:03:15.51Z</time></trkpt><trkpt lat="45.520886" lon="10.4888835"><ele>221.0</ele><time>2026-03-29T07:03:16.511Z</time></trkpt><trkpt lat="45.5208645" lon="10.4890072"><ele>220.8</ele><time>2026-03-29T07:03:17.51Z</time></trkpt><trkpt lat="45.5208562" lon="10.4891037"><ele>220.60000000000002</ele><time>2026-03-29T07:03:18.509Z</time></trkpt><trkpt lat="45.5208763" lon="10.4892332"><ele>220.4</ele><time>2026-03-29T07:03:20.509Z</time></trkpt><trkpt lat="45.5209483" lon="10.4892822"><ele>220.2</ele><time>2026-03-29T07:03:22.511Z</time></trkpt><trkpt lat="45.5210503" lon="10.4893762"><ele>220.0</ele><time>2026-03-29T07:03:24.51Z</time></trkpt><trkpt lat="45.5211202" lon="10.4894587"><ele>219.99999999999997</ele><time>2026-03-29T07:03:25.51Z</time></trkpt><trkpt lat="45.521191" lon="10.4895387"><ele>220.0</ele><time>2026-03-29T07:03:26.509Z</time></trkpt><trkpt lat="45.5212557" lon="10.4896095"><ele>220.0</ele><time>2026-03-29T07:03:27.509Z</time></trkpt><trkpt lat="45.5213187" lon="10.4896818"><ele>220.0</ele><time>2026-03-29T07:03:28.509Z</time></trkpt><trkpt lat="45.5213795" lon="10.4897523"><ele>219.99999999999997</ele><time>2026-03-29T07:03:29.511Z</time></trkpt><trkpt lat="45.5214407" lon="10.4898177"><ele>220.0</ele><time>2026-03-29T07:03:30.51Z</time></trkpt><trkpt lat="45.5215057" lon="10.4898737"><ele>219.4</ele><time>2026-03-29T07:03:31.51Z</time></trkpt><trkpt lat="45.5215772" lon="10.4899297"><ele>218.8</ele><time>2026-03-29T07:03:32.511Z</time></trkpt><trkpt lat="45.5216673" lon="10.4899827"><ele>218.2</ele><time>2026-03-29T07:03:33.511Z</time></trkpt><trkpt lat="45.5217595" lon="10.4900247"><ele>217.6</ele><time>2026-03-29T07:03:34.512Z</time></trkpt><trkpt lat="45.5218418" lon="10.4900632"><ele>217.0</ele><time>2026-03-29T07:03:35.514Z</time></trkpt><trkpt lat="45.521926" lon="10.4901072"><ele>217.0</ele><time>2026-03-29T07:03:36.512Z</time></trkpt><trkpt lat="45.5220078" lon="10.4901598"><ele>217.0</ele><time>2026-03-29T07:03:37.512Z</time></trkpt><trkpt lat="45.5220932" lon="10.4902285"><ele>217.0</ele><time>2026-03-29T07:03:38.51Z</time></trkpt><trkpt lat="45.5221728" lon="10.4902953"><ele>217.0</ele><time>2026-03-29T07:03:39.511Z</time></trkpt><trkpt lat="45.522255" lon="10.4903487"><ele>217.0</ele><time>2026-03-29T07:03:40.512Z</time></trkpt><trkpt lat="45.5223407" lon="10.490382"><ele>216.99999999999997</ele><time>2026-03-29T07:03:41.51Z</time></trkpt><trkpt lat="45.5224308" lon="10.4904017"><ele>217.0</ele><time>2026-03-29T07:03:42.51Z</time></trkpt><trkpt lat="45.5225168" lon="10.4904237"><ele>217.0</ele><time>2026-03-29T07:03:43.508Z</time></trkpt><trkpt lat="45.5225878" lon="10.49045"><ele>217.0</ele><time>2026-03-29T07:03:44.508Z</time></trkpt><trkpt lat="45.5226878" lon="10.4904982"><ele>216.99999999999997</ele><time>2026-03-29T07:03:46.521Z</time></trkpt><trkpt lat="45.5227747" lon="10.4904682"><ele>217.0</ele><time>2026-03-29T07:03:48.51Z</time></trkpt><trkpt lat="45.522821" lon="10.4904053"><ele>217.75</ele><time>2026-03-29T07:03:49.509Z</time></trkpt><trkpt lat="45.5228623" lon="10.4902902"><ele>218.5</ele><time>2026-03-29T07:03:50.508Z</time></trkpt><trkpt lat="45.5229033" lon="10.4901195"><ele>219.25</ele><time>2026-03-29T07:03:51.509Z</time></trkpt><trkpt lat="45.5229505" lon="10.4899353"><ele>220.0</ele><time>2026-03-29T07:03:52.509Z</time></trkpt><trkpt lat="45.5230087" lon="10.4897525"><ele>222.0</ele><time>2026-03-29T07:03:53.507Z</time></trkpt><trkpt lat="45.5230788" lon="10.4895693"><ele>224.0</ele><time>2026-03-29T07:03:54.509Z</time></trkpt><trkpt lat="45.5231387" lon="10.4893793"><ele>226.0</ele><time>2026-03-29T07:03:55.508Z</time></trkpt><trkpt lat="45.5231905" lon="10.4891907"><ele>228.0</ele><time>2026-03-29T07:03:56.508Z</time></trkpt><trkpt lat="45.523239" lon="10.4890188"><ele>228.0</ele><time>2026-03-29T07:03:57.509Z</time></trkpt><trkpt lat="45.5232822" lon="10.4888742"><ele>228.0</ele><time>2026-03-29T07:03:58.511Z</time></trkpt><trkpt lat="45.523324" lon="10.4887668"><ele>228.0</ele><time>2026-03-29T07:03:59.509Z</time></trkpt><trkpt lat="45.5233683" lon="10.488695"><ele>228.0</ele><time>2026-03-29T07:04:00.51Z</time></trkpt><trkpt lat="45.523425" lon="10.4886332"><ele>228.0</ele><time>2026-03-29T07:04:01.513Z</time></trkpt><trkpt lat="45.5234918" lon="10.4885828"><ele>228.0</ele><time>2026-03-29T07:04:02.508Z</time></trkpt><trkpt lat="45.5235718" lon="10.4885453"><ele>228.0</ele><time>2026-03-29T07:04:03.512Z</time></trkpt><trkpt lat="45.5236817" lon="10.4885132"><ele>228.0</ele><time>2026-03-29T07:04:04.509Z</time></trkpt><trkpt lat="45.5238132" lon="10.4884875"><ele>228.0</ele><time>2026-03-29T07:04:05.507Z</time></trkpt><trkpt lat="45.523966" lon="10.488464"><ele>228.0</ele><time>2026-03-29T07:04:06.508Z</time></trkpt><trkpt lat="45.5241082" lon="10.4884473"><ele>229.2</ele><time>2026-03-29T07:04:07.507Z</time></trkpt><trkpt lat="45.5242292" lon="10.488433"><ele>230.4</ele><time>2026-03-29T07:04:08.507Z</time></trkpt><trkpt lat="45.5243213" lon="10.4884212"><ele>231.59999999999997</ele><time>2026-03-29T07:04:09.507Z</time></trkpt><trkpt lat="45.5243945" lon="10.4884285"><ele>232.79999999999998</ele><time>2026-03-29T07:04:10.509Z</time></trkpt><trkpt lat="45.5244683" lon="10.4884627"><ele>234.0</ele><time>2026-03-29T07:04:11.509Z</time></trkpt><trkpt lat="45.524555" lon="10.4885153"><ele>234.5</ele><time>2026-03-29T07:04:12.509Z</time></trkpt><trkpt lat="45.5246575" lon="10.4885717"><ele>235.0</ele><time>2026-03-29T07:04:13.509Z</time></trkpt><trkpt lat="45.5247733" lon="10.488623"><ele>235.5</ele><time>2026-03-29T07:04:14.51Z</time></trkpt><trkpt lat="45.5249025" lon="10.4886725"><ele>236.0</ele><time>2026-03-29T07:04:15.51Z</time></trkpt><trkpt lat="45.5250487" lon="10.488723"><ele>237.0</ele><time>2026-03-29T07:04:16.511Z</time></trkpt><trkpt lat="45.5251985" lon="10.4887652"><ele>238.0</ele><time>2026-03-29T07:04:17.512Z</time></trkpt><trkpt lat="45.5253377" lon="10.4888"><ele>239.0</ele><time>2026-03-29T07:04:18.513Z</time></trkpt><trkpt lat="45.5254765" lon="10.488824"><ele>240.0</ele><time>2026-03-29T07:04:19.51Z</time></trkpt><trkpt lat="45.5256105" lon="10.4888453"><ele>240.0</ele><time>2026-03-29T07:04:20.51Z</time></trkpt><trkpt lat="45.5257315" lon="10.4888637"><ele>240.0</ele><time>2026-03-29T07:04:21.511Z</time></trkpt><trkpt lat="45.5258553" lon="10.4888712"><ele>240.0</ele><time>2026-03-29T07:04:22.512Z</time></trkpt><trkpt lat="45.525988" lon="10.4888635"><ele>240.0</ele><time>2026-03-29T07:04:23.51Z</time></trkpt><trkpt lat="45.5261162" lon="10.4888443"><ele>240.2</ele><time>2026-03-29T07:04:24.509Z</time></trkpt><trkpt lat="45.5262332" lon="10.4888275"><ele>240.4</ele><time>2026-03-29T07:04:25.51Z</time></trkpt><trkpt lat="45.526348" lon="10.4888123"><ele>240.60000000000002</ele><time>2026-03-29T07:04:26.508Z</time></trkpt><trkpt lat="45.5264472" lon="10.4888122"><ele>240.8</ele><time>2026-03-29T07:04:27.511Z</time></trkpt><trkpt lat="45.5265523" lon="10.4888197"><ele>241.0</ele><time>2026-03-29T07:04:28.51Z</time></trkpt><trkpt lat="45.5266578" lon="10.4888198"><ele>241.0</ele><time>2026-03-29T07:04:29.51Z</time></trkpt><trkpt lat="45.5267515" lon="10.4888225"><ele>241.00000000000003</ele><time>2026-03-29T07:04:30.51Z</time></trkpt><trkpt lat="45.5268308" lon="10.4888468"><ele>241.00000000000003</ele><time>2026-03-29T07:04:31.508Z</time></trkpt><trkpt lat="45.5269117" lon="10.4889055"><ele>241.0</ele><time>2026-03-29T07:04:32.508Z</time></trkpt><trkpt lat="45.526995" lon="10.4889798"><ele>241.0</ele><time>2026-03-29T07:04:33.506Z</time></trkpt><trkpt lat="45.5270823" lon="10.4890423"><ele>241.4</ele><time>2026-03-29T07:04:34.507Z</time></trkpt><trkpt lat="45.5271708" lon="10.489089"><ele>241.8</ele><time>2026-03-29T07:04:35.506Z</time></trkpt><trkpt lat="45.52727" lon="10.4891178"><ele>242.20000000000002</ele><time>2026-03-29T07:04:36.509Z</time></trkpt><trkpt lat="45.527376" lon="10.4891288"><ele>242.60000000000002</ele><time>2026-03-29T07:04:37.511Z</time></trkpt><trkpt lat="45.5274933" lon="10.4891223"><ele>243.0</ele><time>2026-03-29T07:04:38.508Z</time></trkpt><trkpt lat="45.527621" lon="10.4890995"><ele>243.0</ele><time>2026-03-29T07:04:39.509Z</time></trkpt><trkpt lat="45.5277378" lon="10.4890773"><ele>243.0</ele><time>2026-03-29T07:04:40.509Z</time></trkpt><trkpt lat="45.5278433" lon="10.4890637"><ele>243.0</ele><time>2026-03-29T07:04:41.508Z</time></trkpt><trkpt lat="45.5279465" lon="10.4890672"><ele>243.0</ele><time>2026-03-29T07:04:42.509Z</time></trkpt><trkpt lat="45.5280372" lon="10.4891018"><ele>243.0</ele><time>2026-03-29T07:04:43.508Z</time></trkpt><trkpt lat="45.5281207" lon="10.4891657"><ele>244.0</ele><time>2026-03-29T07:04:44.509Z</time></trkpt><trkpt lat="45.5281797" lon="10.4892497"><ele>245.0</ele><time>2026-03-29T07:04:45.508Z</time></trkpt><trkpt lat="45.5282087" lon="10.4893358"><ele>246.0</ele><time>2026-03-29T07:04:46.508Z</time></trkpt><trkpt lat="45.528216" lon="10.4894425"><ele>247.0</ele><time>2026-03-29T07:04:47.509Z</time></trkpt><trkpt lat="45.5282125" lon="10.4895403"><ele>248.0</ele><time>2026-03-29T07:04:48.507Z</time></trkpt><trkpt lat="45.5282678" lon="10.4896642"><ele>249.0</ele><time>2026-03-29T07:04:50.509Z</time></trkpt><trkpt lat="45.5283272" lon="10.4897"><ele>249.79999999999998</ele><time>2026-03-29T07:04:51.508Z</time></trkpt><trkpt lat="45.5284035" lon="10.4897342"><ele>250.59999999999997</ele><time>2026-03-29T07:04:52.509Z</time></trkpt><trkpt lat="45.5284953" lon="10.489779"><ele>251.4</ele><time>2026-03-29T07:04:53.508Z</time></trkpt><trkpt lat="45.528597" lon="10.489836"><ele>252.2</ele><time>2026-03-29T07:04:54.507Z</time></trkpt><trkpt lat="45.5287035" lon="10.4898977"><ele>253.0</ele><time>2026-03-29T07:04:55.508Z</time></trkpt><trkpt lat="45.5288063" lon="10.4899617"><ele>253.60000000000002</ele><time>2026-03-29T07:04:56.507Z</time></trkpt><trkpt lat="45.5289088" lon="10.4900198"><ele>254.20000000000002</ele><time>2026-03-29T07:04:57.506Z</time></trkpt><trkpt lat="45.5289945" lon="10.4900677"><ele>254.8</ele><time>2026-03-29T07:04:58.506Z</time></trkpt><trkpt lat="45.5290647" lon="10.4900998"><ele>255.4</ele><time>2026-03-29T07:04:59.506Z</time></trkpt><trkpt lat="45.5291718" lon="10.4900885"><ele>256.0</ele><time>2026-03-29T07:05:01.507Z</time></trkpt><trkpt lat="45.5292815" lon="10.4900047"><ele>256.0</ele><time>2026-03-29T07:05:03.508Z</time></trkpt><trkpt lat="45.5293463" lon="10.4900018"><ele>256.0</ele><time>2026-03-29T07:05:04.509Z</time></trkpt><trkpt lat="45.529427" lon="10.4900228"><ele>256.0</ele><time>2026-03-29T07:05:05.508Z</time></trkpt><trkpt lat="45.5295232" lon="10.4900663"><ele>256.0</ele><time>2026-03-29T07:05:06.508Z</time></trkpt><trkpt lat="45.52962" lon="10.4901245"><ele>256.0</ele><time>2026-03-29T07:05:07.508Z</time></trkpt><trkpt lat="45.5297195" lon="10.4902047"><ele>256.0</ele><time>2026-03-29T07:05:08.509Z</time></trkpt><trkpt lat="45.5298213" lon="10.4902945"><ele>256.0</ele><time>2026-03-29T07:05:09.508Z</time></trkpt><trkpt lat="45.5299057" lon="10.4903758"><ele>256.0</ele><time>2026-03-29T07:05:10.508Z</time></trkpt><trkpt lat="45.5299797" lon="10.4904493"><ele>256.0</ele><time>2026-03-29T07:05:11.509Z</time></trkpt><trkpt lat="45.5300465" lon="10.4905253"><ele>256.0</ele><time>2026-03-29T07:05:12.508Z</time></trkpt><trkpt lat="45.5301092" lon="10.4906018"><ele>255.99999999999997</ele><time>2026-03-29T07:05:13.509Z</time></trkpt><trkpt lat="45.5301685" lon="10.4906603"><ele>256.0</ele><time>2026-03-29T07:05:14.508Z</time></trkpt><trkpt lat="45.530222" lon="10.4907277"><ele>256.0</ele><time>2026-03-29T07:05:15.508Z</time></trkpt><trkpt lat="45.53027" lon="10.4908302"><ele>256.0</ele><time>2026-03-29T07:05:16.508Z</time></trkpt><trkpt lat="45.5303193" lon="10.4909463"><ele>255.99999999999997</ele><time>2026-03-29T07:05:17.508Z</time></trkpt><trkpt lat="45.5303675" lon="10.4910518"><ele>256.0</ele><time>2026-03-29T07:05:18.507Z</time></trkpt><trkpt lat="45.5304242" lon="10.4911355"><ele>255.8</ele><time>2026-03-29T07:05:19.509Z</time></trkpt><trkpt lat="45.5304878" lon="10.4912187"><ele>255.60000000000002</ele><time>2026-03-29T07:05:20.508Z</time></trkpt><trkpt lat="45.5305627" lon="10.4913233"><ele>255.4</ele><time>2026-03-29T07:05:21.506Z</time></trkpt><trkpt lat="45.5306352" lon="10.4914355"><ele>255.2</ele><time>2026-03-29T07:05:22.507Z</time></trkpt><trkpt lat="45.5306953" lon="10.4915355"><ele>255.0</ele><time>2026-03-29T07:05:23.506Z</time></trkpt><trkpt lat="45.5307568" lon="10.4916497"><ele>255.0</ele><time>2026-03-29T07:05:24.507Z</time></trkpt><trkpt lat="45.5308127" lon="10.4917688"><ele>255.0</ele><time>2026-03-29T07:05:25.508Z</time></trkpt><trkpt lat="45.5308573" lon="10.4918847"><ele>255.0</ele><time>2026-03-29T07:05:26.506Z</time></trkpt><trkpt lat="45.5308915" lon="10.4919942"><ele>255.0</ele><time>2026-03-29T07:05:27.507Z</time></trkpt><trkpt lat="45.5309118" lon="10.4920928"><ele>255.0</ele><time>2026-03-29T07:05:28.509Z</time></trkpt><trkpt lat="45.5309233" lon="10.492193"><ele>255.0</ele><time>2026-03-29T07:05:29.508Z</time></trkpt><trkpt lat="45.5309445" lon="10.4922903"><ele>255.66666666666666</ele><time>2026-03-29T07:05:30.508Z</time></trkpt><trkpt lat="45.5309775" lon="10.492386"><ele>256.3333333333333</ele><time>2026-03-29T07:05:31.509Z</time></trkpt><trkpt lat="45.531018" lon="10.4924707"><ele>257.0</ele><time>2026-03-29T07:05:32.508Z</time></trkpt><trkpt lat="45.5310765" lon="10.4925573"><ele>257.66666666666663</ele><time>2026-03-29T07:05:33.508Z</time></trkpt><trkpt lat="45.531154" lon="10.49263"><ele>258.3333333333333</ele><time>2026-03-29T07:05:34.508Z</time></trkpt><trkpt lat="45.5312365" lon="10.4927067"><ele>259.0</ele><time>2026-03-29T07:05:35.508Z</time></trkpt><trkpt lat="45.5313232" lon="10.4927847"><ele>259.0</ele><time>2026-03-29T07:05:36.508Z</time></trkpt><trkpt lat="45.5314092" lon="10.4928457"><ele>259.0</ele><time>2026-03-29T07:05:37.508Z</time></trkpt><trkpt lat="45.531494" lon="10.492907"><ele>259.0</ele><time>2026-03-29T07:05:38.506Z</time></trkpt><trkpt lat="45.5315878" lon="10.4929695"><ele>259.0</ele><time>2026-03-29T07:05:39.507Z</time></trkpt><trkpt lat="45.5316855" lon="10.4930237"><ele>259.0</ele><time>2026-03-29T07:05:40.508Z</time></trkpt><trkpt lat="45.531778" lon="10.4930655"><ele>258.3333333333333</ele><time>2026-03-29T07:05:41.507Z</time></trkpt><trkpt lat="45.5318695" lon="10.4931133"><ele>257.66666666666663</ele><time>2026-03-29T07:05:42.507Z</time></trkpt><trkpt lat="45.531962" lon="10.4931618"><ele>257.0</ele><time>2026-03-29T07:05:43.507Z</time></trkpt><trkpt lat="45.5320463" lon="10.4932027"><ele>256.3333333333333</ele><time>2026-03-29T07:05:44.508Z</time></trkpt><trkpt lat="45.532118" lon="10.4932435"><ele>255.66666666666666</ele><time>2026-03-29T07:05:45.505Z</time></trkpt><trkpt lat="45.5321835" lon="10.4932997"><ele>255.0</ele><time>2026-03-29T07:05:46.503Z</time></trkpt><trkpt lat="45.532253" lon="10.4934"><ele>255.0</ele><time>2026-03-29T07:05:47.505Z</time></trkpt><trkpt lat="45.5323243" lon="10.4934958"><ele>255.0</ele><time>2026-03-29T07:05:48.505Z</time></trkpt><trkpt lat="45.5324087" lon="10.4935777"><ele>255.0</ele><time>2026-03-29T07:05:49.507Z</time></trkpt><trkpt lat="45.5325045" lon="10.4936403"><ele>255.0</ele><time>2026-03-29T07:05:50.507Z</time></trkpt><trkpt lat="45.5326023" lon="10.4936945"><ele>255.0</ele><time>2026-03-29T07:05:51.508Z</time></trkpt><trkpt lat="45.5326898" lon="10.493743"><ele>253.0</ele><time>2026-03-29T07:05:52.509Z</time></trkpt><trkpt lat="45.5327738" lon="10.4937792"><ele>251.0</ele><time>2026-03-29T07:05:53.508Z</time></trkpt><trkpt lat="45.5328595" lon="10.493798"><ele>249.0</ele><time>2026-03-29T07:05:54.508Z</time></trkpt><trkpt lat="45.53294" lon="10.4938045"><ele>247.0</ele><time>2026-03-29T07:05:55.507Z</time></trkpt><trkpt lat="45.5330102" lon="10.493799"><ele>245.0</ele><time>2026-03-29T07:05:56.507Z</time></trkpt><trkpt lat="45.5331272" lon="10.4938595"><ele>244.8</ele><time>2026-03-29T07:05:58.508Z</time></trkpt><trkpt lat="45.5331885" lon="10.493923"><ele>244.6</ele><time>2026-03-29T07:05:59.508Z</time></trkpt><trkpt lat="45.5332552" lon="10.4940165"><ele>244.39999999999998</ele><time>2026-03-29T07:06:00.51Z</time></trkpt><trkpt lat="45.5333313" lon="10.4941123"><ele>244.2</ele><time>2026-03-29T07:06:01.51Z</time></trkpt><trkpt lat="45.5334235" lon="10.4941972"><ele>244.0</ele><time>2026-03-29T07:06:02.509Z</time></trkpt><trkpt lat="45.5335137" lon="10.494256"><ele>244.0</ele><time>2026-03-29T07:06:03.507Z</time></trkpt><trkpt lat="45.533599" lon="10.494296"><ele>243.99999999999997</ele><time>2026-03-29T07:06:04.509Z</time></trkpt><trkpt lat="45.5336913" lon="10.494327"><ele>243.99999999999997</ele><time>2026-03-29T07:06:05.508Z</time></trkpt><trkpt lat="45.533783" lon="10.4943602"><ele>244.0</ele><time>2026-03-29T07:06:06.508Z</time></trkpt><trkpt lat="45.5338678" lon="10.4943923"><ele>244.0</ele><time>2026-03-29T07:06:07.51Z</time></trkpt><trkpt lat="45.533951" lon="10.4944332"><ele>243.39999999999998</ele><time>2026-03-29T07:06:08.511Z</time></trkpt><trkpt lat="45.5340347" lon="10.4944707"><ele>242.79999999999998</ele><time>2026-03-29T07:06:09.509Z</time></trkpt><trkpt lat="45.5341277" lon="10.4945105"><ele>242.20000000000002</ele><time>2026-03-29T07:06:10.507Z</time></trkpt><trkpt lat="45.5342157" lon="10.4945588"><ele>241.60000000000002</ele><time>2026-03-29T07:06:11.507Z</time></trkpt><trkpt lat="45.5343088" lon="10.4946035"><ele>241.0</ele><time>2026-03-29T07:06:12.507Z</time></trkpt><trkpt lat="45.5343958" lon="10.4946372"><ele>240.0</ele><time>2026-03-29T07:06:13.507Z</time></trkpt><trkpt lat="45.5344823" lon="10.4946662"><ele>239.00000000000003</ele><time>2026-03-29T07:06:14.508Z</time></trkpt><trkpt lat="45.5345665" lon="10.4947083"><ele>238.00000000000003</ele><time>2026-03-29T07:06:15.509Z</time></trkpt><trkpt lat="45.5346657" lon="10.4947778"><ele>237.0</ele><time>2026-03-29T07:06:16.508Z</time></trkpt><trkpt lat="45.5347562" lon="10.4948447"><ele>236.0</ele><time>2026-03-29T07:06:17.509Z</time></trkpt><trkpt lat="45.5348525" lon="10.4949053"><ele>235.8</ele><time>2026-03-29T07:06:18.509Z</time></trkpt><trkpt lat="45.5349628" lon="10.4949557"><ele>235.60000000000002</ele><time>2026-03-29T07:06:19.51Z</time></trkpt><trkpt lat="45.5350748" lon="10.4949925"><ele>235.4</ele><time>2026-03-29T07:06:20.509Z</time></trkpt><trkpt lat="45.5351812" lon="10.4950345"><ele>235.2</ele><time>2026-03-29T07:06:21.51Z</time></trkpt><trkpt lat="45.5352817" lon="10.4950657"><ele>235.0</ele><time>2026-03-29T07:06:22.51Z</time></trkpt><trkpt lat="45.5353762" lon="10.4950888"><ele>234.8</ele><time>2026-03-29T07:06:23.51Z</time></trkpt><trkpt lat="45.5354667" lon="10.4951125"><ele>234.6</ele><time>2026-03-29T07:06:24.51Z</time></trkpt><trkpt lat="45.5355577" lon="10.4951503"><ele>234.39999999999998</ele><time>2026-03-29T07:06:25.509Z</time></trkpt><trkpt lat="45.5356477" lon="10.4951953"><ele>234.2</ele><time>2026-03-29T07:06:26.508Z</time></trkpt><trkpt lat="45.5357473" lon="10.4952627"><ele>234.0</ele><time>2026-03-29T07:06:27.51Z</time></trkpt><trkpt lat="45.5358372" lon="10.4953343"><ele>234.0</ele><time>2026-03-29T07:06:28.507Z</time></trkpt><trkpt lat="45.5359395" lon="10.4954185"><ele>234.0</ele><time>2026-03-29T07:06:29.508Z</time></trkpt><trkpt lat="45.5360515" lon="10.495524"><ele>234.0</ele><time>2026-03-29T07:06:30.507Z</time></trkpt><trkpt lat="45.5361522" lon="10.4956245"><ele>234.0</ele><time>2026-03-29T07:06:31.51Z</time></trkpt><trkpt lat="45.5362357" lon="10.4957308"><ele>234.79999999999998</ele><time>2026-03-29T07:06:32.522Z</time></trkpt><trkpt lat="45.536303" lon="10.495859"><ele>235.59999999999997</ele><time>2026-03-29T07:06:33.509Z</time></trkpt><trkpt lat="45.5363697" lon="10.4959857"><ele>236.4</ele><time>2026-03-29T07:06:34.507Z</time></trkpt><trkpt lat="45.5364337" lon="10.4960802"><ele>237.2</ele><time>2026-03-29T07:06:35.507Z</time></trkpt><trkpt lat="45.5365063" lon="10.4961588"><ele>238.0</ele><time>2026-03-29T07:06:36.507Z</time></trkpt><trkpt lat="45.5365918" lon="10.4962187"><ele>236.2</ele><time>2026-03-29T07:06:37.508Z</time></trkpt><trkpt lat="45.5366855" lon="10.4962555"><ele>234.4</ele><time>2026-03-29T07:06:38.511Z</time></trkpt><trkpt lat="45.536766" lon="10.4962722"><ele>232.59999999999997</ele><time>2026-03-29T07:06:39.509Z</time></trkpt><trkpt lat="45.5368337" lon="10.4962953"><ele>230.79999999999998</ele><time>2026-03-29T07:06:40.508Z</time></trkpt><trkpt lat="45.5369178" lon="10.4963332"><ele>229.0</ele><time>2026-03-29T07:06:41.508Z</time></trkpt><trkpt lat="45.537026" lon="10.4963808"><ele>230.5</ele><time>2026-03-29T07:06:42.509Z</time></trkpt><trkpt lat="45.5371455" lon="10.4964117"><ele>232.0</ele><time>2026-03-29T07:06:43.509Z</time></trkpt><trkpt lat="45.5372803" lon="10.4964123"><ele>233.5</ele><time>2026-03-29T07:06:44.508Z</time></trkpt><trkpt lat="45.537441" lon="10.496388"><ele>235.0</ele><time>2026-03-29T07:06:45.51Z</time></trkpt><trkpt lat="45.5376075" lon="10.4963488"><ele>235.0</ele><time>2026-03-29T07:06:46.51Z</time></trkpt><trkpt lat="45.5377662" lon="10.4963023"><ele>235.0</ele><time>2026-03-29T07:06:47.513Z</time></trkpt><trkpt lat="45.5379235" lon="10.496256"><ele>235.0</ele><time>2026-03-29T07:06:48.512Z</time></trkpt><trkpt lat="45.5380725" lon="10.4962115"><ele>235.75</ele><time>2026-03-29T07:06:49.511Z</time></trkpt><trkpt lat="45.538216" lon="10.4961695"><ele>236.5</ele><time>2026-03-29T07:06:50.512Z</time></trkpt><trkpt lat="45.5383517" lon="10.4961343"><ele>237.25</ele><time>2026-03-29T07:06:51.509Z</time></trkpt><trkpt lat="45.538488" lon="10.4961128"><ele>238.0</ele><time>2026-03-29T07:06:52.51Z</time></trkpt><trkpt lat="45.5386242" lon="10.4960987"><ele>237.75</ele><time>2026-03-29T07:06:53.51Z</time></trkpt><trkpt lat="45.5387658" lon="10.4960913"><ele>237.5</ele><time>2026-03-29T07:06:54.509Z</time></trkpt><trkpt lat="45.5389137" lon="10.4960842"><ele>237.25</ele><time>2026-03-29T07:06:55.511Z</time></trkpt><trkpt lat="45.5390593" lon="10.4960702"><ele>237.0</ele><time>2026-03-29T07:06:56.51Z</time></trkpt><trkpt lat="45.5391982" lon="10.496045"><ele>237.0</ele><time>2026-03-29T07:06:57.51Z</time></trkpt><trkpt lat="45.5393333" lon="10.496004"><ele>237.0</ele><time>2026-03-29T07:06:58.509Z</time></trkpt><trkpt lat="45.5394655" lon="10.4959515"><ele>237.0</ele><time>2026-03-29T07:06:59.507Z</time></trkpt><trkpt lat="45.5395968" lon="10.4958965"><ele>237.0</ele><time>2026-03-29T07:07:00.512Z</time></trkpt><trkpt lat="45.5397272" lon="10.4958415"><ele>238.0</ele><time>2026-03-29T07:07:01.523Z</time></trkpt><trkpt lat="45.539858" lon="10.495792"><ele>239.0</ele><time>2026-03-29T07:07:02.509Z</time></trkpt><trkpt lat="45.5399912" lon="10.4957525"><ele>240.0</ele><time>2026-03-29T07:07:03.51Z</time></trkpt><trkpt lat="45.5401252" lon="10.4957335"><ele>241.0</ele><time>2026-03-29T07:07:04.511Z</time></trkpt><trkpt lat="45.5402597" lon="10.495737"><ele>241.25</ele><time>2026-03-29T07:07:05.509Z</time></trkpt><trkpt lat="45.5403945" lon="10.4957427"><ele>241.5</ele><time>2026-03-29T07:07:06.509Z</time></trkpt><trkpt lat="45.5405415" lon="10.4957435"><ele>241.75</ele><time>2026-03-29T07:07:07.51Z</time></trkpt><trkpt lat="45.5406935" lon="10.495743"><ele>242.0</ele><time>2026-03-29T07:07:08.509Z</time></trkpt><trkpt lat="45.540851" lon="10.4957532"><ele>242.0</ele><time>2026-03-29T07:07:09.51Z</time></trkpt><trkpt lat="45.5410007" lon="10.4957738"><ele>242.0</ele><time>2026-03-29T07:07:10.509Z</time></trkpt><trkpt lat="45.5411442" lon="10.495801"><ele>242.0</ele><time>2026-03-29T07:07:11.51Z</time></trkpt><trkpt lat="45.5412785" lon="10.4958248"><ele>242.0</ele><time>2026-03-29T07:07:12.511Z</time></trkpt><trkpt lat="45.541401" lon="10.495846"><ele>242.0</ele><time>2026-03-29T07:07:13.51Z</time></trkpt><trkpt lat="45.5415107" lon="10.4958723"><ele>242.0</ele><time>2026-03-29T07:07:14.51Z</time></trkpt><trkpt lat="45.541602" lon="10.4959338"><ele>242.0</ele><time>2026-03-29T07:07:15.511Z</time></trkpt><trkpt lat="45.5416705" lon="10.4960507"><ele>242.0</ele><time>2026-03-29T07:07:16.511Z</time></trkpt><trkpt lat="45.5417222" lon="10.4961958"><ele>242.0</ele><time>2026-03-29T07:07:17.509Z</time></trkpt><trkpt lat="45.5417877" lon="10.4963232"><ele>241.25</ele><time>2026-03-29T07:07:18.507Z</time></trkpt><trkpt lat="45.5418853" lon="10.4964167"><ele>240.5</ele><time>2026-03-29T07:07:19.51Z</time></trkpt><trkpt lat="45.5420012" lon="10.496473"><ele>239.75</ele><time>2026-03-29T07:07:20.509Z</time></trkpt><trkpt lat="45.5421278" lon="10.4965063"><ele>239.0</ele><time>2026-03-29T07:07:21.509Z</time></trkpt><trkpt lat="45.542263" lon="10.4965428"><ele>239.0</ele><time>2026-03-29T07:07:22.511Z</time></trkpt><trkpt lat="45.5424027" lon="10.496581"><ele>239.0</ele><time>2026-03-29T07:07:23.508Z</time></trkpt><trkpt lat="45.5425457" lon="10.4966103"><ele>239.0</ele><time>2026-03-29T07:07:24.507Z</time></trkpt><trkpt lat="45.542687" lon="10.4966305"><ele>239.0</ele><time>2026-03-29T07:07:25.508Z</time></trkpt><trkpt lat="45.5428277" lon="10.4966422"><ele>240.25</ele><time>2026-03-29T07:07:26.508Z</time></trkpt><trkpt lat="45.5429622" lon="10.4966488"><ele>241.5</ele><time>2026-03-29T07:07:27.511Z</time></trkpt><trkpt lat="45.5430935" lon="10.4966503"><ele>242.75</ele><time>2026-03-29T07:07:28.511Z</time></trkpt><trkpt lat="45.5432257" lon="10.4966468"><ele>244.0</ele><time>2026-03-29T07:07:29.512Z</time></trkpt><trkpt lat="45.5433608" lon="10.4966448"><ele>244.0</ele><time>2026-03-29T07:07:30.512Z</time></trkpt><trkpt lat="45.5435038" lon="10.4966488"><ele>244.0</ele><time>2026-03-29T07:07:31.512Z</time></trkpt><trkpt lat="45.5436523" lon="10.496659"><ele>244.0</ele><time>2026-03-29T07:07:32.512Z</time></trkpt><trkpt lat="45.5437955" lon="10.4966748"><ele>244.0</ele><time>2026-03-29T07:07:33.512Z</time></trkpt><trkpt lat="45.543934" lon="10.4966947"><ele>243.75</ele><time>2026-03-29T07:07:34.512Z</time></trkpt><trkpt lat="45.5440747" lon="10.4967267"><ele>243.5</ele><time>2026-03-29T07:07:35.512Z</time></trkpt><trkpt lat="45.5442172" lon="10.4967735"><ele>243.25</ele><time>2026-03-29T07:07:36.511Z</time></trkpt><trkpt lat="45.5443615" lon="10.4968283"><ele>243.0</ele><time>2026-03-29T07:07:37.511Z</time></trkpt><trkpt lat="45.5445042" lon="10.4968845"><ele>243.5</ele><time>2026-03-29T07:07:38.512Z</time></trkpt><trkpt lat="45.5446423" lon="10.4969395"><ele>244.0</ele><time>2026-03-29T07:07:39.51Z</time></trkpt><trkpt lat="45.544774" lon="10.4969915"><ele>244.5</ele><time>2026-03-29T07:07:40.515Z</time></trkpt><trkpt lat="45.5449013" lon="10.4970378"><ele>245.0</ele><time>2026-03-29T07:07:41.511Z</time></trkpt><trkpt lat="45.5450258" lon="10.4970858"><ele>245.0</ele><time>2026-03-29T07:07:42.511Z</time></trkpt><trkpt lat="45.5451492" lon="10.4971427"><ele>245.0</ele><time>2026-03-29T07:07:43.511Z</time></trkpt><trkpt lat="45.5452688" lon="10.4972207"><ele>245.0</ele><time>2026-03-29T07:07:44.509Z</time></trkpt><trkpt lat="45.5453815" lon="10.4973167"><ele>245.0</ele><time>2026-03-29T07:07:45.51Z</time></trkpt><trkpt lat="45.5454878" lon="10.4974272"><ele>247.5</ele><time>2026-03-29T07:07:46.51Z</time></trkpt><trkpt lat="45.5455825" lon="10.4975487"><ele>250.0</ele><time>2026-03-29T07:07:47.508Z</time></trkpt><trkpt lat="45.5456682" lon="10.4976648"><ele>252.5</ele><time>2026-03-29T07:07:48.504Z</time></trkpt><trkpt lat="45.5457398" lon="10.4977787"><ele>255.0</ele><time>2026-03-29T07:07:49.507Z</time></trkpt><trkpt lat="45.54581" lon="10.4978822"><ele>253.5</ele><time>2026-03-29T07:07:50.506Z</time></trkpt><trkpt lat="45.5458712" lon="10.4979735"><ele>252.0</ele><time>2026-03-29T07:07:51.507Z</time></trkpt><trkpt lat="45.545926" lon="10.4980523"><ele>250.5</ele><time>2026-03-29T07:07:52.509Z</time></trkpt><trkpt lat="45.54597" lon="10.4981173"><ele>249.0</ele><time>2026-03-29T07:07:53.509Z</time></trkpt><trkpt lat="45.5460457" lon="10.498222"><ele>247.5</ele><time>2026-03-29T07:07:55.51Z</time></trkpt><trkpt lat="45.5461177" lon="10.498208"><ele>246.0</ele><time>2026-03-29T07:07:58.512Z</time></trkpt><trkpt lat="45.546111" lon="10.4980828"><ele>246.0</ele><time>2026-03-29T07:08:00.509Z</time></trkpt><trkpt lat="45.5460778" lon="10.4979862"><ele>246.00000000000003</ele><time>2026-03-29T07:08:01.509Z</time></trkpt><trkpt lat="45.5460423" lon="10.497876"><ele>246.00000000000003</ele><time>2026-03-29T07:08:02.508Z</time></trkpt><trkpt lat="45.5460017" lon="10.4977435"><ele>246.0</ele><time>2026-03-29T07:08:03.508Z</time></trkpt><trkpt lat="45.5459562" lon="10.4976073"><ele>246.0</ele><time>2026-03-29T07:08:04.506Z</time></trkpt><trkpt lat="45.5459035" lon="10.4974665"><ele>247.8</ele><time>2026-03-29T07:08:05.507Z</time></trkpt><trkpt lat="45.545848" lon="10.497321"><ele>249.60000000000002</ele><time>2026-03-29T07:08:06.507Z</time></trkpt><trkpt lat="45.5457962" lon="10.4971775"><ele>251.4</ele><time>2026-03-29T07:08:07.51Z</time></trkpt><trkpt lat="45.5457498" lon="10.4970502"><ele>253.2</ele><time>2026-03-29T07:08:08.508Z</time></trkpt><trkpt lat="45.5457113" lon="10.4969388"><ele>255.0</ele><time>2026-03-29T07:08:09.51Z</time></trkpt><trkpt lat="45.5456802" lon="10.4968402"><ele>255.4</ele><time>2026-03-29T07:08:10.513Z</time></trkpt><trkpt lat="45.5456578" lon="10.4967472"><ele>255.8</ele><time>2026-03-29T07:08:11.508Z</time></trkpt><trkpt lat="45.5456328" lon="10.4966568"><ele>256.2</ele><time>2026-03-29T07:08:12.508Z</time></trkpt><trkpt lat="45.5456167" lon="10.4965072"><ele>256.6</ele><time>2026-03-29T07:08:14.507Z</time></trkpt><trkpt lat="45.5456697" lon="10.496441"><ele>257.0</ele><time>2026-03-29T07:08:16.509Z</time></trkpt><trkpt lat="45.5458058" lon="10.496421"><ele>257.0</ele><time>2026-03-29T07:08:18.511Z</time></trkpt><trkpt lat="45.5459017" lon="10.4964325"><ele>257.0</ele><time>2026-03-29T07:08:19.51Z</time></trkpt><trkpt lat="45.5459908" lon="10.496442"><ele>257.0</ele><time>2026-03-29T07:08:20.51Z</time></trkpt><trkpt lat="45.5460768" lon="10.4964477"><ele>257.0</ele><time>2026-03-29T07:08:21.509Z</time></trkpt><trkpt lat="45.5461708" lon="10.4964493"><ele>257.0</ele><time>2026-03-29T07:08:22.509Z</time></trkpt><trkpt lat="45.54626" lon="10.4964507"><ele>256.83333333333337</ele><time>2026-03-29T07:08:23.51Z</time></trkpt><trkpt lat="45.5463372" lon="10.4964465"><ele>256.6666666666667</ele><time>2026-03-29T07:08:24.509Z</time></trkpt><trkpt lat="45.5464048" lon="10.4964285"><ele>256.5</ele><time>2026-03-29T07:08:25.51Z</time></trkpt><trkpt lat="45.5464762" lon="10.4963892"><ele>256.3333333333333</ele><time>2026-03-29T07:08:26.508Z</time></trkpt><trkpt lat="45.5465355" lon="10.496336"><ele>256.16666666666663</ele><time>2026-03-29T07:08:27.509Z</time></trkpt><trkpt lat="45.546599" lon="10.4962563"><ele>256.0</ele><time>2026-03-29T07:08:28.509Z</time></trkpt><trkpt lat="45.5466533" lon="10.4961573"><ele>256.0</ele><time>2026-03-29T07:08:29.508Z</time></trkpt><trkpt lat="45.5467115" lon="10.4960477"><ele>256.0</ele><time>2026-03-29T07:08:30.509Z</time></trkpt><trkpt lat="45.546769" lon="10.4959335"><ele>256.0</ele><time>2026-03-29T07:08:31.509Z</time></trkpt><trkpt lat="45.5468165" lon="10.4958047"><ele>256.0</ele><time>2026-03-29T07:08:32.509Z</time></trkpt><trkpt lat="45.5468472" lon="10.4956788"><ele>256.0</ele><time>2026-03-29T07:08:33.508Z</time></trkpt><trkpt lat="45.5468642" lon="10.495561"><ele>256.0</ele><time>2026-03-29T07:08:34.51Z</time></trkpt><trkpt lat="45.5468608" lon="10.4954527"><ele>256.0</ele><time>2026-03-29T07:08:35.507Z</time></trkpt><trkpt lat="45.5468335" lon="10.4953592"><ele>256.0</ele><time>2026-03-29T07:08:36.507Z</time></trkpt><trkpt lat="45.5467782" lon="10.4952583"><ele>256.0</ele><time>2026-03-29T07:08:37.506Z</time></trkpt><trkpt lat="45.5467035" lon="10.4951383"><ele>256.0</ele><time>2026-03-29T07:08:38.505Z</time></trkpt><trkpt lat="45.5466393" lon="10.4950165"><ele>255.60000000000002</ele><time>2026-03-29T07:08:39.508Z</time></trkpt><trkpt lat="45.5465852" lon="10.4948873"><ele>255.20000000000002</ele><time>2026-03-29T07:08:40.511Z</time></trkpt><trkpt lat="45.5465453" lon="10.4947625"><ele>254.79999999999998</ele><time>2026-03-29T07:08:41.51Z</time></trkpt><trkpt lat="45.5465232" lon="10.4946427"><ele>254.39999999999998</ele><time>2026-03-29T07:08:42.508Z</time></trkpt><trkpt lat="45.5465258" lon="10.4945228"><ele>254.0</ele><time>2026-03-29T07:08:43.51Z</time></trkpt><trkpt lat="45.5465527" lon="10.4943938"><ele>253.79999999999998</ele><time>2026-03-29T07:08:44.509Z</time></trkpt><trkpt lat="45.5465893" lon="10.4942438"><ele>253.59999999999997</ele><time>2026-03-29T07:08:45.508Z</time></trkpt><trkpt lat="45.546626" lon="10.4940933"><ele>253.4</ele><time>2026-03-29T07:08:46.508Z</time></trkpt><trkpt lat="45.5466658" lon="10.4939493"><ele>253.2</ele><time>2026-03-29T07:08:47.508Z</time></trkpt><trkpt lat="45.5467093" lon="10.4937945"><ele>253.0</ele><time>2026-03-29T07:08:48.511Z</time></trkpt><trkpt lat="45.5467582" lon="10.4936392"><ele>253.0</ele><time>2026-03-29T07:08:49.517Z</time></trkpt><trkpt lat="45.546813" lon="10.4934985"><ele>253.0</ele><time>2026-03-29T07:08:50.508Z</time></trkpt><trkpt lat="45.5468787" lon="10.4933715"><ele>253.0</ele><time>2026-03-29T07:08:51.511Z</time></trkpt><trkpt lat="45.5469545" lon="10.4932508"><ele>253.0</ele><time>2026-03-29T07:08:52.509Z</time></trkpt><trkpt lat="45.5470285" lon="10.4931305"><ele>253.0</ele><time>2026-03-29T07:08:53.508Z</time></trkpt><trkpt lat="45.5471067" lon="10.4929968"><ele>252.75</ele><time>2026-03-29T07:08:54.508Z</time></trkpt><trkpt lat="45.5471767" lon="10.4928537"><ele>252.5</ele><time>2026-03-29T07:08:55.509Z</time></trkpt><trkpt lat="45.5472383" lon="10.4927068"><ele>252.25</ele><time>2026-03-29T07:08:56.509Z</time></trkpt><trkpt lat="45.5472907" lon="10.4925532"><ele>252.0</ele><time>2026-03-29T07:08:57.508Z</time></trkpt><trkpt lat="45.5473352" lon="10.4923993"><ele>252.0</ele><time>2026-03-29T07:08:58.51Z</time></trkpt><trkpt lat="45.5473688" lon="10.4922435"><ele>252.0</ele><time>2026-03-29T07:08:59.507Z</time></trkpt><trkpt lat="45.5474023" lon="10.4920758"><ele>252.0</ele><time>2026-03-29T07:09:00.509Z</time></trkpt><trkpt lat="45.5474438" lon="10.491904"><ele>252.0</ele><time>2026-03-29T07:09:01.507Z</time></trkpt><trkpt lat="45.5474827" lon="10.4917378"><ele>251.75</ele><time>2026-03-29T07:09:02.506Z</time></trkpt><trkpt lat="45.5475238" lon="10.4915728"><ele>251.5</ele><time>2026-03-29T07:09:03.507Z</time></trkpt><trkpt lat="45.5475755" lon="10.491426"><ele>251.25</ele><time>2026-03-29T07:09:04.508Z</time></trkpt><trkpt lat="45.5476477" lon="10.4912885"><ele>251.0</ele><time>2026-03-29T07:09:05.507Z</time></trkpt><trkpt lat="45.5477333" lon="10.4911462"><ele>250.8</ele><time>2026-03-29T07:09:06.508Z</time></trkpt><trkpt lat="45.5478145" lon="10.4910198"><ele>250.60000000000002</ele><time>2026-03-29T07:09:07.512Z</time></trkpt><trkpt lat="45.547886" lon="10.4909022"><ele>250.4</ele><time>2026-03-29T07:09:08.511Z</time></trkpt><trkpt lat="45.5479467" lon="10.49079"><ele>250.2</ele><time>2026-03-29T07:09:09.509Z</time></trkpt><trkpt lat="45.5479985" lon="10.4906697"><ele>250.0</ele><time>2026-03-29T07:09:10.51Z</time></trkpt><trkpt lat="45.5480435" lon="10.490532"><ele>250.0</ele><time>2026-03-29T07:09:11.511Z</time></trkpt><trkpt lat="45.5480832" lon="10.4903885"><ele>250.0</ele><time>2026-03-29T07:09:12.51Z</time></trkpt><trkpt lat="45.548122" lon="10.4902457"><ele>250.0</ele><time>2026-03-29T07:09:13.51Z</time></trkpt><trkpt lat="45.5481652" lon="10.4901015"><ele>250.0</ele><time>2026-03-29T07:09:14.511Z</time></trkpt><trkpt lat="45.5482103" lon="10.4899662"><ele>250.0</ele><time>2026-03-29T07:09:15.509Z</time></trkpt><trkpt lat="45.5482582" lon="10.489848"><ele>250.0</ele><time>2026-03-29T07:09:16.509Z</time></trkpt><trkpt lat="45.5483108" lon="10.4897405"><ele>250.0</ele><time>2026-03-29T07:09:17.51Z</time></trkpt><trkpt lat="45.5483693" lon="10.4896483"><ele>250.0</ele><time>2026-03-29T07:09:18.508Z</time></trkpt><trkpt lat="45.5484452" lon="10.4895573"><ele>250.0</ele><time>2026-03-29T07:09:19.511Z</time></trkpt><trkpt lat="45.5485338" lon="10.4894633"><ele>250.0</ele><time>2026-03-29T07:09:20.508Z</time></trkpt><trkpt lat="45.5486228" lon="10.4893712"><ele>250.0</ele><time>2026-03-29T07:09:21.509Z</time></trkpt><trkpt lat="45.5487032" lon="10.4892785"><ele>250.0</ele><time>2026-03-29T07:09:22.51Z</time></trkpt><trkpt lat="45.5487693" lon="10.4891692"><ele>250.0</ele><time>2026-03-29T07:09:23.509Z</time></trkpt><trkpt lat="45.5488232" lon="10.4890292"><ele>250.0</ele><time>2026-03-29T07:09:24.508Z</time></trkpt><trkpt lat="45.5488755" lon="10.4888603"><ele>250.0</ele><time>2026-03-29T07:09:25.508Z</time></trkpt><trkpt lat="45.5489295" lon="10.4886879"><ele>249.75</ele><time>2026-03-29T07:09:26.507Z</time></trkpt><trkpt lat="45.5489833" lon="10.4885095"><ele>249.5</ele><time>2026-03-29T07:09:27.507Z</time></trkpt><trkpt lat="45.5490316" lon="10.4883372"><ele>249.25</ele><time>2026-03-29T07:09:28.507Z</time></trkpt><trkpt lat="45.5490678" lon="10.4881767"><ele>249.0</ele><time>2026-03-29T07:09:29.507Z</time></trkpt><trkpt lat="45.5490899" lon="10.4880206"><ele>249.0</ele><time>2026-03-29T07:09:30.512Z</time></trkpt><trkpt lat="45.5491074" lon="10.4878637"><ele>248.99999999999997</ele><time>2026-03-29T07:09:31.511Z</time></trkpt><trkpt lat="45.5491245" lon="10.4877127"><ele>248.99999999999997</ele><time>2026-03-29T07:09:32.51Z</time></trkpt><trkpt lat="45.5491422" lon="10.4875672"><ele>249.0</ele><time>2026-03-29T07:09:33.51Z</time></trkpt><trkpt lat="45.5491549" lon="10.4874224"><ele>249.0</ele><time>2026-03-29T07:09:34.51Z</time></trkpt><trkpt lat="45.5491663" lon="10.487274"><ele>249.0</ele><time>2026-03-29T07:09:35.509Z</time></trkpt><trkpt lat="45.5491821" lon="10.4871253"><ele>248.99999999999997</ele><time>2026-03-29T07:09:36.51Z</time></trkpt><trkpt lat="45.5492034" lon="10.4869825"><ele>248.99999999999997</ele><time>2026-03-29T07:09:37.513Z</time></trkpt><trkpt lat="45.5492325" lon="10.4868531"><ele>249.0</ele><time>2026-03-29T07:09:38.511Z</time></trkpt><trkpt lat="45.5492698" lon="10.4867412"><ele>249.0</ele><time>2026-03-29T07:09:39.509Z</time></trkpt><trkpt lat="45.5493188" lon="10.4866467"><ele>249.0</ele><time>2026-03-29T07:09:40.51Z</time></trkpt><trkpt lat="45.5493807" lon="10.4865649"><ele>249.0</ele><time>2026-03-29T07:09:41.511Z</time></trkpt><trkpt lat="45.5494463" lon="10.4864885"><ele>249.0</ele><time>2026-03-29T07:09:42.51Z</time></trkpt><trkpt lat="45.5495152" lon="10.4864132"><ele>249.0</ele><time>2026-03-29T07:09:43.509Z</time></trkpt><trkpt lat="45.5495775" lon="10.4863501"><ele>249.0</ele><time>2026-03-29T07:09:44.509Z</time></trkpt><trkpt lat="45.5496277" lon="10.4862902"><ele>249.0</ele><time>2026-03-29T07:09:45.51Z</time></trkpt><trkpt lat="45.5496363" lon="10.4861357"><ele>249.0</ele><time>2026-03-29T07:09:47.51Z</time></trkpt><trkpt lat="45.5495877" lon="10.4860403"><ele>248.99999999999997</ele><time>2026-03-29T07:09:48.508Z</time></trkpt><trkpt lat="45.5495171" lon="10.4859283"><ele>248.99999999999997</ele><time>2026-03-29T07:09:49.511Z</time></trkpt><trkpt lat="45.54944" lon="10.4858162"><ele>249.0</ele><time>2026-03-29T07:09:50.507Z</time></trkpt><trkpt lat="45.549376" lon="10.4857175"><ele>249.0</ele><time>2026-03-29T07:09:51.509Z</time></trkpt><trkpt lat="45.5493329" lon="10.4856356"><ele>249.5</ele><time>2026-03-29T07:09:52.507Z</time></trkpt><trkpt lat="45.5493128" lon="10.4854844"><ele>250.0</ele><time>2026-03-29T07:09:54.51Z</time></trkpt><trkpt lat="45.5493302" lon="10.4853906"><ele>250.5</ele><time>2026-03-29T07:09:55.511Z</time></trkpt><trkpt lat="45.5493716" lon="10.485292"><ele>251.0</ele><time>2026-03-29T07:09:56.51Z</time></trkpt><trkpt lat="45.5494248" lon="10.4852084"><ele>251.5</ele><time>2026-03-29T07:09:57.511Z</time></trkpt><trkpt lat="45.5494886" lon="10.4851223"><ele>252.0</ele><time>2026-03-29T07:09:58.509Z</time></trkpt><trkpt lat="45.5495675" lon="10.485037"><ele>252.0</ele><time>2026-03-29T07:09:59.51Z</time></trkpt><trkpt lat="45.5496667" lon="10.4849531"><ele>252.0</ele><time>2026-03-29T07:10:00.512Z</time></trkpt><trkpt lat="45.5497675" lon="10.4848686"><ele>252.0</ele><time>2026-03-29T07:10:01.51Z</time></trkpt><trkpt lat="45.5498565" lon="10.4847778"><ele>252.0</ele><time>2026-03-29T07:10:02.509Z</time></trkpt><trkpt lat="45.5499457" lon="10.4846726"><ele>253.25</ele><time>2026-03-29T07:10:03.511Z</time></trkpt><trkpt lat="45.5500475" lon="10.4845552"><ele>254.5</ele><time>2026-03-29T07:10:04.512Z</time></trkpt><trkpt lat="45.5501651" lon="10.484444"><ele>255.75</ele><time>2026-03-29T07:10:05.51Z</time></trkpt><trkpt lat="45.550294" lon="10.484349"><ele>257.0</ele><time>2026-03-29T07:10:06.51Z</time></trkpt><trkpt lat="45.5504238" lon="10.4842659"><ele>257.0</ele><time>2026-03-29T07:10:07.512Z</time></trkpt><trkpt lat="45.5505385" lon="10.4841984"><ele>257.0</ele><time>2026-03-29T07:10:08.512Z</time></trkpt><trkpt lat="45.5506369" lon="10.4841433"><ele>257.0</ele><time>2026-03-29T07:10:09.549Z</time></trkpt><trkpt lat="45.5507243" lon="10.4841121"><ele>257.0</ele><time>2026-03-29T07:10:10.513Z</time></trkpt><trkpt lat="45.5508153" lon="10.4841155"><ele>257.0</ele><time>2026-03-29T07:10:11.524Z</time></trkpt><trkpt lat="45.5509129" lon="10.4841626"><ele>257.0</ele><time>2026-03-29T07:10:12.513Z</time></trkpt><trkpt lat="45.5510237" lon="10.484234"><ele>257.0</ele><time>2026-03-29T07:10:13.526Z</time></trkpt><trkpt lat="45.5511457" lon="10.4843133"><ele>257.0</ele><time>2026-03-29T07:10:14.509Z</time></trkpt><trkpt lat="45.5512828" lon="10.4843597"><ele>257.0</ele><time>2026-03-29T07:10:15.509Z</time></trkpt><trkpt lat="45.5514097" lon="10.4843975"><ele>257.25</ele><time>2026-03-29T07:10:16.51Z</time></trkpt><trkpt lat="45.5515262" lon="10.4844358"><ele>257.5</ele><time>2026-03-29T07:10:17.508Z</time></trkpt><trkpt lat="45.5516467" lon="10.4844835"><ele>257.75</ele><time>2026-03-29T07:10:18.509Z</time></trkpt><trkpt lat="45.5517685" lon="10.4845387"><ele>258.0</ele><time>2026-03-29T07:10:19.51Z</time></trkpt><trkpt lat="45.5518822" lon="10.4846035"><ele>258.0</ele><time>2026-03-29T07:10:20.51Z</time></trkpt><trkpt lat="45.5519972" lon="10.4846768"><ele>258.0</ele><time>2026-03-29T07:10:21.511Z</time></trkpt><trkpt lat="45.5521242" lon="10.4847522"><ele>258.0</ele><time>2026-03-29T07:10:22.509Z</time></trkpt><trkpt lat="45.5522453" lon="10.484824"><ele>258.0</ele><time>2026-03-29T07:10:23.51Z</time></trkpt><trkpt lat="45.552356" lon="10.4848905"><ele>258.6666666666667</ele><time>2026-03-29T07:10:24.509Z</time></trkpt><trkpt lat="45.5524527" lon="10.4849407"><ele>259.3333333333333</ele><time>2026-03-29T07:10:25.509Z</time></trkpt><trkpt lat="45.5525392" lon="10.4849745"><ele>260.0</ele><time>2026-03-29T07:10:26.51Z</time></trkpt><trkpt lat="45.552608" lon="10.48498"><ele>260.66666666666663</ele><time>2026-03-29T07:10:27.509Z</time></trkpt><trkpt lat="45.5526905" lon="10.4849357"><ele>261.3333333333333</ele><time>2026-03-29T07:10:29.507Z</time></trkpt><trkpt lat="45.5527372" lon="10.4848537"><ele>262.0</ele><time>2026-03-29T07:10:31.51Z</time></trkpt><trkpt lat="45.552704" lon="10.4847618"><ele>262.0</ele><time>2026-03-29T07:10:34.51Z</time></trkpt><trkpt lat="45.5526265" lon="10.4847213"><ele>262.0</ele><time>2026-03-29T07:10:36.509Z</time></trkpt><trkpt lat="45.5525272" lon="10.4846658"><ele>262.0</ele><time>2026-03-29T07:10:38.51Z</time></trkpt><trkpt lat="45.5524592" lon="10.48463"><ele>262.0</ele><time>2026-03-29T07:10:39.507Z</time></trkpt><trkpt lat="45.552371" lon="10.4845867"><ele>262.0</ele><time>2026-03-29T07:10:41.506Z</time></trkpt><trkpt lat="45.5522907" lon="10.4845085"><ele>262.6</ele><time>2026-03-29T07:10:43.507Z</time></trkpt><trkpt lat="45.5522255" lon="10.4844177"><ele>263.2</ele><time>2026-03-29T07:10:44.508Z</time></trkpt><trkpt lat="45.5521685" lon="10.4843465"><ele>263.8</ele><time>2026-03-29T07:10:45.508Z</time></trkpt><trkpt lat="45.5520802" lon="10.4842638"><ele>264.4</ele><time>2026-03-29T07:10:47.509Z</time></trkpt><trkpt lat="45.5519995" lon="10.4841692"><ele>265.0</ele><time>2026-03-29T07:10:49.509Z</time></trkpt><trkpt lat="45.5519303" lon="10.4840548"><ele>265.0</ele><time>2026-03-29T07:10:51.509Z</time></trkpt><trkpt lat="45.5518702" lon="10.483901"><ele>265.0</ele><time>2026-03-29T07:10:53.507Z</time></trkpt><trkpt lat="45.551832" lon="10.4838003"><ele>265.0</ele><time>2026-03-29T07:10:54.511Z</time></trkpt><trkpt lat="45.5517982" lon="10.4836862"><ele>265.0</ele><time>2026-03-29T07:10:55.507Z</time></trkpt><trkpt lat="45.5517378" lon="10.4835373"><ele>265.0</ele><time>2026-03-29T07:10:56.507Z</time></trkpt><trkpt lat="45.5516813" lon="10.4833987"><ele>266.2</ele><time>2026-03-29T07:10:57.508Z</time></trkpt><trkpt lat="45.5516323" lon="10.4832555"><ele>267.4</ele><time>2026-03-29T07:10:58.509Z</time></trkpt><trkpt lat="45.5515865" lon="10.4831073"><ele>268.6</ele><time>2026-03-29T07:10:59.508Z</time></trkpt><trkpt lat="45.5515365" lon="10.4829617"><ele>269.8</ele><time>2026-03-29T07:11:00.511Z</time></trkpt><trkpt lat="45.5514845" lon="10.4828357"><ele>271.0</ele><time>2026-03-29T07:11:01.509Z</time></trkpt><trkpt lat="45.551426" lon="10.4827148"><ele>271.5</ele><time>2026-03-29T07:11:02.51Z</time></trkpt><trkpt lat="45.551346" lon="10.4825752"><ele>272.0</ele><time>2026-03-29T07:11:03.51Z</time></trkpt><trkpt lat="45.5512725" lon="10.4824467"><ele>272.5</ele><time>2026-03-29T07:11:04.508Z</time></trkpt><trkpt lat="45.5511763" lon="10.4823172"><ele>273.0</ele><time>2026-03-29T07:11:05.507Z</time></trkpt><trkpt lat="45.5510603" lon="10.4821857"><ele>272.25</ele><time>2026-03-29T07:11:06.507Z</time></trkpt><trkpt lat="45.5509413" lon="10.4820535"><ele>271.5</ele><time>2026-03-29T07:11:07.507Z</time></trkpt><trkpt lat="45.5508255" lon="10.481928"><ele>270.75</ele><time>2026-03-29T07:11:08.509Z</time></trkpt><trkpt lat="45.5507128" lon="10.4818105"><ele>270.0</ele><time>2026-03-29T07:11:09.508Z</time></trkpt><trkpt lat="45.5505993" lon="10.4817018"><ele>270.0</ele><time>2026-03-29T07:11:10.508Z</time></trkpt><trkpt lat="45.5504915" lon="10.4816"><ele>270.0</ele><time>2026-03-29T07:11:11.507Z</time></trkpt><trkpt lat="45.5503878" lon="10.481493"><ele>270.0</ele><time>2026-03-29T07:11:12.509Z</time></trkpt><trkpt lat="45.5502855" lon="10.4813855"><ele>270.0</ele><time>2026-03-29T07:11:13.51Z</time></trkpt><trkpt lat="45.55018" lon="10.4812835"><ele>270.0</ele><time>2026-03-29T07:11:14.509Z</time></trkpt><trkpt lat="45.5500707" lon="10.4811865"><ele>270.0</ele><time>2026-03-29T07:11:15.511Z</time></trkpt><trkpt lat="45.5499592" lon="10.4811092"><ele>270.0</ele><time>2026-03-29T07:11:16.511Z</time></trkpt><trkpt lat="45.5498407" lon="10.4810477"><ele>270.0</ele><time>2026-03-29T07:11:17.512Z</time></trkpt><trkpt lat="45.5497067" lon="10.4809843"><ele>270.0</ele><time>2026-03-29T07:11:18.51Z</time></trkpt><trkpt lat="45.5495627" lon="10.4809188"><ele>270.0</ele><time>2026-03-29T07:11:19.509Z</time></trkpt><trkpt lat="45.549431" lon="10.4808565"><ele>270.0</ele><time>2026-03-29T07:11:20.508Z</time></trkpt><trkpt lat="45.5493198" lon="10.4808008"><ele>270.0</ele><time>2026-03-29T07:11:21.512Z</time></trkpt><trkpt lat="45.5492242" lon="10.4807545"><ele>270.1666666666667</ele><time>2026-03-29T07:11:22.511Z</time></trkpt><trkpt lat="45.549147" lon="10.4807212"><ele>270.3333333333333</ele><time>2026-03-29T07:11:23.511Z</time></trkpt><trkpt lat="45.5490853" lon="10.480694"><ele>270.5</ele><time>2026-03-29T07:11:24.511Z</time></trkpt><trkpt lat="45.549005" lon="10.4806082"><ele>270.66666666666663</ele><time>2026-03-29T07:11:26.511Z</time></trkpt><trkpt lat="45.5489932" lon="10.4804367"><ele>270.8333333333333</ele><time>2026-03-29T07:11:28.509Z</time></trkpt><trkpt lat="45.5489852" lon="10.480336"><ele>271.0</ele><time>2026-03-29T07:11:29.511Z</time></trkpt><trkpt lat="45.5489482" lon="10.4802278"><ele>271.0</ele><time>2026-03-29T07:11:30.507Z</time></trkpt><trkpt lat="45.5488822" lon="10.4801047"><ele>271.0</ele><time>2026-03-29T07:11:31.508Z</time></trkpt><trkpt lat="45.5487952" lon="10.4799663"><ele>271.0</ele><time>2026-03-29T07:11:32.509Z</time></trkpt><trkpt lat="45.5487192" lon="10.4798345"><ele>271.0</ele><time>2026-03-29T07:11:33.508Z</time></trkpt><trkpt lat="45.5486575" lon="10.4796975"><ele>270.0</ele><time>2026-03-29T07:11:34.511Z</time></trkpt><trkpt lat="45.5485948" lon="10.4795342"><ele>269.0</ele><time>2026-03-29T07:11:35.51Z</time></trkpt><trkpt lat="45.5485378" lon="10.4793635"><ele>268.0</ele><time>2026-03-29T07:11:36.51Z</time></trkpt><trkpt lat="45.5484893" lon="10.4791937"><ele>267.0</ele><time>2026-03-29T07:11:37.511Z</time></trkpt><trkpt lat="45.5484433" lon="10.4790158"><ele>267.0</ele><time>2026-03-29T07:11:38.51Z</time></trkpt><trkpt lat="45.548391" lon="10.4788438"><ele>267.0</ele><time>2026-03-29T07:11:39.511Z</time></trkpt><trkpt lat="45.5483353" lon="10.4786762"><ele>267.0</ele><time>2026-03-29T07:11:40.514Z</time></trkpt><trkpt lat="45.5482673" lon="10.4785082"><ele>267.0</ele><time>2026-03-29T07:11:41.51Z</time></trkpt><trkpt lat="45.5481883" lon="10.4783383"><ele>267.25</ele><time>2026-03-29T07:11:42.512Z</time></trkpt><trkpt lat="45.5481113" lon="10.4781788"><ele>267.5</ele><time>2026-03-29T07:11:43.511Z</time></trkpt><trkpt lat="45.5480352" lon="10.4780162"><ele>267.75</ele><time>2026-03-29T07:11:44.509Z</time></trkpt><trkpt lat="45.5479573" lon="10.4778307"><ele>268.0</ele><time>2026-03-29T07:11:45.509Z</time></trkpt><trkpt lat="45.5478737" lon="10.4776237"><ele>270.25</ele><time>2026-03-29T07:11:46.512Z</time></trkpt><trkpt lat="45.5477982" lon="10.4774303"><ele>272.5</ele><time>2026-03-29T07:11:47.514Z</time></trkpt><trkpt lat="45.5477305" lon="10.4772493"><ele>274.75</ele><time>2026-03-29T07:11:48.511Z</time></trkpt><trkpt lat="45.5476663" lon="10.4770838"><ele>277.0</ele><time>2026-03-29T07:11:49.512Z</time></trkpt><trkpt lat="45.5476053" lon="10.4769305"><ele>277.8</ele><time>2026-03-29T07:11:50.509Z</time></trkpt><trkpt lat="45.5475505" lon="10.4767967"><ele>278.6</ele><time>2026-03-29T07:11:51.509Z</time></trkpt><trkpt lat="45.5474987" lon="10.4766808"><ele>279.40000000000003</ele><time>2026-03-29T07:11:52.509Z</time></trkpt><trkpt lat="45.5474512" lon="10.4765998"><ele>280.2</ele><time>2026-03-29T07:11:53.508Z</time></trkpt><trkpt lat="45.5473792" lon="10.4765178"><ele>281.0</ele><time>2026-03-29T07:11:54.507Z</time></trkpt><trkpt lat="45.5473102" lon="10.4764395"><ele>281.0</ele><time>2026-03-29T07:11:55.507Z</time></trkpt><trkpt lat="45.5472452" lon="10.4763572"><ele>281.0</ele><time>2026-03-29T07:11:56.507Z</time></trkpt><trkpt lat="45.547191" lon="10.4762707"><ele>281.0</ele><time>2026-03-29T07:11:57.506Z</time></trkpt><trkpt lat="45.547123" lon="10.4761485"><ele>281.0</ele><time>2026-03-29T07:11:58.507Z</time></trkpt><trkpt lat="45.547059" lon="10.4760158"><ele>281.0</ele><time>2026-03-29T07:11:59.507Z</time></trkpt><trkpt lat="45.5469987" lon="10.4758762"><ele>282.0</ele><time>2026-03-29T07:12:00.508Z</time></trkpt><trkpt lat="45.546942" lon="10.4757505"><ele>283.0</ele><time>2026-03-29T07:12:01.506Z</time></trkpt><trkpt lat="45.5468577" lon="10.4756268"><ele>284.0</ele><time>2026-03-29T07:12:02.506Z</time></trkpt><trkpt lat="45.5467537" lon="10.4755122"><ele>285.0</ele><time>2026-03-29T07:12:03.506Z</time></trkpt><trkpt lat="45.5466502" lon="10.4754055"><ele>285.0</ele><time>2026-03-29T07:12:04.507Z</time></trkpt><trkpt lat="45.5465685" lon="10.4753023"><ele>285.0</ele><time>2026-03-29T07:12:05.506Z</time></trkpt><trkpt lat="45.5465005" lon="10.475208"><ele>285.0</ele><time>2026-03-29T07:12:06.505Z</time></trkpt><trkpt lat="45.5464452" lon="10.4751168"><ele>285.0</ele><time>2026-03-29T07:12:07.506Z</time></trkpt><trkpt lat="45.5463952" lon="10.4750365"><ele>285.0</ele><time>2026-03-29T07:12:08.506Z</time></trkpt><trkpt lat="45.5463532" lon="10.4749622"><ele>285.0</ele><time>2026-03-29T07:12:09.508Z</time></trkpt><trkpt lat="45.5462982" lon="10.4747997"><ele>285.0</ele><time>2026-03-29T07:12:11.508Z</time></trkpt><trkpt lat="45.5462958" lon="10.4746835"><ele>285.0</ele><time>2026-03-29T07:12:12.509Z</time></trkpt><trkpt lat="45.5463245" lon="10.4745437"><ele>285.0</ele><time>2026-03-29T07:12:13.509Z</time></trkpt><trkpt lat="45.5463723" lon="10.4744045"><ele>285.0</ele><time>2026-03-29T07:12:14.509Z</time></trkpt><trkpt lat="45.5464268" lon="10.4742662"><ele>285.0</ele><time>2026-03-29T07:12:15.509Z</time></trkpt><trkpt lat="45.5464797" lon="10.4741273"><ele>284.8</ele><time>2026-03-29T07:12:16.511Z</time></trkpt><trkpt lat="45.546529" lon="10.4739968"><ele>284.6</ele><time>2026-03-29T07:12:17.506Z</time></trkpt><trkpt lat="45.546577" lon="10.473868"><ele>284.4</ele><time>2026-03-29T07:12:18.506Z</time></trkpt><trkpt lat="45.546627" lon="10.473735"><ele>284.2</ele><time>2026-03-29T07:12:19.507Z</time></trkpt><trkpt lat="45.546681" lon="10.473602"><ele>284.0</ele><time>2026-03-29T07:12:20.507Z</time></trkpt><trkpt lat="45.5467345" lon="10.473475"><ele>282.5</ele><time>2026-03-29T07:12:21.51Z</time></trkpt><trkpt lat="45.5467833" lon="10.4733552"><ele>281.0</ele><time>2026-03-29T07:12:22.509Z</time></trkpt><trkpt lat="45.546828" lon="10.4732435"><ele>279.5</ele><time>2026-03-29T07:12:23.511Z</time></trkpt><trkpt lat="45.546869" lon="10.4731342"><ele>278.0</ele><time>2026-03-29T07:12:24.511Z</time></trkpt><trkpt lat="45.5469075" lon="10.4730298"><ele>276.5</ele><time>2026-03-29T07:12:25.51Z</time></trkpt><trkpt lat="45.5469418" lon="10.4729315"><ele>275.0</ele><time>2026-03-29T07:12:26.511Z</time></trkpt><trkpt lat="45.5469758" lon="10.4728395"><ele>274.33333333333337</ele><time>2026-03-29T07:12:27.51Z</time></trkpt><trkpt lat="45.547016" lon="10.4727455"><ele>273.6666666666667</ele><time>2026-03-29T07:12:28.509Z</time></trkpt><trkpt lat="45.5470685" lon="10.4726555"><ele>273.0</ele><time>2026-03-29T07:12:29.51Z</time></trkpt><trkpt lat="45.5471342" lon="10.4725763"><ele>272.3333333333333</ele><time>2026-03-29T07:12:30.51Z</time></trkpt><trkpt lat="45.5472013" lon="10.4725087"><ele>271.66666666666663</ele><time>2026-03-29T07:12:31.509Z</time></trkpt><trkpt lat="45.5472603" lon="10.4724718"><ele>271.0</ele><time>2026-03-29T07:12:32.509Z</time></trkpt><trkpt lat="45.5473707" lon="10.4724948"><ele>271.0</ele><time>2026-03-29T07:12:34.51Z</time></trkpt><trkpt lat="45.547436" lon="10.4725475"><ele>271.0</ele><time>2026-03-29T07:12:35.51Z</time></trkpt><trkpt lat="45.547511" lon="10.4726068"><ele>271.0</ele><time>2026-03-29T07:12:36.516Z</time></trkpt><trkpt lat="45.5475907" lon="10.4726603"><ele>271.0</ele><time>2026-03-29T07:12:37.511Z</time></trkpt><trkpt lat="45.5476737" lon="10.4727137"><ele>271.0</ele><time>2026-03-29T07:12:38.511Z</time></trkpt><trkpt lat="45.5477585" lon="10.4727712"><ele>271.0</ele><time>2026-03-29T07:12:39.51Z</time></trkpt><trkpt lat="45.5478462" lon="10.4728275"><ele>271.40000000000003</ele><time>2026-03-29T07:12:40.511Z</time></trkpt><trkpt lat="45.5479378" lon="10.4728828"><ele>271.8</ele><time>2026-03-29T07:12:41.511Z</time></trkpt><trkpt lat="45.5480323" lon="10.4729438"><ele>272.20000000000005</ele><time>2026-03-29T07:12:42.508Z</time></trkpt><trkpt lat="45.5481233" lon="10.4730018"><ele>272.6</ele><time>2026-03-29T07:12:43.508Z</time></trkpt><trkpt lat="45.5482108" lon="10.4730607"><ele>273.0</ele><time>2026-03-29T07:12:44.508Z</time></trkpt><trkpt lat="45.5482922" lon="10.4731188"><ele>274.8</ele><time>2026-03-29T07:12:45.509Z</time></trkpt><trkpt lat="45.5483673" lon="10.4731752"><ele>276.6</ele><time>2026-03-29T07:12:46.511Z</time></trkpt><trkpt lat="45.548447" lon="10.4732358"><ele>278.4</ele><time>2026-03-29T07:12:47.511Z</time></trkpt><trkpt lat="45.5485317" lon="10.4733028"><ele>280.2</ele><time>2026-03-29T07:12:48.51Z</time></trkpt><trkpt lat="45.5486232" lon="10.4733782"><ele>282.0</ele><time>2026-03-29T07:12:49.51Z</time></trkpt><trkpt lat="45.5487195" lon="10.4734612"><ele>282.0</ele><time>2026-03-29T07:12:50.51Z</time></trkpt><trkpt lat="45.5488152" lon="10.4735473"><ele>282.0</ele><time>2026-03-29T07:12:51.509Z</time></trkpt><trkpt lat="45.5489117" lon="10.47363"><ele>282.0</ele><time>2026-03-29T07:12:52.511Z</time></trkpt><trkpt lat="45.54901" lon="10.473714"><ele>282.0</ele><time>2026-03-29T07:12:53.512Z</time></trkpt><trkpt lat="45.5491103" lon="10.4737925"><ele>284.0</ele><time>2026-03-29T07:12:54.513Z</time></trkpt><trkpt lat="45.5492127" lon="10.4738742"><ele>286.0</ele><time>2026-03-29T07:12:55.512Z</time></trkpt><trkpt lat="45.5493145" lon="10.473969"><ele>288.0</ele><time>2026-03-29T07:12:56.511Z</time></trkpt><trkpt lat="45.5494095" lon="10.4740772"><ele>290.0</ele><time>2026-03-29T07:12:57.51Z</time></trkpt><trkpt lat="45.5495065" lon="10.4742"><ele>289.0</ele><time>2026-03-29T07:12:58.509Z</time></trkpt><trkpt lat="45.549598" lon="10.4743218"><ele>288.0</ele><time>2026-03-29T07:12:59.509Z</time></trkpt><trkpt lat="45.5496912" lon="10.4744363"><ele>287.0</ele><time>2026-03-29T07:13:00.51Z</time></trkpt><trkpt lat="45.5498012" lon="10.4745422"><ele>286.0</ele><time>2026-03-29T07:13:01.509Z</time></trkpt><trkpt lat="45.5499148" lon="10.474647"><ele>288.5</ele><time>2026-03-29T07:13:02.51Z</time></trkpt><trkpt lat="45.5500228" lon="10.474738"><ele>291.0</ele><time>2026-03-29T07:13:03.507Z</time></trkpt><trkpt lat="45.5501292" lon="10.4748212"><ele>293.5</ele><time>2026-03-29T07:13:04.512Z</time></trkpt><trkpt lat="45.5502335" lon="10.4749118"><ele>296.0</ele><time>2026-03-29T07:13:05.509Z</time></trkpt><trkpt lat="45.550332" lon="10.475009"><ele>293.6666666666667</ele><time>2026-03-29T07:13:06.508Z</time></trkpt><trkpt lat="45.5504367" lon="10.4751218"><ele>291.3333333333333</ele><time>2026-03-29T07:13:07.508Z</time></trkpt><trkpt lat="45.5505528" lon="10.4752593"><ele>289.0</ele><time>2026-03-29T07:13:08.508Z</time></trkpt><trkpt lat="45.5506852" lon="10.4754235"><ele>292.0</ele><time>2026-03-29T07:13:09.508Z</time></trkpt><trkpt lat="45.5508245" lon="10.4756048"><ele>295.0</ele><time>2026-03-29T07:13:10.508Z</time></trkpt><trkpt lat="45.5509753" lon="10.4757792"><ele>298.0</ele><time>2026-03-29T07:13:11.508Z</time></trkpt><trkpt lat="45.5511417" lon="10.4759378"><ele>299.0</ele><time>2026-03-29T07:13:12.509Z</time></trkpt><trkpt lat="45.5513207" lon="10.4760802"><ele>300.0</ele><time>2026-03-29T07:13:13.508Z</time></trkpt><trkpt lat="45.5515063" lon="10.4762107"><ele>301.0</ele><time>2026-03-29T07:13:14.511Z</time></trkpt><trkpt lat="45.5516883" lon="10.4763368"><ele>301.0</ele><time>2026-03-29T07:13:15.512Z</time></trkpt><trkpt lat="45.551865" lon="10.4764618"><ele>301.0</ele><time>2026-03-29T07:13:16.513Z</time></trkpt><trkpt lat="45.5520353" lon="10.476592"><ele>301.0</ele><time>2026-03-29T07:13:17.511Z</time></trkpt><trkpt lat="45.5521983" lon="10.4767332"><ele>300.66666666666663</ele><time>2026-03-29T07:13:18.513Z</time></trkpt><trkpt lat="45.5523532" lon="10.47689"><ele>300.3333333333333</ele><time>2026-03-29T07:13:19.511Z</time></trkpt><trkpt lat="45.5525075" lon="10.4770633"><ele>300.0</ele><time>2026-03-29T07:13:20.513Z</time></trkpt><trkpt lat="45.5526657" lon="10.4772368"><ele>301.6666666666667</ele><time>2026-03-29T07:13:21.512Z</time></trkpt><trkpt lat="45.5528217" lon="10.4774008"><ele>303.33333333333337</ele><time>2026-03-29T07:13:22.51Z</time></trkpt><trkpt lat="45.5529688" lon="10.4775543"><ele>305.0</ele><time>2026-03-29T07:13:23.509Z</time></trkpt><trkpt lat="45.5531058" lon="10.4777012"><ele>305.0</ele><time>2026-03-29T07:13:24.51Z</time></trkpt><trkpt lat="45.55323" lon="10.477854"><ele>305.0</ele><time>2026-03-29T07:13:25.509Z</time></trkpt><trkpt lat="45.5533448" lon="10.4780192"><ele>305.0</ele><time>2026-03-29T07:13:26.508Z</time></trkpt><trkpt lat="45.5534412" lon="10.4781782"><ele>307.0</ele><time>2026-03-29T07:13:27.508Z</time></trkpt><trkpt lat="45.5535257" lon="10.4783258"><ele>309.0</ele><time>2026-03-29T07:13:28.509Z</time></trkpt><trkpt lat="45.5536102" lon="10.4784733"><ele>311.0</ele><time>2026-03-29T07:13:29.507Z</time></trkpt><trkpt lat="45.5536927" lon="10.4786228"><ele>313.0</ele><time>2026-03-29T07:13:30.508Z</time></trkpt><trkpt lat="45.5537647" lon="10.478778"><ele>313.0</ele><time>2026-03-29T07:13:31.507Z</time></trkpt><trkpt lat="45.5538275" lon="10.4789468"><ele>313.0</ele><time>2026-03-29T07:13:32.507Z</time></trkpt><trkpt lat="45.5538742" lon="10.479107"><ele>313.0</ele><time>2026-03-29T07:13:33.507Z</time></trkpt><trkpt lat="45.5539045" lon="10.4792752"><ele>313.0</ele><time>2026-03-29T07:13:34.507Z</time></trkpt><trkpt lat="45.5539157" lon="10.479464"><ele>314.3333333333333</ele><time>2026-03-29T07:13:35.508Z</time></trkpt><trkpt lat="45.553934" lon="10.479674"><ele>315.6666666666667</ele><time>2026-03-29T07:13:36.508Z</time></trkpt><trkpt lat="45.5539713" lon="10.4798923"><ele>317.0</ele><time>2026-03-29T07:13:37.507Z</time></trkpt><trkpt lat="45.5540348" lon="10.4801058"><ele>317.0</ele><time>2026-03-29T07:13:38.508Z</time></trkpt><trkpt lat="45.554107" lon="10.4803077"><ele>317.0</ele><time>2026-03-29T07:13:39.508Z</time></trkpt><trkpt lat="45.5541728" lon="10.4804888"><ele>317.0</ele><time>2026-03-29T07:13:40.509Z</time></trkpt><trkpt lat="45.5542237" lon="10.480654"><ele>317.0</ele><time>2026-03-29T07:13:41.508Z</time></trkpt><trkpt lat="45.554254" lon="10.4808082"><ele>317.8</ele><time>2026-03-29T07:13:42.508Z</time></trkpt><trkpt lat="45.5542725" lon="10.480949"><ele>318.6</ele><time>2026-03-29T07:13:43.508Z</time></trkpt><trkpt lat="45.5542822" lon="10.4810595"><ele>319.40000000000003</ele><time>2026-03-29T07:13:44.509Z</time></trkpt><trkpt lat="45.5543323" lon="10.4812088"><ele>320.2</ele><time>2026-03-29T07:13:46.509Z</time></trkpt><trkpt lat="45.5543898" lon="10.4812772"><ele>321.0</ele><time>2026-03-29T07:13:47.511Z</time></trkpt><trkpt lat="45.5544698" lon="10.4813515"><ele>320.75</ele><time>2026-03-29T07:13:48.51Z</time></trkpt><trkpt lat="45.554575" lon="10.4814452"><ele>320.5</ele><time>2026-03-29T07:13:49.51Z</time></trkpt><trkpt lat="45.5546753" lon="10.4815395"><ele>320.25</ele><time>2026-03-29T07:13:50.509Z</time></trkpt><trkpt lat="45.5547762" lon="10.481627"><ele>320.0</ele><time>2026-03-29T07:13:51.51Z</time></trkpt><trkpt lat="45.5548682" lon="10.4817073"><ele>320.0</ele><time>2026-03-29T07:13:52.509Z</time></trkpt><trkpt lat="45.5549495" lon="10.4817828"><ele>320.0</ele><time>2026-03-29T07:13:53.507Z</time></trkpt><trkpt lat="45.5550233" lon="10.4818745"><ele>320.0</ele><time>2026-03-29T07:13:54.507Z</time></trkpt><trkpt lat="45.5550962" lon="10.4819673"><ele>320.0</ele><time>2026-03-29T07:13:55.507Z</time></trkpt><trkpt lat="45.5551787" lon="10.4820602"><ele>320.0</ele><time>2026-03-29T07:13:56.506Z</time></trkpt><trkpt lat="45.5552695" lon="10.482151"><ele>321.25</ele><time>2026-03-29T07:13:57.506Z</time></trkpt><trkpt lat="45.5553737" lon="10.4822387"><ele>322.5</ele><time>2026-03-29T07:13:58.507Z</time></trkpt><trkpt lat="45.5554947" lon="10.4823265"><ele>323.75</ele><time>2026-03-29T07:13:59.507Z</time></trkpt><trkpt lat="45.5556318" lon="10.4824058"><ele>325.0</ele><time>2026-03-29T07:14:00.508Z</time></trkpt><trkpt lat="45.555779" lon="10.482473"><ele>325.0</ele><time>2026-03-29T07:14:01.509Z</time></trkpt><trkpt lat="45.5559167" lon="10.4825462"><ele>325.0</ele><time>2026-03-29T07:14:02.51Z</time></trkpt><trkpt lat="45.5560535" lon="10.4826258"><ele>325.0</ele><time>2026-03-29T07:14:03.51Z</time></trkpt><trkpt lat="45.556197" lon="10.4827085"><ele>325.0</ele><time>2026-03-29T07:14:04.511Z</time></trkpt><trkpt lat="45.5563353" lon="10.4827867"><ele>326.0</ele><time>2026-03-29T07:14:05.511Z</time></trkpt><trkpt lat="45.556457" lon="10.4828542"><ele>327.0</ele><time>2026-03-29T07:14:06.51Z</time></trkpt><trkpt lat="45.5565645" lon="10.4829158"><ele>328.0</ele><time>2026-03-29T07:14:07.512Z</time></trkpt><trkpt lat="45.5566862" lon="10.4829697"><ele>329.0</ele><time>2026-03-29T07:14:08.511Z</time></trkpt><trkpt lat="45.5568195" lon="10.4830042"><ele>329.75</ele><time>2026-03-29T07:14:09.51Z</time></trkpt><trkpt lat="45.5569435" lon="10.4830307"><ele>330.5</ele><time>2026-03-29T07:14:10.513Z</time></trkpt><trkpt lat="45.5570703" lon="10.4830573"><ele>331.25</ele><time>2026-03-29T07:14:11.51Z</time></trkpt><trkpt lat="45.5572023" lon="10.4830837"><ele>332.0</ele><time>2026-03-29T07:14:12.511Z</time></trkpt><trkpt lat="45.5573465" lon="10.4831"><ele>332.0</ele><time>2026-03-29T07:14:13.512Z</time></trkpt><trkpt lat="45.5575043" lon="10.4831173"><ele>332.0</ele><time>2026-03-29T07:14:14.513Z</time></trkpt><trkpt lat="45.5576643" lon="10.4831315"><ele>332.0</ele><time>2026-03-29T07:14:15.513Z</time></trkpt><trkpt lat="45.5578368" lon="10.4831478"><ele>331.33333333333337</ele><time>2026-03-29T07:14:16.514Z</time></trkpt><trkpt lat="45.5580342" lon="10.4831763"><ele>330.6666666666667</ele><time>2026-03-29T07:14:17.512Z</time></trkpt><trkpt lat="45.5582273" lon="10.4832088"><ele>330.0</ele><time>2026-03-29T07:14:18.513Z</time></trkpt><trkpt lat="45.5584127" lon="10.4832418"><ele>330.0</ele><time>2026-03-29T07:14:19.512Z</time></trkpt><trkpt lat="45.5585962" lon="10.4832742"><ele>330.0</ele><time>2026-03-29T07:14:20.509Z</time></trkpt><trkpt lat="45.5587758" lon="10.4833072"><ele>330.0</ele><time>2026-03-29T07:14:21.509Z</time></trkpt><trkpt lat="45.5589597" lon="10.4833432"><ele>329.6666666666667</ele><time>2026-03-29T07:14:22.51Z</time></trkpt><trkpt lat="45.5591477" lon="10.483383"><ele>329.33333333333337</ele><time>2026-03-29T07:14:23.508Z</time></trkpt><trkpt lat="45.5593255" lon="10.4834197"><ele>329.0</ele><time>2026-03-29T07:14:24.511Z</time></trkpt><trkpt lat="45.5594907" lon="10.4834508"><ele>328.25</ele><time>2026-03-29T07:14:25.512Z</time></trkpt><trkpt lat="45.5596397" lon="10.4834755"><ele>327.5</ele><time>2026-03-29T07:14:26.528Z</time></trkpt><trkpt lat="45.5597698" lon="10.4834883"><ele>326.75</ele><time>2026-03-29T07:14:27.511Z</time></trkpt><trkpt lat="45.5598977" lon="10.4834863"><ele>326.0</ele><time>2026-03-29T07:14:28.514Z</time></trkpt><trkpt lat="45.5600237" lon="10.4834703"><ele>326.0</ele><time>2026-03-29T07:14:29.51Z</time></trkpt><trkpt lat="45.5601503" lon="10.4834473"><ele>326.0</ele><time>2026-03-29T07:14:30.511Z</time></trkpt><trkpt lat="45.5602798" lon="10.4834193"><ele>326.0</ele><time>2026-03-29T07:14:31.509Z</time></trkpt><trkpt lat="45.5603998" lon="10.4833795"><ele>326.0</ele><time>2026-03-29T07:14:32.509Z</time></trkpt><trkpt lat="45.5605262" lon="10.4833158"><ele>325.5</ele><time>2026-03-29T07:14:33.509Z</time></trkpt><trkpt lat="45.5606552" lon="10.4832322"><ele>325.0</ele><time>2026-03-29T07:14:34.507Z</time></trkpt><trkpt lat="45.5607797" lon="10.4831548"><ele>324.5</ele><time>2026-03-29T07:14:35.508Z</time></trkpt><trkpt lat="45.5608975" lon="10.4830925"><ele>324.0</ele><time>2026-03-29T07:14:36.508Z</time></trkpt><trkpt lat="45.5610122" lon="10.4830357"><ele>324.0</ele><time>2026-03-29T07:14:37.509Z</time></trkpt><trkpt lat="45.561121" lon="10.4829905"><ele>324.0</ele><time>2026-03-29T07:14:38.509Z</time></trkpt><trkpt lat="45.5612115" lon="10.482956"><ele>324.0</ele><time>2026-03-29T07:14:39.511Z</time></trkpt><trkpt lat="45.561278" lon="10.4829272"><ele>324.0</ele><time>2026-03-29T07:14:40.512Z</time></trkpt><trkpt lat="45.5613333" lon="10.4828403"><ele>324.0</ele><time>2026-03-29T07:14:42.51Z</time></trkpt><trkpt lat="45.5612933" lon="10.4826703"><ele>324.0</ele><time>2026-03-29T07:14:44.507Z</time></trkpt><trkpt lat="45.5612358" lon="10.4825438"><ele>324.0</ele><time>2026-03-29T07:14:45.508Z</time></trkpt><trkpt lat="45.5611662" lon="10.482375"><ele>324.0</ele><time>2026-03-29T07:14:46.508Z</time></trkpt><trkpt lat="45.5610952" lon="10.4821705"><ele>324.0</ele><time>2026-03-29T07:14:47.507Z</time></trkpt><trkpt lat="45.5610208" lon="10.4819557"><ele>323.6666666666667</ele><time>2026-03-29T07:14:48.508Z</time></trkpt><trkpt lat="45.5609422" lon="10.4817547"><ele>323.33333333333337</ele><time>2026-03-29T07:14:49.509Z</time></trkpt><trkpt lat="45.5608557" lon="10.4815742"><ele>323.0</ele><time>2026-03-29T07:14:50.511Z</time></trkpt><trkpt lat="45.5607523" lon="10.481418"><ele>323.0</ele><time>2026-03-29T07:14:51.51Z</time></trkpt><trkpt lat="45.560632" lon="10.481293"><ele>323.0</ele><time>2026-03-29T07:14:52.51Z</time></trkpt><trkpt lat="45.5605012" lon="10.4811987"><ele>323.0</ele><time>2026-03-29T07:14:53.508Z</time></trkpt><trkpt lat="45.5603687" lon="10.481127"><ele>323.0</ele><time>2026-03-29T07:14:54.508Z</time></trkpt><trkpt lat="45.5602362" lon="10.4810613"><ele>326.5</ele><time>2026-03-29T07:14:55.507Z</time></trkpt><trkpt lat="45.5601045" lon="10.4809935"><ele>330.0</ele><time>2026-03-29T07:14:56.51Z</time></trkpt><trkpt lat="45.5599767" lon="10.4809227"><ele>333.5</ele><time>2026-03-29T07:14:57.507Z</time></trkpt><trkpt lat="45.5598707" lon="10.4808378"><ele>337.0</ele><time>2026-03-29T07:14:58.51Z</time></trkpt><trkpt lat="45.5597918" lon="10.4807292"><ele>337.0</ele><time>2026-03-29T07:14:59.508Z</time></trkpt><trkpt lat="45.5597352" lon="10.4805933"><ele>337.0</ele><time>2026-03-29T07:15:00.508Z</time></trkpt><trkpt lat="45.5597063" lon="10.4804243"><ele>337.0</ele><time>2026-03-29T07:15:01.507Z</time></trkpt><trkpt lat="45.5596935" lon="10.4802358"><ele>337.0</ele><time>2026-03-29T07:15:02.507Z</time></trkpt><trkpt lat="45.559681" lon="10.4800568"><ele>338.25</ele><time>2026-03-29T07:15:03.506Z</time></trkpt><trkpt lat="45.5596653" lon="10.4798727"><ele>339.5</ele><time>2026-03-29T07:15:04.506Z</time></trkpt><trkpt lat="45.5596677" lon="10.4796918"><ele>340.75</ele><time>2026-03-29T07:15:05.508Z</time></trkpt><trkpt lat="45.5596812" lon="10.4795163"><ele>342.0</ele><time>2026-03-29T07:15:06.508Z</time></trkpt><trkpt lat="45.5597175" lon="10.4793377"><ele>342.0</ele><time>2026-03-29T07:15:07.509Z</time></trkpt><trkpt lat="45.5597742" lon="10.4791463"><ele>342.0</ele><time>2026-03-29T07:15:08.508Z</time></trkpt><trkpt lat="45.5598363" lon="10.4789422"><ele>342.0</ele><time>2026-03-29T07:15:09.506Z</time></trkpt><trkpt lat="45.5598955" lon="10.4787423"><ele>341.0</ele><time>2026-03-29T07:15:10.508Z</time></trkpt><trkpt lat="45.5599467" lon="10.4785507"><ele>340.0</ele><time>2026-03-29T07:15:11.508Z</time></trkpt><trkpt lat="45.5599853" lon="10.4783583"><ele>339.0</ele><time>2026-03-29T07:15:12.505Z</time></trkpt><trkpt lat="45.560014" lon="10.4781533"><ele>338.0</ele><time>2026-03-29T07:15:13.506Z</time></trkpt><trkpt lat="45.560021" lon="10.4779303"><ele>337.33333333333337</ele><time>2026-03-29T07:15:14.506Z</time></trkpt><trkpt lat="45.5600198" lon="10.4777045"><ele>336.6666666666667</ele><time>2026-03-29T07:15:15.507Z</time></trkpt><trkpt lat="45.5600133" lon="10.4774843"><ele>336.0</ele><time>2026-03-29T07:15:16.508Z</time></trkpt><trkpt lat="45.5600057" lon="10.477275"><ele>334.25</ele><time>2026-03-29T07:15:17.508Z</time></trkpt><trkpt lat="45.5599948" lon="10.477085"><ele>332.5</ele><time>2026-03-29T07:15:18.507Z</time></trkpt><trkpt lat="45.5600003" lon="10.4769145"><ele>330.75</ele><time>2026-03-29T07:15:19.506Z</time></trkpt><trkpt lat="45.5600252" lon="10.4767573"><ele>329.0</ele><time>2026-03-29T07:15:20.506Z</time></trkpt><trkpt lat="45.560074" lon="10.4765995"><ele>329.0</ele><time>2026-03-29T07:15:21.507Z</time></trkpt><trkpt lat="45.5601428" lon="10.476435"><ele>329.0</ele><time>2026-03-29T07:15:22.507Z</time></trkpt><trkpt lat="45.5602242" lon="10.476261"><ele>329.0</ele><time>2026-03-29T07:15:23.506Z</time></trkpt><trkpt lat="45.5603032" lon="10.4761033"><ele>329.0</ele><time>2026-03-29T07:15:24.507Z</time></trkpt><trkpt lat="45.5603768" lon="10.4759647"><ele>327.5</ele><time>2026-03-29T07:15:25.507Z</time></trkpt><trkpt lat="45.5604378" lon="10.4758507"><ele>326.0</ele><time>2026-03-29T07:15:26.508Z</time></trkpt><trkpt lat="45.5604837" lon="10.4757665"><ele>324.5</ele><time>2026-03-29T07:15:27.507Z</time></trkpt><trkpt lat="45.5605333" lon="10.4756795"><ele>323.0</ele><time>2026-03-29T07:15:29.509Z</time></trkpt><trkpt lat="45.5606032" lon="10.4756698"><ele>321.5</ele><time>2026-03-29T07:15:34.507Z</time></trkpt><trkpt lat="45.5606672" lon="10.4757395"><ele>320.0</ele><time>2026-03-29T07:15:41.507Z</time></trkpt><trkpt lat="45.5607742" lon="10.4757808"><ele>320.0</ele><time>2026-03-29T07:15:43.507Z</time></trkpt><trkpt lat="45.5608603" lon="10.4758078"><ele>320.0</ele><time>2026-03-29T07:15:44.506Z</time></trkpt><trkpt lat="45.5609565" lon="10.4758432"><ele>320.0</ele><time>2026-03-29T07:15:45.507Z</time></trkpt><trkpt lat="45.5610583" lon="10.4758947"><ele>320.0</ele><time>2026-03-29T07:15:46.507Z</time></trkpt><trkpt lat="45.561163" lon="10.4759547"><ele>320.0</ele><time>2026-03-29T07:15:47.507Z</time></trkpt><trkpt lat="45.5612695" lon="10.4760197"><ele>319.6</ele><time>2026-03-29T07:15:48.509Z</time></trkpt><trkpt lat="45.5613705" lon="10.476077"><ele>319.2</ele><time>2026-03-29T07:15:49.506Z</time></trkpt><trkpt lat="45.5614573" lon="10.476126"><ele>318.8</ele><time>2026-03-29T07:15:50.506Z</time></trkpt><trkpt lat="45.561536" lon="10.476193"><ele>318.4</ele><time>2026-03-29T07:15:51.505Z</time></trkpt><trkpt lat="45.5616183" lon="10.476289"><ele>318.0</ele><time>2026-03-29T07:15:52.506Z</time></trkpt><trkpt lat="45.5616918" lon="10.4764047"><ele>321.8</ele><time>2026-03-29T07:15:53.507Z</time></trkpt><trkpt lat="45.5617547" lon="10.4765155"><ele>325.6</ele><time>2026-03-29T07:15:54.506Z</time></trkpt><trkpt lat="45.5618313" lon="10.4766127"><ele>329.40000000000003</ele><time>2026-03-29T07:15:55.506Z</time></trkpt><trkpt lat="45.5619262" lon="10.4766965"><ele>333.20000000000005</ele><time>2026-03-29T07:15:56.506Z</time></trkpt><trkpt lat="45.5620353" lon="10.4767703"><ele>337.0</ele><time>2026-03-29T07:15:57.508Z</time></trkpt><trkpt lat="45.5621322" lon="10.4768303"><ele>337.5</ele><time>2026-03-29T07:15:58.505Z</time></trkpt><trkpt lat="45.5622158" lon="10.4768662"><ele>338.0</ele><time>2026-03-29T07:15:59.505Z</time></trkpt><trkpt lat="45.5622857" lon="10.476863"><ele>338.5</ele><time>2026-03-29T07:16:00.505Z</time></trkpt><trkpt lat="45.5623458" lon="10.4768252"><ele>339.0</ele><time>2026-03-29T07:16:01.505Z</time></trkpt><trkpt lat="45.5624108" lon="10.4767607"><ele>339.5</ele><time>2026-03-29T07:16:02.506Z</time></trkpt><trkpt lat="45.5624883" lon="10.4766863"><ele>340.0</ele><time>2026-03-29T07:16:03.505Z</time></trkpt><trkpt lat="45.562571" lon="10.4766102"><ele>340.0</ele><time>2026-03-29T07:16:04.509Z</time></trkpt><trkpt lat="45.5626653" lon="10.4765305"><ele>340.0</ele><time>2026-03-29T07:16:05.509Z</time></trkpt><trkpt lat="45.562766" lon="10.4764505"><ele>340.0</ele><time>2026-03-29T07:16:06.508Z</time></trkpt><trkpt lat="45.562862" lon="10.4763753"><ele>340.0</ele><time>2026-03-29T07:16:07.512Z</time></trkpt><trkpt lat="45.5629595" lon="10.476301"><ele>340.0</ele><time>2026-03-29T07:16:08.508Z</time></trkpt><trkpt lat="45.5630555" lon="10.4762258"><ele>338.75</ele><time>2026-03-29T07:16:09.509Z</time></trkpt><trkpt lat="45.5631543" lon="10.4761483"><ele>337.5</ele><time>2026-03-29T07:16:10.507Z</time></trkpt><trkpt lat="45.5632557" lon="10.4760678"><ele>336.25</ele><time>2026-03-29T07:16:11.512Z</time></trkpt><trkpt lat="45.563359" lon="10.4759845"><ele>335.0</ele><time>2026-03-29T07:16:12.509Z</time></trkpt><trkpt lat="45.5634602" lon="10.4759037"><ele>335.0</ele><time>2026-03-29T07:16:13.509Z</time></trkpt><trkpt lat="45.5635597" lon="10.4758273"><ele>335.0</ele><time>2026-03-29T07:16:14.509Z</time></trkpt><trkpt lat="45.5636487" lon="10.4757578"><ele>335.0</ele><time>2026-03-29T07:16:15.509Z</time></trkpt><trkpt lat="45.5637267" lon="10.4756965"><ele>335.0</ele><time>2026-03-29T07:16:16.508Z</time></trkpt><trkpt lat="45.5637932" lon="10.4756377"><ele>335.0</ele><time>2026-03-29T07:16:17.507Z</time></trkpt><trkpt lat="45.5638435" lon="10.4755747"><ele>335.0</ele><time>2026-03-29T07:16:18.508Z</time></trkpt><trkpt lat="45.5639238" lon="10.4754943"><ele>335.0</ele><time>2026-03-29T07:16:20.507Z</time></trkpt><trkpt lat="45.5640127" lon="10.4755272"><ele>335.0</ele><time>2026-03-29T07:16:22.507Z</time></trkpt><trkpt lat="45.564108" lon="10.4756458"><ele>335.0</ele><time>2026-03-29T07:16:24.508Z</time></trkpt><trkpt lat="45.5641552" lon="10.4757437"><ele>335.0</ele><time>2026-03-29T07:16:25.507Z</time></trkpt><trkpt lat="45.5642105" lon="10.4758743"><ele>335.0</ele><time>2026-03-29T07:16:26.507Z</time></trkpt><trkpt lat="45.564276" lon="10.4760192"><ele>335.0</ele><time>2026-03-29T07:16:27.508Z</time></trkpt><trkpt lat="45.5643508" lon="10.4761788"><ele>335.0</ele><time>2026-03-29T07:16:28.507Z</time></trkpt><trkpt lat="45.5644268" lon="10.4763207"><ele>335.0</ele><time>2026-03-29T07:16:29.507Z</time></trkpt><trkpt lat="45.5644933" lon="10.4764682"><ele>335.0</ele><time>2026-03-29T07:16:30.508Z</time></trkpt><trkpt lat="45.5645567" lon="10.4766138"><ele>335.2</ele><time>2026-03-29T07:16:31.508Z</time></trkpt><trkpt lat="45.5646053" lon="10.476733"><ele>335.4</ele><time>2026-03-29T07:16:32.506Z</time></trkpt><trkpt lat="45.564646" lon="10.4768612"><ele>335.6</ele><time>2026-03-29T07:16:33.507Z</time></trkpt><trkpt lat="45.5646797" lon="10.4769877"><ele>335.8</ele><time>2026-03-29T07:16:34.507Z</time></trkpt><trkpt lat="45.5646987" lon="10.4771132"><ele>336.0</ele><time>2026-03-29T07:16:35.507Z</time></trkpt><trkpt lat="45.5647138" lon="10.477213"><ele>336.0</ele><time>2026-03-29T07:16:36.508Z</time></trkpt><trkpt lat="45.5647245" lon="10.477302"><ele>336.0</ele><time>2026-03-29T07:16:37.508Z</time></trkpt><trkpt lat="45.5647082" lon="10.4774223"><ele>336.0</ele><time>2026-03-29T07:16:39.506Z</time></trkpt><trkpt lat="45.5646618" lon="10.477499"><ele>336.0</ele><time>2026-03-29T07:16:42.505Z</time></trkpt><trkpt lat="45.5646093" lon="10.4775512"><ele>336.0</ele><time>2026-03-29T07:16:44.506Z</time></trkpt><trkpt lat="45.5645253" lon="10.4776598"><ele>336.0</ele><time>2026-03-29T07:16:46.506Z</time></trkpt><trkpt lat="45.5644877" lon="10.4777815"><ele>336.20000000000005</ele><time>2026-03-29T07:16:48.504Z</time></trkpt><trkpt lat="45.5644813" lon="10.4778762"><ele>336.40000000000003</ele><time>2026-03-29T07:16:49.504Z</time></trkpt><trkpt lat="45.5645207" lon="10.4780308"><ele>336.6</ele><time>2026-03-29T07:16:51.507Z</time></trkpt><trkpt lat="45.5646167" lon="10.4781885"><ele>336.8</ele><time>2026-03-29T07:16:53.506Z</time></trkpt><trkpt lat="45.5646885" lon="10.4782628"><ele>337.0</ele><time>2026-03-29T07:16:54.507Z</time></trkpt><trkpt lat="45.5647695" lon="10.4783363"><ele>337.0</ele><time>2026-03-29T07:16:55.507Z</time></trkpt><trkpt lat="45.564864" lon="10.4784285"><ele>337.0</ele><time>2026-03-29T07:16:56.506Z</time></trkpt><trkpt lat="45.564954" lon="10.4785347"><ele>337.0</ele><time>2026-03-29T07:16:57.506Z</time></trkpt><trkpt lat="45.5650232" lon="10.4786135"><ele>337.0</ele><time>2026-03-29T07:16:58.505Z</time></trkpt><trkpt lat="45.5650908" lon="10.4786727"><ele>337.0</ele><time>2026-03-29T07:16:59.505Z</time></trkpt><trkpt lat="45.5651627" lon="10.4787"><ele>337.0</ele><time>2026-03-29T07:17:00.504Z</time></trkpt><trkpt lat="45.5652373" lon="10.4787097"><ele>337.0</ele><time>2026-03-29T07:17:01.506Z</time></trkpt><trkpt lat="45.5653082" lon="10.478725"><ele>337.0</ele><time>2026-03-29T07:17:02.505Z</time></trkpt><trkpt lat="45.5653803" lon="10.478734"><ele>337.0</ele><time>2026-03-29T07:17:03.507Z</time></trkpt><trkpt lat="45.5654627" lon="10.478737"><ele>337.0</ele><time>2026-03-29T07:17:04.506Z</time></trkpt><trkpt lat="45.565544" lon="10.4787453"><ele>337.0</ele><time>2026-03-29T07:17:05.505Z</time></trkpt><trkpt lat="45.5656255" lon="10.478757"><ele>337.16666666666663</ele><time>2026-03-29T07:17:06.507Z</time></trkpt><trkpt lat="45.5657023" lon="10.478771"><ele>337.3333333333333</ele><time>2026-03-29T07:17:07.507Z</time></trkpt><trkpt lat="45.5657823" lon="10.4787808"><ele>337.5</ele><time>2026-03-29T07:17:08.506Z</time></trkpt><trkpt lat="45.5658705" lon="10.4787552"><ele>337.6666666666667</ele><time>2026-03-29T07:17:09.507Z</time></trkpt><trkpt lat="45.5659562" lon="10.4787228"><ele>337.83333333333337</ele><time>2026-03-29T07:17:10.506Z</time></trkpt><trkpt lat="45.5660497" lon="10.4786897"><ele>338.0</ele><time>2026-03-29T07:17:11.503Z</time></trkpt><trkpt lat="45.5661457" lon="10.4786475"><ele>339.2</ele><time>2026-03-29T07:17:12.504Z</time></trkpt><trkpt lat="45.566249" lon="10.4786127"><ele>340.4</ele><time>2026-03-29T07:17:13.506Z</time></trkpt><trkpt lat="45.5663462" lon="10.4785935"><ele>341.59999999999997</ele><time>2026-03-29T07:17:14.504Z</time></trkpt><trkpt lat="45.5664368" lon="10.4785812"><ele>342.79999999999995</ele><time>2026-03-29T07:17:15.507Z</time></trkpt><trkpt lat="45.5665267" lon="10.4785715"><ele>344.0</ele><time>2026-03-29T07:17:16.506Z</time></trkpt><trkpt lat="45.566628" lon="10.478561"><ele>344.0</ele><time>2026-03-29T07:17:17.507Z</time></trkpt><trkpt lat="45.5667297" lon="10.4785518"><ele>344.0</ele><time>2026-03-29T07:17:18.509Z</time></trkpt><trkpt lat="45.5668278" lon="10.4785417"><ele>344.0</ele><time>2026-03-29T07:17:19.506Z</time></trkpt><trkpt lat="45.5669153" lon="10.4785238"><ele>344.0</ele><time>2026-03-29T07:17:20.506Z</time></trkpt><trkpt lat="45.5669953" lon="10.4785048"><ele>344.0</ele><time>2026-03-29T07:17:21.506Z</time></trkpt><trkpt lat="45.5670793" lon="10.4784923"><ele>344.6666666666667</ele><time>2026-03-29T07:17:22.507Z</time></trkpt><trkpt lat="45.5671758" lon="10.4784823"><ele>345.33333333333337</ele><time>2026-03-29T07:17:23.505Z</time></trkpt><trkpt lat="45.5672663" lon="10.4784733"><ele>346.0</ele><time>2026-03-29T07:17:24.506Z</time></trkpt><trkpt lat="45.567339" lon="10.4784705"><ele>346.6666666666667</ele><time>2026-03-29T07:17:25.508Z</time></trkpt><trkpt lat="45.5674287" lon="10.4784648"><ele>347.3333333333333</ele><time>2026-03-29T07:17:26.507Z</time></trkpt><trkpt lat="45.56751" lon="10.4784822"><ele>348.0</ele><time>2026-03-29T07:17:27.507Z</time></trkpt><trkpt lat="45.567591" lon="10.4785058"><ele>348.0</ele><time>2026-03-29T07:17:28.507Z</time></trkpt><trkpt lat="45.5676603" lon="10.4785305"><ele>348.0</ele><time>2026-03-29T07:17:29.505Z</time></trkpt><trkpt lat="45.5677447" lon="10.478548"><ele>348.0</ele><time>2026-03-29T07:17:30.507Z</time></trkpt><trkpt lat="45.5678305" lon="10.4785527"><ele>348.0</ele><time>2026-03-29T07:17:31.507Z</time></trkpt><trkpt lat="45.5679248" lon="10.4785597"><ele>348.0</ele><time>2026-03-29T07:17:32.507Z</time></trkpt><trkpt lat="45.5680107" lon="10.478571"><ele>348.0</ele><time>2026-03-29T07:17:33.507Z</time></trkpt><trkpt lat="45.5681007" lon="10.4785823"><ele>348.5</ele><time>2026-03-29T07:17:34.507Z</time></trkpt><trkpt lat="45.5681853" lon="10.4785925"><ele>349.0</ele><time>2026-03-29T07:17:35.507Z</time></trkpt><trkpt lat="45.568268" lon="10.4786103"><ele>349.5</ele><time>2026-03-29T07:17:36.506Z</time></trkpt><trkpt lat="45.5683363" lon="10.4786238"><ele>350.0</ele><time>2026-03-29T07:17:37.506Z</time></trkpt><trkpt lat="45.5684478" lon="10.4786273"><ele>350.5</ele><time>2026-03-29T07:17:39.506Z</time></trkpt><trkpt lat="45.5685233" lon="10.4786365"><ele>351.0</ele><time>2026-03-29T07:17:41.508Z</time></trkpt><trkpt lat="45.5685973" lon="10.4786672"><ele>351.0</ele><time>2026-03-29T07:17:44.507Z</time></trkpt><trkpt lat="45.5686518" lon="10.4787385"><ele>351.0</ele><time>2026-03-29T07:17:46.508Z</time></trkpt><trkpt lat="45.5686867" lon="10.4788542"><ele>351.0</ele><time>2026-03-29T07:17:48.507Z</time></trkpt><trkpt lat="45.5687352" lon="10.4789695"><ele>351.0</ele><time>2026-03-29T07:17:51.506Z</time></trkpt><trkpt lat="45.5687773" lon="10.4790715"><ele>351.0</ele><time>2026-03-29T07:17:54.509Z</time></trkpt><trkpt lat="45.5688312" lon="10.4791573"><ele>351.0</ele><time>2026-03-29T07:17:56.507Z</time></trkpt><trkpt lat="45.568919" lon="10.479233"><ele>351.20000000000005</ele><time>2026-03-29T07:17:58.506Z</time></trkpt><trkpt lat="45.5689828" lon="10.4792725"><ele>351.40000000000003</ele><time>2026-03-29T07:17:59.509Z</time></trkpt><trkpt lat="45.5690732" lon="10.4793443"><ele>351.6</ele><time>2026-03-29T07:18:01.506Z</time></trkpt><trkpt lat="45.5691315" lon="10.4794282"><ele>351.8</ele><time>2026-03-29T07:18:03.506Z</time></trkpt><trkpt lat="45.56922" lon="10.4795657"><ele>352.0</ele><time>2026-03-29T07:18:05.505Z</time></trkpt><trkpt lat="45.569327" lon="10.479697"><ele>350.20000000000005</ele><time>2026-03-29T07:18:07.508Z</time></trkpt><trkpt lat="45.5694163" lon="10.4797595"><ele>348.4</ele><time>2026-03-29T07:18:08.507Z</time></trkpt><trkpt lat="45.5695068" lon="10.479811"><ele>346.6</ele><time>2026-03-29T07:18:09.506Z</time></trkpt><trkpt lat="45.5695952" lon="10.4798758"><ele>344.79999999999995</ele><time>2026-03-29T07:18:10.507Z</time></trkpt><trkpt lat="45.5696883" lon="10.4799397"><ele>343.0</ele><time>2026-03-29T07:18:11.506Z</time></trkpt><trkpt lat="45.569783" lon="10.4799965"><ele>342.5</ele><time>2026-03-29T07:18:12.506Z</time></trkpt><trkpt lat="45.5698785" lon="10.4800435"><ele>342.0</ele><time>2026-03-29T07:18:13.508Z</time></trkpt><trkpt lat="45.5699698" lon="10.4800795"><ele>341.5</ele><time>2026-03-29T07:18:14.507Z</time></trkpt><trkpt lat="45.5700523" lon="10.480101"><ele>341.0</ele><time>2026-03-29T07:18:15.506Z</time></trkpt><trkpt lat="45.5701328" lon="10.4801262"><ele>340.5</ele><time>2026-03-29T07:18:16.507Z</time></trkpt><trkpt lat="45.5702068" lon="10.4801522"><ele>340.0</ele><time>2026-03-29T07:18:17.506Z</time></trkpt><trkpt lat="45.5702722" lon="10.4801845"><ele>340.0</ele><time>2026-03-29T07:18:18.506Z</time></trkpt><trkpt lat="45.570349" lon="10.4802127"><ele>340.0</ele><time>2026-03-29T07:18:19.507Z</time></trkpt><trkpt lat="45.5704333" lon="10.4802442"><ele>340.0</ele><time>2026-03-29T07:18:20.506Z</time></trkpt><trkpt lat="45.570512" lon="10.4802778"><ele>340.0</ele><time>2026-03-29T07:18:21.507Z</time></trkpt><trkpt lat="45.570593" lon="10.4803348"><ele>340.0</ele><time>2026-03-29T07:18:22.507Z</time></trkpt><trkpt lat="45.5706673" lon="10.480392"><ele>340.0</ele><time>2026-03-29T07:18:23.506Z</time></trkpt><trkpt lat="45.5707397" lon="10.4804555"><ele>336.66666666666663</ele><time>2026-03-29T07:18:24.505Z</time></trkpt><trkpt lat="45.5707967" lon="10.4805105"><ele>333.3333333333333</ele><time>2026-03-29T07:18:25.504Z</time></trkpt><trkpt lat="45.570849" lon="10.4805948"><ele>330.0</ele><time>2026-03-29T07:18:27.504Z</time></trkpt><trkpt lat="45.5708278" lon="10.4807048"><ele>326.6666666666667</ele><time>2026-03-29T07:18:29.505Z</time></trkpt><trkpt lat="45.5707418" lon="10.4807968"><ele>323.33333333333337</ele><time>2026-03-29T07:18:31.505Z</time></trkpt><trkpt lat="45.5706813" lon="10.4808303"><ele>320.0</ele><time>2026-03-29T07:18:32.507Z</time></trkpt><trkpt lat="45.570617" lon="10.480882"><ele>320.0</ele><time>2026-03-29T07:18:33.504Z</time></trkpt><trkpt lat="45.5705573" lon="10.4809612"><ele>320.0</ele><time>2026-03-29T07:18:34.505Z</time></trkpt><trkpt lat="45.5705293" lon="10.4810573"><ele>320.0</ele><time>2026-03-29T07:18:35.505Z</time></trkpt><trkpt lat="45.5705052" lon="10.4811845"><ele>320.0</ele><time>2026-03-29T07:18:36.505Z</time></trkpt><trkpt lat="45.5704908" lon="10.4813558"><ele>320.0</ele><time>2026-03-29T07:18:37.506Z</time></trkpt><trkpt lat="45.5704747" lon="10.4815253"><ele>317.83333333333337</ele><time>2026-03-29T07:18:38.505Z</time></trkpt><trkpt lat="45.570475" lon="10.481674"><ele>315.6666666666667</ele><time>2026-03-29T07:18:39.507Z</time></trkpt><trkpt lat="45.5704698" lon="10.4817875"><ele>313.5</ele><time>2026-03-29T07:18:40.507Z</time></trkpt><trkpt lat="45.5704747" lon="10.4818933"><ele>311.3333333333333</ele><time>2026-03-29T07:18:41.508Z</time></trkpt><trkpt lat="45.5704812" lon="10.4819832"><ele>309.16666666666663</ele><time>2026-03-29T07:18:42.507Z</time></trkpt><trkpt lat="45.570511" lon="10.482085"><ele>307.0</ele><time>2026-03-29T07:18:44.509Z</time></trkpt><trkpt lat="45.570554" lon="10.4821517"><ele>306.5</ele><time>2026-03-29T07:18:45.51Z</time></trkpt><trkpt lat="45.5706247" lon="10.4822007"><ele>306.0</ele><time>2026-03-29T07:18:46.509Z</time></trkpt><trkpt lat="45.5707315" lon="10.4822392"><ele>305.5</ele><time>2026-03-29T07:18:47.509Z</time></trkpt><trkpt lat="45.570861" lon="10.4822708"><ele>305.0</ele><time>2026-03-29T07:18:48.509Z</time></trkpt><trkpt lat="45.5710153" lon="10.4823167"><ele>305.0</ele><time>2026-03-29T07:18:49.508Z</time></trkpt><trkpt lat="45.5711637" lon="10.4823548"><ele>305.0</ele><time>2026-03-29T07:18:50.507Z</time></trkpt><trkpt lat="45.5713053" lon="10.4823793"><ele>305.0</ele><time>2026-03-29T07:18:51.507Z</time></trkpt><trkpt lat="45.5714435" lon="10.4824015"><ele>305.0</ele><time>2026-03-29T07:18:52.509Z</time></trkpt><trkpt lat="45.5715767" lon="10.4824232"><ele>304.0</ele><time>2026-03-29T07:18:53.51Z</time></trkpt><trkpt lat="45.5717048" lon="10.4824427"><ele>303.0</ele><time>2026-03-29T07:18:54.511Z</time></trkpt><trkpt lat="45.5718177" lon="10.4824547"><ele>302.0</ele><time>2026-03-29T07:18:55.511Z</time></trkpt><trkpt lat="45.571914" lon="10.4824583"><ele>301.0</ele><time>2026-03-29T07:18:56.508Z</time></trkpt><trkpt lat="45.5719925" lon="10.4824625"><ele>300.0</ele><time>2026-03-29T07:18:57.508Z</time></trkpt><trkpt lat="45.5720602" lon="10.4824653"><ele>299.6666666666667</ele><time>2026-03-29T07:18:58.507Z</time></trkpt><trkpt lat="45.5721312" lon="10.4824663"><ele>299.3333333333333</ele><time>2026-03-29T07:18:59.507Z</time></trkpt><trkpt lat="45.5722062" lon="10.4824682"><ele>299.0</ele><time>2026-03-29T07:19:00.507Z</time></trkpt><trkpt lat="45.5722798" lon="10.4824713"><ele>298.66666666666663</ele><time>2026-03-29T07:19:01.507Z</time></trkpt><trkpt lat="45.5723602" lon="10.4824825"><ele>298.3333333333333</ele><time>2026-03-29T07:19:02.507Z</time></trkpt><trkpt lat="45.5724427" lon="10.4824947"><ele>298.0</ele><time>2026-03-29T07:19:03.508Z</time></trkpt><trkpt lat="45.5725307" lon="10.4825042"><ele>298.0</ele><time>2026-03-29T07:19:04.509Z</time></trkpt><trkpt lat="45.5726215" lon="10.4825183"><ele>298.0</ele><time>2026-03-29T07:19:05.509Z</time></trkpt><trkpt lat="45.5727145" lon="10.4825305"><ele>298.0</ele><time>2026-03-29T07:19:06.511Z</time></trkpt><trkpt lat="45.5728105" lon="10.4825377"><ele>298.0</ele><time>2026-03-29T07:19:07.512Z</time></trkpt><trkpt lat="45.5729107" lon="10.4825448"><ele>298.0</ele><time>2026-03-29T07:19:08.512Z</time></trkpt><trkpt lat="45.5730175" lon="10.4825525"><ele>296.5</ele><time>2026-03-29T07:19:09.511Z</time></trkpt><trkpt lat="45.5731272" lon="10.482559"><ele>295.0</ele><time>2026-03-29T07:19:10.509Z</time></trkpt><trkpt lat="45.5732427" lon="10.4825665"><ele>293.5</ele><time>2026-03-29T07:19:11.508Z</time></trkpt><trkpt lat="45.573363" lon="10.482576"><ele>292.0</ele><time>2026-03-29T07:19:12.508Z</time></trkpt><trkpt lat="45.5734753" lon="10.482584"><ele>292.0</ele><time>2026-03-29T07:19:13.509Z</time></trkpt><trkpt lat="45.573584" lon="10.4825885"><ele>292.0</ele><time>2026-03-29T07:19:14.509Z</time></trkpt><trkpt lat="45.5737055" lon="10.4825897"><ele>292.0</ele><time>2026-03-29T07:19:15.507Z</time></trkpt><trkpt lat="45.5738347" lon="10.4825953"><ele>292.0</ele><time>2026-03-29T07:19:16.509Z</time></trkpt><trkpt lat="45.573969" lon="10.4826032"><ele>290.66666666666663</ele><time>2026-03-29T07:19:17.508Z</time></trkpt><trkpt lat="45.574111" lon="10.4826087"><ele>289.3333333333333</ele><time>2026-03-29T07:19:18.511Z</time></trkpt><trkpt lat="45.5742678" lon="10.4826125"><ele>288.0</ele><time>2026-03-29T07:19:19.51Z</time></trkpt><trkpt lat="45.5744307" lon="10.4826228"><ele>288.6666666666667</ele><time>2026-03-29T07:19:20.511Z</time></trkpt><trkpt lat="45.5745865" lon="10.4826367"><ele>289.33333333333337</ele><time>2026-03-29T07:19:21.512Z</time></trkpt><trkpt lat="45.5747363" lon="10.482644"><ele>290.0</ele><time>2026-03-29T07:19:22.511Z</time></trkpt><trkpt lat="45.574886" lon="10.4826392"><ele>290.0</ele><time>2026-03-29T07:19:23.51Z</time></trkpt><trkpt lat="45.5750342" lon="10.4826205"><ele>290.0</ele><time>2026-03-29T07:19:24.512Z</time></trkpt><trkpt lat="45.5751833" lon="10.4825938"><ele>290.0</ele><time>2026-03-29T07:19:25.51Z</time></trkpt><trkpt lat="45.5753293" lon="10.4825655"><ele>290.0</ele><time>2026-03-29T07:19:26.51Z</time></trkpt><trkpt lat="45.5754742" lon="10.4825338"><ele>289.0</ele><time>2026-03-29T07:19:27.51Z</time></trkpt><trkpt lat="45.5756125" lon="10.4825018"><ele>288.0</ele><time>2026-03-29T07:19:28.513Z</time></trkpt><trkpt lat="45.5757365" lon="10.4824752"><ele>287.0</ele><time>2026-03-29T07:19:29.511Z</time></trkpt><trkpt lat="45.5758502" lon="10.4824502"><ele>286.0</ele><time>2026-03-29T07:19:30.509Z</time></trkpt><trkpt lat="45.5759662" lon="10.4824323"><ele>286.0</ele><time>2026-03-29T07:19:31.509Z</time></trkpt><trkpt lat="45.5760925" lon="10.4824178"><ele>286.0</ele><time>2026-03-29T07:19:32.509Z</time></trkpt><trkpt lat="45.5762268" lon="10.4824"><ele>286.0</ele><time>2026-03-29T07:19:33.511Z</time></trkpt><trkpt lat="45.5763692" lon="10.4823838"><ele>286.0</ele><time>2026-03-29T07:19:34.513Z</time></trkpt><trkpt lat="45.5765052" lon="10.4823663"><ele>285.5</ele><time>2026-03-29T07:19:35.512Z</time></trkpt><trkpt lat="45.5766323" lon="10.4823527"><ele>285.0</ele><time>2026-03-29T07:19:36.511Z</time></trkpt><trkpt lat="45.5767613" lon="10.4823338"><ele>284.5</ele><time>2026-03-29T07:19:37.511Z</time></trkpt><trkpt lat="45.5768923" lon="10.4823152"><ele>284.0</ele><time>2026-03-29T07:19:38.512Z</time></trkpt><trkpt lat="45.5770242" lon="10.4822978"><ele>283.5</ele><time>2026-03-29T07:19:39.509Z</time></trkpt><trkpt lat="45.5771552" lon="10.4822848"><ele>283.0</ele><time>2026-03-29T07:19:40.509Z</time></trkpt><trkpt lat="45.5772828" lon="10.4822783"><ele>282.5</ele><time>2026-03-29T07:19:41.508Z</time></trkpt><trkpt lat="45.5774137" lon="10.4822747"><ele>282.0</ele><time>2026-03-29T07:19:42.513Z</time></trkpt><trkpt lat="45.577547" lon="10.4822717"><ele>282.0</ele><time>2026-03-29T07:19:43.513Z</time></trkpt><trkpt lat="45.5776808" lon="10.48227"><ele>282.0</ele><time>2026-03-29T07:19:44.513Z</time></trkpt><trkpt lat="45.577816" lon="10.4822682"><ele>282.0</ele><time>2026-03-29T07:19:45.514Z</time></trkpt><trkpt lat="45.5779512" lon="10.482268"><ele>282.0</ele><time>2026-03-29T07:19:46.514Z</time></trkpt><trkpt lat="45.5780898" lon="10.4822705"><ele>280.6666666666667</ele><time>2026-03-29T07:19:47.511Z</time></trkpt><trkpt lat="45.5782342" lon="10.4822732"><ele>279.33333333333337</ele><time>2026-03-29T07:19:48.512Z</time></trkpt><trkpt lat="45.578386" lon="10.482275"><ele>278.0</ele><time>2026-03-29T07:19:49.512Z</time></trkpt><trkpt lat="45.5785427" lon="10.4822762"><ele>277.0</ele><time>2026-03-29T07:19:50.511Z</time></trkpt><trkpt lat="45.5787065" lon="10.4822762"><ele>276.0</ele><time>2026-03-29T07:19:51.511Z</time></trkpt><trkpt lat="45.5788768" lon="10.4822768"><ele>275.0</ele><time>2026-03-29T07:19:52.513Z</time></trkpt><trkpt lat="45.5790505" lon="10.482282"><ele>275.0</ele><time>2026-03-29T07:19:53.511Z</time></trkpt><trkpt lat="45.5792282" lon="10.4822975"><ele>275.0</ele><time>2026-03-29T07:19:54.512Z</time></trkpt><trkpt lat="45.5794082" lon="10.4823297"><ele>275.0</ele><time>2026-03-29T07:19:55.51Z</time></trkpt><trkpt lat="45.5795857" lon="10.482373"><ele>274.0</ele><time>2026-03-29T07:19:56.513Z</time></trkpt><trkpt lat="45.5797632" lon="10.482429"><ele>273.0</ele><time>2026-03-29T07:19:57.511Z</time></trkpt><trkpt lat="45.5799405" lon="10.4824987"><ele>272.0</ele><time>2026-03-29T07:19:58.514Z</time></trkpt><trkpt lat="45.5801205" lon="10.4825808"><ele>272.0</ele><time>2026-03-29T07:19:59.51Z</time></trkpt><trkpt lat="45.5803043" lon="10.48267"><ele>272.0</ele><time>2026-03-29T07:20:00.511Z</time></trkpt><trkpt lat="45.5804888" lon="10.4827602"><ele>272.0</ele><time>2026-03-29T07:20:01.515Z</time></trkpt><trkpt lat="45.5806708" lon="10.4828462"><ele>272.0</ele><time>2026-03-29T07:20:02.512Z</time></trkpt><trkpt lat="45.5808447" lon="10.4829288"><ele>272.0</ele><time>2026-03-29T07:20:03.51Z</time></trkpt><trkpt lat="45.5810012" lon="10.4830017"><ele>272.0</ele><time>2026-03-29T07:20:04.512Z</time></trkpt><trkpt lat="45.5811327" lon="10.483061"><ele>272.2</ele><time>2026-03-29T07:20:05.51Z</time></trkpt><trkpt lat="45.5812385" lon="10.4831085"><ele>272.4</ele><time>2026-03-29T07:20:06.51Z</time></trkpt><trkpt lat="45.5813178" lon="10.483141"><ele>272.6</ele><time>2026-03-29T07:20:07.513Z</time></trkpt><trkpt lat="45.5814128" lon="10.4831403"><ele>272.8</ele><time>2026-03-29T07:20:09.51Z</time></trkpt><trkpt lat="45.581477" lon="10.4830072"><ele>273.0</ele><time>2026-03-29T07:20:11.514Z</time></trkpt><trkpt lat="45.5815122" lon="10.4828815"><ele>273.0</ele><time>2026-03-29T07:20:12.51Z</time></trkpt><trkpt lat="45.5815582" lon="10.48271"><ele>273.0</ele><time>2026-03-29T07:20:13.513Z</time></trkpt><trkpt lat="45.581615" lon="10.4825108"><ele>273.0</ele><time>2026-03-29T07:20:14.511Z</time></trkpt><trkpt lat="45.581678" lon="10.4822977"><ele>273.0</ele><time>2026-03-29T07:20:15.51Z</time></trkpt><trkpt lat="45.5817477" lon="10.4820655"><ele>273.0</ele><time>2026-03-29T07:20:16.512Z</time></trkpt><trkpt lat="45.5818183" lon="10.4818295"><ele>273.0</ele><time>2026-03-29T07:20:17.511Z</time></trkpt><trkpt lat="45.5818948" lon="10.4815742"><ele>273.0</ele><time>2026-03-29T07:20:18.511Z</time></trkpt><trkpt lat="45.5819775" lon="10.4812983"><ele>274.6666666666667</ele><time>2026-03-29T07:20:19.51Z</time></trkpt><trkpt lat="45.5820625" lon="10.4810135"><ele>276.33333333333337</ele><time>2026-03-29T07:20:20.51Z</time></trkpt><trkpt lat="45.5821433" lon="10.4807452"><ele>278.0</ele><time>2026-03-29T07:20:21.509Z</time></trkpt><trkpt lat="45.5822238" lon="10.4804852"><ele>277.6666666666667</ele><time>2026-03-29T07:20:22.51Z</time></trkpt><trkpt lat="45.5823007" lon="10.4802365"><ele>277.3333333333333</ele><time>2026-03-29T07:20:23.51Z</time></trkpt><trkpt lat="45.5823675" lon="10.4799982"><ele>277.0</ele><time>2026-03-29T07:20:24.51Z</time></trkpt><trkpt lat="45.5824107" lon="10.4797593"><ele>277.0</ele><time>2026-03-29T07:20:25.512Z</time></trkpt><trkpt lat="45.5824173" lon="10.4795255"><ele>277.0</ele><time>2026-03-29T07:20:26.51Z</time></trkpt><trkpt lat="45.5823897" lon="10.4792945"><ele>277.0</ele><time>2026-03-29T07:20:27.51Z</time></trkpt><trkpt lat="45.5823393" lon="10.4790522"><ele>277.0</ele><time>2026-03-29T07:20:28.508Z</time></trkpt><trkpt lat="45.5822825" lon="10.478803"><ele>277.0</ele><time>2026-03-29T07:20:29.508Z</time></trkpt><trkpt lat="45.582221" lon="10.4785578"><ele>277.0</ele><time>2026-03-29T07:20:30.508Z</time></trkpt><trkpt lat="45.5821448" lon="10.4783347"><ele>276.3333333333333</ele><time>2026-03-29T07:20:31.509Z</time></trkpt><trkpt lat="45.5820488" lon="10.4781332"><ele>275.6666666666667</ele><time>2026-03-29T07:20:32.51Z</time></trkpt><trkpt lat="45.5819335" lon="10.4779505"><ele>275.0</ele><time>2026-03-29T07:20:33.51Z</time></trkpt><trkpt lat="45.5818007" lon="10.4777938"><ele>275.0</ele><time>2026-03-29T07:20:34.509Z</time></trkpt><trkpt lat="45.5816523" lon="10.4776592"><ele>275.0</ele><time>2026-03-29T07:20:35.526Z</time></trkpt><trkpt lat="45.5815067" lon="10.4775335"><ele>275.0</ele><time>2026-03-29T07:20:36.51Z</time></trkpt><trkpt lat="45.5813835" lon="10.4774175"><ele>275.0</ele><time>2026-03-29T07:20:37.51Z</time></trkpt><trkpt lat="45.5812908" lon="10.4773032"><ele>275.0</ele><time>2026-03-29T07:20:38.507Z</time></trkpt><trkpt lat="45.5812273" lon="10.477171"><ele>275.0</ele><time>2026-03-29T07:20:39.51Z</time></trkpt><trkpt lat="45.5811948" lon="10.4770135"><ele>275.0</ele><time>2026-03-29T07:20:40.51Z</time></trkpt><trkpt lat="45.5811858" lon="10.4768262"><ele>274.5</ele><time>2026-03-29T07:20:41.509Z</time></trkpt><trkpt lat="45.5811853" lon="10.4766158"><ele>274.0</ele><time>2026-03-29T07:20:42.511Z</time></trkpt><trkpt lat="45.5811783" lon="10.4764132"><ele>273.5</ele><time>2026-03-29T07:20:43.511Z</time></trkpt><trkpt lat="45.5811687" lon="10.476215"><ele>273.0</ele><time>2026-03-29T07:20:44.509Z</time></trkpt><trkpt lat="45.5811667" lon="10.4760198"><ele>272.25</ele><time>2026-03-29T07:20:45.508Z</time></trkpt><trkpt lat="45.581176" lon="10.4758307"><ele>271.5</ele><time>2026-03-29T07:20:46.508Z</time></trkpt><trkpt lat="45.5811897" lon="10.4756492"><ele>270.75</ele><time>2026-03-29T07:20:47.508Z</time></trkpt><trkpt lat="45.5812038" lon="10.4754697"><ele>270.0</ele><time>2026-03-29T07:20:48.51Z</time></trkpt><trkpt lat="45.5812207" lon="10.475292"><ele>269.75</ele><time>2026-03-29T07:20:49.51Z</time></trkpt><trkpt lat="45.581246" lon="10.4751233"><ele>269.5</ele><time>2026-03-29T07:20:50.51Z</time></trkpt><trkpt lat="45.5812713" lon="10.4749637"><ele>269.25</ele><time>2026-03-29T07:20:51.507Z</time></trkpt><trkpt lat="45.5812925" lon="10.4748085"><ele>269.0</ele><time>2026-03-29T07:20:52.507Z</time></trkpt><trkpt lat="45.5813088" lon="10.4746545"><ele>268.59999999999997</ele><time>2026-03-29T07:20:53.505Z</time></trkpt><trkpt lat="45.5813187" lon="10.474499"><ele>268.2</ele><time>2026-03-29T07:20:54.506Z</time></trkpt><trkpt lat="45.5813237" lon="10.474338"><ele>267.79999999999995</ele><time>2026-03-29T07:20:55.507Z</time></trkpt><trkpt lat="45.5813222" lon="10.4741775"><ele>267.4</ele><time>2026-03-29T07:20:56.507Z</time></trkpt><trkpt lat="45.581323" lon="10.4740192"><ele>267.0</ele><time>2026-03-29T07:20:57.507Z</time></trkpt><trkpt lat="45.5813285" lon="10.4738605"><ele>265.5</ele><time>2026-03-29T07:20:58.507Z</time></trkpt><trkpt lat="45.5813497" lon="10.4737032"><ele>264.0</ele><time>2026-03-29T07:20:59.508Z</time></trkpt><trkpt lat="45.5813852" lon="10.4735498"><ele>262.5</ele><time>2026-03-29T07:21:00.508Z</time></trkpt><trkpt lat="45.581434" lon="10.4734045"><ele>261.0</ele><time>2026-03-29T07:21:01.509Z</time></trkpt><trkpt lat="45.5814925" lon="10.4732662"><ele>261.0</ele><time>2026-03-29T07:21:02.506Z</time></trkpt><trkpt lat="45.5815583" lon="10.473138"><ele>261.0</ele><time>2026-03-29T07:21:03.508Z</time></trkpt><trkpt lat="45.5816283" lon="10.4730218"><ele>261.0</ele><time>2026-03-29T07:21:04.51Z</time></trkpt><trkpt lat="45.581705" lon="10.4729147"><ele>261.0</ele><time>2026-03-29T07:21:05.509Z</time></trkpt><trkpt lat="45.5818045" lon="10.4728057"><ele>261.6666666666667</ele><time>2026-03-29T07:21:06.509Z</time></trkpt><trkpt lat="45.5819293" lon="10.4726843"><ele>262.33333333333337</ele><time>2026-03-29T07:21:07.509Z</time></trkpt><trkpt lat="45.5820752" lon="10.4725443"><ele>263.0</ele><time>2026-03-29T07:21:08.509Z</time></trkpt><trkpt lat="45.5822282" lon="10.4724072"><ele>263.0</ele><time>2026-03-29T07:21:09.509Z</time></trkpt><trkpt lat="45.5823778" lon="10.4722848"><ele>263.0</ele><time>2026-03-29T07:21:10.508Z</time></trkpt><trkpt lat="45.582527" lon="10.4721668"><ele>263.0</ele><time>2026-03-29T07:21:11.51Z</time></trkpt><trkpt lat="45.5826725" lon="10.472047"><ele>261.0</ele><time>2026-03-29T07:21:12.509Z</time></trkpt><trkpt lat="45.5828083" lon="10.4719145"><ele>259.0</ele><time>2026-03-29T07:21:13.508Z</time></trkpt><trkpt lat="45.5829247" lon="10.4717592"><ele>257.0</ele><time>2026-03-29T07:21:14.511Z</time></trkpt><trkpt lat="45.5830287" lon="10.4715828"><ele>258.0</ele><time>2026-03-29T07:21:15.507Z</time></trkpt><trkpt lat="45.58313" lon="10.4714062"><ele>259.0</ele><time>2026-03-29T07:21:16.507Z</time></trkpt><trkpt lat="45.5832332" lon="10.471237"><ele>260.0</ele><time>2026-03-29T07:21:17.506Z</time></trkpt><trkpt lat="45.5833343" lon="10.4710747"><ele>260.0</ele><time>2026-03-29T07:21:18.507Z</time></trkpt><trkpt lat="45.5834318" lon="10.47092"><ele>260.0</ele><time>2026-03-29T07:21:19.508Z</time></trkpt><trkpt lat="45.5835283" lon="10.4707705"><ele>260.0</ele><time>2026-03-29T07:21:20.507Z</time></trkpt><trkpt lat="45.5836287" lon="10.470633"><ele>260.0</ele><time>2026-03-29T07:21:21.508Z</time></trkpt><trkpt lat="45.5837463" lon="10.4705137"><ele>259.0</ele><time>2026-03-29T07:21:22.507Z</time></trkpt><trkpt lat="45.5838848" lon="10.4704062"><ele>258.0</ele><time>2026-03-29T07:21:23.506Z</time></trkpt><trkpt lat="45.5840285" lon="10.470301"><ele>257.0</ele><time>2026-03-29T07:21:24.507Z</time></trkpt><trkpt lat="45.5841702" lon="10.4701987"><ele>257.0</ele><time>2026-03-29T07:21:25.509Z</time></trkpt><trkpt lat="45.5843088" lon="10.4701002"><ele>257.0</ele><time>2026-03-29T07:21:26.509Z</time></trkpt><trkpt lat="45.5844455" lon="10.470001"><ele>257.0</ele><time>2026-03-29T07:21:27.508Z</time></trkpt><trkpt lat="45.5845775" lon="10.4698952"><ele>257.25</ele><time>2026-03-29T07:21:28.511Z</time></trkpt><trkpt lat="45.5847042" lon="10.4697777"><ele>257.5</ele><time>2026-03-29T07:21:29.508Z</time></trkpt><trkpt lat="45.5848223" lon="10.4696475"><ele>257.75</ele><time>2026-03-29T07:21:30.509Z</time></trkpt><trkpt lat="45.5849312" lon="10.4695082"><ele>258.0</ele><time>2026-03-29T07:21:31.507Z</time></trkpt><trkpt lat="45.5850397" lon="10.4693533"><ele>257.0</ele><time>2026-03-29T07:21:32.507Z</time></trkpt><trkpt lat="45.5851465" lon="10.4691753"><ele>256.0</ele><time>2026-03-29T07:21:33.509Z</time></trkpt><trkpt lat="45.5852497" lon="10.4689765"><ele>255.0</ele><time>2026-03-29T07:21:34.508Z</time></trkpt><trkpt lat="45.5853482" lon="10.4687622"><ele>252.66666666666669</ele><time>2026-03-29T07:21:35.507Z</time></trkpt><trkpt lat="45.5854492" lon="10.4685452"><ele>250.33333333333334</ele><time>2026-03-29T07:21:36.507Z</time></trkpt><trkpt lat="45.5855532" lon="10.46833"><ele>248.0</ele><time>2026-03-29T07:21:37.508Z</time></trkpt><trkpt lat="45.5856552" lon="10.4681123"><ele>248.0</ele><time>2026-03-29T07:21:38.507Z</time></trkpt><trkpt lat="45.5857548" lon="10.4678933"><ele>248.0</ele><time>2026-03-29T07:21:39.508Z</time></trkpt><trkpt lat="45.585855" lon="10.4676773"><ele>248.0</ele><time>2026-03-29T07:21:40.508Z</time></trkpt><trkpt lat="45.5859583" lon="10.4674707"><ele>248.0</ele><time>2026-03-29T07:21:41.504Z</time></trkpt><trkpt lat="45.5860708" lon="10.4672755"><ele>248.0</ele><time>2026-03-29T07:21:42.506Z</time></trkpt><trkpt lat="45.5861893" lon="10.467091"><ele>248.0</ele><time>2026-03-29T07:21:43.506Z</time></trkpt><trkpt lat="45.586309" lon="10.4669163"><ele>250.33333333333334</ele><time>2026-03-29T07:21:44.507Z</time></trkpt><trkpt lat="45.5864268" lon="10.4667477"><ele>252.66666666666669</ele><time>2026-03-29T07:21:45.51Z</time></trkpt><trkpt lat="45.586543" lon="10.4665833"><ele>255.0</ele><time>2026-03-29T07:21:46.511Z</time></trkpt><trkpt lat="45.5866562" lon="10.4664227"><ele>256.0</ele><time>2026-03-29T07:21:47.511Z</time></trkpt><trkpt lat="45.5867673" lon="10.4662638"><ele>257.0</ele><time>2026-03-29T07:21:48.509Z</time></trkpt><trkpt lat="45.5868777" lon="10.466106"><ele>258.0</ele><time>2026-03-29T07:21:49.51Z</time></trkpt><trkpt lat="45.5869847" lon="10.4659535"><ele>258.5</ele><time>2026-03-29T07:21:50.51Z</time></trkpt><trkpt lat="45.5870827" lon="10.465815"><ele>259.0</ele><time>2026-03-29T07:21:51.51Z</time></trkpt><trkpt lat="45.5871722" lon="10.465687"><ele>259.5</ele><time>2026-03-29T07:21:52.512Z</time></trkpt><trkpt lat="45.5872637" lon="10.465559"><ele>260.0</ele><time>2026-03-29T07:21:53.51Z</time></trkpt><trkpt lat="45.587358" lon="10.4654303"><ele>260.25</ele><time>2026-03-29T07:21:54.509Z</time></trkpt><trkpt lat="45.5874557" lon="10.465299"><ele>260.5</ele><time>2026-03-29T07:21:55.511Z</time></trkpt><trkpt lat="45.5875478" lon="10.4651737"><ele>260.75</ele><time>2026-03-29T07:21:56.51Z</time></trkpt><trkpt lat="45.5876292" lon="10.4650683"><ele>261.0</ele><time>2026-03-29T07:21:57.51Z</time></trkpt><trkpt lat="45.5876978" lon="10.4649803"><ele>261.0</ele><time>2026-03-29T07:21:58.511Z</time></trkpt><trkpt lat="45.58775" lon="10.464914"><ele>261.0</ele><time>2026-03-29T07:21:59.509Z</time></trkpt><trkpt lat="45.5878168" lon="10.4648845"><ele>261.0</ele><time>2026-03-29T07:22:01.514Z</time></trkpt><trkpt lat="45.5878878" lon="10.4649893"><ele>261.0</ele><time>2026-03-29T07:22:03.51Z</time></trkpt><trkpt lat="45.5879307" lon="10.4650807"><ele>261.0</ele><time>2026-03-29T07:22:04.516Z</time></trkpt><trkpt lat="45.5879887" lon="10.4651865"><ele>261.0</ele><time>2026-03-29T07:22:05.508Z</time></trkpt><trkpt lat="45.5880512" lon="10.4652892"><ele>262.0</ele><time>2026-03-29T07:22:06.508Z</time></trkpt><trkpt lat="45.5880993" lon="10.4653645"><ele>263.0</ele><time>2026-03-29T07:22:07.509Z</time></trkpt><trkpt lat="45.5881373" lon="10.4654682"><ele>264.0</ele><time>2026-03-29T07:22:09.51Z</time></trkpt><trkpt lat="45.5880927" lon="10.4656152"><ele>265.0</ele><time>2026-03-29T07:22:11.511Z</time></trkpt><trkpt lat="45.5880347" lon="10.4657202"><ele>266.0</ele><time>2026-03-29T07:22:12.511Z</time></trkpt><trkpt lat="45.5879678" lon="10.4658362"><ele>266.5</ele><time>2026-03-29T07:22:13.511Z</time></trkpt><trkpt lat="45.587891" lon="10.4659755"><ele>267.0</ele><time>2026-03-29T07:22:14.51Z</time></trkpt><trkpt lat="45.587818" lon="10.4661122"><ele>267.5</ele><time>2026-03-29T07:22:15.512Z</time></trkpt><trkpt lat="45.5877527" lon="10.4662432"><ele>268.0</ele><time>2026-03-29T07:22:16.513Z</time></trkpt><trkpt lat="45.5876888" lon="10.46638"><ele>267.0</ele><time>2026-03-29T07:22:17.511Z</time></trkpt><trkpt lat="45.587627" lon="10.4665193"><ele>266.0</ele><time>2026-03-29T07:22:18.514Z</time></trkpt><trkpt lat="45.5875757" lon="10.4666638"><ele>265.0</ele><time>2026-03-29T07:22:19.512Z</time></trkpt><trkpt lat="45.5875373" lon="10.466811"><ele>264.0</ele><time>2026-03-29T07:22:20.512Z</time></trkpt><trkpt lat="45.5875127" lon="10.4669613"><ele>263.0</ele><time>2026-03-29T07:22:21.513Z</time></trkpt><trkpt lat="45.5874973" lon="10.4671018"><ele>263.33333333333337</ele><time>2026-03-29T07:22:22.514Z</time></trkpt><trkpt lat="45.5874873" lon="10.4672338"><ele>263.6666666666667</ele><time>2026-03-29T07:22:23.512Z</time></trkpt><trkpt lat="45.587486" lon="10.4673537"><ele>264.0</ele><time>2026-03-29T07:22:24.511Z</time></trkpt><trkpt lat="45.5874988" lon="10.467461"><ele>264.3333333333333</ele><time>2026-03-29T07:22:25.514Z</time></trkpt><trkpt lat="45.5875223" lon="10.4675723"><ele>264.66666666666663</ele><time>2026-03-29T07:22:26.513Z</time></trkpt><trkpt lat="45.5875555" lon="10.4676915"><ele>265.0</ele><time>2026-03-29T07:22:27.511Z</time></trkpt><trkpt lat="45.5875963" lon="10.4678062"><ele>265.0</ele><time>2026-03-29T07:22:28.513Z</time></trkpt><trkpt lat="45.5876527" lon="10.4679068"><ele>265.0</ele><time>2026-03-29T07:22:29.511Z</time></trkpt><trkpt lat="45.5877243" lon="10.4680002"><ele>265.0</ele><time>2026-03-29T07:22:30.509Z</time></trkpt><trkpt lat="45.5878013" lon="10.4680813"><ele>265.0</ele><time>2026-03-29T07:22:31.509Z</time></trkpt><trkpt lat="45.5878715" lon="10.468138"><ele>265.0</ele><time>2026-03-29T07:22:32.511Z</time></trkpt><trkpt lat="45.5879312" lon="10.4681748"><ele>265.0</ele><time>2026-03-29T07:22:33.51Z</time></trkpt><trkpt lat="45.5880287" lon="10.4682633"><ele>265.0</ele><time>2026-03-29T07:22:35.511Z</time></trkpt><trkpt lat="45.588069" lon="10.4683422"><ele>265.0</ele><time>2026-03-29T07:22:36.513Z</time></trkpt><trkpt lat="45.5881153" lon="10.4684447"><ele>265.0</ele><time>2026-03-29T07:22:37.512Z</time></trkpt><trkpt lat="45.588169" lon="10.4685645"><ele>265.0</ele><time>2026-03-29T07:22:38.51Z</time></trkpt><trkpt lat="45.5882292" lon="10.4686912"><ele>265.0</ele><time>2026-03-29T07:22:39.514Z</time></trkpt><trkpt lat="45.588285" lon="10.4688217"><ele>263.5</ele><time>2026-03-29T07:22:40.512Z</time></trkpt><trkpt lat="45.5883395" lon="10.468979"><ele>262.0</ele><time>2026-03-29T07:22:41.512Z</time></trkpt><trkpt lat="45.588395" lon="10.4691627"><ele>260.5</ele><time>2026-03-29T07:22:42.513Z</time></trkpt><trkpt lat="45.5884428" lon="10.469343"><ele>259.0</ele><time>2026-03-29T07:22:43.513Z</time></trkpt><trkpt lat="45.5884847" lon="10.4695105"><ele>258.66666666666663</ele><time>2026-03-29T07:22:44.515Z</time></trkpt><trkpt lat="45.5885313" lon="10.4696603"><ele>258.3333333333333</ele><time>2026-03-29T07:22:45.512Z</time></trkpt><trkpt lat="45.5885792" lon="10.4697882"><ele>258.0</ele><time>2026-03-29T07:22:46.514Z</time></trkpt><trkpt lat="45.5886225" lon="10.469898"><ele>257.6666666666667</ele><time>2026-03-29T07:22:47.513Z</time></trkpt><trkpt lat="45.5886592" lon="10.4699957"><ele>257.33333333333337</ele><time>2026-03-29T07:22:48.513Z</time></trkpt><trkpt lat="45.5886847" lon="10.4700805"><ele>257.0</ele><time>2026-03-29T07:22:49.513Z</time></trkpt><trkpt lat="45.5887125" lon="10.4702497"><ele>258.0</ele><time>2026-03-29T07:22:51.513Z</time></trkpt><trkpt lat="45.5887252" lon="10.4703655"><ele>259.0</ele><time>2026-03-29T07:22:52.51Z</time></trkpt><trkpt lat="45.5887305" lon="10.4704965"><ele>260.0</ele><time>2026-03-29T07:22:53.513Z</time></trkpt><trkpt lat="45.5887372" lon="10.4706215"><ele>261.0</ele><time>2026-03-29T07:22:54.508Z</time></trkpt><trkpt lat="45.5887475" lon="10.4707357"><ele>262.0</ele><time>2026-03-29T07:22:55.508Z</time></trkpt><trkpt lat="45.588755" lon="10.4708365"><ele>263.0</ele><time>2026-03-29T07:22:56.509Z</time></trkpt><trkpt lat="45.5887533" lon="10.4709392"><ele>263.0</ele><time>2026-03-29T07:22:57.508Z</time></trkpt><trkpt lat="45.5887588" lon="10.4710355"><ele>263.0</ele><time>2026-03-29T07:22:58.509Z</time></trkpt><trkpt lat="45.588759" lon="10.471158"><ele>263.0</ele><time>2026-03-29T07:22:59.509Z</time></trkpt><trkpt lat="45.5887582" lon="10.4712997"><ele>263.0</ele><time>2026-03-29T07:23:00.512Z</time></trkpt><trkpt lat="45.5887587" lon="10.4714455"><ele>263.0</ele><time>2026-03-29T07:23:01.51Z</time></trkpt><trkpt lat="45.5887568" lon="10.4716097"><ele>263.25</ele><time>2026-03-29T07:23:02.511Z</time></trkpt><trkpt lat="45.5887635" lon="10.4717843"><ele>263.5</ele><time>2026-03-29T07:23:03.511Z</time></trkpt><trkpt lat="45.5887708" lon="10.4719625"><ele>263.75</ele><time>2026-03-29T07:23:04.515Z</time></trkpt><trkpt lat="45.5887825" lon="10.4721342"><ele>264.0</ele><time>2026-03-29T07:23:05.51Z</time></trkpt><trkpt lat="45.5887967" lon="10.4722905"><ele>264.4</ele><time>2026-03-29T07:23:06.51Z</time></trkpt><trkpt lat="45.5888127" lon="10.4724497"><ele>264.79999999999995</ele><time>2026-03-29T07:23:07.511Z</time></trkpt><trkpt lat="45.588834" lon="10.4726182"><ele>265.20000000000005</ele><time>2026-03-29T07:23:08.51Z</time></trkpt><trkpt lat="45.5888555" lon="10.4727795"><ele>265.6</ele><time>2026-03-29T07:23:09.511Z</time></trkpt><trkpt lat="45.5888745" lon="10.4729223"><ele>266.0</ele><time>2026-03-29T07:23:10.511Z</time></trkpt><trkpt lat="45.588892" lon="10.4730408"><ele>266.1666666666667</ele><time>2026-03-29T07:23:11.513Z</time></trkpt><trkpt lat="45.5889095" lon="10.4731432"><ele>266.33333333333337</ele><time>2026-03-29T07:23:12.51Z</time></trkpt><trkpt lat="45.5889248" lon="10.4732343"><ele>266.5</ele><time>2026-03-29T07:23:13.51Z</time></trkpt><trkpt lat="45.5889527" lon="10.473409"><ele>266.6666666666667</ele><time>2026-03-29T07:23:15.51Z</time></trkpt><trkpt lat="45.5889585" lon="10.4735023"><ele>266.8333333333333</ele><time>2026-03-29T07:23:16.51Z</time></trkpt><trkpt lat="45.5889598" lon="10.4736037"><ele>267.0</ele><time>2026-03-29T07:23:17.51Z</time></trkpt><trkpt lat="45.5889562" lon="10.4737147"><ele>266.8</ele><time>2026-03-29T07:23:18.509Z</time></trkpt><trkpt lat="45.5889467" lon="10.4738497"><ele>266.6</ele><time>2026-03-29T07:23:19.507Z</time></trkpt><trkpt lat="45.5889322" lon="10.4740235"><ele>266.40000000000003</ele><time>2026-03-29T07:23:20.507Z</time></trkpt><trkpt lat="45.5889115" lon="10.474192"><ele>266.2</ele><time>2026-03-29T07:23:21.507Z</time></trkpt><trkpt lat="45.5888925" lon="10.4743418"><ele>266.0</ele><time>2026-03-29T07:23:22.51Z</time></trkpt><trkpt lat="45.5888795" lon="10.4744857"><ele>265.6</ele><time>2026-03-29T07:23:23.512Z</time></trkpt><trkpt lat="45.588877" lon="10.4746275"><ele>265.20000000000005</ele><time>2026-03-29T07:23:24.51Z</time></trkpt><trkpt lat="45.5888838" lon="10.4747632"><ele>264.79999999999995</ele><time>2026-03-29T07:23:25.51Z</time></trkpt><trkpt lat="45.5888955" lon="10.4748888"><ele>264.4</ele><time>2026-03-29T07:23:26.512Z</time></trkpt><trkpt lat="45.5889048" lon="10.4750187"><ele>264.0</ele><time>2026-03-29T07:23:27.509Z</time></trkpt><trkpt lat="45.5889052" lon="10.4751312"><ele>264.0</ele><time>2026-03-29T07:23:28.509Z</time></trkpt><trkpt lat="45.5889007" lon="10.4752387"><ele>264.0</ele><time>2026-03-29T07:23:29.51Z</time></trkpt><trkpt lat="45.588888" lon="10.4753478"><ele>264.0</ele><time>2026-03-29T07:23:30.51Z</time></trkpt><trkpt lat="45.5888715" lon="10.4754552"><ele>264.0</ele><time>2026-03-29T07:23:31.51Z</time></trkpt><trkpt lat="45.5888522" lon="10.4755517"><ele>264.0</ele><time>2026-03-29T07:23:32.51Z</time></trkpt><trkpt lat="45.588835" lon="10.4756393"><ele>264.0</ele><time>2026-03-29T07:23:33.511Z</time></trkpt><trkpt lat="45.5888252" lon="10.4757293"><ele>264.0</ele><time>2026-03-29T07:23:34.514Z</time></trkpt><trkpt lat="45.5888258" lon="10.4758377"><ele>264.2</ele><time>2026-03-29T07:23:35.511Z</time></trkpt><trkpt lat="45.588843" lon="10.4759682"><ele>264.4</ele><time>2026-03-29T07:23:36.511Z</time></trkpt><trkpt lat="45.5888737" lon="10.4761017"><ele>264.6</ele><time>2026-03-29T07:23:37.515Z</time></trkpt><trkpt lat="45.5889075" lon="10.4762435"><ele>264.8</ele><time>2026-03-29T07:23:38.511Z</time></trkpt><trkpt lat="45.5889277" lon="10.4763987"><ele>265.0</ele><time>2026-03-29T07:23:39.514Z</time></trkpt><trkpt lat="45.58894" lon="10.4765785"><ele>265.25</ele><time>2026-03-29T07:23:40.512Z</time></trkpt><trkpt lat="45.5889503" lon="10.4767698"><ele>265.5</ele><time>2026-03-29T07:23:41.512Z</time></trkpt><trkpt lat="45.5889612" lon="10.4769448"><ele>265.75</ele><time>2026-03-29T07:23:42.511Z</time></trkpt><trkpt lat="45.5889713" lon="10.4771362"><ele>266.0</ele><time>2026-03-29T07:23:43.509Z</time></trkpt><trkpt lat="45.5889785" lon="10.4773237"><ele>267.2</ele><time>2026-03-29T07:23:44.509Z</time></trkpt><trkpt lat="45.5889837" lon="10.4774813"><ele>268.40000000000003</ele><time>2026-03-29T07:23:45.509Z</time></trkpt><trkpt lat="45.5889912" lon="10.4776177"><ele>269.6</ele><time>2026-03-29T07:23:46.509Z</time></trkpt><trkpt lat="45.5889955" lon="10.4777555"><ele>270.8</ele><time>2026-03-29T07:23:47.51Z</time></trkpt><trkpt lat="45.5889968" lon="10.4778882"><ele>272.0</ele><time>2026-03-29T07:23:48.513Z</time></trkpt><trkpt lat="45.5890037" lon="10.4779957"><ele>272.6</ele><time>2026-03-29T07:23:49.512Z</time></trkpt><trkpt lat="45.5890548" lon="10.4781253"><ele>273.2</ele><time>2026-03-29T07:23:51.513Z</time></trkpt><trkpt lat="45.5891837" lon="10.4781673"><ele>273.8</ele><time>2026-03-29T07:23:53.511Z</time></trkpt><trkpt lat="45.589283" lon="10.4781932"><ele>274.4</ele><time>2026-03-29T07:23:54.513Z</time></trkpt><trkpt lat="45.5893888" lon="10.4782312"><ele>275.0</ele><time>2026-03-29T07:23:55.512Z</time></trkpt><trkpt lat="45.5894985" lon="10.4782757"><ele>275.5</ele><time>2026-03-29T07:23:56.512Z</time></trkpt><trkpt lat="45.5896097" lon="10.4783288"><ele>276.0</ele><time>2026-03-29T07:23:57.512Z</time></trkpt><trkpt lat="45.5897295" lon="10.4784015"><ele>276.5</ele><time>2026-03-29T07:23:58.513Z</time></trkpt><trkpt lat="45.5898508" lon="10.4784903"><ele>277.0</ele><time>2026-03-29T07:23:59.512Z</time></trkpt><trkpt lat="45.589967" lon="10.4785888"><ele>277.0</ele><time>2026-03-29T07:24:00.512Z</time></trkpt><trkpt lat="45.5900927" lon="10.4786967"><ele>277.0</ele><time>2026-03-29T07:24:01.511Z</time></trkpt><trkpt lat="45.5902162" lon="10.4787935"><ele>277.0</ele><time>2026-03-29T07:24:02.512Z</time></trkpt><trkpt lat="45.5903345" lon="10.4788727"><ele>277.0</ele><time>2026-03-29T07:24:03.511Z</time></trkpt><trkpt lat="45.5904523" lon="10.4789373"><ele>278.0</ele><time>2026-03-29T07:24:04.513Z</time></trkpt><trkpt lat="45.5905772" lon="10.479008"><ele>279.0</ele><time>2026-03-29T07:24:05.511Z</time></trkpt><trkpt lat="45.590704" lon="10.4790928"><ele>280.0</ele><time>2026-03-29T07:24:06.512Z</time></trkpt><trkpt lat="45.590822" lon="10.4791765"><ele>281.0</ele><time>2026-03-29T07:24:07.51Z</time></trkpt><trkpt lat="45.5909247" lon="10.4792532"><ele>281.0</ele><time>2026-03-29T07:24:08.508Z</time></trkpt><trkpt lat="45.5910152" lon="10.4793195"><ele>281.0</ele><time>2026-03-29T07:24:09.509Z</time></trkpt><trkpt lat="45.5911032" lon="10.4793737"><ele>281.0</ele><time>2026-03-29T07:24:10.507Z</time></trkpt><trkpt lat="45.5911943" lon="10.4794092"><ele>281.0</ele><time>2026-03-29T07:24:11.508Z</time></trkpt><trkpt lat="45.5912862" lon="10.479435"><ele>281.0</ele><time>2026-03-29T07:24:12.511Z</time></trkpt><trkpt lat="45.5913813" lon="10.4794592"><ele>281.2</ele><time>2026-03-29T07:24:13.509Z</time></trkpt><trkpt lat="45.5914855" lon="10.4794865"><ele>281.40000000000003</ele><time>2026-03-29T07:24:14.509Z</time></trkpt><trkpt lat="45.5915987" lon="10.4795165"><ele>281.6</ele><time>2026-03-29T07:24:15.51Z</time></trkpt><trkpt lat="45.5917057" lon="10.4795403"><ele>281.8</ele><time>2026-03-29T07:24:16.509Z</time></trkpt><trkpt lat="45.591812" lon="10.4795703"><ele>282.0</ele><time>2026-03-29T07:24:17.51Z</time></trkpt><trkpt lat="45.5919248" lon="10.4796097"><ele>284.0</ele><time>2026-03-29T07:24:18.507Z</time></trkpt><trkpt lat="45.5920425" lon="10.4796577"><ele>286.0</ele><time>2026-03-29T07:24:19.507Z</time></trkpt><trkpt lat="45.5921553" lon="10.479715"><ele>288.0</ele><time>2026-03-29T07:24:20.508Z</time></trkpt><trkpt lat="45.5922642" lon="10.4797845"><ele>290.0</ele><time>2026-03-29T07:24:21.509Z</time></trkpt><trkpt lat="45.5923703" lon="10.4798583"><ele>290.0</ele><time>2026-03-29T07:24:22.51Z</time></trkpt><trkpt lat="45.5924753" lon="10.4799323"><ele>290.0</ele><time>2026-03-29T07:24:23.51Z</time></trkpt><trkpt lat="45.5925863" lon="10.4799868"><ele>290.0</ele><time>2026-03-29T07:24:24.51Z</time></trkpt><trkpt lat="45.5927018" lon="10.4800217"><ele>290.0</ele><time>2026-03-29T07:24:25.51Z</time></trkpt><trkpt lat="45.5928063" lon="10.480047"><ele>290.1666666666667</ele><time>2026-03-29T07:24:26.509Z</time></trkpt><trkpt lat="45.5928898" lon="10.4800647"><ele>290.33333333333337</ele><time>2026-03-29T07:24:27.51Z</time></trkpt><trkpt lat="45.5929552" lon="10.480073"><ele>290.5</ele><time>2026-03-29T07:24:28.509Z</time></trkpt><trkpt lat="45.5930517" lon="10.4800707"><ele>290.6666666666667</ele><time>2026-03-29T07:24:30.51Z</time></trkpt><trkpt lat="45.5931675" lon="10.4800642"><ele>290.8333333333333</ele><time>2026-03-29T07:24:32.507Z</time></trkpt><trkpt lat="45.5932465" lon="10.480051"><ele>291.0</ele><time>2026-03-29T07:24:33.507Z</time></trkpt><trkpt lat="45.5933243" lon="10.4800173"><ele>291.0</ele><time>2026-03-29T07:24:34.507Z</time></trkpt><trkpt lat="45.5933938" lon="10.4799767"><ele>291.0</ele><time>2026-03-29T07:24:35.507Z</time></trkpt><trkpt lat="45.5934665" lon="10.479941"><ele>291.0</ele><time>2026-03-29T07:24:36.507Z</time></trkpt><trkpt lat="45.5935483" lon="10.479919"><ele>291.0</ele><time>2026-03-29T07:24:37.509Z</time></trkpt><trkpt lat="45.5936432" lon="10.4799227"><ele>291.0</ele><time>2026-03-29T07:24:38.51Z</time></trkpt><trkpt lat="45.5937402" lon="10.479942"><ele>291.0</ele><time>2026-03-29T07:24:39.51Z</time></trkpt><trkpt lat="45.5938382" lon="10.479966"><ele>291.5</ele><time>2026-03-29T07:24:40.511Z</time></trkpt><trkpt lat="45.593938" lon="10.4799893"><ele>292.0</ele><time>2026-03-29T07:24:41.507Z</time></trkpt><trkpt lat="45.5940338" lon="10.4800068"><ele>292.5</ele><time>2026-03-29T07:24:42.509Z</time></trkpt><trkpt lat="45.5941212" lon="10.4800232"><ele>293.0</ele><time>2026-03-29T07:24:43.509Z</time></trkpt><trkpt lat="45.5941867" lon="10.4800353"><ele>293.5</ele><time>2026-03-29T07:24:44.509Z</time></trkpt><trkpt lat="45.5942515" lon="10.4800305"><ele>294.0</ele><time>2026-03-29T07:24:46.513Z</time></trkpt><trkpt lat="45.594326" lon="10.479934"><ele>294.0</ele><time>2026-03-29T07:24:48.509Z</time></trkpt><trkpt lat="45.5943677" lon="10.4798275"><ele>294.0</ele><time>2026-03-29T07:24:49.509Z</time></trkpt><trkpt lat="45.5944153" lon="10.4796965"><ele>294.0</ele><time>2026-03-29T07:24:50.509Z</time></trkpt><trkpt lat="45.5944598" lon="10.4795562"><ele>294.0</ele><time>2026-03-29T07:24:51.511Z</time></trkpt><trkpt lat="45.5945017" lon="10.4794003"><ele>294.0</ele><time>2026-03-29T07:24:52.509Z</time></trkpt><trkpt lat="45.5945218" lon="10.4792528"><ele>295.0</ele><time>2026-03-29T07:24:53.508Z</time></trkpt><trkpt lat="45.5945092" lon="10.4791057"><ele>296.0</ele><time>2026-03-29T07:24:54.509Z</time></trkpt><trkpt lat="45.5944567" lon="10.4789615"><ele>297.0</ele><time>2026-03-29T07:24:55.511Z</time></trkpt><trkpt lat="45.5943837" lon="10.4788082"><ele>298.0</ele><time>2026-03-29T07:24:56.509Z</time></trkpt><trkpt lat="45.594299" lon="10.4786468"><ele>300.5</ele><time>2026-03-29T07:24:57.508Z</time></trkpt><trkpt lat="45.5942115" lon="10.4784712"><ele>303.0</ele><time>2026-03-29T07:24:58.507Z</time></trkpt><trkpt lat="45.5941205" lon="10.4783002"><ele>305.5</ele><time>2026-03-29T07:24:59.507Z</time></trkpt><trkpt lat="45.5940318" lon="10.478159"><ele>308.0</ele><time>2026-03-29T07:25:00.507Z</time></trkpt><trkpt lat="45.5939463" lon="10.4780413"><ele>311.25</ele><time>2026-03-29T07:25:01.508Z</time></trkpt><trkpt lat="45.5938697" lon="10.4779197"><ele>314.5</ele><time>2026-03-29T07:25:02.508Z</time></trkpt><trkpt lat="45.593803" lon="10.4777882"><ele>317.75</ele><time>2026-03-29T07:25:03.509Z</time></trkpt><trkpt lat="45.5937405" lon="10.4776368"><ele>321.0</ele><time>2026-03-29T07:25:04.51Z</time></trkpt><trkpt lat="45.5936757" lon="10.4774748"><ele>319.25</ele><time>2026-03-29T07:25:05.507Z</time></trkpt><trkpt lat="45.5936062" lon="10.4773088"><ele>317.5</ele><time>2026-03-29T07:25:06.508Z</time></trkpt><trkpt lat="45.593537" lon="10.4771285"><ele>315.75</ele><time>2026-03-29T07:25:07.509Z</time></trkpt><trkpt lat="45.593476" lon="10.4769282"><ele>314.0</ele><time>2026-03-29T07:25:08.51Z</time></trkpt><trkpt lat="45.5934215" lon="10.4767032"><ele>314.0</ele><time>2026-03-29T07:25:09.51Z</time></trkpt><trkpt lat="45.5933692" lon="10.4764603"><ele>314.0</ele><time>2026-03-29T07:25:10.507Z</time></trkpt><trkpt lat="45.5933187" lon="10.4762163"><ele>314.0</ele><time>2026-03-29T07:25:11.509Z</time></trkpt><trkpt lat="45.5932673" lon="10.4759725"><ele>318.0</ele><time>2026-03-29T07:25:12.511Z</time></trkpt><trkpt lat="45.5932183" lon="10.475731"><ele>322.0</ele><time>2026-03-29T07:25:13.51Z</time></trkpt><trkpt lat="45.5931777" lon="10.4754907"><ele>326.0</ele><time>2026-03-29T07:25:14.511Z</time></trkpt><trkpt lat="45.5931467" lon="10.47525"><ele>327.6666666666667</ele><time>2026-03-29T07:25:15.51Z</time></trkpt><trkpt lat="45.5931175" lon="10.4750155"><ele>329.3333333333333</ele><time>2026-03-29T07:25:16.509Z</time></trkpt><trkpt lat="45.593082" lon="10.4747802"><ele>331.0</ele><time>2026-03-29T07:25:17.508Z</time></trkpt><trkpt lat="45.5930533" lon="10.4745598"><ele>332.25</ele><time>2026-03-29T07:25:18.509Z</time></trkpt><trkpt lat="45.593032" lon="10.4743648"><ele>333.5</ele><time>2026-03-29T07:25:19.508Z</time></trkpt><trkpt lat="45.5930157" lon="10.4741983"><ele>334.75</ele><time>2026-03-29T07:25:20.507Z</time></trkpt><trkpt lat="45.5930033" lon="10.474053"><ele>336.0</ele><time>2026-03-29T07:25:21.505Z</time></trkpt><trkpt lat="45.592996" lon="10.4739045"><ele>335.75</ele><time>2026-03-29T07:25:22.504Z</time></trkpt><trkpt lat="45.5930102" lon="10.4737458"><ele>335.5</ele><time>2026-03-29T07:25:23.505Z</time></trkpt><trkpt lat="45.5929973" lon="10.4735728"><ele>335.25</ele><time>2026-03-29T07:25:24.506Z</time></trkpt><trkpt lat="45.5929633" lon="10.4733843"><ele>335.0</ele><time>2026-03-29T07:25:25.51Z</time></trkpt><trkpt lat="45.5929328" lon="10.4731953"><ele>335.0</ele><time>2026-03-29T07:25:26.51Z</time></trkpt><trkpt lat="45.5929007" lon="10.4730108"><ele>335.0</ele><time>2026-03-29T07:25:27.51Z</time></trkpt><trkpt lat="45.5928587" lon="10.4728355"><ele>335.0</ele><time>2026-03-29T07:25:28.51Z</time></trkpt><trkpt lat="45.5928022" lon="10.4726548"><ele>335.0</ele><time>2026-03-29T07:25:29.51Z</time></trkpt><trkpt lat="45.5927335" lon="10.472472"><ele>330.75</ele><time>2026-03-29T07:25:30.509Z</time></trkpt><trkpt lat="45.5926657" lon="10.4722985"><ele>326.5</ele><time>2026-03-29T07:25:31.509Z</time></trkpt><trkpt lat="45.5926055" lon="10.472144"><ele>322.25</ele><time>2026-03-29T07:25:32.51Z</time></trkpt><trkpt lat="45.5925532" lon="10.4720092"><ele>318.0</ele><time>2026-03-29T07:25:33.51Z</time></trkpt><trkpt lat="45.592515" lon="10.471896"><ele>318.0</ele><time>2026-03-29T07:25:34.51Z</time></trkpt><trkpt lat="45.5924855" lon="10.4718142"><ele>318.0</ele><time>2026-03-29T07:25:35.511Z</time></trkpt><trkpt lat="45.5924565" lon="10.4717097"><ele>318.0</ele><time>2026-03-29T07:25:37.513Z</time></trkpt><trkpt lat="45.5924365" lon="10.4716193"><ele>318.0</ele><time>2026-03-29T07:25:41.51Z</time></trkpt><trkpt lat="45.5923968" lon="10.4715278"><ele>318.0</ele><time>2026-03-29T07:36:57.51Z</time></trkpt><trkpt lat="45.5923547" lon="10.4714187"><ele>318.0</ele><time>2026-03-29T07:37:00.507Z</time></trkpt><trkpt lat="45.5923235" lon="10.4713397"><ele>318.0</ele><time>2026-03-29T07:37:01.511Z</time></trkpt><trkpt lat="45.5922853" lon="10.471243"><ele>318.5</ele><time>2026-03-29T07:37:02.51Z</time></trkpt><trkpt lat="45.5922447" lon="10.4711422"><ele>319.0</ele><time>2026-03-29T07:37:03.51Z</time></trkpt><trkpt lat="45.5922055" lon="10.4710405"><ele>319.5</ele><time>2026-03-29T07:37:04.51Z</time></trkpt><trkpt lat="45.5921695" lon="10.470939"><ele>320.0</ele><time>2026-03-29T07:37:05.511Z</time></trkpt><trkpt lat="45.5921327" lon="10.4708278"><ele>320.5</ele><time>2026-03-29T07:37:06.51Z</time></trkpt><trkpt lat="45.5920928" lon="10.4706922"><ele>321.0</ele><time>2026-03-29T07:37:07.509Z</time></trkpt><trkpt lat="45.5920505" lon="10.4705292"><ele>322.25</ele><time>2026-03-29T07:37:08.509Z</time></trkpt><trkpt lat="45.5920175" lon="10.4703687"><ele>323.5</ele><time>2026-03-29T07:37:09.508Z</time></trkpt><trkpt lat="45.5920033" lon="10.4702048"><ele>324.75</ele><time>2026-03-29T07:37:10.509Z</time></trkpt><trkpt lat="45.592002" lon="10.4700205"><ele>326.0</ele><time>2026-03-29T07:37:11.508Z</time></trkpt><trkpt lat="45.592002" lon="10.469831"><ele>322.6</ele><time>2026-03-29T07:37:12.506Z</time></trkpt><trkpt lat="45.5919975" lon="10.4696548"><ele>319.20000000000005</ele><time>2026-03-29T07:37:13.506Z</time></trkpt><trkpt lat="45.5919817" lon="10.4695062"><ele>315.79999999999995</ele><time>2026-03-29T07:37:14.507Z</time></trkpt><trkpt lat="45.591939" lon="10.4693865"><ele>312.4</ele><time>2026-03-29T07:37:15.507Z</time></trkpt><trkpt lat="45.5918717" lon="10.4692937"><ele>309.0</ele><time>2026-03-29T07:37:16.511Z</time></trkpt><trkpt lat="45.5917845" lon="10.4692405"><ele>308.8</ele><time>2026-03-29T07:37:17.51Z</time></trkpt><trkpt lat="45.5916948" lon="10.4692317"><ele>308.59999999999997</ele><time>2026-03-29T07:37:18.508Z</time></trkpt><trkpt lat="45.5916072" lon="10.46927"><ele>308.4</ele><time>2026-03-29T07:37:19.508Z</time></trkpt><trkpt lat="45.5915323" lon="10.4693512"><ele>308.2</ele><time>2026-03-29T07:37:20.508Z</time></trkpt><trkpt lat="45.591473" lon="10.4694543"><ele>308.0</ele><time>2026-03-29T07:37:21.508Z</time></trkpt><trkpt lat="45.591414" lon="10.4695428"><ele>308.0</ele><time>2026-03-29T07:37:22.508Z</time></trkpt><trkpt lat="45.5913473" lon="10.4695913"><ele>308.0</ele><time>2026-03-29T07:37:23.507Z</time></trkpt><trkpt lat="45.5912793" lon="10.469584"><ele>308.0</ele><time>2026-03-29T07:37:24.506Z</time></trkpt><trkpt lat="45.5912143" lon="10.469518"><ele>308.0</ele><time>2026-03-29T07:37:25.506Z</time></trkpt><trkpt lat="45.5911492" lon="10.469392"><ele>308.0</ele><time>2026-03-29T07:37:26.508Z</time></trkpt><trkpt lat="45.5910718" lon="10.4692248"><ele>305.33333333333337</ele><time>2026-03-29T07:37:27.509Z</time></trkpt><trkpt lat="45.5909875" lon="10.4690518"><ele>302.6666666666667</ele><time>2026-03-29T07:37:28.512Z</time></trkpt><trkpt lat="45.5909085" lon="10.4688612"><ele>300.0</ele><time>2026-03-29T07:37:29.51Z</time></trkpt><trkpt lat="45.5908433" lon="10.4686492"><ele>298.6666666666667</ele><time>2026-03-29T07:37:30.509Z</time></trkpt><trkpt lat="45.5907852" lon="10.4684172"><ele>297.33333333333337</ele><time>2026-03-29T07:37:31.509Z</time></trkpt><trkpt lat="45.5907315" lon="10.468177"><ele>296.0</ele><time>2026-03-29T07:37:32.509Z</time></trkpt><trkpt lat="45.5906787" lon="10.4679437"><ele>295.0</ele><time>2026-03-29T07:37:33.509Z</time></trkpt><trkpt lat="45.5906265" lon="10.467717"><ele>294.0</ele><time>2026-03-29T07:37:34.513Z</time></trkpt><trkpt lat="45.5905748" lon="10.4674985"><ele>293.0</ele><time>2026-03-29T07:37:35.511Z</time></trkpt><trkpt lat="45.5905277" lon="10.4672775"><ele>291.0</ele><time>2026-03-29T07:37:36.509Z</time></trkpt><trkpt lat="45.5904855" lon="10.4670528"><ele>289.0</ele><time>2026-03-29T07:37:37.511Z</time></trkpt><trkpt lat="45.5904452" lon="10.4668258"><ele>287.0</ele><time>2026-03-29T07:37:38.508Z</time></trkpt><trkpt lat="45.5904078" lon="10.4666052"><ele>287.0</ele><time>2026-03-29T07:37:39.508Z</time></trkpt><trkpt lat="45.590368" lon="10.4663895"><ele>287.0</ele><time>2026-03-29T07:37:40.51Z</time></trkpt><trkpt lat="45.590323" lon="10.4661785"><ele>287.0</ele><time>2026-03-29T07:37:41.509Z</time></trkpt><trkpt lat="45.5902653" lon="10.465984"><ele>285.25</ele><time>2026-03-29T07:37:42.509Z</time></trkpt><trkpt lat="45.5901927" lon="10.465808"><ele>283.5</ele><time>2026-03-29T07:37:43.509Z</time></trkpt><trkpt lat="45.5901175" lon="10.465656"><ele>281.75</ele><time>2026-03-29T07:37:44.509Z</time></trkpt><trkpt lat="45.590045" lon="10.4655218"><ele>280.0</ele><time>2026-03-29T07:37:45.511Z</time></trkpt><trkpt lat="45.5899803" lon="10.4653983"><ele>279.0</ele><time>2026-03-29T07:37:46.512Z</time></trkpt><trkpt lat="45.5899183" lon="10.4652825"><ele>278.0</ele><time>2026-03-29T07:37:47.512Z</time></trkpt><trkpt lat="45.5898565" lon="10.4651765"><ele>277.0</ele><time>2026-03-29T07:37:48.511Z</time></trkpt><trkpt lat="45.5897897" lon="10.4650818"><ele>276.0</ele><time>2026-03-29T07:37:49.513Z</time></trkpt><trkpt lat="45.5897172" lon="10.465007"><ele>275.0</ele><time>2026-03-29T07:37:50.512Z</time></trkpt><trkpt lat="45.5896395" lon="10.4649463"><ele>275.0</ele><time>2026-03-29T07:37:51.512Z</time></trkpt><trkpt lat="45.589559" lon="10.4648918"><ele>275.0</ele><time>2026-03-29T07:37:52.511Z</time></trkpt><trkpt lat="45.5894753" lon="10.4648403"><ele>275.0</ele><time>2026-03-29T07:37:53.509Z</time></trkpt><trkpt lat="45.589382" lon="10.4647982"><ele>275.0</ele><time>2026-03-29T07:37:54.508Z</time></trkpt><trkpt lat="45.5892825" lon="10.4647725"><ele>275.0</ele><time>2026-03-29T07:37:55.509Z</time></trkpt><trkpt lat="45.5891857" lon="10.4647622"><ele>275.0</ele><time>2026-03-29T07:37:56.509Z</time></trkpt><trkpt lat="45.5890873" lon="10.4647677"><ele>275.0</ele><time>2026-03-29T07:37:57.509Z</time></trkpt><trkpt lat="45.5889843" lon="10.4647818"><ele>275.0</ele><time>2026-03-29T07:37:58.509Z</time></trkpt><trkpt lat="45.5888837" lon="10.4647965"><ele>275.0</ele><time>2026-03-29T07:37:59.509Z</time></trkpt><trkpt lat="45.5887855" lon="10.4648108"><ele>275.0</ele><time>2026-03-29T07:38:00.509Z</time></trkpt><trkpt lat="45.5886933" lon="10.4648227"><ele>273.5</ele><time>2026-03-29T07:38:01.507Z</time></trkpt><trkpt lat="45.5886115" lon="10.4648283"><ele>272.0</ele><time>2026-03-29T07:38:02.505Z</time></trkpt><trkpt lat="45.58854" lon="10.4648098"><ele>270.5</ele><time>2026-03-29T07:38:03.507Z</time></trkpt><trkpt lat="45.5884837" lon="10.4647605"><ele>269.0</ele><time>2026-03-29T07:38:04.511Z</time></trkpt><trkpt lat="45.5884423" lon="10.4646795"><ele>267.5</ele><time>2026-03-29T07:38:05.508Z</time></trkpt><trkpt lat="45.5884147" lon="10.464575"><ele>266.0</ele><time>2026-03-29T07:38:06.51Z</time></trkpt><trkpt lat="45.5883897" lon="10.464454"><ele>265.8</ele><time>2026-03-29T07:38:07.511Z</time></trkpt><trkpt lat="45.5883612" lon="10.4643197"><ele>265.6</ele><time>2026-03-29T07:38:08.512Z</time></trkpt><trkpt lat="45.5883328" lon="10.4641825"><ele>265.4</ele><time>2026-03-29T07:38:09.511Z</time></trkpt><trkpt lat="45.5883043" lon="10.4640427"><ele>265.2</ele><time>2026-03-29T07:38:10.508Z</time></trkpt><trkpt lat="45.5882748" lon="10.4639"><ele>265.0</ele><time>2026-03-29T07:38:11.507Z</time></trkpt><trkpt lat="45.5882453" lon="10.4637607"><ele>264.8</ele><time>2026-03-29T07:38:12.508Z</time></trkpt><trkpt lat="45.5882158" lon="10.4636253"><ele>264.6</ele><time>2026-03-29T07:38:13.508Z</time></trkpt><trkpt lat="45.5881935" lon="10.4634972"><ele>264.4</ele><time>2026-03-29T07:38:14.513Z</time></trkpt><trkpt lat="45.5881767" lon="10.4633782"><ele>264.2</ele><time>2026-03-29T07:38:15.508Z</time></trkpt><trkpt lat="45.5881712" lon="10.4632525"><ele>264.0</ele><time>2026-03-29T07:38:16.507Z</time></trkpt><trkpt lat="45.588174" lon="10.463118"><ele>264.0</ele><time>2026-03-29T07:38:17.506Z</time></trkpt><trkpt lat="45.588189" lon="10.4629848"><ele>264.0</ele><time>2026-03-29T07:38:18.507Z</time></trkpt><trkpt lat="45.5882122" lon="10.4628528"><ele>264.0</ele><time>2026-03-29T07:38:19.507Z</time></trkpt><trkpt lat="45.5882442" lon="10.4627175"><ele>264.0</ele><time>2026-03-29T07:38:20.506Z</time></trkpt><trkpt lat="45.5882828" lon="10.462583"><ele>264.0</ele><time>2026-03-29T07:38:21.505Z</time></trkpt><trkpt lat="45.588323" lon="10.4624562"><ele>264.2</ele><time>2026-03-29T07:38:22.508Z</time></trkpt><trkpt lat="45.5883718" lon="10.4623327"><ele>264.4</ele><time>2026-03-29T07:38:23.508Z</time></trkpt><trkpt lat="45.5884232" lon="10.4621928"><ele>264.6</ele><time>2026-03-29T07:38:24.508Z</time></trkpt><trkpt lat="45.5884795" lon="10.4620605"><ele>264.8</ele><time>2026-03-29T07:38:25.507Z</time></trkpt><trkpt lat="45.5885315" lon="10.4619198"><ele>265.0</ele><time>2026-03-29T07:38:26.504Z</time></trkpt><trkpt lat="45.5885727" lon="10.4617678"><ele>265.25</ele><time>2026-03-29T07:38:27.505Z</time></trkpt><trkpt lat="45.5886022" lon="10.461602"><ele>265.5</ele><time>2026-03-29T07:38:28.507Z</time></trkpt><trkpt lat="45.5886228" lon="10.4614423"><ele>265.75</ele><time>2026-03-29T07:38:29.508Z</time></trkpt><trkpt lat="45.5886455" lon="10.4612812"><ele>266.0</ele><time>2026-03-29T07:38:30.509Z</time></trkpt><trkpt lat="45.588661" lon="10.4611157"><ele>265.5</ele><time>2026-03-29T07:38:31.508Z</time></trkpt><trkpt lat="45.588666" lon="10.4609445"><ele>265.0</ele><time>2026-03-29T07:38:32.509Z</time></trkpt><trkpt lat="45.5886648" lon="10.4607442"><ele>264.5</ele><time>2026-03-29T07:38:33.509Z</time></trkpt><trkpt lat="45.5886647" lon="10.4605325"><ele>264.0</ele><time>2026-03-29T07:38:34.509Z</time></trkpt><trkpt lat="45.588671" lon="10.4603107"><ele>263.3333333333333</ele><time>2026-03-29T07:38:35.511Z</time></trkpt><trkpt lat="45.5886762" lon="10.460078"><ele>262.66666666666663</ele><time>2026-03-29T07:38:36.509Z</time></trkpt><trkpt lat="45.5886763" lon="10.4598475"><ele>262.0</ele><time>2026-03-29T07:38:37.511Z</time></trkpt><trkpt lat="45.588673" lon="10.4596272"><ele>261.5</ele><time>2026-03-29T07:38:38.512Z</time></trkpt><trkpt lat="45.5886697" lon="10.4594202"><ele>261.0</ele><time>2026-03-29T07:38:39.513Z</time></trkpt><trkpt lat="45.5886792" lon="10.4592258"><ele>260.5</ele><time>2026-03-29T07:38:40.512Z</time></trkpt><trkpt lat="45.5887158" lon="10.4590312"><ele>260.0</ele><time>2026-03-29T07:38:41.511Z</time></trkpt><trkpt lat="45.5887765" lon="10.4588295"><ele>259.0</ele><time>2026-03-29T07:38:42.51Z</time></trkpt><trkpt lat="45.5888587" lon="10.4586212"><ele>258.0</ele><time>2026-03-29T07:38:43.508Z</time></trkpt><trkpt lat="45.5889493" lon="10.4584058"><ele>257.0</ele><time>2026-03-29T07:38:44.509Z</time></trkpt><trkpt lat="45.5890408" lon="10.4581845"><ele>257.0</ele><time>2026-03-29T07:38:45.508Z</time></trkpt><trkpt lat="45.5891357" lon="10.4579673"><ele>257.0</ele><time>2026-03-29T07:38:46.508Z</time></trkpt><trkpt lat="45.5892268" lon="10.4577632"><ele>257.0</ele><time>2026-03-29T07:38:47.507Z</time></trkpt><trkpt lat="45.5893195" lon="10.4575708"><ele>259.6666666666667</ele><time>2026-03-29T07:38:48.506Z</time></trkpt><trkpt lat="45.5894105" lon="10.4573843"><ele>262.3333333333333</ele><time>2026-03-29T07:38:49.508Z</time></trkpt><trkpt lat="45.5895005" lon="10.4572037"><ele>265.0</ele><time>2026-03-29T07:38:50.505Z</time></trkpt><trkpt lat="45.5896" lon="10.457031"><ele>258.0</ele><time>2026-03-29T07:38:51.507Z</time></trkpt><trkpt lat="45.5896865" lon="10.4568497"><ele>251.0</ele><time>2026-03-29T07:38:52.506Z</time></trkpt><trkpt lat="45.5897612" lon="10.4566593"><ele>244.0</ele><time>2026-03-29T07:38:53.505Z</time></trkpt><trkpt lat="45.5898247" lon="10.4564637"><ele>243.0</ele><time>2026-03-29T07:38:54.507Z</time></trkpt><trkpt lat="45.5898825" lon="10.4562713"><ele>242.0</ele><time>2026-03-29T07:38:55.507Z</time></trkpt><trkpt lat="45.5899353" lon="10.4560993"><ele>241.0</ele><time>2026-03-29T07:38:56.508Z</time></trkpt><trkpt lat="45.5899648" lon="10.4559338"><ele>240.0</ele><time>2026-03-29T07:38:57.509Z</time></trkpt><trkpt lat="45.5899502" lon="10.4557605"><ele>240.0</ele><time>2026-03-29T07:38:58.506Z</time></trkpt><trkpt lat="45.5898902" lon="10.455586"><ele>240.0</ele><time>2026-03-29T07:38:59.508Z</time></trkpt><trkpt lat="45.5898075" lon="10.4554218"><ele>240.0</ele><time>2026-03-29T07:39:00.51Z</time></trkpt><trkpt lat="45.589721" lon="10.455275"><ele>240.0</ele><time>2026-03-29T07:39:01.508Z</time></trkpt><trkpt lat="45.5896432" lon="10.455141"><ele>237.0</ele><time>2026-03-29T07:39:02.509Z</time></trkpt><trkpt lat="45.58959" lon="10.4550042"><ele>234.0</ele><time>2026-03-29T07:39:03.507Z</time></trkpt><trkpt lat="45.5895757" lon="10.4548475"><ele>231.0</ele><time>2026-03-29T07:39:04.511Z</time></trkpt><trkpt lat="45.5896027" lon="10.4546698"><ele>228.0</ele><time>2026-03-29T07:39:05.507Z</time></trkpt><trkpt lat="45.5896438" lon="10.4544913"><ele>226.60000000000002</ele><time>2026-03-29T07:39:06.507Z</time></trkpt><trkpt lat="45.5896708" lon="10.4543237"><ele>225.20000000000002</ele><time>2026-03-29T07:39:07.512Z</time></trkpt><trkpt lat="45.5896687" lon="10.454169"><ele>223.8</ele><time>2026-03-29T07:39:08.509Z</time></trkpt><trkpt lat="45.589631" lon="10.4540325"><ele>222.4</ele><time>2026-03-29T07:39:09.509Z</time></trkpt><trkpt lat="45.5895538" lon="10.4539145"><ele>221.0</ele><time>2026-03-29T07:39:10.509Z</time></trkpt><trkpt lat="45.5894545" lon="10.4537993"><ele>221.75</ele><time>2026-03-29T07:39:11.51Z</time></trkpt><trkpt lat="45.5893397" lon="10.4536737"><ele>222.5</ele><time>2026-03-29T07:39:12.509Z</time></trkpt><trkpt lat="45.589224" lon="10.453542"><ele>223.25</ele><time>2026-03-29T07:39:13.511Z</time></trkpt><trkpt lat="45.5891163" lon="10.4534148"><ele>224.0</ele><time>2026-03-29T07:39:14.507Z</time></trkpt><trkpt lat="45.5890265" lon="10.4532778"><ele>224.0</ele><time>2026-03-29T07:39:15.504Z</time></trkpt><trkpt lat="45.5889587" lon="10.4531292"><ele>224.0</ele><time>2026-03-29T07:39:16.505Z</time></trkpt><trkpt lat="45.5889213" lon="10.452977"><ele>224.0</ele><time>2026-03-29T07:39:17.507Z</time></trkpt><trkpt lat="45.5889168" lon="10.4528202"><ele>224.0</ele><time>2026-03-29T07:39:18.509Z</time></trkpt><trkpt lat="45.5889448" lon="10.4526593"><ele>223.0</ele><time>2026-03-29T07:39:19.508Z</time></trkpt><trkpt lat="45.5889972" lon="10.4525045"><ele>221.99999999999997</ele><time>2026-03-29T07:39:20.509Z</time></trkpt><trkpt lat="45.5890515" lon="10.4523618"><ele>220.99999999999997</ele><time>2026-03-29T07:39:21.509Z</time></trkpt><trkpt lat="45.5890808" lon="10.452219"><ele>220.0</ele><time>2026-03-29T07:39:22.508Z</time></trkpt><trkpt lat="45.5890732" lon="10.4520682"><ele>219.0</ele><time>2026-03-29T07:39:23.509Z</time></trkpt><trkpt lat="45.5890222" lon="10.4519158"><ele>219.0</ele><time>2026-03-29T07:39:24.508Z</time></trkpt><trkpt lat="45.58894" lon="10.4517635"><ele>219.0</ele><time>2026-03-29T07:39:25.508Z</time></trkpt><trkpt lat="45.5888488" lon="10.4516167"><ele>219.0</ele><time>2026-03-29T07:39:26.508Z</time></trkpt><trkpt lat="45.5887532" lon="10.4514628"><ele>219.0</ele><time>2026-03-29T07:39:27.509Z</time></trkpt><trkpt lat="45.5886553" lon="10.4512963"><ele>221.66666666666669</ele><time>2026-03-29T07:39:28.508Z</time></trkpt><trkpt lat="45.5885573" lon="10.4511177"><ele>224.33333333333334</ele><time>2026-03-29T07:39:29.506Z</time></trkpt><trkpt lat="45.5884565" lon="10.4509358"><ele>227.0</ele><time>2026-03-29T07:39:30.508Z</time></trkpt><trkpt lat="45.5883553" lon="10.4507555"><ele>227.0</ele><time>2026-03-29T07:39:31.513Z</time></trkpt><trkpt lat="45.5882522" lon="10.4505722"><ele>227.0</ele><time>2026-03-29T07:39:32.507Z</time></trkpt><trkpt lat="45.5881482" lon="10.4503847"><ele>227.0</ele><time>2026-03-29T07:39:33.507Z</time></trkpt><trkpt lat="45.5880428" lon="10.4501948"><ele>224.0</ele><time>2026-03-29T07:39:34.507Z</time></trkpt><trkpt lat="45.5879352" lon="10.4500058"><ele>221.0</ele><time>2026-03-29T07:39:35.507Z</time></trkpt><trkpt lat="45.5878282" lon="10.4498295"><ele>218.0</ele><time>2026-03-29T07:39:36.507Z</time></trkpt><trkpt lat="45.587725" lon="10.4496685"><ele>218.25</ele><time>2026-03-29T07:39:37.52Z</time></trkpt><trkpt lat="45.5876255" lon="10.4495202"><ele>218.5</ele><time>2026-03-29T07:39:38.508Z</time></trkpt><trkpt lat="45.5875395" lon="10.4493867"><ele>218.75</ele><time>2026-03-29T07:39:39.506Z</time></trkpt><trkpt lat="45.5874712" lon="10.449277"><ele>219.0</ele><time>2026-03-29T07:39:40.509Z</time></trkpt><trkpt lat="45.5874248" lon="10.4491887"><ele>219.0</ele><time>2026-03-29T07:39:41.505Z</time></trkpt><trkpt lat="45.5873977" lon="10.4490945"><ele>219.0</ele><time>2026-03-29T07:39:42.508Z</time></trkpt><trkpt lat="45.5873825" lon="10.4489992"><ele>219.0</ele><time>2026-03-29T07:39:43.509Z</time></trkpt><trkpt lat="45.5873565" lon="10.4489105"><ele>219.0</ele><time>2026-03-29T07:39:44.51Z</time></trkpt><trkpt lat="45.5873022" lon="10.448855"><ele>219.0</ele><time>2026-03-29T07:39:45.509Z</time></trkpt><trkpt lat="45.5872313" lon="10.4488507"><ele>219.0</ele><time>2026-03-29T07:39:46.508Z</time></trkpt><trkpt lat="45.5871582" lon="10.448888"><ele>219.0</ele><time>2026-03-29T07:39:47.508Z</time></trkpt><trkpt lat="45.587073" lon="10.4489188"><ele>218.39999999999998</ele><time>2026-03-29T07:39:48.51Z</time></trkpt><trkpt lat="45.5869795" lon="10.4489112"><ele>217.79999999999998</ele><time>2026-03-29T07:39:49.509Z</time></trkpt><trkpt lat="45.586892" lon="10.4488538"><ele>217.20000000000002</ele><time>2026-03-29T07:39:50.509Z</time></trkpt><trkpt lat="45.5868167" lon="10.4487455"><ele>216.60000000000002</ele><time>2026-03-29T07:39:51.507Z</time></trkpt><trkpt lat="45.5867547" lon="10.4485897"><ele>216.0</ele><time>2026-03-29T07:39:52.51Z</time></trkpt><trkpt lat="45.5867037" lon="10.4484028"><ele>216.0</ele><time>2026-03-29T07:39:53.509Z</time></trkpt><trkpt lat="45.5866625" lon="10.4482132"><ele>216.0</ele><time>2026-03-29T07:39:54.509Z</time></trkpt><trkpt lat="45.5866247" lon="10.4480165"><ele>216.0</ele><time>2026-03-29T07:39:55.508Z</time></trkpt><trkpt lat="45.586588" lon="10.4478162"><ele>216.0</ele><time>2026-03-29T07:39:56.509Z</time></trkpt><trkpt lat="45.5865507" lon="10.4476155"><ele>215.0</ele><time>2026-03-29T07:39:57.507Z</time></trkpt><trkpt lat="45.5865137" lon="10.4474138"><ele>214.0</ele><time>2026-03-29T07:39:58.509Z</time></trkpt><trkpt lat="45.5864787" lon="10.4472243"><ele>213.0</ele><time>2026-03-29T07:39:59.508Z</time></trkpt><trkpt lat="45.5864468" lon="10.4470485"><ele>212.0</ele><time>2026-03-29T07:40:00.508Z</time></trkpt><trkpt lat="45.5864102" lon="10.4468843"><ele>211.8</ele><time>2026-03-29T07:40:01.509Z</time></trkpt><trkpt lat="45.5863648" lon="10.4467352"><ele>211.6</ele><time>2026-03-29T07:40:02.508Z</time></trkpt><trkpt lat="45.5863153" lon="10.4465955"><ele>211.4</ele><time>2026-03-29T07:40:03.507Z</time></trkpt><trkpt lat="45.5862625" lon="10.4464593"><ele>211.20000000000002</ele><time>2026-03-29T07:40:04.506Z</time></trkpt><trkpt lat="45.5862155" lon="10.4463327"><ele>211.0</ele><time>2026-03-29T07:40:05.505Z</time></trkpt><trkpt lat="45.5861665" lon="10.4462103"><ele>210.25</ele><time>2026-03-29T07:40:06.506Z</time></trkpt><trkpt lat="45.5861137" lon="10.4460788"><ele>209.5</ele><time>2026-03-29T07:40:07.509Z</time></trkpt><trkpt lat="45.5860613" lon="10.4459413"><ele>208.75</ele><time>2026-03-29T07:40:08.511Z</time></trkpt><trkpt lat="45.5860075" lon="10.4457923"><ele>208.0</ele><time>2026-03-29T07:40:09.51Z</time></trkpt><trkpt lat="45.5859485" lon="10.44563"><ele>208.0</ele><time>2026-03-29T07:40:10.51Z</time></trkpt><trkpt lat="45.5858875" lon="10.4454533"><ele>208.0</ele><time>2026-03-29T07:40:11.509Z</time></trkpt><trkpt lat="45.5858258" lon="10.4452652"><ele>208.0</ele><time>2026-03-29T07:40:12.509Z</time></trkpt><trkpt lat="45.5857623" lon="10.4450722"><ele>208.0</ele><time>2026-03-29T07:40:13.508Z</time></trkpt><trkpt lat="45.5857018" lon="10.4448818"><ele>208.0</ele><time>2026-03-29T07:40:14.509Z</time></trkpt><trkpt lat="45.5856415" lon="10.4446967"><ele>208.0</ele><time>2026-03-29T07:40:15.51Z</time></trkpt><trkpt lat="45.585582" lon="10.4445108"><ele>208.0</ele><time>2026-03-29T07:40:16.509Z</time></trkpt><trkpt lat="45.5855168" lon="10.4443305"><ele>208.0</ele><time>2026-03-29T07:40:17.508Z</time></trkpt><trkpt lat="45.5854582" lon="10.4441482"><ele>207.75</ele><time>2026-03-29T07:40:18.51Z</time></trkpt><trkpt lat="45.5854007" lon="10.4439685"><ele>207.5</ele><time>2026-03-29T07:40:19.506Z</time></trkpt><trkpt lat="45.5853452" lon="10.4437938"><ele>207.25</ele><time>2026-03-29T07:40:20.507Z</time></trkpt><trkpt lat="45.5852995" lon="10.4436275"><ele>207.0</ele><time>2026-03-29T07:40:21.508Z</time></trkpt><trkpt lat="45.5852633" lon="10.4434615"><ele>206.75</ele><time>2026-03-29T07:40:22.509Z</time></trkpt><trkpt lat="45.5852275" lon="10.443291"><ele>206.5</ele><time>2026-03-29T07:40:23.508Z</time></trkpt><trkpt lat="45.5851965" lon="10.4431133"><ele>206.25</ele><time>2026-03-29T07:40:24.51Z</time></trkpt><trkpt lat="45.5851698" lon="10.442941"><ele>206.0</ele><time>2026-03-29T07:40:25.511Z</time></trkpt><trkpt lat="45.585136" lon="10.4427805"><ele>206.0</ele><time>2026-03-29T07:40:26.51Z</time></trkpt><trkpt lat="45.5850902" lon="10.4426215"><ele>206.0</ele><time>2026-03-29T07:40:27.508Z</time></trkpt><trkpt lat="45.585043" lon="10.442467"><ele>206.0</ele><time>2026-03-29T07:40:28.506Z</time></trkpt><trkpt lat="45.5849958" lon="10.442328"><ele>206.0</ele><time>2026-03-29T07:40:29.508Z</time></trkpt><trkpt lat="45.5849548" lon="10.442209"><ele>206.0</ele><time>2026-03-29T07:40:30.508Z</time></trkpt><trkpt lat="45.5849187" lon="10.4421085"><ele>205.83333333333334</ele><time>2026-03-29T07:40:31.507Z</time></trkpt><trkpt lat="45.5848855" lon="10.4420215"><ele>205.66666666666669</ele><time>2026-03-29T07:40:32.511Z</time></trkpt><trkpt lat="45.5848535" lon="10.4419308"><ele>205.5</ele><time>2026-03-29T07:40:33.511Z</time></trkpt><trkpt lat="45.584821" lon="10.44184"><ele>205.33333333333331</ele><time>2026-03-29T07:40:34.512Z</time></trkpt><trkpt lat="45.584787" lon="10.4417602"><ele>205.16666666666666</ele><time>2026-03-29T07:40:35.513Z</time></trkpt><trkpt lat="45.5846942" lon="10.4416733"><ele>205.0</ele><time>2026-03-29T07:40:37.511Z</time></trkpt><trkpt lat="45.5845675" lon="10.4416832"><ele>204.99999999999997</ele><time>2026-03-29T07:40:39.51Z</time></trkpt><trkpt lat="45.5844965" lon="10.4416852"><ele>205.0</ele><time>2026-03-29T07:40:40.512Z</time></trkpt><trkpt lat="45.5844272" lon="10.4416685"><ele>205.0</ele><time>2026-03-29T07:40:41.511Z</time></trkpt><trkpt lat="45.5843533" lon="10.4416363"><ele>205.0</ele><time>2026-03-29T07:40:42.509Z</time></trkpt><trkpt lat="45.5842832" lon="10.4416058"><ele>204.99999999999997</ele><time>2026-03-29T07:40:43.51Z</time></trkpt><trkpt lat="45.5842082" lon="10.4415737"><ele>205.0</ele><time>2026-03-29T07:40:44.509Z</time></trkpt><trkpt lat="45.5841288" lon="10.4415412"><ele>204.99999999999997</ele><time>2026-03-29T07:40:45.509Z</time></trkpt><trkpt lat="45.584043" lon="10.4415055"><ele>205.0</ele><time>2026-03-29T07:40:46.509Z</time></trkpt><trkpt lat="45.5839565" lon="10.4414713"><ele>205.0</ele><time>2026-03-29T07:40:47.507Z</time></trkpt><trkpt lat="45.5838705" lon="10.441439"><ele>205.0</ele><time>2026-03-29T07:40:48.511Z</time></trkpt><trkpt lat="45.5837837" lon="10.4414057"><ele>204.99999999999997</ele><time>2026-03-29T07:40:49.509Z</time></trkpt><trkpt lat="45.5837017" lon="10.4413758"><ele>205.0</ele><time>2026-03-29T07:40:50.508Z</time></trkpt><trkpt lat="45.583627" lon="10.4413493"><ele>204.99999999999997</ele><time>2026-03-29T07:40:51.511Z</time></trkpt><trkpt lat="45.5835595" lon="10.4413247"><ele>205.0</ele><time>2026-03-29T07:40:52.507Z</time></trkpt><trkpt lat="45.5834948" lon="10.441302"><ele>205.0</ele><time>2026-03-29T07:40:53.508Z</time></trkpt><trkpt lat="45.5834328" lon="10.4412807"><ele>205.0</ele><time>2026-03-29T07:40:54.508Z</time></trkpt><trkpt lat="45.5833107" lon="10.4412303"><ele>204.99999999999997</ele><time>2026-03-29T07:40:56.509Z</time></trkpt><trkpt lat="45.5832438" lon="10.4411973"><ele>205.0</ele><time>2026-03-29T07:40:57.511Z</time></trkpt><trkpt lat="45.5831772" lon="10.4411748"><ele>204.99999999999997</ele><time>2026-03-29T07:40:58.51Z</time></trkpt><trkpt lat="45.5831097" lon="10.4411913"><ele>205.0</ele><time>2026-03-29T07:40:59.509Z</time></trkpt><trkpt lat="45.5830518" lon="10.441254"><ele>205.0</ele><time>2026-03-29T07:41:00.51Z</time></trkpt><trkpt lat="45.582998" lon="10.4413437"><ele>205.0</ele><time>2026-03-29T07:41:01.525Z</time></trkpt><trkpt lat="45.5829328" lon="10.4414423"><ele>204.99999999999997</ele><time>2026-03-29T07:41:02.508Z</time></trkpt><trkpt lat="45.5828512" lon="10.4415572"><ele>205.0</ele><time>2026-03-29T07:41:03.508Z</time></trkpt><trkpt lat="45.5827605" lon="10.4416723"><ele>205.0</ele><time>2026-03-29T07:41:04.508Z</time></trkpt><trkpt lat="45.5826753" lon="10.4417818"><ele>205.0</ele><time>2026-03-29T07:41:05.507Z</time></trkpt><trkpt lat="45.5825917" lon="10.441889"><ele>205.0</ele><time>2026-03-29T07:41:06.509Z</time></trkpt><trkpt lat="45.5825057" lon="10.441998"><ele>205.0</ele><time>2026-03-29T07:41:07.511Z</time></trkpt><trkpt lat="45.5824122" lon="10.4421202"><ele>204.75</ele><time>2026-03-29T07:41:08.51Z</time></trkpt><trkpt lat="45.582317" lon="10.4422583"><ele>204.5</ele><time>2026-03-29T07:41:09.51Z</time></trkpt><trkpt lat="45.5822265" lon="10.442418"><ele>204.25</ele><time>2026-03-29T07:41:10.512Z</time></trkpt><trkpt lat="45.5821398" lon="10.4425943"><ele>204.0</ele><time>2026-03-29T07:41:11.509Z</time></trkpt><trkpt lat="45.5820525" lon="10.4427768"><ele>203.75</ele><time>2026-03-29T07:41:12.509Z</time></trkpt><trkpt lat="45.5819682" lon="10.4429492"><ele>203.5</ele><time>2026-03-29T07:41:13.508Z</time></trkpt><trkpt lat="45.5818778" lon="10.4431132"><ele>203.25</ele><time>2026-03-29T07:41:14.511Z</time></trkpt><trkpt lat="45.5817753" lon="10.443261"><ele>203.0</ele><time>2026-03-29T07:41:15.507Z</time></trkpt><trkpt lat="45.5816635" lon="10.4433988"><ele>202.66666666666669</ele><time>2026-03-29T07:41:16.507Z</time></trkpt><trkpt lat="45.5815445" lon="10.443525"><ele>202.33333333333331</ele><time>2026-03-29T07:41:17.507Z</time></trkpt><trkpt lat="45.5814197" lon="10.4436435"><ele>202.0</ele><time>2026-03-29T07:41:18.507Z</time></trkpt><trkpt lat="45.5812848" lon="10.4437532"><ele>202.0</ele><time>2026-03-29T07:41:19.507Z</time></trkpt><trkpt lat="45.5811478" lon="10.4438443"><ele>202.0</ele><time>2026-03-29T07:41:20.505Z</time></trkpt><trkpt lat="45.5809983" lon="10.4439272"><ele>202.0</ele><time>2026-03-29T07:41:21.508Z</time></trkpt><trkpt lat="45.5808403" lon="10.4440033"><ele>202.0</ele><time>2026-03-29T07:41:22.51Z</time></trkpt><trkpt lat="45.5806778" lon="10.4440685"><ele>202.0</ele><time>2026-03-29T07:41:23.512Z</time></trkpt><trkpt lat="45.5805123" lon="10.44413"><ele>202.0</ele><time>2026-03-29T07:41:24.509Z</time></trkpt><trkpt lat="45.5803483" lon="10.4441902"><ele>201.66666666666666</ele><time>2026-03-29T07:41:25.51Z</time></trkpt><trkpt lat="45.5801857" lon="10.4442525"><ele>201.33333333333331</ele><time>2026-03-29T07:41:26.51Z</time></trkpt><trkpt lat="45.5800308" lon="10.4443125"><ele>201.0</ele><time>2026-03-29T07:41:27.51Z</time></trkpt><trkpt lat="45.5798885" lon="10.4443642"><ele>201.0</ele><time>2026-03-29T07:41:28.51Z</time></trkpt><trkpt lat="45.5797505" lon="10.4444143"><ele>201.0</ele><time>2026-03-29T07:41:29.509Z</time></trkpt><trkpt lat="45.5796103" lon="10.4444668"><ele>201.0</ele><time>2026-03-29T07:41:30.511Z</time></trkpt><trkpt lat="45.579471" lon="10.4445198"><ele>201.0</ele><time>2026-03-29T07:41:31.509Z</time></trkpt><trkpt lat="45.57934" lon="10.4445745"><ele>202.25</ele><time>2026-03-29T07:41:32.509Z</time></trkpt><trkpt lat="45.5792107" lon="10.4446373"><ele>203.5</ele><time>2026-03-29T07:41:33.509Z</time></trkpt><trkpt lat="45.5790805" lon="10.444709"><ele>204.75</ele><time>2026-03-29T07:41:34.512Z</time></trkpt><trkpt lat="45.5789503" lon="10.4447905"><ele>206.0</ele><time>2026-03-29T07:41:35.512Z</time></trkpt><trkpt lat="45.5788192" lon="10.4448778"><ele>206.0</ele><time>2026-03-29T07:41:36.511Z</time></trkpt><trkpt lat="45.5786933" lon="10.4449612"><ele>206.0</ele><time>2026-03-29T07:41:37.509Z</time></trkpt><trkpt lat="45.5785712" lon="10.4450288"><ele>206.0</ele><time>2026-03-29T07:41:38.508Z</time></trkpt><trkpt lat="45.5784508" lon="10.4450787"><ele>206.0</ele><time>2026-03-29T07:41:39.509Z</time></trkpt><trkpt lat="45.5783352" lon="10.4451073"><ele>205.4</ele><time>2026-03-29T07:41:40.508Z</time></trkpt><trkpt lat="45.578232" lon="10.4451243"><ele>204.8</ele><time>2026-03-29T07:41:41.508Z</time></trkpt><trkpt lat="45.578155" lon="10.445134"><ele>204.20000000000002</ele><time>2026-03-29T07:41:42.505Z</time></trkpt><trkpt lat="45.5780753" lon="10.44512"><ele>203.60000000000002</ele><time>2026-03-29T07:41:44.507Z</time></trkpt><trkpt lat="45.578025" lon="10.4450542"><ele>203.0</ele><time>2026-03-29T07:41:46.513Z</time></trkpt><trkpt lat="45.5779768" lon="10.4448852"><ele>203.00000000000003</ele><time>2026-03-29T07:41:48.512Z</time></trkpt><trkpt lat="45.5779518" lon="10.4447877"><ele>203.0</ele><time>2026-03-29T07:41:49.514Z</time></trkpt><trkpt lat="45.5779273" lon="10.4446932"><ele>203.0</ele><time>2026-03-29T07:41:50.511Z</time></trkpt><trkpt lat="45.5779037" lon="10.444608"><ele>203.0</ele><time>2026-03-29T07:41:51.511Z</time></trkpt><trkpt lat="45.5778743" lon="10.444507"><ele>203.00000000000003</ele><time>2026-03-29T07:41:52.513Z</time></trkpt><trkpt lat="45.577837" lon="10.4443777"><ele>203.0</ele><time>2026-03-29T07:41:53.51Z</time></trkpt><trkpt lat="45.577798" lon="10.4442403"><ele>202.75</ele><time>2026-03-29T07:41:54.511Z</time></trkpt><trkpt lat="45.5777522" lon="10.4440873"><ele>202.5</ele><time>2026-03-29T07:41:55.513Z</time></trkpt><trkpt lat="45.5777055" lon="10.4439287"><ele>202.25</ele><time>2026-03-29T07:41:56.51Z</time></trkpt><trkpt lat="45.5776587" lon="10.44377"><ele>202.0</ele><time>2026-03-29T07:41:57.509Z</time></trkpt><trkpt lat="45.5776127" lon="10.443605"><ele>201.25</ele><time>2026-03-29T07:41:58.511Z</time></trkpt><trkpt lat="45.5775668" lon="10.4434385"><ele>200.5</ele><time>2026-03-29T07:41:59.509Z</time></trkpt><trkpt lat="45.5775222" lon="10.4432827"><ele>199.75</ele><time>2026-03-29T07:42:00.511Z</time></trkpt><trkpt lat="45.5774813" lon="10.4431382"><ele>199.0</ele><time>2026-03-29T07:42:01.512Z</time></trkpt><trkpt lat="45.577443" lon="10.443007"><ele>198.66666666666666</ele><time>2026-03-29T07:42:02.51Z</time></trkpt><trkpt lat="45.5774065" lon="10.4428905"><ele>198.33333333333331</ele><time>2026-03-29T07:42:03.513Z</time></trkpt><trkpt lat="45.5773688" lon="10.4427898"><ele>198.0</ele><time>2026-03-29T07:42:04.512Z</time></trkpt><trkpt lat="45.5773318" lon="10.4427112"><ele>197.66666666666669</ele><time>2026-03-29T07:42:05.509Z</time></trkpt><trkpt lat="45.5772578" lon="10.4425938"><ele>197.33333333333334</ele><time>2026-03-29T07:42:07.508Z</time></trkpt><trkpt lat="45.5771915" lon="10.4425017"><ele>197.0</ele><time>2026-03-29T07:42:09.508Z</time></trkpt><trkpt lat="45.5771328" lon="10.4423742"><ele>197.00000000000003</ele><time>2026-03-29T07:42:11.512Z</time></trkpt><trkpt lat="45.5770985" lon="10.4422838"><ele>197.0</ele><time>2026-03-29T07:42:12.513Z</time></trkpt><trkpt lat="45.5770523" lon="10.4422218"><ele>197.0</ele><time>2026-03-29T07:42:13.511Z</time></trkpt><trkpt lat="45.5769283" lon="10.44224"><ele>197.0</ele><time>2026-03-29T07:42:15.511Z</time></trkpt><trkpt lat="45.5768728" lon="10.4423115"><ele>197.00000000000003</ele><time>2026-03-29T07:42:16.511Z</time></trkpt><trkpt lat="45.5768138" lon="10.4423903"><ele>197.0</ele><time>2026-03-29T07:42:17.509Z</time></trkpt><trkpt lat="45.5767462" lon="10.4424688"><ele>197.33333333333334</ele><time>2026-03-29T07:42:18.51Z</time></trkpt><trkpt lat="45.5766747" lon="10.4425397"><ele>197.66666666666669</ele><time>2026-03-29T07:42:19.513Z</time></trkpt><trkpt lat="45.576604" lon="10.4426085"><ele>198.0</ele><time>2026-03-29T07:42:20.51Z</time></trkpt><trkpt lat="45.5765422" lon="10.442671"><ele>198.33333333333331</ele><time>2026-03-29T07:42:21.509Z</time></trkpt><trkpt lat="45.5764847" lon="10.4427277"><ele>198.66666666666666</ele><time>2026-03-29T07:42:22.511Z</time></trkpt><trkpt lat="45.5764257" lon="10.4427832"><ele>199.0</ele><time>2026-03-29T07:42:23.509Z</time></trkpt><trkpt lat="45.5763648" lon="10.4428352"><ele>198.99999999999997</ele><time>2026-03-29T07:42:24.513Z</time></trkpt><trkpt lat="45.5763017" lon="10.4428838"><ele>199.0</ele><time>2026-03-29T07:42:25.515Z</time></trkpt><trkpt lat="45.5762337" lon="10.442934"><ele>199.0</ele><time>2026-03-29T07:42:26.513Z</time></trkpt><trkpt lat="45.5761725" lon="10.4429957"><ele>199.0</ele><time>2026-03-29T07:42:27.514Z</time></trkpt><trkpt lat="45.5761255" lon="10.4430813"><ele>198.99999999999997</ele><time>2026-03-29T07:42:28.513Z</time></trkpt><trkpt lat="45.5761" lon="10.4431895"><ele>199.0</ele><time>2026-03-29T07:42:29.514Z</time></trkpt><trkpt lat="45.5760927" lon="10.4433085"><ele>199.6</ele><time>2026-03-29T07:42:30.511Z</time></trkpt><trkpt lat="45.5760823" lon="10.4434405"><ele>200.2</ele><time>2026-03-29T07:42:31.509Z</time></trkpt><trkpt lat="45.5760582" lon="10.4435718"><ele>200.79999999999998</ele><time>2026-03-29T07:42:32.509Z</time></trkpt><trkpt lat="45.576016" lon="10.4437072"><ele>201.39999999999998</ele><time>2026-03-29T07:42:33.509Z</time></trkpt><trkpt lat="45.5759587" lon="10.4438518"><ele>202.0</ele><time>2026-03-29T07:42:34.511Z</time></trkpt><trkpt lat="45.575896" lon="10.4439992"><ele>202.0</ele><time>2026-03-29T07:42:35.512Z</time></trkpt><trkpt lat="45.5758362" lon="10.4441458"><ele>202.0</ele><time>2026-03-29T07:42:36.513Z</time></trkpt><trkpt lat="45.5757788" lon="10.444302"><ele>202.0</ele><time>2026-03-29T07:42:37.513Z</time></trkpt><trkpt lat="45.5757317" lon="10.4444582"><ele>202.0</ele><time>2026-03-29T07:42:38.512Z</time></trkpt><trkpt lat="45.5756922" lon="10.444611"><ele>202.0</ele><time>2026-03-29T07:42:39.511Z</time></trkpt><trkpt lat="45.575643" lon="10.4447615"><ele>202.0</ele><time>2026-03-29T07:42:40.511Z</time></trkpt><trkpt lat="45.5755767" lon="10.4449197"><ele>202.0</ele><time>2026-03-29T07:42:41.512Z</time></trkpt><trkpt lat="45.5754912" lon="10.4450937"><ele>202.0</ele><time>2026-03-29T07:42:42.512Z</time></trkpt><trkpt lat="45.575389" lon="10.4452883"><ele>203.33333333333331</ele><time>2026-03-29T07:42:43.512Z</time></trkpt><trkpt lat="45.57529" lon="10.4454855"><ele>204.66666666666669</ele><time>2026-03-29T07:42:44.513Z</time></trkpt><trkpt lat="45.5751978" lon="10.4456718"><ele>206.0</ele><time>2026-03-29T07:42:45.511Z</time></trkpt><trkpt lat="45.575107" lon="10.4458457"><ele>206.0</ele><time>2026-03-29T07:42:46.513Z</time></trkpt><trkpt lat="45.5750098" lon="10.4460163"><ele>206.0</ele><time>2026-03-29T07:42:47.51Z</time></trkpt><trkpt lat="45.5749023" lon="10.44619"><ele>206.0</ele><time>2026-03-29T07:42:48.51Z</time></trkpt><trkpt lat="45.574784" lon="10.4463677"><ele>207.0</ele><time>2026-03-29T07:42:49.512Z</time></trkpt><trkpt lat="45.5746557" lon="10.4465465"><ele>208.0</ele><time>2026-03-29T07:42:50.51Z</time></trkpt><trkpt lat="45.5745227" lon="10.4467292"><ele>209.0</ele><time>2026-03-29T07:42:51.511Z</time></trkpt><trkpt lat="45.574386" lon="10.446921"><ele>209.0</ele><time>2026-03-29T07:42:52.511Z</time></trkpt><trkpt lat="45.5742465" lon="10.4471198"><ele>209.0</ele><time>2026-03-29T07:42:53.509Z</time></trkpt><trkpt lat="45.5741108" lon="10.4473122"><ele>209.0</ele><time>2026-03-29T07:42:54.509Z</time></trkpt><trkpt lat="45.5739783" lon="10.4475007"><ele>210.33333333333334</ele><time>2026-03-29T07:42:55.509Z</time></trkpt><trkpt lat="45.5738488" lon="10.447687"><ele>211.66666666666669</ele><time>2026-03-29T07:42:56.509Z</time></trkpt><trkpt lat="45.5737243" lon="10.447877"><ele>213.0</ele><time>2026-03-29T07:42:57.51Z</time></trkpt><trkpt lat="45.573614" lon="10.4480813"><ele>215.33333333333331</ele><time>2026-03-29T07:42:58.509Z</time></trkpt><trkpt lat="45.5735225" lon="10.4483023"><ele>217.66666666666666</ele><time>2026-03-29T07:42:59.51Z</time></trkpt><trkpt lat="45.5734472" lon="10.4485338"><ele>220.0</ele><time>2026-03-29T07:43:00.509Z</time></trkpt><trkpt lat="45.5733833" lon="10.448767"><ele>220.66666666666666</ele><time>2026-03-29T07:43:01.509Z</time></trkpt><trkpt lat="45.573322" lon="10.4490007"><ele>221.33333333333331</ele><time>2026-03-29T07:43:02.509Z</time></trkpt><trkpt lat="45.5732652" lon="10.4492283"><ele>222.0</ele><time>2026-03-29T07:43:03.508Z</time></trkpt><trkpt lat="45.5732098" lon="10.4494487"><ele>222.66666666666669</ele><time>2026-03-29T07:43:04.512Z</time></trkpt><trkpt lat="45.5731455" lon="10.4496518"><ele>223.33333333333334</ele><time>2026-03-29T07:43:05.511Z</time></trkpt><trkpt lat="45.5730633" lon="10.4498452"><ele>224.0</ele><time>2026-03-29T07:43:06.513Z</time></trkpt><trkpt lat="45.5729633" lon="10.4500323"><ele>224.0</ele><time>2026-03-29T07:43:07.512Z</time></trkpt><trkpt lat="45.5728445" lon="10.450212"><ele>224.0</ele><time>2026-03-29T07:43:08.511Z</time></trkpt><trkpt lat="45.5727073" lon="10.450382"><ele>224.0</ele><time>2026-03-29T07:43:09.511Z</time></trkpt><trkpt lat="45.5725602" lon="10.4505557"><ele>224.0</ele><time>2026-03-29T07:43:10.511Z</time></trkpt><trkpt lat="45.572411" lon="10.4507407"><ele>224.0</ele><time>2026-03-29T07:43:11.51Z</time></trkpt><trkpt lat="45.5722613" lon="10.450933"><ele>224.0</ele><time>2026-03-29T07:43:12.511Z</time></trkpt><trkpt lat="45.5721125" lon="10.4511275"><ele>224.33333333333334</ele><time>2026-03-29T07:43:13.51Z</time></trkpt><trkpt lat="45.5719657" lon="10.4513257"><ele>224.66666666666669</ele><time>2026-03-29T07:43:14.512Z</time></trkpt><trkpt lat="45.571825" lon="10.4515315"><ele>225.0</ele><time>2026-03-29T07:43:15.508Z</time></trkpt><trkpt lat="45.5716902" lon="10.4517453"><ele>225.0</ele><time>2026-03-29T07:43:16.512Z</time></trkpt><trkpt lat="45.5715572" lon="10.451964"><ele>225.0</ele><time>2026-03-29T07:43:17.51Z</time></trkpt><trkpt lat="45.5714232" lon="10.4521832"><ele>225.0</ele><time>2026-03-29T07:43:18.51Z</time></trkpt><trkpt lat="45.571288" lon="10.4524033"><ele>225.0</ele><time>2026-03-29T07:43:19.51Z</time></trkpt><trkpt lat="45.5711508" lon="10.4526235"><ele>225.0</ele><time>2026-03-29T07:43:20.509Z</time></trkpt><trkpt lat="45.5710113" lon="10.4528427"><ele>225.0</ele><time>2026-03-29T07:43:21.508Z</time></trkpt><trkpt lat="45.5708658" lon="10.4530537"><ele>225.33333333333331</ele><time>2026-03-29T07:43:22.508Z</time></trkpt><trkpt lat="45.5707113" lon="10.45325"><ele>225.66666666666666</ele><time>2026-03-29T07:43:23.51Z</time></trkpt><trkpt lat="45.570548" lon="10.453432"><ele>226.0</ele><time>2026-03-29T07:43:24.513Z</time></trkpt><trkpt lat="45.570378" lon="10.453607"><ele>226.0</ele><time>2026-03-29T07:43:25.512Z</time></trkpt><trkpt lat="45.5702067" lon="10.4537828"><ele>226.0</ele><time>2026-03-29T07:43:26.514Z</time></trkpt><trkpt lat="45.5700358" lon="10.4539612"><ele>226.0</ele><time>2026-03-29T07:43:27.51Z</time></trkpt><trkpt lat="45.5698665" lon="10.4541387"><ele>227.33333333333331</ele><time>2026-03-29T07:43:28.51Z</time></trkpt><trkpt lat="45.569698" lon="10.454315"><ele>228.66666666666669</ele><time>2026-03-29T07:43:29.509Z</time></trkpt><trkpt lat="45.5695302" lon="10.4544895"><ele>230.0</ele><time>2026-03-29T07:43:30.509Z</time></trkpt><trkpt lat="45.569363" lon="10.4546617"><ele>231.66666666666669</ele><time>2026-03-29T07:43:31.509Z</time></trkpt><trkpt lat="45.5691952" lon="10.4548293"><ele>233.33333333333331</ele><time>2026-03-29T07:43:32.511Z</time></trkpt><trkpt lat="45.5690255" lon="10.4549898"><ele>235.0</ele><time>2026-03-29T07:43:33.511Z</time></trkpt><trkpt lat="45.5688535" lon="10.455143"><ele>234.66666666666666</ele><time>2026-03-29T07:43:34.511Z</time></trkpt><trkpt lat="45.5686805" lon="10.4552933"><ele>234.33333333333331</ele><time>2026-03-29T07:43:35.51Z</time></trkpt><trkpt lat="45.568508" lon="10.4554428"><ele>234.0</ele><time>2026-03-29T07:43:36.517Z</time></trkpt><trkpt lat="45.568338" lon="10.4555958"><ele>235.0</ele><time>2026-03-29T07:43:37.515Z</time></trkpt><trkpt lat="45.5681743" lon="10.4557617"><ele>236.0</ele><time>2026-03-29T07:43:38.513Z</time></trkpt><trkpt lat="45.568021" lon="10.4559467"><ele>237.0</ele><time>2026-03-29T07:43:39.515Z</time></trkpt><trkpt lat="45.567877" lon="10.4561482"><ele>237.33333333333331</ele><time>2026-03-29T07:43:40.513Z</time></trkpt><trkpt lat="45.5677385" lon="10.4563592"><ele>237.66666666666666</ele><time>2026-03-29T07:43:41.511Z</time></trkpt><trkpt lat="45.5676035" lon="10.4565732"><ele>238.0</ele><time>2026-03-29T07:43:42.511Z</time></trkpt><trkpt lat="45.5674772" lon="10.4567727"><ele>238.0</ele><time>2026-03-29T07:43:43.526Z</time></trkpt><trkpt lat="45.5673635" lon="10.4569452"><ele>238.0</ele><time>2026-03-29T07:43:44.508Z</time></trkpt><trkpt lat="45.567263" lon="10.4570978"><ele>238.0</ele><time>2026-03-29T07:43:45.509Z</time></trkpt><trkpt lat="45.5671717" lon="10.4572367"><ele>238.0</ele><time>2026-03-29T07:43:46.511Z</time></trkpt><trkpt lat="45.5670795" lon="10.4573775"><ele>237.5</ele><time>2026-03-29T07:43:47.509Z</time></trkpt><trkpt lat="45.5669832" lon="10.4575223"><ele>237.0</ele><time>2026-03-29T07:43:48.511Z</time></trkpt><trkpt lat="45.5668837" lon="10.4576703"><ele>236.5</ele><time>2026-03-29T07:43:49.512Z</time></trkpt><trkpt lat="45.5667822" lon="10.4578227"><ele>236.0</ele><time>2026-03-29T07:43:50.512Z</time></trkpt><trkpt lat="45.5666793" lon="10.4579767"><ele>236.0</ele><time>2026-03-29T07:43:51.512Z</time></trkpt><trkpt lat="45.5665757" lon="10.4581313"><ele>236.0</ele><time>2026-03-29T07:43:52.512Z</time></trkpt><trkpt lat="45.5664777" lon="10.4582767"><ele>236.0</ele><time>2026-03-29T07:43:53.513Z</time></trkpt><trkpt lat="45.5663867" lon="10.4584117"><ele>236.0</ele><time>2026-03-29T07:43:54.508Z</time></trkpt><trkpt lat="45.5662978" lon="10.4585265"><ele>236.0</ele><time>2026-03-29T07:43:55.513Z</time></trkpt><trkpt lat="45.5661985" lon="10.4586107"><ele>236.00000000000003</ele><time>2026-03-29T07:43:56.51Z</time></trkpt><trkpt lat="45.5660863" lon="10.4586562"><ele>236.00000000000003</ele><time>2026-03-29T07:43:57.515Z</time></trkpt><trkpt lat="45.565981" lon="10.4586557"><ele>236.0</ele><time>2026-03-29T07:43:58.515Z</time></trkpt><trkpt lat="45.5658937" lon="10.4586263"><ele>236.0</ele><time>2026-03-29T07:43:59.511Z</time></trkpt><trkpt lat="45.5658175" lon="10.4585932"><ele>236.28571428571428</ele><time>2026-03-29T07:44:00.512Z</time></trkpt><trkpt lat="45.5657468" lon="10.458564"><ele>236.57142857142858</ele><time>2026-03-29T07:44:01.51Z</time></trkpt><trkpt lat="45.5656762" lon="10.4585375"><ele>236.85714285714286</ele><time>2026-03-29T07:44:02.512Z</time></trkpt><trkpt lat="45.565607" lon="10.4585125"><ele>237.14285714285714</ele><time>2026-03-29T07:44:03.509Z</time></trkpt><trkpt lat="45.565539" lon="10.4584883"><ele>237.42857142857144</ele><time>2026-03-29T07:44:04.512Z</time></trkpt><trkpt lat="45.5654705" lon="10.4584645"><ele>237.71428571428572</ele><time>2026-03-29T07:44:05.509Z</time></trkpt><trkpt lat="45.5653975" lon="10.4584462"><ele>238.0</ele><time>2026-03-29T07:44:06.51Z</time></trkpt><trkpt lat="45.5653175" lon="10.4584405"><ele>237.99999999999997</ele><time>2026-03-29T07:44:07.511Z</time></trkpt><trkpt lat="45.5652335" lon="10.4584345"><ele>238.0</ele><time>2026-03-29T07:44:08.511Z</time></trkpt><trkpt lat="45.5651528" lon="10.4584125"><ele>238.0</ele><time>2026-03-29T07:44:09.509Z</time></trkpt><trkpt lat="45.5650747" lon="10.4583747"><ele>238.0</ele><time>2026-03-29T07:44:10.507Z</time></trkpt><trkpt lat="45.5649883" lon="10.4583242"><ele>237.99999999999997</ele><time>2026-03-29T07:44:11.51Z</time></trkpt><trkpt lat="45.5648977" lon="10.4582705"><ele>238.0</ele><time>2026-03-29T07:44:12.51Z</time></trkpt><trkpt lat="45.5648035" lon="10.4582153"><ele>238.0</ele><time>2026-03-29T07:44:13.512Z</time></trkpt><trkpt lat="45.5647058" lon="10.4581542"><ele>238.0</ele><time>2026-03-29T07:44:14.511Z</time></trkpt><trkpt lat="45.5646113" lon="10.4580923"><ele>238.0</ele><time>2026-03-29T07:44:15.51Z</time></trkpt><trkpt lat="45.5645242" lon="10.4580413"><ele>238.0</ele><time>2026-03-29T07:44:16.509Z</time></trkpt><trkpt lat="45.5644438" lon="10.4580013"><ele>238.0</ele><time>2026-03-29T07:44:17.51Z</time></trkpt><trkpt lat="45.564365" lon="10.4579623"><ele>237.60000000000002</ele><time>2026-03-29T07:44:18.51Z</time></trkpt><trkpt lat="45.5642773" lon="10.4579205"><ele>237.20000000000002</ele><time>2026-03-29T07:44:19.509Z</time></trkpt><trkpt lat="45.5641847" lon="10.457871"><ele>236.8</ele><time>2026-03-29T07:44:20.51Z</time></trkpt><trkpt lat="45.564091" lon="10.4578143"><ele>236.4</ele><time>2026-03-29T07:44:21.508Z</time></trkpt><trkpt lat="45.5639917" lon="10.4577547"><ele>236.0</ele><time>2026-03-29T07:44:22.51Z</time></trkpt><trkpt lat="45.5638895" lon="10.4576987"><ele>236.0</ele><time>2026-03-29T07:44:23.51Z</time></trkpt><trkpt lat="45.5637908" lon="10.4576502"><ele>236.00000000000003</ele><time>2026-03-29T07:44:24.51Z</time></trkpt><trkpt lat="45.5636977" lon="10.4576062"><ele>236.00000000000003</ele><time>2026-03-29T07:44:25.511Z</time></trkpt><trkpt lat="45.5636105" lon="10.4575637"><ele>236.0</ele><time>2026-03-29T07:44:26.511Z</time></trkpt><trkpt lat="45.5635298" lon="10.4575275"><ele>236.0</ele><time>2026-03-29T07:44:27.51Z</time></trkpt><trkpt lat="45.5634583" lon="10.4575102"><ele>236.0</ele><time>2026-03-29T07:44:28.511Z</time></trkpt><trkpt lat="45.5633487" lon="10.4575568"><ele>236.00000000000003</ele><time>2026-03-29T07:44:30.51Z</time></trkpt><trkpt lat="45.5632747" lon="10.4576982"><ele>236.00000000000003</ele><time>2026-03-29T07:44:32.508Z</time></trkpt><trkpt lat="45.5632552" lon="10.457794"><ele>236.0</ele><time>2026-03-29T07:44:33.508Z</time></trkpt><trkpt lat="45.5632452" lon="10.4579055"><ele>236.0</ele><time>2026-03-29T07:44:34.507Z</time></trkpt><trkpt lat="45.5632342" lon="10.4580222"><ele>236.50000000000003</ele><time>2026-03-29T07:44:35.507Z</time></trkpt><trkpt lat="45.5632223" lon="10.4581318"><ele>237.0</ele><time>2026-03-29T07:44:36.508Z</time></trkpt><trkpt lat="45.56321" lon="10.4582468"><ele>237.5</ele><time>2026-03-29T07:44:37.511Z</time></trkpt><trkpt lat="45.5631908" lon="10.45837"><ele>238.0</ele><time>2026-03-29T07:44:38.51Z</time></trkpt><trkpt lat="45.5631683" lon="10.4584983"><ele>238.50000000000003</ele><time>2026-03-29T07:44:39.51Z</time></trkpt><trkpt lat="45.5631427" lon="10.4586312"><ele>239.0</ele><time>2026-03-29T07:44:40.511Z</time></trkpt><trkpt lat="45.5631158" lon="10.4587747"><ele>239.39999999999998</ele><time>2026-03-29T07:44:41.511Z</time></trkpt><trkpt lat="45.5630855" lon="10.4589205"><ele>239.79999999999998</ele><time>2026-03-29T07:44:42.511Z</time></trkpt><trkpt lat="45.5630508" lon="10.45907"><ele>240.20000000000002</ele><time>2026-03-29T07:44:43.512Z</time></trkpt><trkpt lat="45.5630128" lon="10.4592217"><ele>240.60000000000002</ele><time>2026-03-29T07:44:44.508Z</time></trkpt><trkpt lat="45.5629727" lon="10.459378"><ele>241.0</ele><time>2026-03-29T07:44:45.51Z</time></trkpt><trkpt lat="45.5629317" lon="10.4595345"><ele>241.20000000000002</ele><time>2026-03-29T07:44:46.51Z</time></trkpt><trkpt lat="45.5628917" lon="10.4596788"><ele>241.40000000000003</ele><time>2026-03-29T07:44:47.508Z</time></trkpt><trkpt lat="45.5628582" lon="10.4598082"><ele>241.6</ele><time>2026-03-29T07:44:48.509Z</time></trkpt><trkpt lat="45.562828" lon="10.4599212"><ele>241.8</ele><time>2026-03-29T07:44:49.508Z</time></trkpt><trkpt lat="45.5627413" lon="10.4600203"><ele>242.0</ele><time>2026-03-29T07:44:51.508Z</time></trkpt><trkpt lat="45.5626707" lon="10.4600027"><ele>242.0</ele><time>2026-03-29T07:44:52.51Z</time></trkpt><trkpt lat="45.5625808" lon="10.4599567"><ele>242.0</ele><time>2026-03-29T07:44:53.508Z</time></trkpt><trkpt lat="45.5624835" lon="10.4599162"><ele>242.0</ele><time>2026-03-29T07:44:54.507Z</time></trkpt><trkpt lat="45.5623717" lon="10.459874"><ele>242.0</ele><time>2026-03-29T07:44:55.513Z</time></trkpt><trkpt lat="45.5622573" lon="10.4598282"><ele>242.0</ele><time>2026-03-29T07:44:56.509Z</time></trkpt><trkpt lat="45.5621415" lon="10.4597823"><ele>241.5</ele><time>2026-03-29T07:44:57.507Z</time></trkpt><trkpt lat="45.5620222" lon="10.459734"><ele>241.0</ele><time>2026-03-29T07:44:58.508Z</time></trkpt><trkpt lat="45.5618998" lon="10.4596805"><ele>240.5</ele><time>2026-03-29T07:44:59.508Z</time></trkpt><trkpt lat="45.5617722" lon="10.4596165"><ele>240.0</ele><time>2026-03-29T07:45:00.507Z</time></trkpt><trkpt lat="45.5616438" lon="10.4595503"><ele>239.5</ele><time>2026-03-29T07:45:01.51Z</time></trkpt><trkpt lat="45.5615108" lon="10.459486"><ele>239.0</ele><time>2026-03-29T07:45:02.513Z</time></trkpt><trkpt lat="45.5613758" lon="10.4594285"><ele>238.5</ele><time>2026-03-29T07:45:03.51Z</time></trkpt><trkpt lat="45.5612335" lon="10.4593835"><ele>238.0</ele><time>2026-03-29T07:45:04.511Z</time></trkpt><trkpt lat="45.561085" lon="10.4593525"><ele>236.66666666666666</ele><time>2026-03-29T07:45:05.511Z</time></trkpt><trkpt lat="45.5609318" lon="10.459334"><ele>235.33333333333331</ele><time>2026-03-29T07:45:06.51Z</time></trkpt><trkpt lat="45.5607797" lon="10.4593233"><ele>234.0</ele><time>2026-03-29T07:45:07.511Z</time></trkpt><trkpt lat="45.5606232" lon="10.4593157"><ele>234.0</ele><time>2026-03-29T07:45:08.511Z</time></trkpt><trkpt lat="45.5604667" lon="10.4593047"><ele>234.0</ele><time>2026-03-29T07:45:09.511Z</time></trkpt><trkpt lat="45.5603177" lon="10.4592887"><ele>234.0</ele><time>2026-03-29T07:45:10.512Z</time></trkpt><trkpt lat="45.560181" lon="10.4592698"><ele>234.0</ele><time>2026-03-29T07:45:11.511Z</time></trkpt><trkpt lat="45.5600583" lon="10.4592355"><ele>233.5</ele><time>2026-03-29T07:45:12.511Z</time></trkpt><trkpt lat="45.5599557" lon="10.4591575"><ele>233.0</ele><time>2026-03-29T07:45:13.511Z</time></trkpt><trkpt lat="45.5598823" lon="10.4590295"><ele>232.5</ele><time>2026-03-29T07:45:14.515Z</time></trkpt><trkpt lat="45.5598428" lon="10.4588595"><ele>232.0</ele><time>2026-03-29T07:45:15.511Z</time></trkpt><trkpt lat="45.5598363" lon="10.4586612"><ele>231.0</ele><time>2026-03-29T07:45:16.51Z</time></trkpt><trkpt lat="45.5598485" lon="10.4584478"><ele>230.0</ele><time>2026-03-29T07:45:17.51Z</time></trkpt><trkpt lat="45.559864" lon="10.4582192"><ele>229.0</ele><time>2026-03-29T07:45:18.508Z</time></trkpt><trkpt lat="45.5598793" lon="10.4579928"><ele>229.33333333333331</ele><time>2026-03-29T07:45:19.51Z</time></trkpt><trkpt lat="45.5598945" lon="10.4577598"><ele>229.66666666666669</ele><time>2026-03-29T07:45:20.516Z</time></trkpt><trkpt lat="45.5599095" lon="10.4575293"><ele>230.0</ele><time>2026-03-29T07:45:21.509Z</time></trkpt><trkpt lat="45.5599238" lon="10.4573097"><ele>229.75</ele><time>2026-03-29T07:45:22.508Z</time></trkpt><trkpt lat="45.5599378" lon="10.4570987"><ele>229.5</ele><time>2026-03-29T07:45:23.506Z</time></trkpt><trkpt lat="45.5599492" lon="10.4568933"><ele>229.25</ele><time>2026-03-29T07:45:24.506Z</time></trkpt><trkpt lat="45.5599617" lon="10.4566905"><ele>229.0</ele><time>2026-03-29T07:45:25.506Z</time></trkpt><trkpt lat="45.5599743" lon="10.4564865"><ele>229.25</ele><time>2026-03-29T07:45:26.511Z</time></trkpt><trkpt lat="45.559992" lon="10.4562797"><ele>229.5</ele><time>2026-03-29T07:45:27.508Z</time></trkpt><trkpt lat="45.5600083" lon="10.4560773"><ele>229.75</ele><time>2026-03-29T07:45:28.512Z</time></trkpt><trkpt lat="45.5600203" lon="10.4558837"><ele>230.0</ele><time>2026-03-29T07:45:29.51Z</time></trkpt><trkpt lat="45.5600317" lon="10.4557023"><ele>230.0</ele><time>2026-03-29T07:45:30.511Z</time></trkpt><trkpt lat="45.5600445" lon="10.4555383"><ele>230.0</ele><time>2026-03-29T07:45:31.509Z</time></trkpt><trkpt lat="45.5600538" lon="10.4553922"><ele>230.0</ele><time>2026-03-29T07:45:32.508Z</time></trkpt><trkpt lat="45.560061" lon="10.4552708"><ele>230.0</ele><time>2026-03-29T07:45:33.508Z</time></trkpt><trkpt lat="45.5600643" lon="10.4551703"><ele>230.0</ele><time>2026-03-29T07:45:34.509Z</time></trkpt><trkpt lat="45.560039" lon="10.4550197"><ele>230.0</ele><time>2026-03-29T07:45:36.509Z</time></trkpt><trkpt lat="45.5599408" lon="10.4549863"><ele>230.0</ele><time>2026-03-29T07:45:38.507Z</time></trkpt><trkpt lat="45.5598768" lon="10.4549963"><ele>230.0</ele><time>2026-03-29T07:45:39.51Z</time></trkpt><trkpt lat="45.5597968" lon="10.4550085"><ele>230.0</ele><time>2026-03-29T07:45:40.511Z</time></trkpt><trkpt lat="45.5596993" lon="10.4550197"><ele>230.0</ele><time>2026-03-29T07:45:41.51Z</time></trkpt><trkpt lat="45.5595857" lon="10.455032"><ele>229.25</ele><time>2026-03-29T07:45:42.512Z</time></trkpt><trkpt lat="45.5594657" lon="10.4550447"><ele>228.5</ele><time>2026-03-29T07:45:43.512Z</time></trkpt><trkpt lat="45.5593427" lon="10.4550565"><ele>227.75</ele><time>2026-03-29T07:45:44.511Z</time></trkpt><trkpt lat="45.5592118" lon="10.4550625"><ele>227.0</ele><time>2026-03-29T07:45:45.516Z</time></trkpt><trkpt lat="45.5590833" lon="10.455062"><ele>227.0</ele><time>2026-03-29T07:45:46.512Z</time></trkpt><trkpt lat="45.558957" lon="10.4550592"><ele>227.0</ele><time>2026-03-29T07:45:47.509Z</time></trkpt><trkpt lat="45.5588283" lon="10.455065"><ele>227.0</ele><time>2026-03-29T07:45:48.509Z</time></trkpt><trkpt lat="45.5586998" lon="10.4550833"><ele>227.0</ele><time>2026-03-29T07:45:49.51Z</time></trkpt><trkpt lat="45.5585807" lon="10.4551088"><ele>226.2</ele><time>2026-03-29T07:45:50.512Z</time></trkpt><trkpt lat="45.5584752" lon="10.4551348"><ele>225.39999999999998</ele><time>2026-03-29T07:45:51.513Z</time></trkpt><trkpt lat="45.5583813" lon="10.4551607"><ele>224.60000000000002</ele><time>2026-03-29T07:45:52.512Z</time></trkpt><trkpt lat="45.5582907" lon="10.455189"><ele>223.8</ele><time>2026-03-29T07:45:53.513Z</time></trkpt><trkpt lat="45.5582042" lon="10.4552163"><ele>223.0</ele><time>2026-03-29T07:45:54.512Z</time></trkpt><trkpt lat="45.558121" lon="10.4552423"><ele>222.99999999999997</ele><time>2026-03-29T07:45:55.514Z</time></trkpt><trkpt lat="45.5580457" lon="10.4552662"><ele>223.0</ele><time>2026-03-29T07:45:56.514Z</time></trkpt><trkpt lat="45.5579765" lon="10.455285"><ele>223.0</ele><time>2026-03-29T07:45:57.511Z</time></trkpt><trkpt lat="45.5579052" lon="10.4553122"><ele>223.0</ele><time>2026-03-29T07:45:58.516Z</time></trkpt><trkpt lat="45.5578347" lon="10.4553578"><ele>222.99999999999997</ele><time>2026-03-29T07:45:59.513Z</time></trkpt><trkpt lat="45.5577722" lon="10.4554358"><ele>223.0</ele><time>2026-03-29T07:46:00.512Z</time></trkpt><trkpt lat="45.5577313" lon="10.455548"><ele>224.0</ele><time>2026-03-29T07:46:01.513Z</time></trkpt><trkpt lat="45.5577122" lon="10.4556847"><ele>225.0</ele><time>2026-03-29T07:46:02.511Z</time></trkpt><trkpt lat="45.5577025" lon="10.4558307"><ele>226.0</ele><time>2026-03-29T07:46:03.51Z</time></trkpt><trkpt lat="45.5576907" lon="10.4559845"><ele>227.0</ele><time>2026-03-29T07:46:04.508Z</time></trkpt><trkpt lat="45.557671" lon="10.4561418"><ele>228.0</ele><time>2026-03-29T07:46:05.51Z</time></trkpt><trkpt lat="45.5576353" lon="10.4562935"><ele>228.75</ele><time>2026-03-29T07:46:06.509Z</time></trkpt><trkpt lat="45.5575828" lon="10.4564323"><ele>229.5</ele><time>2026-03-29T07:46:07.511Z</time></trkpt><trkpt lat="45.5575135" lon="10.4565588"><ele>230.25</ele><time>2026-03-29T07:46:08.512Z</time></trkpt><trkpt lat="45.5574273" lon="10.456665"><ele>231.0</ele><time>2026-03-29T07:46:09.513Z</time></trkpt><trkpt lat="45.5573292" lon="10.4567552"><ele>231.0</ele><time>2026-03-29T07:46:10.512Z</time></trkpt><trkpt lat="45.5572268" lon="10.4568452"><ele>231.0</ele><time>2026-03-29T07:46:11.508Z</time></trkpt><trkpt lat="45.5571268" lon="10.45694"><ele>231.0</ele><time>2026-03-29T07:46:12.509Z</time></trkpt><trkpt lat="45.5570377" lon="10.4570308"><ele>231.0</ele><time>2026-03-29T07:46:13.509Z</time></trkpt><trkpt lat="45.5569572" lon="10.4571232"><ele>233.25</ele><time>2026-03-29T07:46:14.507Z</time></trkpt><trkpt lat="45.5568763" lon="10.4572158"><ele>235.5</ele><time>2026-03-29T07:46:15.509Z</time></trkpt><trkpt lat="45.5567833" lon="10.4573012"><ele>237.75</ele><time>2026-03-29T07:46:16.512Z</time></trkpt><trkpt lat="45.5566747" lon="10.4573773"><ele>240.0</ele><time>2026-03-29T07:46:17.511Z</time></trkpt><trkpt lat="45.5565612" lon="10.457443"><ele>240.0</ele><time>2026-03-29T07:46:18.509Z</time></trkpt><trkpt lat="45.5564473" lon="10.4575087"><ele>240.0</ele><time>2026-03-29T07:46:19.51Z</time></trkpt><trkpt lat="45.5563362" lon="10.4575888"><ele>240.0</ele><time>2026-03-29T07:46:20.509Z</time></trkpt><trkpt lat="45.5562337" lon="10.4576812"><ele>240.0</ele><time>2026-03-29T07:46:21.509Z</time></trkpt><trkpt lat="45.5561437" lon="10.457779"><ele>239.6</ele><time>2026-03-29T07:46:22.509Z</time></trkpt><trkpt lat="45.5560647" lon="10.4578875"><ele>239.2</ele><time>2026-03-29T07:46:23.507Z</time></trkpt><trkpt lat="45.5560002" lon="10.4580135"><ele>238.8</ele><time>2026-03-29T07:46:24.509Z</time></trkpt><trkpt lat="45.5559457" lon="10.4581438"><ele>238.4</ele><time>2026-03-29T07:46:25.508Z</time></trkpt><trkpt lat="45.5558888" lon="10.4582588"><ele>238.0</ele><time>2026-03-29T07:46:26.508Z</time></trkpt><trkpt lat="45.555817" lon="10.4583488"><ele>239.25</ele><time>2026-03-29T07:46:27.508Z</time></trkpt><trkpt lat="45.5557238" lon="10.4584212"><ele>240.5</ele><time>2026-03-29T07:46:28.509Z</time></trkpt><trkpt lat="45.5556068" lon="10.4584887"><ele>241.75</ele><time>2026-03-29T07:46:29.51Z</time></trkpt><trkpt lat="45.5554728" lon="10.4585625"><ele>243.0</ele><time>2026-03-29T07:46:30.51Z</time></trkpt><trkpt lat="45.5553392" lon="10.4586345"><ele>243.0</ele><time>2026-03-29T07:46:31.511Z</time></trkpt><trkpt lat="45.5551983" lon="10.4587097"><ele>243.0</ele><time>2026-03-29T07:46:32.51Z</time></trkpt><trkpt lat="45.5550572" lon="10.4587778"><ele>243.0</ele><time>2026-03-29T07:46:33.51Z</time></trkpt><trkpt lat="45.5549182" lon="10.4588363"><ele>243.0</ele><time>2026-03-29T07:46:34.508Z</time></trkpt><trkpt lat="45.5547882" lon="10.4588922"><ele>243.2</ele><time>2026-03-29T07:46:35.508Z</time></trkpt><trkpt lat="45.554665" lon="10.4589632"><ele>243.4</ele><time>2026-03-29T07:46:36.506Z</time></trkpt><trkpt lat="45.5545588" lon="10.4590463"><ele>243.59999999999997</ele><time>2026-03-29T07:46:37.507Z</time></trkpt><trkpt lat="45.5544747" lon="10.4591402"><ele>243.79999999999998</ele><time>2026-03-29T07:46:38.508Z</time></trkpt><trkpt lat="45.55442" lon="10.4592313"><ele>244.0</ele><time>2026-03-29T07:46:39.509Z</time></trkpt><trkpt lat="45.5543433" lon="10.459341"><ele>243.99999999999997</ele><time>2026-03-29T07:46:41.511Z</time></trkpt><trkpt lat="45.5542347" lon="10.4594272"><ele>244.0</ele><time>2026-03-29T07:46:43.514Z</time></trkpt><trkpt lat="45.5541692" lon="10.459484"><ele>244.0</ele><time>2026-03-29T07:46:44.509Z</time></trkpt><trkpt lat="45.5541088" lon="10.459554"><ele>244.0</ele><time>2026-03-29T07:46:45.507Z</time></trkpt><trkpt lat="45.5540472" lon="10.4596302"><ele>243.99999999999997</ele><time>2026-03-29T07:46:46.507Z</time></trkpt><trkpt lat="45.553982" lon="10.4597095"><ele>244.0</ele><time>2026-03-29T07:46:47.51Z</time></trkpt><trkpt lat="45.55392" lon="10.4597887"><ele>243.49999999999997</ele><time>2026-03-29T07:46:48.508Z</time></trkpt><trkpt lat="45.5538627" lon="10.4598683"><ele>243.0</ele><time>2026-03-29T07:46:49.508Z</time></trkpt><trkpt lat="45.5538048" lon="10.4599583"><ele>242.5</ele><time>2026-03-29T07:46:50.508Z</time></trkpt><trkpt lat="45.55375" lon="10.4600593"><ele>242.0</ele><time>2026-03-29T07:46:51.511Z</time></trkpt><trkpt lat="45.553702" lon="10.4601625"><ele>241.49999999999997</ele><time>2026-03-29T07:46:52.509Z</time></trkpt><trkpt lat="45.5536613" lon="10.460264"><ele>241.0</ele><time>2026-03-29T07:46:53.509Z</time></trkpt><trkpt lat="45.5536222" lon="10.46036"><ele>241.49999999999997</ele><time>2026-03-29T07:46:54.508Z</time></trkpt><trkpt lat="45.5535798" lon="10.4604563"><ele>242.0</ele><time>2026-03-29T07:46:55.509Z</time></trkpt><trkpt lat="45.5535347" lon="10.4605467"><ele>242.5</ele><time>2026-03-29T07:46:56.508Z</time></trkpt><trkpt lat="45.5534867" lon="10.4606365"><ele>243.0</ele><time>2026-03-29T07:46:57.51Z</time></trkpt><trkpt lat="45.5534367" lon="10.4607182"><ele>243.49999999999997</ele><time>2026-03-29T07:46:58.51Z</time></trkpt><trkpt lat="45.553384" lon="10.4607868"><ele>244.0</ele><time>2026-03-29T07:46:59.508Z</time></trkpt><trkpt lat="45.553327" lon="10.4608393"><ele>243.99999999999997</ele><time>2026-03-29T07:47:00.507Z</time></trkpt><trkpt lat="45.5532572" lon="10.46088"><ele>244.0</ele><time>2026-03-29T07:47:01.506Z</time></trkpt><trkpt lat="45.5531882" lon="10.460912"><ele>244.0</ele><time>2026-03-29T07:47:02.507Z</time></trkpt><trkpt lat="45.5530745" lon="10.460948"><ele>244.0</ele><time>2026-03-29T07:47:04.51Z</time></trkpt><trkpt lat="45.5529927" lon="10.4609842"><ele>243.99999999999997</ele><time>2026-03-29T07:47:06.509Z</time></trkpt><trkpt lat="45.5529523" lon="10.4610783"><ele>244.0</ele><time>2026-03-29T07:47:08.51Z</time></trkpt><trkpt lat="45.5529365" lon="10.4611978"><ele>243.99999999999997</ele><time>2026-03-29T07:47:10.511Z</time></trkpt><trkpt lat="45.5529242" lon="10.4613187"><ele>244.0</ele><time>2026-03-29T07:47:13.511Z</time></trkpt><trkpt lat="45.5529128" lon="10.4614123"><ele>244.0</ele><time>2026-03-29T07:47:16.511Z</time></trkpt><trkpt lat="45.5528952" lon="10.4615083"><ele>244.0</ele><time>2026-03-29T07:47:20.511Z</time></trkpt><trkpt lat="45.5528553" lon="10.4616187"><ele>243.99999999999997</ele><time>2026-03-29T07:47:42.509Z</time></trkpt><trkpt lat="45.5527693" lon="10.4616238"><ele>244.0</ele><time>2026-03-29T07:47:45.51Z</time></trkpt><trkpt lat="45.552695" lon="10.4616143"><ele>243.99999999999997</ele><time>2026-03-29T07:47:47.511Z</time></trkpt><trkpt lat="45.5526232" lon="10.4616263"><ele>244.0</ele><time>2026-03-29T07:47:50.507Z</time></trkpt><trkpt lat="45.552553" lon="10.4616397"><ele>244.0</ele><time>2026-03-29T07:47:55.514Z</time></trkpt><trkpt lat="45.5524822" lon="10.4616575"><ele>244.0</ele><time>2026-03-29T07:48:00.509Z</time></trkpt><trkpt lat="45.5524062" lon="10.4616745"><ele>243.99999999999997</ele><time>2026-03-29T07:48:05.507Z</time></trkpt><trkpt lat="45.5523213" lon="10.461628"><ele>244.0</ele><time>2026-03-29T07:48:08.51Z</time></trkpt><trkpt lat="45.5522655" lon="10.461549"><ele>243.99999999999997</ele><time>2026-03-29T07:48:10.508Z</time></trkpt><trkpt lat="45.5522043" lon="10.461485"><ele>244.0</ele><time>2026-03-29T07:48:12.508Z</time></trkpt><trkpt lat="45.5521228" lon="10.4613545"><ele>244.0</ele><time>2026-03-29T07:48:14.507Z</time></trkpt><trkpt lat="45.5520783" lon="10.4612648"><ele>244.0</ele><time>2026-03-29T07:48:15.506Z</time></trkpt><trkpt lat="45.5520285" lon="10.4611935"><ele>243.99999999999997</ele><time>2026-03-29T07:48:16.507Z</time></trkpt><trkpt lat="45.551965" lon="10.4611442"><ele>244.0</ele><time>2026-03-29T07:48:17.51Z</time></trkpt><trkpt lat="45.5518828" lon="10.4611043"><ele>243.6</ele><time>2026-03-29T07:48:18.508Z</time></trkpt><trkpt lat="45.5517885" lon="10.4610718"><ele>243.2</ele><time>2026-03-29T07:48:19.508Z</time></trkpt><trkpt lat="45.5516857" lon="10.4610547"><ele>242.79999999999998</ele><time>2026-03-29T07:48:20.508Z</time></trkpt><trkpt lat="45.5515825" lon="10.4610572"><ele>242.39999999999998</ele><time>2026-03-29T07:48:21.507Z</time></trkpt><trkpt lat="45.5514802" lon="10.4610745"><ele>242.0</ele><time>2026-03-29T07:48:22.509Z</time></trkpt><trkpt lat="45.5513773" lon="10.4610948"><ele>242.00000000000003</ele><time>2026-03-29T07:48:23.509Z</time></trkpt><trkpt lat="45.5512755" lon="10.4611087"><ele>242.0</ele><time>2026-03-29T07:48:24.508Z</time></trkpt><trkpt lat="45.5511798" lon="10.4611193"><ele>242.0</ele><time>2026-03-29T07:48:25.509Z</time></trkpt><trkpt lat="45.5510922" lon="10.461124"><ele>242.0</ele><time>2026-03-29T07:48:26.509Z</time></trkpt><trkpt lat="45.5510122" lon="10.461112"><ele>242.00000000000003</ele><time>2026-03-29T07:48:27.508Z</time></trkpt><trkpt lat="45.5509408" lon="10.4610828"><ele>242.0</ele><time>2026-03-29T07:48:28.51Z</time></trkpt><trkpt lat="45.5508788" lon="10.4610308"><ele>241.83333333333334</ele><time>2026-03-29T07:48:29.508Z</time></trkpt><trkpt lat="45.5508377" lon="10.460958"><ele>241.66666666666669</ele><time>2026-03-29T07:48:30.51Z</time></trkpt><trkpt lat="45.5508122" lon="10.460861"><ele>241.5</ele><time>2026-03-29T07:48:31.511Z</time></trkpt><trkpt lat="45.5507985" lon="10.4607488"><ele>241.33333333333331</ele><time>2026-03-29T07:48:32.51Z</time></trkpt><trkpt lat="45.5507898" lon="10.4606307"><ele>241.16666666666666</ele><time>2026-03-29T07:48:33.511Z</time></trkpt><trkpt lat="45.550779" lon="10.460524"><ele>241.0</ele><time>2026-03-29T07:48:34.511Z</time></trkpt><trkpt lat="45.5507628" lon="10.4604222"><ele>240.66666666666666</ele><time>2026-03-29T07:48:35.509Z</time></trkpt><trkpt lat="45.5507143" lon="10.4602842"><ele>240.33333333333331</ele><time>2026-03-29T07:48:37.511Z</time></trkpt><trkpt lat="45.5506387" lon="10.460231"><ele>240.0</ele><time>2026-03-29T07:48:39.508Z</time></trkpt><trkpt lat="45.5505748" lon="10.460233"><ele>239.66666666666669</ele><time>2026-03-29T07:48:40.509Z</time></trkpt><trkpt lat="45.5504848" lon="10.4602468"><ele>239.33333333333334</ele><time>2026-03-29T07:48:41.508Z</time></trkpt><trkpt lat="45.5503855" lon="10.46026"><ele>239.0</ele><time>2026-03-29T07:48:42.511Z</time></trkpt><trkpt lat="45.5502647" lon="10.4602813"><ele>239.0</ele><time>2026-03-29T07:48:43.511Z</time></trkpt><trkpt lat="45.5501492" lon="10.4603002"><ele>238.99999999999997</ele><time>2026-03-29T07:48:44.512Z</time></trkpt><trkpt lat="45.5500433" lon="10.4603193"><ele>238.99999999999997</ele><time>2026-03-29T07:48:45.513Z</time></trkpt><trkpt lat="45.549938" lon="10.4603393"><ele>239.0</ele><time>2026-03-29T07:48:46.513Z</time></trkpt><trkpt lat="45.5498333" lon="10.460357"><ele>239.0</ele><time>2026-03-29T07:48:47.51Z</time></trkpt><trkpt lat="45.5497312" lon="10.4603732"><ele>239.0</ele><time>2026-03-29T07:48:48.508Z</time></trkpt><trkpt lat="45.5496333" lon="10.4603878"><ele>238.99999999999997</ele><time>2026-03-29T07:48:49.51Z</time></trkpt><trkpt lat="45.5495487" lon="10.4603887"><ele>238.99999999999997</ele><time>2026-03-29T07:48:50.51Z</time></trkpt><trkpt lat="45.549484" lon="10.4603705"><ele>239.0</ele><time>2026-03-29T07:48:51.51Z</time></trkpt><trkpt lat="45.5493987" lon="10.4602392"><ele>239.0</ele><time>2026-03-29T07:48:53.511Z</time></trkpt><trkpt lat="45.5493537" lon="10.4601185"><ele>240.25</ele><time>2026-03-29T07:48:54.512Z</time></trkpt><trkpt lat="45.5492833" lon="10.4599953"><ele>241.5</ele><time>2026-03-29T07:48:55.511Z</time></trkpt><trkpt lat="45.5491868" lon="10.4598777"><ele>242.75</ele><time>2026-03-29T07:48:56.513Z</time></trkpt><trkpt lat="45.5490793" lon="10.4597563"><ele>244.0</ele><time>2026-03-29T07:48:57.513Z</time></trkpt><trkpt lat="45.548974" lon="10.4596325"><ele>243.79999999999998</ele><time>2026-03-29T07:48:58.511Z</time></trkpt><trkpt lat="45.5488787" lon="10.4595212"><ele>243.59999999999997</ele><time>2026-03-29T07:48:59.51Z</time></trkpt><trkpt lat="45.5487888" lon="10.459427"><ele>243.4</ele><time>2026-03-29T07:49:00.512Z</time></trkpt><trkpt lat="45.5487063" lon="10.4593508"><ele>243.2</ele><time>2026-03-29T07:49:01.512Z</time></trkpt><trkpt lat="45.5486318" lon="10.4592832"><ele>243.0</ele><time>2026-03-29T07:49:02.509Z</time></trkpt><trkpt lat="45.5485648" lon="10.4592153"><ele>243.33333333333334</ele><time>2026-03-29T07:49:03.509Z</time></trkpt><trkpt lat="45.5484998" lon="10.4591402"><ele>243.66666666666669</ele><time>2026-03-29T07:49:04.51Z</time></trkpt><trkpt lat="45.548434" lon="10.4590733"><ele>244.0</ele><time>2026-03-29T07:49:05.511Z</time></trkpt><trkpt lat="45.548367" lon="10.459035"><ele>244.33333333333334</ele><time>2026-03-29T07:49:06.511Z</time></trkpt><trkpt lat="45.5482948" lon="10.4590282"><ele>244.66666666666669</ele><time>2026-03-29T07:49:07.511Z</time></trkpt><trkpt lat="45.5482248" lon="10.4590603"><ele>245.0</ele><time>2026-03-29T07:49:08.51Z</time></trkpt><trkpt lat="45.5481733" lon="10.4591352"><ele>245.0</ele><time>2026-03-29T07:49:09.513Z</time></trkpt><trkpt lat="45.5481522" lon="10.459241"><ele>245.0</ele><time>2026-03-29T07:49:10.512Z</time></trkpt><trkpt lat="45.5481627" lon="10.4593625"><ele>245.0</ele><time>2026-03-29T07:49:11.512Z</time></trkpt><trkpt lat="45.5481888" lon="10.4594908"><ele>245.0</ele><time>2026-03-29T07:49:12.513Z</time></trkpt><trkpt lat="45.54821" lon="10.4596413"><ele>245.0</ele><time>2026-03-29T07:49:13.512Z</time></trkpt><trkpt lat="45.5482092" lon="10.4598147"><ele>245.0</ele><time>2026-03-29T07:49:14.512Z</time></trkpt><trkpt lat="45.5481838" lon="10.459989"><ele>245.0</ele><time>2026-03-29T07:49:15.511Z</time></trkpt><trkpt lat="45.5481343" lon="10.46017"><ele>245.0</ele><time>2026-03-29T07:49:16.511Z</time></trkpt><trkpt lat="45.5480645" lon="10.4603608"><ele>245.0</ele><time>2026-03-29T07:49:17.512Z</time></trkpt><trkpt lat="45.5479913" lon="10.4605548"><ele>245.0</ele><time>2026-03-29T07:49:18.509Z</time></trkpt><trkpt lat="45.5479217" lon="10.4607508"><ele>245.0</ele><time>2026-03-29T07:49:19.513Z</time></trkpt><trkpt lat="45.5478583" lon="10.4609598"><ele>245.0</ele><time>2026-03-29T07:49:20.51Z</time></trkpt><trkpt lat="45.547806" lon="10.4611858"><ele>245.66666666666669</ele><time>2026-03-29T07:49:21.51Z</time></trkpt><trkpt lat="45.5477673" lon="10.461421"><ele>246.33333333333331</ele><time>2026-03-29T07:49:22.513Z</time></trkpt><trkpt lat="45.5477395" lon="10.4616575"><ele>247.0</ele><time>2026-03-29T07:49:23.511Z</time></trkpt><trkpt lat="45.5477172" lon="10.4618792"><ele>247.0</ele><time>2026-03-29T07:49:24.513Z</time></trkpt><trkpt lat="45.5476967" lon="10.4620862"><ele>247.0</ele><time>2026-03-29T07:49:25.513Z</time></trkpt><trkpt lat="45.5476773" lon="10.4622865"><ele>247.0</ele><time>2026-03-29T07:49:26.512Z</time></trkpt><trkpt lat="45.54766" lon="10.4624762"><ele>247.0</ele><time>2026-03-29T07:49:27.508Z</time></trkpt><trkpt lat="45.5476435" lon="10.4626517"><ele>247.75</ele><time>2026-03-29T07:49:28.51Z</time></trkpt><trkpt lat="45.547628" lon="10.4628193"><ele>248.5</ele><time>2026-03-29T07:49:29.509Z</time></trkpt><trkpt lat="45.5476118" lon="10.4629862"><ele>249.25</ele><time>2026-03-29T07:49:30.51Z</time></trkpt><trkpt lat="45.547595" lon="10.463154"><ele>250.0</ele><time>2026-03-29T07:49:31.512Z</time></trkpt><trkpt lat="45.5475768" lon="10.463324"><ele>251.0</ele><time>2026-03-29T07:49:32.511Z</time></trkpt><trkpt lat="45.5475573" lon="10.4634958"><ele>252.0</ele><time>2026-03-29T07:49:33.516Z</time></trkpt><trkpt lat="45.5475387" lon="10.4636595"><ele>253.0</ele><time>2026-03-29T07:49:34.513Z</time></trkpt><trkpt lat="45.54752" lon="10.4638202"><ele>254.0</ele><time>2026-03-29T07:49:35.515Z</time></trkpt><trkpt lat="45.5475027" lon="10.463981"><ele>254.33333333333334</ele><time>2026-03-29T07:49:36.512Z</time></trkpt><trkpt lat="45.547489" lon="10.4641308"><ele>254.66666666666669</ele><time>2026-03-29T07:49:37.511Z</time></trkpt><trkpt lat="45.5474768" lon="10.4642635"><ele>255.0</ele><time>2026-03-29T07:49:38.511Z</time></trkpt><trkpt lat="45.5474653" lon="10.46438"><ele>255.33333333333331</ele><time>2026-03-29T07:49:39.51Z</time></trkpt><trkpt lat="45.5474535" lon="10.4644843"><ele>255.66666666666666</ele><time>2026-03-29T07:49:40.514Z</time></trkpt><trkpt lat="45.5474428" lon="10.4645797"><ele>256.0</ele><time>2026-03-29T07:49:41.512Z</time></trkpt><trkpt lat="45.5474163" lon="10.4647337"><ele>256.0</ele><time>2026-03-29T07:49:43.515Z</time></trkpt><trkpt lat="45.5473512" lon="10.4648205"><ele>256.0</ele><time>2026-03-29T07:49:45.509Z</time></trkpt><trkpt lat="45.5472377" lon="10.464817"><ele>256.0</ele><time>2026-03-29T07:49:47.509Z</time></trkpt><trkpt lat="45.5471572" lon="10.4647912"><ele>256.0</ele><time>2026-03-29T07:49:48.508Z</time></trkpt><trkpt lat="45.5470637" lon="10.4647692"><ele>256.0</ele><time>2026-03-29T07:49:49.511Z</time></trkpt><trkpt lat="45.5469608" lon="10.464757"><ele>255.5</ele><time>2026-03-29T07:49:50.509Z</time></trkpt><trkpt lat="45.5468488" lon="10.4647512"><ele>255.0</ele><time>2026-03-29T07:49:51.509Z</time></trkpt><trkpt lat="45.546737" lon="10.4647463"><ele>254.5</ele><time>2026-03-29T07:49:52.508Z</time></trkpt><trkpt lat="45.5466228" lon="10.4647393"><ele>254.0</ele><time>2026-03-29T07:49:53.508Z</time></trkpt><trkpt lat="45.546508" lon="10.4647268"><ele>254.0</ele><time>2026-03-29T07:49:54.51Z</time></trkpt><trkpt lat="45.5463963" lon="10.4647025"><ele>253.99999999999997</ele><time>2026-03-29T07:49:55.508Z</time></trkpt><trkpt lat="45.546287" lon="10.4646657"><ele>253.99999999999997</ele><time>2026-03-29T07:49:56.507Z</time></trkpt><trkpt lat="45.5461792" lon="10.4646123"><ele>254.0</ele><time>2026-03-29T07:49:57.511Z</time></trkpt><trkpt lat="45.5460768" lon="10.4645545"><ele>254.0</ele><time>2026-03-29T07:49:58.509Z</time></trkpt><trkpt lat="45.54598" lon="10.4645057"><ele>253.75</ele><time>2026-03-29T07:49:59.512Z</time></trkpt><trkpt lat="45.5458762" lon="10.4644627"><ele>253.5</ele><time>2026-03-29T07:50:00.509Z</time></trkpt><trkpt lat="45.5457605" lon="10.464422"><ele>253.25</ele><time>2026-03-29T07:50:01.513Z</time></trkpt><trkpt lat="45.545633" lon="10.4643872"><ele>253.0</ele><time>2026-03-29T07:50:02.51Z</time></trkpt><trkpt lat="45.5455068" lon="10.4643565"><ele>253.0</ele><time>2026-03-29T07:50:03.511Z</time></trkpt><trkpt lat="45.5453797" lon="10.464322"><ele>253.0</ele><time>2026-03-29T07:50:04.513Z</time></trkpt><trkpt lat="45.5452518" lon="10.4642818"><ele>253.0</ele><time>2026-03-29T07:50:05.513Z</time></trkpt><trkpt lat="45.5451275" lon="10.4642378"><ele>253.0</ele><time>2026-03-29T07:50:06.512Z</time></trkpt><trkpt lat="45.5450058" lon="10.4641943"><ele>252.75</ele><time>2026-03-29T07:50:07.511Z</time></trkpt><trkpt lat="45.5448885" lon="10.46415"><ele>252.5</ele><time>2026-03-29T07:50:08.509Z</time></trkpt><trkpt lat="45.5447708" lon="10.464109"><ele>252.25</ele><time>2026-03-29T07:50:09.509Z</time></trkpt><trkpt lat="45.5446445" lon="10.4640658"><ele>252.0</ele><time>2026-03-29T07:50:10.51Z</time></trkpt><trkpt lat="45.5445145" lon="10.4640202"><ele>252.0</ele><time>2026-03-29T07:50:11.511Z</time></trkpt><trkpt lat="45.5443902" lon="10.4639768"><ele>252.0</ele><time>2026-03-29T07:50:12.512Z</time></trkpt><trkpt lat="45.5442733" lon="10.4639375"><ele>252.0</ele><time>2026-03-29T07:50:13.512Z</time></trkpt><trkpt lat="45.5441625" lon="10.4639013"><ele>252.0</ele><time>2026-03-29T07:50:14.508Z</time></trkpt><trkpt lat="45.5440603" lon="10.4638695"><ele>252.0</ele><time>2026-03-29T07:50:15.511Z</time></trkpt><trkpt lat="45.543968" lon="10.4638443"><ele>252.0</ele><time>2026-03-29T07:50:16.508Z</time></trkpt><trkpt lat="45.543887" lon="10.4638307"><ele>252.0</ele><time>2026-03-29T07:50:17.507Z</time></trkpt><trkpt lat="45.543817" lon="10.4638277"><ele>252.0</ele><time>2026-03-29T07:50:18.507Z</time></trkpt><trkpt lat="45.5437128" lon="10.4638017"><ele>252.0</ele><time>2026-03-29T07:50:20.512Z</time></trkpt><trkpt lat="45.5436512" lon="10.4636885"><ele>252.16666666666666</ele><time>2026-03-29T07:50:22.517Z</time></trkpt><trkpt lat="45.5436352" lon="10.4635812"><ele>252.33333333333331</ele><time>2026-03-29T07:50:23.511Z</time></trkpt><trkpt lat="45.5436152" lon="10.4634622"><ele>252.5</ele><time>2026-03-29T07:50:24.511Z</time></trkpt><trkpt lat="45.5435953" lon="10.4633408"><ele>252.66666666666666</ele><time>2026-03-29T07:50:25.515Z</time></trkpt><trkpt lat="45.543573" lon="10.4632137"><ele>252.83333333333331</ele><time>2026-03-29T07:50:26.512Z</time></trkpt><trkpt lat="45.54355" lon="10.46308"><ele>253.0</ele><time>2026-03-29T07:50:27.514Z</time></trkpt><trkpt lat="45.5435188" lon="10.4629398"><ele>253.0</ele><time>2026-03-29T07:50:28.514Z</time></trkpt><trkpt lat="45.5434837" lon="10.4627938"><ele>253.0</ele><time>2026-03-29T07:50:29.51Z</time></trkpt><trkpt lat="45.5434532" lon="10.462637"><ele>253.0</ele><time>2026-03-29T07:50:30.513Z</time></trkpt><trkpt lat="45.5434297" lon="10.46248"><ele>253.0</ele><time>2026-03-29T07:50:31.511Z</time></trkpt><trkpt lat="45.5434148" lon="10.4623323"><ele>253.0</ele><time>2026-03-29T07:50:32.509Z</time></trkpt><trkpt lat="45.5434082" lon="10.4621632"><ele>253.25</ele><time>2026-03-29T07:50:33.509Z</time></trkpt><trkpt lat="45.5434048" lon="10.4619835"><ele>253.5</ele><time>2026-03-29T07:50:34.512Z</time></trkpt><trkpt lat="45.5433987" lon="10.4618198"><ele>253.75</ele><time>2026-03-29T07:50:35.512Z</time></trkpt><trkpt lat="45.5433842" lon="10.4616722"><ele>254.0</ele><time>2026-03-29T07:50:36.511Z</time></trkpt><trkpt lat="45.5433552" lon="10.4615273"><ele>254.0</ele><time>2026-03-29T07:50:37.51Z</time></trkpt><trkpt lat="45.54331" lon="10.4613867"><ele>253.99999999999997</ele><time>2026-03-29T07:50:38.507Z</time></trkpt><trkpt lat="45.5432663" lon="10.4612498"><ele>253.99999999999997</ele><time>2026-03-29T07:50:39.508Z</time></trkpt><trkpt lat="45.5432337" lon="10.4611273"><ele>254.0</ele><time>2026-03-29T07:50:40.51Z</time></trkpt><trkpt lat="45.5432043" lon="10.4610107"><ele>254.0</ele><time>2026-03-29T07:50:41.507Z</time></trkpt><trkpt lat="45.5431738" lon="10.4608963"><ele>254.16666666666669</ele><time>2026-03-29T07:50:42.508Z</time></trkpt><trkpt lat="45.5431468" lon="10.4607853"><ele>254.33333333333334</ele><time>2026-03-29T07:50:43.509Z</time></trkpt><trkpt lat="45.5431297" lon="10.4606818"><ele>254.5</ele><time>2026-03-29T07:50:44.508Z</time></trkpt><trkpt lat="45.5431293" lon="10.4605765"><ele>254.66666666666669</ele><time>2026-03-29T07:50:45.51Z</time></trkpt><trkpt lat="45.5431343" lon="10.460462"><ele>254.83333333333334</ele><time>2026-03-29T07:50:46.51Z</time></trkpt><trkpt lat="45.543131" lon="10.4603612"><ele>255.0</ele><time>2026-03-29T07:50:47.506Z</time></trkpt><trkpt lat="45.5431197" lon="10.4602558"><ele>255.16666666666666</ele><time>2026-03-29T07:50:48.507Z</time></trkpt><trkpt lat="45.5430942" lon="10.460149"><ele>255.33333333333331</ele><time>2026-03-29T07:50:49.507Z</time></trkpt><trkpt lat="45.5430638" lon="10.4600567"><ele>255.5</ele><time>2026-03-29T07:50:50.509Z</time></trkpt><trkpt lat="45.543031" lon="10.4599448"><ele>255.66666666666666</ele><time>2026-03-29T07:50:51.508Z</time></trkpt><trkpt lat="45.5429847" lon="10.4598212"><ele>255.83333333333331</ele><time>2026-03-29T07:50:52.508Z</time></trkpt><trkpt lat="45.5429535" lon="10.4597128"><ele>256.0</ele><time>2026-03-29T07:50:53.507Z</time></trkpt><trkpt lat="45.5429318" lon="10.4595925"><ele>255.66666666666666</ele><time>2026-03-29T07:50:54.508Z</time></trkpt><trkpt lat="45.5429135" lon="10.4594578"><ele>255.33333333333331</ele><time>2026-03-29T07:50:55.508Z</time></trkpt><trkpt lat="45.5429063" lon="10.4593403"><ele>255.0</ele><time>2026-03-29T07:50:56.508Z</time></trkpt><trkpt lat="45.5429077" lon="10.4592368"><ele>254.66666666666669</ele><time>2026-03-29T07:50:57.506Z</time></trkpt><trkpt lat="45.5429233" lon="10.4590872"><ele>254.33333333333334</ele><time>2026-03-29T07:50:59.507Z</time></trkpt><trkpt lat="45.542973" lon="10.4590045"><ele>254.0</ele><time>2026-03-29T07:51:01.507Z</time></trkpt><trkpt lat="45.5431143" lon="10.4589998"><ele>254.00000000000003</ele><time>2026-03-29T07:51:03.507Z</time></trkpt><trkpt lat="45.5431863" lon="10.4590058"><ele>254.0</ele><time>2026-03-29T07:51:04.51Z</time></trkpt><trkpt lat="45.5432902" lon="10.4589472"><ele>254.0</ele><time>2026-03-29T07:51:06.507Z</time></trkpt><trkpt lat="45.543321" lon="10.458849"><ele>254.0</ele><time>2026-03-29T07:51:08.507Z</time></trkpt><trkpt lat="45.5433138" lon="10.4587528"><ele>254.00000000000003</ele><time>2026-03-29T07:51:09.507Z</time></trkpt><trkpt lat="45.5433038" lon="10.4586162"><ele>254.0</ele><time>2026-03-29T07:51:10.508Z</time></trkpt><trkpt lat="45.543295" lon="10.4584658"><ele>253.39999999999998</ele><time>2026-03-29T07:51:11.508Z</time></trkpt><trkpt lat="45.5432868" lon="10.4583015"><ele>252.79999999999998</ele><time>2026-03-29T07:51:12.508Z</time></trkpt><trkpt lat="45.5432778" lon="10.4581472"><ele>252.20000000000002</ele><time>2026-03-29T07:51:13.509Z</time></trkpt><trkpt lat="45.5432682" lon="10.4580085"><ele>251.60000000000002</ele><time>2026-03-29T07:51:14.508Z</time></trkpt><trkpt lat="45.543265" lon="10.4578762"><ele>251.0</ele><time>2026-03-29T07:51:15.507Z</time></trkpt><trkpt lat="45.5432653" lon="10.4577602"><ele>250.66666666666669</ele><time>2026-03-29T07:51:16.508Z</time></trkpt><trkpt lat="45.5432725" lon="10.457654"><ele>250.33333333333334</ele><time>2026-03-29T07:51:17.509Z</time></trkpt><trkpt lat="45.5432897" lon="10.4575497"><ele>250.0</ele><time>2026-03-29T07:51:18.509Z</time></trkpt><trkpt lat="45.5433148" lon="10.4574418"><ele>249.66666666666669</ele><time>2026-03-29T07:51:19.508Z</time></trkpt><trkpt lat="45.5433405" lon="10.4573288"><ele>249.33333333333334</ele><time>2026-03-29T07:51:20.509Z</time></trkpt><trkpt lat="45.5433647" lon="10.4572165"><ele>249.0</ele><time>2026-03-29T07:51:21.509Z</time></trkpt><trkpt lat="45.5433873" lon="10.457106"><ele>248.66666666666666</ele><time>2026-03-29T07:51:22.509Z</time></trkpt><trkpt lat="45.543411" lon="10.457003"><ele>248.33333333333331</ele><time>2026-03-29T07:51:23.508Z</time></trkpt><trkpt lat="45.5434422" lon="10.4568972"><ele>248.0</ele><time>2026-03-29T07:51:24.508Z</time></trkpt><trkpt lat="45.5434785" lon="10.4567892"><ele>247.66666666666666</ele><time>2026-03-29T07:51:25.51Z</time></trkpt><trkpt lat="45.5435077" lon="10.456684"><ele>247.33333333333331</ele><time>2026-03-29T07:51:26.51Z</time></trkpt><trkpt lat="45.5435287" lon="10.4565762"><ele>247.0</ele><time>2026-03-29T07:51:27.508Z</time></trkpt><trkpt lat="45.5435447" lon="10.4564538"><ele>246.99999999999997</ele><time>2026-03-29T07:51:28.509Z</time></trkpt><trkpt lat="45.5435612" lon="10.4563307"><ele>247.0</ele><time>2026-03-29T07:51:29.507Z</time></trkpt><trkpt lat="45.5435723" lon="10.4562012"><ele>247.0</ele><time>2026-03-29T07:51:30.507Z</time></trkpt><trkpt lat="45.5435777" lon="10.4560808"><ele>247.0</ele><time>2026-03-29T07:51:31.508Z</time></trkpt><trkpt lat="45.5435783" lon="10.4559687"><ele>246.99999999999997</ele><time>2026-03-29T07:51:32.506Z</time></trkpt><trkpt lat="45.5435788" lon="10.4558628"><ele>247.0</ele><time>2026-03-29T07:51:33.509Z</time></trkpt><trkpt lat="45.5435792" lon="10.4557505"><ele>246.99999999999997</ele><time>2026-03-29T07:51:34.51Z</time></trkpt><trkpt lat="45.543583" lon="10.4556297"><ele>247.0</ele><time>2026-03-29T07:51:35.509Z</time></trkpt><trkpt lat="45.5435907" lon="10.455502"><ele>247.0</ele><time>2026-03-29T07:51:36.507Z</time></trkpt><trkpt lat="45.5436008" lon="10.4553762"><ele>247.0</ele><time>2026-03-29T07:51:37.51Z</time></trkpt><trkpt lat="45.5436078" lon="10.4552578"><ele>246.99999999999997</ele><time>2026-03-29T07:51:38.509Z</time></trkpt><trkpt lat="45.5436113" lon="10.4551312"><ele>247.0</ele><time>2026-03-29T07:51:39.509Z</time></trkpt><trkpt lat="45.5436105" lon="10.4550035"><ele>246.39999999999998</ele><time>2026-03-29T07:51:40.508Z</time></trkpt><trkpt lat="45.5436198" lon="10.4548773"><ele>245.79999999999998</ele><time>2026-03-29T07:51:41.508Z</time></trkpt><trkpt lat="45.5436368" lon="10.45475"><ele>245.2</ele><time>2026-03-29T07:51:42.509Z</time></trkpt><trkpt lat="45.5436512" lon="10.4546213"><ele>244.6</ele><time>2026-03-29T07:51:43.509Z</time></trkpt><trkpt lat="45.5436495" lon="10.454501"><ele>244.0</ele><time>2026-03-29T07:51:44.509Z</time></trkpt><trkpt lat="45.5436343" lon="10.4543667"><ele>243.2</ele><time>2026-03-29T07:51:45.51Z</time></trkpt><trkpt lat="45.543609" lon="10.4542235"><ele>242.39999999999998</ele><time>2026-03-29T07:51:46.513Z</time></trkpt><trkpt lat="45.5435768" lon="10.454068"><ele>241.6</ele><time>2026-03-29T07:51:47.512Z</time></trkpt><trkpt lat="45.54355" lon="10.4539233"><ele>240.8</ele><time>2026-03-29T07:51:48.51Z</time></trkpt><trkpt lat="45.5435335" lon="10.4537953"><ele>240.0</ele><time>2026-03-29T07:51:49.51Z</time></trkpt><trkpt lat="45.5435218" lon="10.4536978"><ele>240.0</ele><time>2026-03-29T07:51:50.51Z</time></trkpt><trkpt lat="45.5434728" lon="10.4535723"><ele>240.0</ele><time>2026-03-29T07:51:52.511Z</time></trkpt><trkpt lat="45.5433515" lon="10.4534697"><ele>240.0</ele><time>2026-03-29T07:51:54.508Z</time></trkpt><trkpt lat="45.5432753" lon="10.4533867"><ele>240.0</ele><time>2026-03-29T07:51:55.509Z</time></trkpt><trkpt lat="45.5431977" lon="10.4532843"><ele>240.0</ele><time>2026-03-29T07:51:56.509Z</time></trkpt><trkpt lat="45.543131" lon="10.4531673"><ele>240.0</ele><time>2026-03-29T07:51:57.508Z</time></trkpt><trkpt lat="45.5430725" lon="10.4530295"><ele>240.0</ele><time>2026-03-29T07:51:58.512Z</time></trkpt><trkpt lat="45.5430218" lon="10.4528832"><ele>240.0</ele><time>2026-03-29T07:51:59.512Z</time></trkpt><trkpt lat="45.5429878" lon="10.4527592"><ele>240.0</ele><time>2026-03-29T07:52:00.511Z</time></trkpt><trkpt lat="45.5429692" lon="10.4526547"><ele>240.0</ele><time>2026-03-29T07:52:01.511Z</time></trkpt><trkpt lat="45.5429732" lon="10.4524823"><ele>240.0</ele><time>2026-03-29T07:52:03.511Z</time></trkpt><trkpt lat="45.5429982" lon="10.452388"><ele>240.0</ele><time>2026-03-29T07:52:04.51Z</time></trkpt><trkpt lat="45.5430408" lon="10.4522848"><ele>240.0</ele><time>2026-03-29T07:52:05.509Z</time></trkpt><trkpt lat="45.543083" lon="10.4521998"><ele>240.0</ele><time>2026-03-29T07:52:06.508Z</time></trkpt><trkpt lat="45.5431587" lon="10.4520663"><ele>240.0</ele><time>2026-03-29T07:52:08.51Z</time></trkpt><trkpt lat="45.5432267" lon="10.4519527"><ele>239.2</ele><time>2026-03-29T07:52:10.511Z</time></trkpt><trkpt lat="45.5432577" lon="10.4518263"><ele>238.4</ele><time>2026-03-29T07:52:12.51Z</time></trkpt><trkpt lat="45.5432468" lon="10.4516627"><ele>237.60000000000002</ele><time>2026-03-29T07:52:14.511Z</time></trkpt><trkpt lat="45.5432338" lon="10.4515735"><ele>236.8</ele><time>2026-03-29T07:52:15.513Z</time></trkpt><trkpt lat="45.5432212" lon="10.4514845"><ele>236.0</ele><time>2026-03-29T07:52:16.513Z</time></trkpt><trkpt lat="45.5432005" lon="10.4513203"><ele>236.20000000000002</ele><time>2026-03-29T07:52:18.512Z</time></trkpt><trkpt lat="45.5431865" lon="10.4511645"><ele>236.40000000000003</ele><time>2026-03-29T07:52:20.508Z</time></trkpt><trkpt lat="45.543178" lon="10.451016"><ele>236.6</ele><time>2026-03-29T07:52:22.511Z</time></trkpt><trkpt lat="45.543172" lon="10.4508705"><ele>236.8</ele><time>2026-03-29T07:52:24.511Z</time></trkpt><trkpt lat="45.5431675" lon="10.4507115"><ele>237.0</ele><time>2026-03-29T07:52:26.514Z</time></trkpt><trkpt lat="45.5431763" lon="10.4505367"><ele>236.75</ele><time>2026-03-29T07:52:28.513Z</time></trkpt><trkpt lat="45.5431948" lon="10.4503613"><ele>236.5</ele><time>2026-03-29T07:52:30.509Z</time></trkpt><trkpt lat="45.5432177" lon="10.4502092"><ele>236.25</ele><time>2026-03-29T07:52:32.509Z</time></trkpt><trkpt lat="45.5432297" lon="10.4500498"><ele>236.0</ele><time>2026-03-29T07:52:34.511Z</time></trkpt><trkpt lat="45.543262" lon="10.4498792"><ele>236.0</ele><time>2026-03-29T07:52:36.511Z</time></trkpt><trkpt lat="45.5432942" lon="10.4497145"><ele>236.00000000000003</ele><time>2026-03-29T07:52:38.511Z</time></trkpt><trkpt lat="45.5433233" lon="10.4495832"><ele>236.00000000000003</ele><time>2026-03-29T07:52:40.508Z</time></trkpt><trkpt lat="45.5433637" lon="10.4494637"><ele>236.0</ele><time>2026-03-29T07:52:42.509Z</time></trkpt><trkpt lat="45.5433945" lon="10.4493605"><ele>236.0</ele><time>2026-03-29T07:52:44.506Z</time></trkpt><trkpt lat="45.5434287" lon="10.449254"><ele>235.66666666666669</ele><time>2026-03-29T07:52:46.509Z</time></trkpt><trkpt lat="45.5434745" lon="10.4491455"><ele>235.33333333333334</ele><time>2026-03-29T07:52:48.507Z</time></trkpt><trkpt lat="45.5434948" lon="10.4490383"><ele>235.0</ele><time>2026-03-29T07:52:50.507Z</time></trkpt><trkpt lat="45.5434845" lon="10.448949"><ele>234.66666666666669</ele><time>2026-03-29T07:52:51.509Z</time></trkpt><trkpt lat="45.5434475" lon="10.4488482"><ele>234.33333333333334</ele><time>2026-03-29T07:52:52.509Z</time></trkpt><trkpt lat="45.5434025" lon="10.4487657"><ele>234.0</ele><time>2026-03-29T07:52:53.507Z</time></trkpt><trkpt lat="45.5433572" lon="10.4486917"><ele>233.5</ele><time>2026-03-29T07:52:54.507Z</time></trkpt><trkpt lat="45.5433093" lon="10.4486053"><ele>233.0</ele><time>2026-03-29T07:52:55.509Z</time></trkpt><trkpt lat="45.5432585" lon="10.448512"><ele>232.5</ele><time>2026-03-29T07:52:56.51Z</time></trkpt><trkpt lat="45.5432027" lon="10.4484233"><ele>232.0</ele><time>2026-03-29T07:52:57.51Z</time></trkpt><trkpt lat="45.5431418" lon="10.448346"><ele>231.5</ele><time>2026-03-29T07:52:58.507Z</time></trkpt><trkpt lat="45.5430847" lon="10.448287"><ele>231.0</ele><time>2026-03-29T07:52:59.505Z</time></trkpt><trkpt lat="45.543002" lon="10.4481743"><ele>231.0</ele><time>2026-03-29T07:53:01.509Z</time></trkpt><trkpt lat="45.5429435" lon="10.4480355"><ele>231.00000000000003</ele><time>2026-03-29T07:53:03.507Z</time></trkpt><trkpt lat="45.5429378" lon="10.4478927"><ele>231.00000000000003</ele><time>2026-03-29T07:53:05.506Z</time></trkpt><trkpt lat="45.5429828" lon="10.447765"><ele>231.0</ele><time>2026-03-29T07:53:07.508Z</time></trkpt><trkpt lat="45.543027" lon="10.4476815"><ele>231.0</ele><time>2026-03-29T07:53:08.506Z</time></trkpt><trkpt lat="45.543071" lon="10.4475838"><ele>230.33333333333334</ele><time>2026-03-29T07:53:09.508Z</time></trkpt><trkpt lat="45.5431165" lon="10.4474882"><ele>229.66666666666669</ele><time>2026-03-29T07:53:10.506Z</time></trkpt><trkpt lat="45.5431655" lon="10.447396"><ele>229.0</ele><time>2026-03-29T07:53:11.509Z</time></trkpt><trkpt lat="45.5432207" lon="10.4473085"><ele>228.33333333333334</ele><time>2026-03-29T07:53:12.51Z</time></trkpt><trkpt lat="45.5432755" lon="10.44723"><ele>227.66666666666669</ele><time>2026-03-29T07:53:13.507Z</time></trkpt><trkpt lat="45.5433282" lon="10.4471535"><ele>227.0</ele><time>2026-03-29T07:53:14.508Z</time></trkpt><trkpt lat="45.543385" lon="10.4470565"><ele>227.00000000000003</ele><time>2026-03-29T07:53:15.509Z</time></trkpt><trkpt lat="45.5434418" lon="10.4469457"><ele>227.0</ele><time>2026-03-29T07:53:16.51Z</time></trkpt><trkpt lat="45.5434932" lon="10.4468437"><ele>227.0</ele><time>2026-03-29T07:53:17.51Z</time></trkpt><trkpt lat="45.5435342" lon="10.4467497"><ele>227.0</ele><time>2026-03-29T07:53:18.51Z</time></trkpt><trkpt lat="45.5435682" lon="10.4466723"><ele>227.00000000000003</ele><time>2026-03-29T07:53:19.509Z</time></trkpt><trkpt lat="45.5436065" lon="10.4465472"><ele>227.0</ele><time>2026-03-29T07:53:21.508Z</time></trkpt><trkpt lat="45.543617" lon="10.4463893"><ele>227.5</ele><time>2026-03-29T07:53:23.509Z</time></trkpt><trkpt lat="45.5435922" lon="10.4462773"><ele>228.0</ele><time>2026-03-29T07:53:24.509Z</time></trkpt><trkpt lat="45.5435355" lon="10.4461265"><ele>228.5</ele><time>2026-03-29T07:53:25.511Z</time></trkpt><trkpt lat="45.5434677" lon="10.4459608"><ele>229.0</ele><time>2026-03-29T07:53:26.51Z</time></trkpt><trkpt lat="45.5433893" lon="10.4457745"><ele>229.0</ele><time>2026-03-29T07:53:27.511Z</time></trkpt><trkpt lat="45.5433038" lon="10.445573"><ele>229.0</ele><time>2026-03-29T07:53:28.513Z</time></trkpt><trkpt lat="45.5432125" lon="10.4453572"><ele>229.0</ele><time>2026-03-29T07:53:29.51Z</time></trkpt><trkpt lat="45.5431128" lon="10.445122"><ele>229.66666666666666</ele><time>2026-03-29T07:53:30.512Z</time></trkpt><trkpt lat="45.5430095" lon="10.4448783"><ele>230.33333333333331</ele><time>2026-03-29T07:53:31.513Z</time></trkpt><trkpt lat="45.5429078" lon="10.4446358"><ele>231.0</ele><time>2026-03-29T07:53:32.508Z</time></trkpt><trkpt lat="45.5428135" lon="10.4444065"><ele>229.33333333333331</ele><time>2026-03-29T07:53:33.508Z</time></trkpt><trkpt lat="45.5427237" lon="10.4441983"><ele>227.66666666666666</ele><time>2026-03-29T07:53:34.508Z</time></trkpt><trkpt lat="45.5426282" lon="10.4440228"><ele>226.0</ele><time>2026-03-29T07:53:35.506Z</time></trkpt><trkpt lat="45.5425235" lon="10.4438745"><ele>223.0</ele><time>2026-03-29T07:53:36.51Z</time></trkpt><trkpt lat="45.5424123" lon="10.4437553"><ele>220.0</ele><time>2026-03-29T07:53:37.511Z</time></trkpt><trkpt lat="45.542296" lon="10.4436682"><ele>217.0</ele><time>2026-03-29T07:53:38.511Z</time></trkpt><trkpt lat="45.5421857" lon="10.4436108"><ele>214.0</ele><time>2026-03-29T07:53:39.511Z</time></trkpt><trkpt lat="45.5420873" lon="10.4435732"><ele>214.33333333333331</ele><time>2026-03-29T07:53:40.51Z</time></trkpt><trkpt lat="45.5420065" lon="10.443548"><ele>214.66666666666666</ele><time>2026-03-29T07:53:41.509Z</time></trkpt><trkpt lat="45.5419413" lon="10.4435272"><ele>215.0</ele><time>2026-03-29T07:53:42.51Z</time></trkpt><trkpt lat="45.5418458" lon="10.4434937"><ele>215.33333333333331</ele><time>2026-03-29T07:53:44.509Z</time></trkpt><trkpt lat="45.5417717" lon="10.443482"><ele>215.66666666666666</ele><time>2026-03-29T07:53:48.51Z</time></trkpt><trkpt lat="45.5417273" lon="10.4435968"><ele>216.0</ele><time>2026-03-29T07:53:50.512Z</time></trkpt><trkpt lat="45.5417083" lon="10.4437213"><ele>217.75</ele><time>2026-03-29T07:53:51.507Z</time></trkpt><trkpt lat="45.5416807" lon="10.4438685"><ele>219.5</ele><time>2026-03-29T07:53:52.512Z</time></trkpt><trkpt lat="45.5416435" lon="10.444019"><ele>221.25</ele><time>2026-03-29T07:53:53.509Z</time></trkpt><trkpt lat="45.5415997" lon="10.4441802"><ele>223.0</ele><time>2026-03-29T07:53:54.51Z</time></trkpt><trkpt lat="45.5415527" lon="10.4443493"><ele>223.0</ele><time>2026-03-29T07:53:55.509Z</time></trkpt><trkpt lat="45.5415055" lon="10.4445197"><ele>223.0</ele><time>2026-03-29T07:53:56.508Z</time></trkpt><trkpt lat="45.5414598" lon="10.4446808"><ele>223.0</ele><time>2026-03-29T07:53:57.507Z</time></trkpt><trkpt lat="45.5414173" lon="10.4448265"><ele>223.0</ele><time>2026-03-29T07:53:58.51Z</time></trkpt><trkpt lat="45.5413785" lon="10.4449565"><ele>223.16666666666666</ele><time>2026-03-29T07:53:59.507Z</time></trkpt><trkpt lat="45.5413445" lon="10.4450727"><ele>223.33333333333331</ele><time>2026-03-29T07:54:00.511Z</time></trkpt><trkpt lat="45.5413128" lon="10.4451872"><ele>223.5</ele><time>2026-03-29T07:54:01.509Z</time></trkpt><trkpt lat="45.54128" lon="10.44531"><ele>223.66666666666669</ele><time>2026-03-29T07:54:02.509Z</time></trkpt><trkpt lat="45.5412462" lon="10.4454258"><ele>223.83333333333334</ele><time>2026-03-29T07:54:03.507Z</time></trkpt><trkpt lat="45.5412108" lon="10.4455295"><ele>224.0</ele><time>2026-03-29T07:54:04.509Z</time></trkpt><trkpt lat="45.5411638" lon="10.4456138"><ele>224.0</ele><time>2026-03-29T07:54:05.509Z</time></trkpt><trkpt lat="45.5410987" lon="10.4456698"><ele>223.99999999999997</ele><time>2026-03-29T07:54:06.511Z</time></trkpt><trkpt lat="45.5410142" lon="10.4456963"><ele>223.99999999999997</ele><time>2026-03-29T07:54:07.51Z</time></trkpt><trkpt lat="45.5409197" lon="10.4456885"><ele>224.0</ele><time>2026-03-29T07:54:08.51Z</time></trkpt><trkpt lat="45.5408237" lon="10.4456678"><ele>224.0</ele><time>2026-03-29T07:54:09.509Z</time></trkpt><trkpt lat="45.5407182" lon="10.4456387"><ele>224.0</ele><time>2026-03-29T07:54:10.51Z</time></trkpt><trkpt lat="45.5406178" lon="10.4456048"><ele>223.99999999999997</ele><time>2026-03-29T07:54:11.509Z</time></trkpt><trkpt lat="45.5405107" lon="10.4455668"><ele>223.99999999999997</ele><time>2026-03-29T07:54:12.511Z</time></trkpt><trkpt lat="45.5403978" lon="10.4455285"><ele>224.0</ele><time>2026-03-29T07:54:13.511Z</time></trkpt><trkpt lat="45.5402828" lon="10.4454888"><ele>224.0</ele><time>2026-03-29T07:54:14.51Z</time></trkpt><trkpt lat="45.5401682" lon="10.4454502"><ele>223.25</ele><time>2026-03-29T07:54:15.511Z</time></trkpt><trkpt lat="45.5400525" lon="10.4454125"><ele>222.5</ele><time>2026-03-29T07:54:16.512Z</time></trkpt><trkpt lat="45.5399372" lon="10.4453743"><ele>221.75</ele><time>2026-03-29T07:54:17.512Z</time></trkpt><trkpt lat="45.5398213" lon="10.4453335"><ele>221.0</ele><time>2026-03-29T07:54:18.513Z</time></trkpt><trkpt lat="45.5397038" lon="10.4452938"><ele>221.0</ele><time>2026-03-29T07:54:19.512Z</time></trkpt><trkpt lat="45.5395913" lon="10.445257"><ele>221.00000000000003</ele><time>2026-03-29T07:54:20.509Z</time></trkpt><trkpt lat="45.5394847" lon="10.4452213"><ele>221.00000000000003</ele><time>2026-03-29T07:54:21.507Z</time></trkpt><trkpt lat="45.5393805" lon="10.4451858"><ele>221.0</ele><time>2026-03-29T07:54:22.508Z</time></trkpt><trkpt lat="45.5392807" lon="10.4451493"><ele>221.0</ele><time>2026-03-29T07:54:23.507Z</time></trkpt><trkpt lat="45.539186" lon="10.4451162"><ele>221.00000000000003</ele><time>2026-03-29T07:54:24.508Z</time></trkpt><trkpt lat="45.5390985" lon="10.4450765"><ele>221.0</ele><time>2026-03-29T07:54:25.509Z</time></trkpt><trkpt lat="45.5390208" lon="10.4450187"><ele>221.0</ele><time>2026-03-29T07:54:26.509Z</time></trkpt><trkpt lat="45.5389435" lon="10.4449568"><ele>221.0</ele><time>2026-03-29T07:54:27.51Z</time></trkpt><trkpt lat="45.5388622" lon="10.4449272"><ele>221.00000000000003</ele><time>2026-03-29T07:54:28.512Z</time></trkpt><trkpt lat="45.5387775" lon="10.4449307"><ele>221.0</ele><time>2026-03-29T07:54:29.511Z</time></trkpt><trkpt lat="45.5386915" lon="10.4449282"><ele>221.0</ele><time>2026-03-29T07:54:30.511Z</time></trkpt><trkpt lat="45.5386002" lon="10.444908"><ele>221.00000000000003</ele><time>2026-03-29T07:54:31.511Z</time></trkpt><trkpt lat="45.538503" lon="10.4448758"><ele>221.00000000000003</ele><time>2026-03-29T07:54:32.509Z</time></trkpt><trkpt lat="45.5383937" lon="10.4448368"><ele>221.0</ele><time>2026-03-29T07:54:33.51Z</time></trkpt><trkpt lat="45.538278" lon="10.4447948"><ele>221.0</ele><time>2026-03-29T07:54:34.511Z</time></trkpt><trkpt lat="45.5381698" lon="10.4447552"><ele>221.0</ele><time>2026-03-29T07:54:35.509Z</time></trkpt><trkpt lat="45.5380595" lon="10.4447152"><ele>221.0</ele><time>2026-03-29T07:54:36.507Z</time></trkpt><trkpt lat="45.5379385" lon="10.444671"><ele>221.0</ele><time>2026-03-29T07:54:37.511Z</time></trkpt><trkpt lat="45.537806" lon="10.4446222"><ele>221.0</ele><time>2026-03-29T07:54:38.512Z</time></trkpt><trkpt lat="45.5376743" lon="10.4445722"><ele>220.25</ele><time>2026-03-29T07:54:39.51Z</time></trkpt><trkpt lat="45.5375463" lon="10.4445257"><ele>219.5</ele><time>2026-03-29T07:54:40.511Z</time></trkpt><trkpt lat="45.537413" lon="10.4444792"><ele>218.75</ele><time>2026-03-29T07:54:41.509Z</time></trkpt><trkpt lat="45.5372753" lon="10.44443"><ele>218.0</ele><time>2026-03-29T07:54:42.51Z</time></trkpt><trkpt lat="45.5371373" lon="10.4443837"><ele>217.5</ele><time>2026-03-29T07:54:43.51Z</time></trkpt><trkpt lat="45.5370017" lon="10.4443458"><ele>217.0</ele><time>2026-03-29T07:54:44.509Z</time></trkpt><trkpt lat="45.5368637" lon="10.4443193"><ele>216.5</ele><time>2026-03-29T07:54:45.509Z</time></trkpt><trkpt lat="45.5367228" lon="10.4443032"><ele>216.0</ele><time>2026-03-29T07:54:46.508Z</time></trkpt><trkpt lat="45.5365808" lon="10.4442998"><ele>216.0</ele><time>2026-03-29T07:54:47.506Z</time></trkpt><trkpt lat="45.5364372" lon="10.4443038"><ele>216.0</ele><time>2026-03-29T07:54:48.507Z</time></trkpt><trkpt lat="45.536291" lon="10.4443135"><ele>216.0</ele><time>2026-03-29T07:54:49.51Z</time></trkpt><trkpt lat="45.5361435" lon="10.4443263"><ele>216.0</ele><time>2026-03-29T07:54:50.511Z</time></trkpt><trkpt lat="45.5359957" lon="10.44434"><ele>215.0</ele><time>2026-03-29T07:54:51.511Z</time></trkpt><trkpt lat="45.5358475" lon="10.4443523"><ele>214.0</ele><time>2026-03-29T07:54:52.513Z</time></trkpt><trkpt lat="45.5357023" lon="10.4443625"><ele>213.0</ele><time>2026-03-29T07:54:53.511Z</time></trkpt><trkpt lat="45.5355638" lon="10.4443663"><ele>212.0</ele><time>2026-03-29T07:54:54.51Z</time></trkpt><trkpt lat="45.5354307" lon="10.4443638"><ele>211.75</ele><time>2026-03-29T07:54:55.511Z</time></trkpt><trkpt lat="45.5353" lon="10.444351"><ele>211.5</ele><time>2026-03-29T07:54:56.511Z</time></trkpt><trkpt lat="45.5351703" lon="10.4443237"><ele>211.25</ele><time>2026-03-29T07:54:57.511Z</time></trkpt><trkpt lat="45.5350463" lon="10.4442817"><ele>211.0</ele><time>2026-03-29T07:54:58.51Z</time></trkpt><trkpt lat="45.534925" lon="10.4442267"><ele>211.0</ele><time>2026-03-29T07:54:59.512Z</time></trkpt><trkpt lat="45.5348047" lon="10.4441635"><ele>211.0</ele><time>2026-03-29T07:55:00.512Z</time></trkpt><trkpt lat="45.534691" lon="10.4440998"><ele>211.0</ele><time>2026-03-29T07:55:01.512Z</time></trkpt><trkpt lat="45.5345823" lon="10.4440403"><ele>211.0</ele><time>2026-03-29T07:55:02.513Z</time></trkpt><trkpt lat="45.5344735" lon="10.4439897"><ele>211.0</ele><time>2026-03-29T07:55:03.509Z</time></trkpt><trkpt lat="45.5343572" lon="10.4439493"><ele>211.0</ele><time>2026-03-29T07:55:04.51Z</time></trkpt><trkpt lat="45.5342335" lon="10.4439207"><ele>211.0</ele><time>2026-03-29T07:55:05.51Z</time></trkpt><trkpt lat="45.5341042" lon="10.4439002"><ele>211.0</ele><time>2026-03-29T07:55:06.51Z</time></trkpt><trkpt lat="45.5339718" lon="10.4438835"><ele>211.0</ele><time>2026-03-29T07:55:07.509Z</time></trkpt><trkpt lat="45.5338403" lon="10.4438738"><ele>211.0</ele><time>2026-03-29T07:55:08.509Z</time></trkpt><trkpt lat="45.533706" lon="10.4438665"><ele>211.0</ele><time>2026-03-29T07:55:09.511Z</time></trkpt><trkpt lat="45.5335665" lon="10.443857"><ele>211.0</ele><time>2026-03-29T07:55:10.51Z</time></trkpt><trkpt lat="45.5334223" lon="10.4438473"><ele>211.0</ele><time>2026-03-29T07:55:11.509Z</time></trkpt><trkpt lat="45.5332792" lon="10.4438405"><ele>211.0</ele><time>2026-03-29T07:55:12.507Z</time></trkpt><trkpt lat="45.5331392" lon="10.4438323"><ele>211.0</ele><time>2026-03-29T07:55:13.508Z</time></trkpt><trkpt lat="45.5330007" lon="10.4438267"><ele>211.0</ele><time>2026-03-29T07:55:14.509Z</time></trkpt><trkpt lat="45.5328637" lon="10.443819"><ele>211.0</ele><time>2026-03-29T07:55:15.51Z</time></trkpt><trkpt lat="45.5327217" lon="10.443811"><ele>211.0</ele><time>2026-03-29T07:55:16.511Z</time></trkpt><trkpt lat="45.532575" lon="10.4437973"><ele>211.0</ele><time>2026-03-29T07:55:17.509Z</time></trkpt><trkpt lat="45.5324257" lon="10.4437753"><ele>211.0</ele><time>2026-03-29T07:55:18.51Z</time></trkpt><trkpt lat="45.5322752" lon="10.443746"><ele>210.5</ele><time>2026-03-29T07:55:19.51Z</time></trkpt><trkpt lat="45.5321235" lon="10.4437158"><ele>210.0</ele><time>2026-03-29T07:55:20.512Z</time></trkpt><trkpt lat="45.5319758" lon="10.4436862"><ele>209.5</ele><time>2026-03-29T07:55:21.511Z</time></trkpt><trkpt lat="45.5318342" lon="10.4436583"><ele>209.0</ele><time>2026-03-29T07:55:22.511Z</time></trkpt><trkpt lat="45.5316997" lon="10.443631"><ele>209.0</ele><time>2026-03-29T07:55:23.511Z</time></trkpt><trkpt lat="45.531569" lon="10.4436052"><ele>209.0</ele><time>2026-03-29T07:55:24.51Z</time></trkpt><trkpt lat="45.5314465" lon="10.4435807"><ele>209.0</ele><time>2026-03-29T07:55:25.509Z</time></trkpt><trkpt lat="45.5313332" lon="10.4435553"><ele>209.0</ele><time>2026-03-29T07:55:26.51Z</time></trkpt><trkpt lat="45.5312278" lon="10.4435283"><ele>209.00000000000003</ele><time>2026-03-29T07:55:27.511Z</time></trkpt><trkpt lat="45.5311318" lon="10.4435002"><ele>209.0</ele><time>2026-03-29T07:55:28.511Z</time></trkpt><trkpt lat="45.531052" lon="10.4434718"><ele>209.0</ele><time>2026-03-29T07:55:29.51Z</time></trkpt><trkpt lat="45.5309543" lon="10.4434263"><ele>209.0</ele><time>2026-03-29T07:55:31.511Z</time></trkpt><trkpt lat="45.5308942" lon="10.4433882"><ele>209.00000000000003</ele><time>2026-03-29T07:55:33.511Z</time></trkpt><trkpt lat="45.5308207" lon="10.4433152"><ele>209.0</ele><time>2026-03-29T07:55:35.508Z</time></trkpt><trkpt lat="45.5307702" lon="10.443252"><ele>209.00000000000003</ele><time>2026-03-29T07:55:36.508Z</time></trkpt><trkpt lat="45.5307127" lon="10.4431762"><ele>209.0</ele><time>2026-03-29T07:55:37.509Z</time></trkpt><trkpt lat="45.5306423" lon="10.4431015"><ele>209.0</ele><time>2026-03-29T07:55:38.511Z</time></trkpt><trkpt lat="45.5305692" lon="10.4430635"><ele>209.0</ele><time>2026-03-29T07:55:39.511Z</time></trkpt><trkpt lat="45.5305017" lon="10.443079"><ele>209.00000000000003</ele><time>2026-03-29T07:55:40.511Z</time></trkpt><trkpt lat="45.5304467" lon="10.4431398"><ele>209.0</ele><time>2026-03-29T07:55:41.51Z</time></trkpt><trkpt lat="45.5304143" lon="10.4432315"><ele>209.0</ele><time>2026-03-29T07:55:42.512Z</time></trkpt><trkpt lat="45.5304117" lon="10.4433397"><ele>209.0</ele><time>2026-03-29T07:55:43.512Z</time></trkpt><trkpt lat="45.5304408" lon="10.4434567"><ele>209.0</ele><time>2026-03-29T07:55:44.51Z</time></trkpt><trkpt lat="45.5304823" lon="10.443586"><ele>209.0</ele><time>2026-03-29T07:55:45.512Z</time></trkpt><trkpt lat="45.5305132" lon="10.4437233"><ele>209.0</ele><time>2026-03-29T07:55:46.51Z</time></trkpt><trkpt lat="45.5305288" lon="10.4438833"><ele>209.0</ele><time>2026-03-29T07:55:47.509Z</time></trkpt><trkpt lat="45.5305193" lon="10.444063"><ele>209.0</ele><time>2026-03-29T07:55:48.511Z</time></trkpt><trkpt lat="45.5304887" lon="10.4442615"><ele>209.0</ele><time>2026-03-29T07:55:49.511Z</time></trkpt><trkpt lat="45.5304505" lon="10.4444552"><ele>209.0</ele><time>2026-03-29T07:55:50.51Z</time></trkpt><trkpt lat="45.5304088" lon="10.444666"><ele>210.66666666666669</ele><time>2026-03-29T07:55:51.511Z</time></trkpt><trkpt lat="45.530365" lon="10.4448968"><ele>212.33333333333331</ele><time>2026-03-29T07:55:52.512Z</time></trkpt><trkpt lat="45.5303242" lon="10.4451243"><ele>214.0</ele><time>2026-03-29T07:55:53.511Z</time></trkpt><trkpt lat="45.5302865" lon="10.4453445"><ele>213.66666666666666</ele><time>2026-03-29T07:55:54.511Z</time></trkpt><trkpt lat="45.5302458" lon="10.4455663"><ele>213.33333333333331</ele><time>2026-03-29T07:55:55.51Z</time></trkpt><trkpt lat="45.5302032" lon="10.4457917"><ele>213.0</ele><time>2026-03-29T07:55:56.509Z</time></trkpt><trkpt lat="45.5301557" lon="10.4460207"><ele>213.0</ele><time>2026-03-29T07:55:57.509Z</time></trkpt><trkpt lat="45.530102" lon="10.446249"><ele>213.0</ele><time>2026-03-29T07:55:58.507Z</time></trkpt><trkpt lat="45.5300455" lon="10.4464667"><ele>213.0</ele><time>2026-03-29T07:55:59.508Z</time></trkpt><trkpt lat="45.529989" lon="10.4466665"><ele>212.75</ele><time>2026-03-29T07:56:00.507Z</time></trkpt><trkpt lat="45.5299203" lon="10.4468472"><ele>212.5</ele><time>2026-03-29T07:56:01.506Z</time></trkpt><trkpt lat="45.5298348" lon="10.4470027"><ele>212.25</ele><time>2026-03-29T07:56:02.506Z</time></trkpt><trkpt lat="45.5297272" lon="10.4471408"><ele>212.0</ele><time>2026-03-29T07:56:03.512Z</time></trkpt><trkpt lat="45.529604" lon="10.4472665"><ele>212.66666666666669</ele><time>2026-03-29T07:56:04.509Z</time></trkpt><trkpt lat="45.5294742" lon="10.4473848"><ele>213.33333333333331</ele><time>2026-03-29T07:56:05.508Z</time></trkpt><trkpt lat="45.52934" lon="10.4475027"><ele>214.0</ele><time>2026-03-29T07:56:06.508Z</time></trkpt><trkpt lat="45.529205" lon="10.4476187"><ele>214.0</ele><time>2026-03-29T07:56:07.511Z</time></trkpt><trkpt lat="45.5290717" lon="10.4477375"><ele>214.0</ele><time>2026-03-29T07:56:08.509Z</time></trkpt><trkpt lat="45.5289447" lon="10.4478638"><ele>214.0</ele><time>2026-03-29T07:56:09.507Z</time></trkpt><trkpt lat="45.5288297" lon="10.4480042"><ele>212.0</ele><time>2026-03-29T07:56:10.508Z</time></trkpt><trkpt lat="45.52873" lon="10.4481647"><ele>210.0</ele><time>2026-03-29T07:56:11.508Z</time></trkpt><trkpt lat="45.5286498" lon="10.4483437"><ele>208.0</ele><time>2026-03-29T07:56:12.51Z</time></trkpt><trkpt lat="45.528594" lon="10.448545"><ele>208.0</ele><time>2026-03-29T07:56:13.511Z</time></trkpt><trkpt lat="45.5285603" lon="10.4487615"><ele>208.0</ele><time>2026-03-29T07:56:14.509Z</time></trkpt><trkpt lat="45.5285468" lon="10.448985"><ele>208.0</ele><time>2026-03-29T07:56:15.51Z</time></trkpt><trkpt lat="45.528549" lon="10.4492052"><ele>208.0</ele><time>2026-03-29T07:56:16.511Z</time></trkpt><trkpt lat="45.5285552" lon="10.4494125"><ele>208.0</ele><time>2026-03-29T07:56:17.51Z</time></trkpt><trkpt lat="45.5285587" lon="10.44962"><ele>208.0</ele><time>2026-03-29T07:56:18.51Z</time></trkpt><trkpt lat="45.5285553" lon="10.4498377"><ele>208.0</ele><time>2026-03-29T07:56:19.51Z</time></trkpt><trkpt lat="45.5285382" lon="10.4500573"><ele>208.0</ele><time>2026-03-29T07:56:20.509Z</time></trkpt><trkpt lat="45.5285042" lon="10.4502687"><ele>208.0</ele><time>2026-03-29T07:56:21.511Z</time></trkpt><trkpt lat="45.5284537" lon="10.45047"><ele>208.0</ele><time>2026-03-29T07:56:22.511Z</time></trkpt><trkpt lat="45.5283887" lon="10.4506657"><ele>208.0</ele><time>2026-03-29T07:56:23.51Z</time></trkpt><trkpt lat="45.5283135" lon="10.4508428"><ele>208.0</ele><time>2026-03-29T07:56:24.51Z</time></trkpt><trkpt lat="45.5282287" lon="10.4510005"><ele>208.0</ele><time>2026-03-29T07:56:25.508Z</time></trkpt><trkpt lat="45.5281298" lon="10.4511492"><ele>208.0</ele><time>2026-03-29T07:56:26.508Z</time></trkpt><trkpt lat="45.528019" lon="10.451295"><ele>208.0</ele><time>2026-03-29T07:56:27.51Z</time></trkpt><trkpt lat="45.5279003" lon="10.4514418"><ele>208.0</ele><time>2026-03-29T07:56:28.51Z</time></trkpt><trkpt lat="45.5277887" lon="10.451585"><ele>208.0</ele><time>2026-03-29T07:56:29.51Z</time></trkpt><trkpt lat="45.5276853" lon="10.451727"><ele>208.0</ele><time>2026-03-29T07:56:30.51Z</time></trkpt><trkpt lat="45.527589" lon="10.4518787"><ele>208.0</ele><time>2026-03-29T07:56:31.511Z</time></trkpt><trkpt lat="45.5275008" lon="10.4520365"><ele>208.0</ele><time>2026-03-29T07:56:32.509Z</time></trkpt><trkpt lat="45.5274185" lon="10.4521983"><ele>208.0</ele><time>2026-03-29T07:56:33.51Z</time></trkpt><trkpt lat="45.5273398" lon="10.4523617"><ele>207.5</ele><time>2026-03-29T07:56:34.51Z</time></trkpt><trkpt lat="45.5272637" lon="10.4525238"><ele>207.0</ele><time>2026-03-29T07:56:35.508Z</time></trkpt><trkpt lat="45.5271933" lon="10.4526808"><ele>206.5</ele><time>2026-03-29T07:56:36.508Z</time></trkpt><trkpt lat="45.5271312" lon="10.4528332"><ele>206.0</ele><time>2026-03-29T07:56:37.509Z</time></trkpt><trkpt lat="45.5270602" lon="10.452978"><ele>206.0</ele><time>2026-03-29T07:56:38.508Z</time></trkpt><trkpt lat="45.5269857" lon="10.4531295"><ele>206.0</ele><time>2026-03-29T07:56:39.508Z</time></trkpt><trkpt lat="45.5269092" lon="10.4532772"><ele>206.0</ele><time>2026-03-29T07:56:40.509Z</time></trkpt><trkpt lat="45.5268283" lon="10.4534197"><ele>206.0</ele><time>2026-03-29T07:56:41.508Z</time></trkpt><trkpt lat="45.5267423" lon="10.4535525"><ele>206.0</ele><time>2026-03-29T07:56:42.51Z</time></trkpt><trkpt lat="45.5266592" lon="10.4536778"><ele>206.0</ele><time>2026-03-29T07:56:43.511Z</time></trkpt><trkpt lat="45.5265798" lon="10.4537997"><ele>206.0</ele><time>2026-03-29T07:56:44.508Z</time></trkpt><trkpt lat="45.5265073" lon="10.4539335"><ele>206.0</ele><time>2026-03-29T07:56:45.509Z</time></trkpt><trkpt lat="45.5264427" lon="10.4540857"><ele>205.75</ele><time>2026-03-29T07:56:46.511Z</time></trkpt><trkpt lat="45.5263825" lon="10.454251"><ele>205.5</ele><time>2026-03-29T07:56:47.509Z</time></trkpt><trkpt lat="45.5263227" lon="10.4544165"><ele>205.25</ele><time>2026-03-29T07:56:48.508Z</time></trkpt><trkpt lat="45.5262648" lon="10.4545748"><ele>205.0</ele><time>2026-03-29T07:56:49.509Z</time></trkpt><trkpt lat="45.5262087" lon="10.4547248"><ele>205.0</ele><time>2026-03-29T07:56:50.509Z</time></trkpt><trkpt lat="45.526156" lon="10.4548715"><ele>205.0</ele><time>2026-03-29T07:56:51.508Z</time></trkpt><trkpt lat="45.526103" lon="10.455019"><ele>205.0</ele><time>2026-03-29T07:56:52.512Z</time></trkpt><trkpt lat="45.5260473" lon="10.4551757"><ele>205.0</ele><time>2026-03-29T07:56:53.511Z</time></trkpt><trkpt lat="45.5259888" lon="10.4553427"><ele>205.0</ele><time>2026-03-29T07:56:54.51Z</time></trkpt><trkpt lat="45.5259288" lon="10.4555102"><ele>205.0</ele><time>2026-03-29T07:56:55.511Z</time></trkpt><trkpt lat="45.5258723" lon="10.455665"><ele>205.0</ele><time>2026-03-29T07:56:56.511Z</time></trkpt><trkpt lat="45.5258205" lon="10.4558028"><ele>205.0</ele><time>2026-03-29T07:56:57.511Z</time></trkpt><trkpt lat="45.5257737" lon="10.4559285"><ele>204.99999999999997</ele><time>2026-03-29T07:56:58.51Z</time></trkpt><trkpt lat="45.5257315" lon="10.4560455"><ele>205.0</ele><time>2026-03-29T07:56:59.509Z</time></trkpt><trkpt lat="45.5256915" lon="10.4561533"><ele>205.0</ele><time>2026-03-29T07:57:00.509Z</time></trkpt><trkpt lat="45.5256548" lon="10.4562528"><ele>205.0</ele><time>2026-03-29T07:57:01.511Z</time></trkpt><trkpt lat="45.5256192" lon="10.4563507"><ele>204.99999999999997</ele><time>2026-03-29T07:57:02.508Z</time></trkpt><trkpt lat="45.5255728" lon="10.4564562"><ele>205.0</ele><time>2026-03-29T07:57:03.509Z</time></trkpt><trkpt lat="45.5255198" lon="10.4565662"><ele>204.99999999999997</ele><time>2026-03-29T07:57:04.508Z</time></trkpt><trkpt lat="45.5254558" lon="10.4566873"><ele>205.0</ele><time>2026-03-29T07:57:05.507Z</time></trkpt><trkpt lat="45.5253997" lon="10.4567915"><ele>205.0</ele><time>2026-03-29T07:57:06.51Z</time></trkpt><trkpt lat="45.5253538" lon="10.4568758"><ele>205.0</ele><time>2026-03-29T07:57:07.511Z</time></trkpt><trkpt lat="45.5253155" lon="10.4569495"><ele>204.99999999999997</ele><time>2026-03-29T07:57:08.509Z</time></trkpt><trkpt lat="45.525264" lon="10.4570497"><ele>205.0</ele><time>2026-03-29T07:57:10.509Z</time></trkpt><trkpt lat="45.5252098" lon="10.4571627"><ele>204.6</ele><time>2026-03-29T07:57:13.506Z</time></trkpt><trkpt lat="45.5251377" lon="10.4572915"><ele>204.2</ele><time>2026-03-29T07:57:15.507Z</time></trkpt><trkpt lat="45.5250117" lon="10.4573378"><ele>203.8</ele><time>2026-03-29T07:57:17.509Z</time></trkpt><trkpt lat="45.5249232" lon="10.4573248"><ele>203.4</ele><time>2026-03-29T07:57:18.512Z</time></trkpt><trkpt lat="45.5248375" lon="10.457304"><ele>203.0</ele><time>2026-03-29T07:57:19.508Z</time></trkpt><trkpt lat="45.5247398" lon="10.4572897"><ele>203.0</ele><time>2026-03-29T07:57:20.507Z</time></trkpt><trkpt lat="45.5246285" lon="10.4572753"><ele>203.0</ele><time>2026-03-29T07:57:21.508Z</time></trkpt><trkpt lat="45.5245175" lon="10.4572608"><ele>203.0</ele><time>2026-03-29T07:57:22.51Z</time></trkpt><trkpt lat="45.5244033" lon="10.4572487"><ele>203.0</ele><time>2026-03-29T07:57:23.51Z</time></trkpt><trkpt lat="45.5242825" lon="10.4572352"><ele>202.5</ele><time>2026-03-29T07:57:24.511Z</time></trkpt><trkpt lat="45.5241588" lon="10.4572183"><ele>202.0</ele><time>2026-03-29T07:57:25.512Z</time></trkpt><trkpt lat="45.5240323" lon="10.4572007"><ele>201.5</ele><time>2026-03-29T07:57:26.508Z</time></trkpt><trkpt lat="45.5239078" lon="10.457181"><ele>201.0</ele><time>2026-03-29T07:57:27.509Z</time></trkpt><trkpt lat="45.5237768" lon="10.4571487"><ele>200.25</ele><time>2026-03-29T07:57:28.512Z</time></trkpt><trkpt lat="45.5236423" lon="10.4571107"><ele>199.5</ele><time>2026-03-29T07:57:29.509Z</time></trkpt><trkpt lat="45.5235028" lon="10.457069"><ele>198.75</ele><time>2026-03-29T07:57:30.511Z</time></trkpt><trkpt lat="45.5233562" lon="10.457022"><ele>198.0</ele><time>2026-03-29T07:57:31.51Z</time></trkpt><trkpt lat="45.523207" lon="10.4569712"><ele>198.0</ele><time>2026-03-29T07:57:32.509Z</time></trkpt><trkpt lat="45.5230637" lon="10.4569212"><ele>198.0</ele><time>2026-03-29T07:57:33.512Z</time></trkpt><trkpt lat="45.5229202" lon="10.4568705"><ele>198.0</ele><time>2026-03-29T07:57:34.51Z</time></trkpt><trkpt lat="45.522775" lon="10.4568182"><ele>198.0</ele><time>2026-03-29T07:57:35.51Z</time></trkpt><trkpt lat="45.5226283" lon="10.4567643"><ele>197.5</ele><time>2026-03-29T07:57:36.51Z</time></trkpt><trkpt lat="45.5224803" lon="10.456708"><ele>197.0</ele><time>2026-03-29T07:57:37.509Z</time></trkpt><trkpt lat="45.5223352" lon="10.4566488"><ele>196.5</ele><time>2026-03-29T07:57:38.51Z</time></trkpt><trkpt lat="45.522196" lon="10.4565915"><ele>196.0</ele><time>2026-03-29T07:57:39.508Z</time></trkpt><trkpt lat="45.5220607" lon="10.4565405"><ele>195.5</ele><time>2026-03-29T07:57:40.508Z</time></trkpt><trkpt lat="45.5219253" lon="10.4564942"><ele>195.0</ele><time>2026-03-29T07:57:41.51Z</time></trkpt><trkpt lat="45.5217905" lon="10.4564502"><ele>194.5</ele><time>2026-03-29T07:57:42.51Z</time></trkpt><trkpt lat="45.5216565" lon="10.4564087"><ele>194.0</ele><time>2026-03-29T07:57:43.511Z</time></trkpt><trkpt lat="45.5215215" lon="10.4563713"><ele>194.0</ele><time>2026-03-29T07:57:44.51Z</time></trkpt><trkpt lat="45.5213872" lon="10.4563282"><ele>194.0</ele><time>2026-03-29T07:57:45.512Z</time></trkpt><trkpt lat="45.5212503" lon="10.4562658"><ele>194.0</ele><time>2026-03-29T07:57:46.513Z</time></trkpt><trkpt lat="45.5211107" lon="10.4561818"><ele>194.0</ele><time>2026-03-29T07:57:47.511Z</time></trkpt><trkpt lat="45.5209658" lon="10.4560892"><ele>193.66666666666669</ele><time>2026-03-29T07:57:48.511Z</time></trkpt><trkpt lat="45.5208173" lon="10.4559937"><ele>193.33333333333331</ele><time>2026-03-29T07:57:49.511Z</time></trkpt><trkpt lat="45.5206675" lon="10.4558963"><ele>193.0</ele><time>2026-03-29T07:57:50.511Z</time></trkpt><trkpt lat="45.5205203" lon="10.4558028"><ele>192.5</ele><time>2026-03-29T07:57:51.511Z</time></trkpt><trkpt lat="45.520377" lon="10.4557117"><ele>192.0</ele><time>2026-03-29T07:57:52.511Z</time></trkpt><trkpt lat="45.5202427" lon="10.4556268"><ele>191.5</ele><time>2026-03-29T07:57:53.512Z</time></trkpt><trkpt lat="45.5201178" lon="10.4555493"><ele>191.0</ele><time>2026-03-29T07:57:54.514Z</time></trkpt><trkpt lat="45.5199992" lon="10.4554768"><ele>191.25</ele><time>2026-03-29T07:57:55.511Z</time></trkpt><trkpt lat="45.519886" lon="10.4554095"><ele>191.5</ele><time>2026-03-29T07:57:56.51Z</time></trkpt><trkpt lat="45.5197785" lon="10.4553427"><ele>191.75</ele><time>2026-03-29T07:57:57.513Z</time></trkpt><trkpt lat="45.5196708" lon="10.4552797"><ele>192.0</ele><time>2026-03-29T07:57:58.511Z</time></trkpt><trkpt lat="45.5195633" lon="10.4552255"><ele>191.6</ele><time>2026-03-29T07:57:59.511Z</time></trkpt><trkpt lat="45.5194588" lon="10.4551773"><ele>191.2</ele><time>2026-03-29T07:58:00.511Z</time></trkpt><trkpt lat="45.5193538" lon="10.4551298"><ele>190.8</ele><time>2026-03-29T07:58:01.509Z</time></trkpt><trkpt lat="45.5192467" lon="10.4550788"><ele>190.4</ele><time>2026-03-29T07:58:02.508Z</time></trkpt><trkpt lat="45.5191405" lon="10.4550265"><ele>190.0</ele><time>2026-03-29T07:58:03.507Z</time></trkpt><trkpt lat="45.5190397" lon="10.4549787"><ele>190.0</ele><time>2026-03-29T07:58:04.507Z</time></trkpt><trkpt lat="45.5189372" lon="10.4549318"><ele>190.0</ele><time>2026-03-29T07:58:05.508Z</time></trkpt><trkpt lat="45.5188358" lon="10.4548867"><ele>190.0</ele><time>2026-03-29T07:58:06.51Z</time></trkpt><trkpt lat="45.518742" lon="10.4548457"><ele>190.0</ele><time>2026-03-29T07:58:07.51Z</time></trkpt><trkpt lat="45.5186492" lon="10.4548073"><ele>190.0</ele><time>2026-03-29T07:58:08.51Z</time></trkpt><trkpt lat="45.5185602" lon="10.4547747"><ele>190.0</ele><time>2026-03-29T07:58:09.51Z</time></trkpt><trkpt lat="45.518474" lon="10.4547395"><ele>190.0</ele><time>2026-03-29T07:58:10.511Z</time></trkpt><trkpt lat="45.5183992" lon="10.4546833"><ele>190.0</ele><time>2026-03-29T07:58:11.509Z</time></trkpt><trkpt lat="45.5183327" lon="10.4545968"><ele>190.0</ele><time>2026-03-29T07:58:12.51Z</time></trkpt><trkpt lat="45.5182705" lon="10.454487"><ele>190.0</ele><time>2026-03-29T07:58:13.511Z</time></trkpt><trkpt lat="45.5182038" lon="10.4543738"><ele>190.0</ele><time>2026-03-29T07:58:14.509Z</time></trkpt><trkpt lat="45.5181317" lon="10.4542593"><ele>190.0</ele><time>2026-03-29T07:58:15.51Z</time></trkpt><trkpt lat="45.518056" lon="10.4541508"><ele>190.0</ele><time>2026-03-29T07:58:16.509Z</time></trkpt><trkpt lat="45.5179757" lon="10.4540503"><ele>190.0</ele><time>2026-03-29T07:58:17.513Z</time></trkpt><trkpt lat="45.517893" lon="10.4539462"><ele>190.0</ele><time>2026-03-29T07:58:18.51Z</time></trkpt><trkpt lat="45.5178178" lon="10.4538408"><ele>189.4</ele><time>2026-03-29T07:58:19.508Z</time></trkpt><trkpt lat="45.5177542" lon="10.453729"><ele>188.8</ele><time>2026-03-29T07:58:20.509Z</time></trkpt><trkpt lat="45.5177017" lon="10.4536048"><ele>188.2</ele><time>2026-03-29T07:58:21.509Z</time></trkpt><trkpt lat="45.5176698" lon="10.4534677"><ele>187.6</ele><time>2026-03-29T07:58:22.509Z</time></trkpt><trkpt lat="45.517658" lon="10.4533257"><ele>187.0</ele><time>2026-03-29T07:58:23.509Z</time></trkpt><trkpt lat="45.5176652" lon="10.453189"><ele>187.0</ele><time>2026-03-29T07:58:24.509Z</time></trkpt><trkpt lat="45.5176757" lon="10.4530503"><ele>187.0</ele><time>2026-03-29T07:58:25.508Z</time></trkpt><trkpt lat="45.5176752" lon="10.452904"><ele>187.0</ele><time>2026-03-29T07:58:26.506Z</time></trkpt><trkpt lat="45.5176665" lon="10.452753"><ele>187.0</ele><time>2026-03-29T07:58:27.506Z</time></trkpt><trkpt lat="45.5176503" lon="10.4526035"><ele>187.0</ele><time>2026-03-29T07:58:28.509Z</time></trkpt><trkpt lat="45.5176323" lon="10.4524667"><ele>187.2</ele><time>2026-03-29T07:58:29.508Z</time></trkpt><trkpt lat="45.5176232" lon="10.4523375"><ele>187.39999999999998</ele><time>2026-03-29T07:58:30.51Z</time></trkpt><trkpt lat="45.517621" lon="10.4522077"><ele>187.60000000000002</ele><time>2026-03-29T07:58:31.51Z</time></trkpt><trkpt lat="45.517621" lon="10.4520727"><ele>187.8</ele><time>2026-03-29T07:58:32.509Z</time></trkpt><trkpt lat="45.5176248" lon="10.4519313"><ele>188.0</ele><time>2026-03-29T07:58:33.512Z</time></trkpt><trkpt lat="45.5176322" lon="10.4517878"><ele>188.0</ele><time>2026-03-29T07:58:34.51Z</time></trkpt><trkpt lat="45.5176412" lon="10.4516433"><ele>188.0</ele><time>2026-03-29T07:58:35.51Z</time></trkpt><trkpt lat="45.5176495" lon="10.4515042"><ele>188.0</ele><time>2026-03-29T07:58:36.508Z</time></trkpt><trkpt lat="45.517656" lon="10.451365"><ele>188.0</ele><time>2026-03-29T07:58:37.513Z</time></trkpt><trkpt lat="45.5176607" lon="10.4512237"><ele>188.0</ele><time>2026-03-29T07:58:38.512Z</time></trkpt><trkpt lat="45.517656" lon="10.4510767"><ele>188.0</ele><time>2026-03-29T07:58:39.511Z</time></trkpt><trkpt lat="45.5176392" lon="10.4509243"><ele>188.0</ele><time>2026-03-29T07:58:40.51Z</time></trkpt><trkpt lat="45.5176148" lon="10.4507712"><ele>188.0</ele><time>2026-03-29T07:58:41.511Z</time></trkpt><trkpt lat="45.5175863" lon="10.4506192"><ele>188.0</ele><time>2026-03-29T07:58:42.51Z</time></trkpt><trkpt lat="45.5175543" lon="10.4504733"><ele>188.0</ele><time>2026-03-29T07:58:43.512Z</time></trkpt><trkpt lat="45.517517" lon="10.4503335"><ele>188.0</ele><time>2026-03-29T07:58:44.51Z</time></trkpt><trkpt lat="45.5174793" lon="10.4501958"><ele>188.0</ele><time>2026-03-29T07:58:45.509Z</time></trkpt><trkpt lat="45.5174392" lon="10.4500535"><ele>188.0</ele><time>2026-03-29T07:58:46.51Z</time></trkpt><trkpt lat="45.5173913" lon="10.4499053"><ele>188.0</ele><time>2026-03-29T07:58:47.515Z</time></trkpt><trkpt lat="45.5173315" lon="10.4497437"><ele>188.0</ele><time>2026-03-29T07:58:48.511Z</time></trkpt><trkpt lat="45.517269" lon="10.4495858"><ele>188.0</ele><time>2026-03-29T07:58:49.51Z</time></trkpt><trkpt lat="45.5172152" lon="10.449431"><ele>188.0</ele><time>2026-03-29T07:58:50.509Z</time></trkpt><trkpt lat="45.5171672" lon="10.4492745"><ele>188.0</ele><time>2026-03-29T07:58:51.509Z</time></trkpt><trkpt lat="45.5171237" lon="10.4491273"><ele>188.0</ele><time>2026-03-29T07:58:52.509Z</time></trkpt><trkpt lat="45.5170775" lon="10.448981"><ele>188.0</ele><time>2026-03-29T07:58:53.508Z</time></trkpt><trkpt lat="45.517026" lon="10.4488335"><ele>188.0</ele><time>2026-03-29T07:58:54.509Z</time></trkpt><trkpt lat="45.5169725" lon="10.448697"><ele>188.0</ele><time>2026-03-29T07:58:55.513Z</time></trkpt><trkpt lat="45.5169163" lon="10.4485758"><ele>188.0</ele><time>2026-03-29T07:58:56.51Z</time></trkpt><trkpt lat="45.516851" lon="10.448472"><ele>187.60000000000002</ele><time>2026-03-29T07:58:57.51Z</time></trkpt><trkpt lat="45.5167728" lon="10.4483783"><ele>187.20000000000002</ele><time>2026-03-29T07:58:58.515Z</time></trkpt><trkpt lat="45.5166898" lon="10.4482963"><ele>186.8</ele><time>2026-03-29T07:58:59.511Z</time></trkpt><trkpt lat="45.5166" lon="10.44822"><ele>186.4</ele><time>2026-03-29T07:59:00.512Z</time></trkpt><trkpt lat="45.5165055" lon="10.4481548"><ele>186.0</ele><time>2026-03-29T07:59:01.513Z</time></trkpt><trkpt lat="45.5164107" lon="10.4480962"><ele>186.0</ele><time>2026-03-29T07:59:02.512Z</time></trkpt><trkpt lat="45.5163165" lon="10.4480413"><ele>186.0</ele><time>2026-03-29T07:59:03.514Z</time></trkpt><trkpt lat="45.5162272" lon="10.4479905"><ele>186.0</ele><time>2026-03-29T07:59:04.512Z</time></trkpt><trkpt lat="45.516143" lon="10.447941"><ele>186.0</ele><time>2026-03-29T07:59:05.513Z</time></trkpt><trkpt lat="45.5160623" lon="10.4478917"><ele>186.0</ele><time>2026-03-29T07:59:06.512Z</time></trkpt><trkpt lat="45.515981" lon="10.447844"><ele>185.4</ele><time>2026-03-29T07:59:07.515Z</time></trkpt><trkpt lat="45.515899" lon="10.4477962"><ele>184.8</ele><time>2026-03-29T07:59:08.512Z</time></trkpt><trkpt lat="45.5158135" lon="10.4477487"><ele>184.20000000000002</ele><time>2026-03-29T07:59:09.512Z</time></trkpt><trkpt lat="45.5157222" lon="10.447698"><ele>183.60000000000002</ele><time>2026-03-29T07:59:10.511Z</time></trkpt><trkpt lat="45.5156267" lon="10.4476443"><ele>183.0</ele><time>2026-03-29T07:59:11.511Z</time></trkpt><trkpt lat="45.515528" lon="10.4475837"><ele>183.0</ele><time>2026-03-29T07:59:12.511Z</time></trkpt><trkpt lat="45.5154213" lon="10.4475158"><ele>183.0</ele><time>2026-03-29T07:59:13.51Z</time></trkpt><trkpt lat="45.5153" lon="10.4474418"><ele>183.0</ele><time>2026-03-29T07:59:14.51Z</time></trkpt><trkpt lat="45.5151892" lon="10.447376"><ele>183.0</ele><time>2026-03-29T07:59:15.508Z</time></trkpt><trkpt lat="45.5150952" lon="10.4473207"><ele>182.8</ele><time>2026-03-29T07:59:16.507Z</time></trkpt><trkpt lat="45.515023" lon="10.447282"><ele>182.60000000000002</ele><time>2026-03-29T07:59:17.508Z</time></trkpt><trkpt lat="45.514934" lon="10.4472218"><ele>182.39999999999998</ele><time>2026-03-29T07:59:19.513Z</time></trkpt><trkpt lat="45.5149133" lon="10.4471313"><ele>182.2</ele><time>2026-03-29T07:59:21.513Z</time></trkpt><trkpt lat="45.5149572" lon="10.4469642"><ele>182.0</ele><time>2026-03-29T07:59:23.514Z</time></trkpt><trkpt lat="45.5150015" lon="10.4468358"><ele>182.0</ele><time>2026-03-29T07:59:24.51Z</time></trkpt><trkpt lat="45.5150562" lon="10.4466718"><ele>182.0</ele><time>2026-03-29T07:59:25.511Z</time></trkpt><trkpt lat="45.5151237" lon="10.4464672"><ele>182.0</ele><time>2026-03-29T07:59:26.509Z</time></trkpt><trkpt lat="45.5151853" lon="10.4462803"><ele>182.0</ele><time>2026-03-29T07:59:27.509Z</time></trkpt><trkpt lat="45.5152373" lon="10.4461215"><ele>182.0</ele><time>2026-03-29T07:59:28.51Z</time></trkpt><trkpt lat="45.5152783" lon="10.445988"><ele>182.0</ele><time>2026-03-29T07:59:29.513Z</time></trkpt><trkpt lat="45.5153123" lon="10.4458752"><ele>182.0</ele><time>2026-03-29T07:59:30.514Z</time></trkpt><trkpt lat="45.5153442" lon="10.4457727"><ele>182.0</ele><time>2026-03-29T07:59:31.511Z</time></trkpt><trkpt lat="45.5153765" lon="10.4456578"><ele>182.0</ele><time>2026-03-29T07:59:32.51Z</time></trkpt><trkpt lat="45.5154115" lon="10.4455153"><ele>182.0</ele><time>2026-03-29T07:59:33.51Z</time></trkpt><trkpt lat="45.515441" lon="10.4453697"><ele>182.0</ele><time>2026-03-29T07:59:34.51Z</time></trkpt><trkpt lat="45.515472" lon="10.4452225"><ele>182.0</ele><time>2026-03-29T07:59:35.51Z</time></trkpt><trkpt lat="45.515501" lon="10.4450853"><ele>182.0</ele><time>2026-03-29T07:59:36.508Z</time></trkpt><trkpt lat="45.5155342" lon="10.4449265"><ele>182.0</ele><time>2026-03-29T07:59:37.513Z</time></trkpt><trkpt lat="45.5155682" lon="10.4447635"><ele>182.0</ele><time>2026-03-29T07:59:38.51Z</time></trkpt><trkpt lat="45.5155993" lon="10.4446002"><ele>182.0</ele><time>2026-03-29T07:59:39.511Z</time></trkpt><trkpt lat="45.5156273" lon="10.444441"><ele>182.0</ele><time>2026-03-29T07:59:40.508Z</time></trkpt><trkpt lat="45.5156555" lon="10.4442957"><ele>182.0</ele><time>2026-03-29T07:59:41.507Z</time></trkpt><trkpt lat="45.5156832" lon="10.4441643"><ele>182.0</ele><time>2026-03-29T07:59:42.507Z</time></trkpt><trkpt lat="45.5157185" lon="10.4440332"><ele>182.0</ele><time>2026-03-29T07:59:43.51Z</time></trkpt><trkpt lat="45.5157563" lon="10.4439157"><ele>182.0</ele><time>2026-03-29T07:59:44.509Z</time></trkpt><trkpt lat="45.5157935" lon="10.4438197"><ele>182.0</ele><time>2026-03-29T07:59:45.511Z</time></trkpt><trkpt lat="45.5158475" lon="10.4436898"><ele>182.0</ele><time>2026-03-29T07:59:47.511Z</time></trkpt><trkpt lat="45.5158867" lon="10.4436038"><ele>182.0</ele><time>2026-03-29T07:59:48.513Z</time></trkpt><trkpt lat="45.5159343" lon="10.443498"><ele>182.0</ele><time>2026-03-29T07:59:49.511Z</time></trkpt><trkpt lat="45.5159878" lon="10.4433673"><ele>182.0</ele><time>2026-03-29T07:59:50.51Z</time></trkpt><trkpt lat="45.5160375" lon="10.4432047"><ele>182.0</ele><time>2026-03-29T07:59:51.51Z</time></trkpt><trkpt lat="45.516076" lon="10.4430407"><ele>182.0</ele><time>2026-03-29T07:59:52.511Z</time></trkpt><trkpt lat="45.5161118" lon="10.4428925"><ele>182.0</ele><time>2026-03-29T07:59:53.51Z</time></trkpt><trkpt lat="45.5161482" lon="10.442761"><ele>182.0</ele><time>2026-03-29T07:59:54.511Z</time></trkpt><trkpt lat="45.5161688" lon="10.4426375"><ele>182.0</ele><time>2026-03-29T07:59:55.511Z</time></trkpt><trkpt lat="45.5161772" lon="10.4424928"><ele>182.0</ele><time>2026-03-29T07:59:56.511Z</time></trkpt><trkpt lat="45.5161832" lon="10.4423285"><ele>182.0</ele><time>2026-03-29T07:59:57.51Z</time></trkpt><trkpt lat="45.5161952" lon="10.44216"><ele>182.0</ele><time>2026-03-29T07:59:58.511Z</time></trkpt><trkpt lat="45.5162125" lon="10.4419863"><ele>182.0</ele><time>2026-03-29T07:59:59.508Z</time></trkpt><trkpt lat="45.5162357" lon="10.4418212"><ele>182.0</ele><time>2026-03-29T08:00:00.51Z</time></trkpt><trkpt lat="45.5162588" lon="10.4416707"><ele>182.0</ele><time>2026-03-29T08:00:01.51Z</time></trkpt><trkpt lat="45.5162792" lon="10.4415342"><ele>182.0</ele><time>2026-03-29T08:00:02.508Z</time></trkpt><trkpt lat="45.5162993" lon="10.4414103"><ele>182.0</ele><time>2026-03-29T08:00:03.507Z</time></trkpt><trkpt lat="45.5163228" lon="10.4412843"><ele>182.0</ele><time>2026-03-29T08:00:04.506Z</time></trkpt><trkpt lat="45.5163483" lon="10.4411708"><ele>182.0</ele><time>2026-03-29T08:00:05.506Z</time></trkpt><trkpt lat="45.5163697" lon="10.4410753"><ele>182.0</ele><time>2026-03-29T08:00:06.508Z</time></trkpt><trkpt lat="45.5163667" lon="10.4409228"><ele>182.0</ele><time>2026-03-29T08:00:08.509Z</time></trkpt><trkpt lat="45.5162753" lon="10.4408055"><ele>182.0</ele><time>2026-03-29T08:00:10.509Z</time></trkpt><trkpt lat="45.516211" lon="10.4407402"><ele>182.0</ele><time>2026-03-29T08:00:11.512Z</time></trkpt><trkpt lat="45.5161558" lon="10.4406703"><ele>182.0</ele><time>2026-03-29T08:00:12.51Z</time></trkpt><trkpt lat="45.5161157" lon="10.4405867"><ele>182.0</ele><time>2026-03-29T08:00:13.509Z</time></trkpt><trkpt lat="45.5160988" lon="10.4404908"><ele>182.0</ele><time>2026-03-29T08:00:14.51Z</time></trkpt><trkpt lat="45.5160992" lon="10.4403788"><ele>182.0</ele><time>2026-03-29T08:00:15.51Z</time></trkpt><trkpt lat="45.5161125" lon="10.4402565"><ele>182.0</ele><time>2026-03-29T08:00:16.511Z</time></trkpt><trkpt lat="45.5161373" lon="10.4401197"><ele>182.2</ele><time>2026-03-29T08:00:17.511Z</time></trkpt><trkpt lat="45.5161697" lon="10.4399712"><ele>182.39999999999998</ele><time>2026-03-29T08:00:18.513Z</time></trkpt><trkpt lat="45.5162048" lon="10.43983"><ele>182.60000000000002</ele><time>2026-03-29T08:00:19.511Z</time></trkpt><trkpt lat="45.5162422" lon="10.439703"><ele>182.8</ele><time>2026-03-29T08:00:20.511Z</time></trkpt><trkpt lat="45.516282" lon="10.4395887"><ele>183.0</ele><time>2026-03-29T08:00:21.511Z</time></trkpt><trkpt lat="45.5163257" lon="10.4394822"><ele>183.60000000000002</ele><time>2026-03-29T08:00:22.511Z</time></trkpt><trkpt lat="45.5163748" lon="10.4393817"><ele>184.20000000000002</ele><time>2026-03-29T08:00:23.509Z</time></trkpt><trkpt lat="45.5164305" lon="10.4392722"><ele>184.8</ele><time>2026-03-29T08:00:24.509Z</time></trkpt><trkpt lat="45.5164932" lon="10.4391475"><ele>185.4</ele><time>2026-03-29T08:00:25.509Z</time></trkpt><trkpt lat="45.5165562" lon="10.4390138"><ele>186.0</ele><time>2026-03-29T08:00:26.508Z</time></trkpt><trkpt lat="45.5166088" lon="10.4388895"><ele>186.66666666666666</ele><time>2026-03-29T08:00:27.51Z</time></trkpt><trkpt lat="45.516643" lon="10.4387785"><ele>187.33333333333334</ele><time>2026-03-29T08:00:28.508Z</time></trkpt><trkpt lat="45.5166663" lon="10.4386847"><ele>188.0</ele><time>2026-03-29T08:00:29.506Z</time></trkpt><trkpt lat="45.5167127" lon="10.4385902"><ele>188.66666666666669</ele><time>2026-03-29T08:00:31.506Z</time></trkpt><trkpt lat="45.5168087" lon="10.4386165"><ele>189.33333333333334</ele><time>2026-03-29T08:00:33.511Z</time></trkpt><trkpt lat="45.5168768" lon="10.4386523"><ele>190.0</ele><time>2026-03-29T08:00:34.51Z</time></trkpt><trkpt lat="45.516946" lon="10.438685"><ele>190.0</ele><time>2026-03-29T08:00:35.508Z</time></trkpt><trkpt lat="45.5170233" lon="10.4387027"><ele>190.0</ele><time>2026-03-29T08:00:36.508Z</time></trkpt><trkpt lat="45.517105" lon="10.4386948"><ele>190.0</ele><time>2026-03-29T08:00:37.508Z</time></trkpt><trkpt lat="45.5171927" lon="10.4386722"><ele>190.0</ele><time>2026-03-29T08:00:38.507Z</time></trkpt><trkpt lat="45.5172803" lon="10.4386405"><ele>190.0</ele><time>2026-03-29T08:00:39.509Z</time></trkpt><trkpt lat="45.5173718" lon="10.4385995"><ele>190.0</ele><time>2026-03-29T08:00:40.508Z</time></trkpt><trkpt lat="45.5174682" lon="10.4385513"><ele>190.16666666666669</ele><time>2026-03-29T08:00:41.508Z</time></trkpt><trkpt lat="45.5175643" lon="10.4385002"><ele>190.33333333333334</ele><time>2026-03-29T08:00:42.51Z</time></trkpt><trkpt lat="45.5176498" lon="10.4384538"><ele>190.5</ele><time>2026-03-29T08:00:43.507Z</time></trkpt><trkpt lat="45.5177193" lon="10.4384187"><ele>190.66666666666666</ele><time>2026-03-29T08:00:44.509Z</time></trkpt><trkpt lat="45.517818" lon="10.4383558"><ele>190.83333333333331</ele><time>2026-03-29T08:00:46.508Z</time></trkpt><trkpt lat="45.517868" lon="10.4382932"><ele>191.0</ele><time>2026-03-29T08:00:47.508Z</time></trkpt><trkpt lat="45.5179272" lon="10.4382218"><ele>191.0</ele><time>2026-03-29T08:00:48.508Z</time></trkpt><trkpt lat="45.517988" lon="10.4381698"><ele>191.0</ele><time>2026-03-29T08:00:49.507Z</time></trkpt><trkpt lat="45.5180497" lon="10.438122"><ele>191.0</ele><time>2026-03-29T08:00:50.507Z</time></trkpt><trkpt lat="45.5181075" lon="10.4380648"><ele>191.0</ele><time>2026-03-29T08:00:51.507Z</time></trkpt><trkpt lat="45.5181617" lon="10.438011"><ele>191.0</ele><time>2026-03-29T08:00:52.507Z</time></trkpt><trkpt lat="45.5182612" lon="10.437915"><ele>191.0</ele><time>2026-03-29T08:00:54.505Z</time></trkpt><trkpt lat="45.5183207" lon="10.4378568"><ele>191.0</ele><time>2026-03-29T08:00:55.505Z</time></trkpt><trkpt lat="45.518384" lon="10.4377972"><ele>191.0</ele><time>2026-03-29T08:00:56.507Z</time></trkpt><trkpt lat="45.518452" lon="10.4377357"><ele>191.0</ele><time>2026-03-29T08:00:57.511Z</time></trkpt><trkpt lat="45.5185185" lon="10.4376772"><ele>191.0</ele><time>2026-03-29T08:00:58.512Z</time></trkpt><trkpt lat="45.518586" lon="10.4376198"><ele>191.0</ele><time>2026-03-29T08:00:59.511Z</time></trkpt><trkpt lat="45.5186555" lon="10.4375638"><ele>191.0</ele><time>2026-03-29T08:01:00.511Z</time></trkpt><trkpt lat="45.5187252" lon="10.4375075"><ele>190.66666666666666</ele><time>2026-03-29T08:01:01.512Z</time></trkpt><trkpt lat="45.5187942" lon="10.4374515"><ele>190.33333333333331</ele><time>2026-03-29T08:01:02.513Z</time></trkpt><trkpt lat="45.5188632" lon="10.4373965"><ele>190.0</ele><time>2026-03-29T08:01:03.513Z</time></trkpt><trkpt lat="45.5189317" lon="10.4373412"><ele>189.66666666666666</ele><time>2026-03-29T08:01:04.51Z</time></trkpt><trkpt lat="45.5189988" lon="10.4372872"><ele>189.33333333333334</ele><time>2026-03-29T08:01:05.511Z</time></trkpt><trkpt lat="45.5190672" lon="10.4372308"><ele>189.0</ele><time>2026-03-29T08:01:06.509Z</time></trkpt><trkpt lat="45.5191377" lon="10.4371717"><ele>188.83333333333334</ele><time>2026-03-29T08:01:07.518Z</time></trkpt><trkpt lat="45.5192095" lon="10.4371108"><ele>188.66666666666666</ele><time>2026-03-29T08:01:08.51Z</time></trkpt><trkpt lat="45.5192808" lon="10.43705"><ele>188.5</ele><time>2026-03-29T08:01:09.513Z</time></trkpt><trkpt lat="45.5193498" lon="10.4369937"><ele>188.33333333333331</ele><time>2026-03-29T08:01:10.511Z</time></trkpt><trkpt lat="45.5194162" lon="10.4369417"><ele>188.16666666666666</ele><time>2026-03-29T08:01:11.511Z</time></trkpt><trkpt lat="45.5194802" lon="10.4368892"><ele>188.0</ele><time>2026-03-29T08:01:12.51Z</time></trkpt><trkpt lat="45.5195433" lon="10.4368388"><ele>188.5</ele><time>2026-03-29T08:01:13.509Z</time></trkpt><trkpt lat="45.5196058" lon="10.436786"><ele>189.0</ele><time>2026-03-29T08:01:14.509Z</time></trkpt><trkpt lat="45.5196673" lon="10.436735"><ele>189.5</ele><time>2026-03-29T08:01:15.511Z</time></trkpt><trkpt lat="45.5197248" lon="10.436693"><ele>190.0</ele><time>2026-03-29T08:01:16.515Z</time></trkpt><trkpt lat="45.519842" lon="10.4366778"><ele>190.5</ele><time>2026-03-29T08:01:18.51Z</time></trkpt><trkpt lat="45.5199087" lon="10.4366942"><ele>191.0</ele><time>2026-03-29T08:01:19.51Z</time></trkpt><trkpt lat="45.5200198" lon="10.4366988"><ele>191.0</ele><time>2026-03-29T08:01:21.527Z</time></trkpt><trkpt lat="45.5200853" lon="10.436601"><ele>191.0</ele><time>2026-03-29T08:01:23.512Z</time></trkpt><trkpt lat="45.5201288" lon="10.4364205"><ele>191.0</ele><time>2026-03-29T08:01:25.512Z</time></trkpt><trkpt lat="45.5201527" lon="10.4363225"><ele>191.0</ele><time>2026-03-29T08:01:26.512Z</time></trkpt><trkpt lat="45.520174" lon="10.4362303"><ele>191.0</ele><time>2026-03-29T08:01:27.512Z</time></trkpt><trkpt lat="45.5202093" lon="10.4360747"><ele>190.8</ele><time>2026-03-29T08:01:29.514Z</time></trkpt><trkpt lat="45.5202548" lon="10.4359115"><ele>190.60000000000002</ele><time>2026-03-29T08:01:31.514Z</time></trkpt><trkpt lat="45.5202815" lon="10.4358262"><ele>190.4</ele><time>2026-03-29T08:01:32.511Z</time></trkpt><trkpt lat="45.520308" lon="10.4357445"><ele>190.2</ele><time>2026-03-29T08:01:33.512Z</time></trkpt><trkpt lat="45.5203722" lon="10.435591"><ele>190.0</ele><time>2026-03-29T08:01:35.51Z</time></trkpt><trkpt lat="45.5204607" lon="10.4354647"><ele>190.83333333333334</ele><time>2026-03-29T08:01:37.509Z</time></trkpt><trkpt lat="45.5205182" lon="10.4354057"><ele>191.66666666666669</ele><time>2026-03-29T08:01:38.511Z</time></trkpt><trkpt lat="45.5205785" lon="10.4353525"><ele>192.5</ele><time>2026-03-29T08:01:39.51Z</time></trkpt><trkpt lat="45.5206572" lon="10.435295"><ele>193.33333333333334</ele><time>2026-03-29T08:01:40.512Z</time></trkpt><trkpt lat="45.520743" lon="10.4352347"><ele>194.16666666666666</ele><time>2026-03-29T08:01:41.509Z</time></trkpt><trkpt lat="45.5208313" lon="10.4351648"><ele>195.0</ele><time>2026-03-29T08:01:42.507Z</time></trkpt><trkpt lat="45.5209185" lon="10.4350818"><ele>195.0</ele><time>2026-03-29T08:01:43.512Z</time></trkpt><trkpt lat="45.5210042" lon="10.4349823"><ele>195.0</ele><time>2026-03-29T08:01:44.507Z</time></trkpt><trkpt lat="45.5210798" lon="10.43488"><ele>195.0</ele><time>2026-03-29T08:01:45.505Z</time></trkpt><trkpt lat="45.5211468" lon="10.434786"><ele>195.0</ele><time>2026-03-29T08:01:46.509Z</time></trkpt><trkpt lat="45.5212132" lon="10.4346917"><ele>195.0</ele><time>2026-03-29T08:01:47.508Z</time></trkpt><trkpt lat="45.5212813" lon="10.4346095"><ele>195.2</ele><time>2026-03-29T08:01:48.508Z</time></trkpt><trkpt lat="45.5213463" lon="10.4345298"><ele>195.4</ele><time>2026-03-29T08:01:49.508Z</time></trkpt><trkpt lat="45.521414" lon="10.4344533"><ele>195.60000000000002</ele><time>2026-03-29T08:01:50.508Z</time></trkpt><trkpt lat="45.5214878" lon="10.4343593"><ele>195.8</ele><time>2026-03-29T08:01:51.509Z</time></trkpt><trkpt lat="45.5215655" lon="10.4342673"><ele>196.0</ele><time>2026-03-29T08:01:52.511Z</time></trkpt><trkpt lat="45.5216467" lon="10.4341815"><ele>196.0</ele><time>2026-03-29T08:01:53.513Z</time></trkpt><trkpt lat="45.5217335" lon="10.4341052"><ele>196.0</ele><time>2026-03-29T08:01:54.513Z</time></trkpt><trkpt lat="45.5218332" lon="10.4340345"><ele>196.0</ele><time>2026-03-29T08:01:55.512Z</time></trkpt><trkpt lat="45.5219317" lon="10.4339692"><ele>196.0</ele><time>2026-03-29T08:01:56.511Z</time></trkpt><trkpt lat="45.5220167" lon="10.4339103"><ele>196.0</ele><time>2026-03-29T08:01:57.511Z</time></trkpt><trkpt lat="45.5220885" lon="10.4338555"><ele>195.99999999999997</ele><time>2026-03-29T08:01:58.512Z</time></trkpt><trkpt lat="45.5221442" lon="10.4337898"><ele>196.0</ele><time>2026-03-29T08:01:59.511Z</time></trkpt><trkpt lat="45.52218" lon="10.4336995"><ele>196.0</ele><time>2026-03-29T08:02:00.513Z</time></trkpt><trkpt lat="45.5221873" lon="10.4336023"><ele>196.0</ele><time>2026-03-29T08:02:01.511Z</time></trkpt><trkpt lat="45.522168" lon="10.433485"><ele>195.99999999999997</ele><time>2026-03-29T08:02:02.511Z</time></trkpt><trkpt lat="45.5221318" lon="10.4333487"><ele>196.0</ele><time>2026-03-29T08:02:03.509Z</time></trkpt><trkpt lat="45.5220975" lon="10.4332172"><ele>195.99999999999997</ele><time>2026-03-29T08:02:04.51Z</time></trkpt><trkpt lat="45.522067" lon="10.4330918"><ele>196.0</ele><time>2026-03-29T08:02:05.509Z</time></trkpt><trkpt lat="45.522042" lon="10.4329772"><ele>196.0</ele><time>2026-03-29T08:02:06.507Z</time></trkpt><trkpt lat="45.5220207" lon="10.4328755"><ele>196.0</ele><time>2026-03-29T08:02:07.506Z</time></trkpt><trkpt lat="45.5219847" lon="10.432726"><ele>195.99999999999997</ele><time>2026-03-29T08:02:09.508Z</time></trkpt><trkpt lat="45.5219475" lon="10.4326377"><ele>196.0</ele><time>2026-03-29T08:02:11.512Z</time></trkpt><trkpt lat="45.5218627" lon="10.4325602"><ele>195.4</ele><time>2026-03-29T08:02:13.513Z</time></trkpt><trkpt lat="45.5217838" lon="10.4325482"><ele>194.8</ele><time>2026-03-29T08:02:14.512Z</time></trkpt><trkpt lat="45.5216888" lon="10.4325525"><ele>194.20000000000002</ele><time>2026-03-29T08:02:15.513Z</time></trkpt><trkpt lat="45.5215805" lon="10.4325668"><ele>193.60000000000002</ele><time>2026-03-29T08:02:16.515Z</time></trkpt><trkpt lat="45.5214487" lon="10.4325878"><ele>193.0</ele><time>2026-03-29T08:02:17.514Z</time></trkpt><trkpt lat="45.521312" lon="10.4326033"><ele>192.66666666666666</ele><time>2026-03-29T08:02:18.514Z</time></trkpt><trkpt lat="45.521161" lon="10.4326067"><ele>192.33333333333331</ele><time>2026-03-29T08:02:19.513Z</time></trkpt><trkpt lat="45.5209973" lon="10.4325868"><ele>192.0</ele><time>2026-03-29T08:02:20.512Z</time></trkpt><trkpt lat="45.5208328" lon="10.4325423"><ele>192.0</ele><time>2026-03-29T08:02:21.512Z</time></trkpt><trkpt lat="45.520659" lon="10.4324737"><ele>192.0</ele><time>2026-03-29T08:02:22.513Z</time></trkpt><trkpt lat="45.5204788" lon="10.4323882"><ele>192.0</ele><time>2026-03-29T08:02:23.512Z</time></trkpt><trkpt lat="45.5203067" lon="10.4323047"><ele>191.0</ele><time>2026-03-29T08:02:24.512Z</time></trkpt><trkpt lat="45.5201423" lon="10.4322267"><ele>190.0</ele><time>2026-03-29T08:02:25.512Z</time></trkpt><trkpt lat="45.5199858" lon="10.4321502"><ele>189.0</ele><time>2026-03-29T08:02:26.513Z</time></trkpt><trkpt lat="45.5198375" lon="10.4320797"><ele>188.33333333333334</ele><time>2026-03-29T08:02:27.512Z</time></trkpt><trkpt lat="45.5196903" lon="10.4320215"><ele>187.66666666666669</ele><time>2026-03-29T08:02:28.512Z</time></trkpt><trkpt lat="45.5195372" lon="10.4319747"><ele>187.0</ele><time>2026-03-29T08:02:29.511Z</time></trkpt><trkpt lat="45.5193763" lon="10.4319402"><ele>188.66666666666669</ele><time>2026-03-29T08:02:30.511Z</time></trkpt><trkpt lat="45.519208" lon="10.4319175"><ele>190.33333333333334</ele><time>2026-03-29T08:02:31.509Z</time></trkpt><trkpt lat="45.5190312" lon="10.4319023"><ele>192.0</ele><time>2026-03-29T08:02:32.509Z</time></trkpt><trkpt lat="45.5188492" lon="10.4318847"><ele>192.0</ele><time>2026-03-29T08:02:33.508Z</time></trkpt><trkpt lat="45.5186652" lon="10.4318705"><ele>192.0</ele><time>2026-03-29T08:02:34.509Z</time></trkpt><trkpt lat="45.5184817" lon="10.4318592"><ele>192.0</ele><time>2026-03-29T08:02:35.51Z</time></trkpt><trkpt lat="45.5182957" lon="10.4318505"><ele>192.0</ele><time>2026-03-29T08:02:36.511Z</time></trkpt><trkpt lat="45.5180995" lon="10.4318445"><ele>192.0</ele><time>2026-03-29T08:02:37.516Z</time></trkpt><trkpt lat="45.517889" lon="10.4318378"><ele>192.0</ele><time>2026-03-29T08:02:38.511Z</time></trkpt><trkpt lat="45.5176697" lon="10.4318255"><ele>192.33333333333331</ele><time>2026-03-29T08:02:39.513Z</time></trkpt><trkpt lat="45.5174522" lon="10.4318088"><ele>192.66666666666666</ele><time>2026-03-29T08:02:40.512Z</time></trkpt><trkpt lat="45.5172427" lon="10.4317902"><ele>193.0</ele><time>2026-03-29T08:02:41.513Z</time></trkpt><trkpt lat="45.5170388" lon="10.4317647"><ele>192.0</ele><time>2026-03-29T08:02:42.512Z</time></trkpt><trkpt lat="45.5168332" lon="10.4317152"><ele>191.0</ele><time>2026-03-29T08:02:43.513Z</time></trkpt><trkpt lat="45.5166327" lon="10.4316322"><ele>190.0</ele><time>2026-03-29T08:02:44.513Z</time></trkpt><trkpt lat="45.5164437" lon="10.4315243"><ele>190.0</ele><time>2026-03-29T08:02:45.512Z</time></trkpt><trkpt lat="45.5162533" lon="10.431404"><ele>190.0</ele><time>2026-03-29T08:02:46.511Z</time></trkpt><trkpt lat="45.5160637" lon="10.4312808"><ele>190.0</ele><time>2026-03-29T08:02:47.512Z</time></trkpt><trkpt lat="45.5158805" lon="10.4311615"><ele>188.33333333333334</ele><time>2026-03-29T08:02:48.512Z</time></trkpt><trkpt lat="45.5157003" lon="10.431035"><ele>186.66666666666666</ele><time>2026-03-29T08:02:49.512Z</time></trkpt><trkpt lat="45.5155293" lon="10.4308945"><ele>185.0</ele><time>2026-03-29T08:02:50.513Z</time></trkpt><trkpt lat="45.5153762" lon="10.4307443"><ele>184.66666666666666</ele><time>2026-03-29T08:02:51.512Z</time></trkpt><trkpt lat="45.5152363" lon="10.430592"><ele>184.33333333333334</ele><time>2026-03-29T08:02:52.516Z</time></trkpt><trkpt lat="45.5150997" lon="10.4304413"><ele>184.0</ele><time>2026-03-29T08:02:53.514Z</time></trkpt><trkpt lat="45.5149573" lon="10.430288"><ele>184.0</ele><time>2026-03-29T08:02:54.514Z</time></trkpt><trkpt lat="45.5148068" lon="10.4301387"><ele>184.0</ele><time>2026-03-29T08:02:55.511Z</time></trkpt><trkpt lat="45.5146472" lon="10.4300058"><ele>184.0</ele><time>2026-03-29T08:02:56.508Z</time></trkpt><trkpt lat="45.5144918" lon="10.4298988"><ele>183.33333333333334</ele><time>2026-03-29T08:02:57.507Z</time></trkpt><trkpt lat="45.5143443" lon="10.4298158"><ele>182.66666666666666</ele><time>2026-03-29T08:02:58.509Z</time></trkpt><trkpt lat="45.5141862" lon="10.4297427"><ele>182.0</ele><time>2026-03-29T08:02:59.509Z</time></trkpt><trkpt lat="45.5140098" lon="10.4296587"><ele>181.66666666666666</ele><time>2026-03-29T08:03:00.511Z</time></trkpt><trkpt lat="45.513819" lon="10.4295575"><ele>181.33333333333334</ele><time>2026-03-29T08:03:01.512Z</time></trkpt><trkpt lat="45.513621" lon="10.42945"><ele>181.0</ele><time>2026-03-29T08:03:02.512Z</time></trkpt><trkpt lat="45.5134313" lon="10.4293415"><ele>182.0</ele><time>2026-03-29T08:03:03.511Z</time></trkpt><trkpt lat="45.5132432" lon="10.4292355"><ele>183.0</ele><time>2026-03-29T08:03:04.514Z</time></trkpt><trkpt lat="45.5130573" lon="10.4291343"><ele>184.0</ele><time>2026-03-29T08:03:05.513Z</time></trkpt><trkpt lat="45.5128767" lon="10.429037"><ele>184.0</ele><time>2026-03-29T08:03:06.511Z</time></trkpt><trkpt lat="45.5126988" lon="10.4289435"><ele>184.0</ele><time>2026-03-29T08:03:07.513Z</time></trkpt><trkpt lat="45.512521" lon="10.4288443"><ele>184.0</ele><time>2026-03-29T08:03:08.511Z</time></trkpt><trkpt lat="45.5123407" lon="10.4287407"><ele>184.33333333333334</ele><time>2026-03-29T08:03:09.511Z</time></trkpt><trkpt lat="45.5121707" lon="10.4286403"><ele>184.66666666666666</ele><time>2026-03-29T08:03:10.511Z</time></trkpt><trkpt lat="45.5120148" lon="10.4285482"><ele>185.0</ele><time>2026-03-29T08:03:11.513Z</time></trkpt><trkpt lat="45.5118822" lon="10.4284705"><ele>184.2</ele><time>2026-03-29T08:03:12.514Z</time></trkpt><trkpt lat="45.5117692" lon="10.428403"><ele>183.4</ele><time>2026-03-29T08:03:13.512Z</time></trkpt><trkpt lat="45.511683" lon="10.4283322"><ele>182.60000000000002</ele><time>2026-03-29T08:03:14.511Z</time></trkpt><trkpt lat="45.5116373" lon="10.4282603"><ele>181.8</ele><time>2026-03-29T08:03:15.512Z</time></trkpt><trkpt lat="45.51163" lon="10.4280885"><ele>181.0</ele><time>2026-03-29T08:03:17.511Z</time></trkpt><trkpt lat="45.5116638" lon="10.4279692"><ele>180.5</ele><time>2026-03-29T08:03:18.511Z</time></trkpt><trkpt lat="45.511717" lon="10.4278352"><ele>180.0</ele><time>2026-03-29T08:03:19.509Z</time></trkpt><trkpt lat="45.5117727" lon="10.4277095"><ele>179.5</ele><time>2026-03-29T08:03:20.507Z</time></trkpt><trkpt lat="45.5118338" lon="10.4275698"><ele>179.0</ele><time>2026-03-29T08:03:21.509Z</time></trkpt><trkpt lat="45.5119007" lon="10.4274148"><ele>179.0</ele><time>2026-03-29T08:03:22.509Z</time></trkpt><trkpt lat="45.5119672" lon="10.4272542"><ele>179.0</ele><time>2026-03-29T08:03:23.508Z</time></trkpt><trkpt lat="45.5120247" lon="10.4270998"><ele>179.0</ele><time>2026-03-29T08:03:24.511Z</time></trkpt><trkpt lat="45.5120678" lon="10.4269393"><ele>179.0</ele><time>2026-03-29T08:03:25.511Z</time></trkpt><trkpt lat="45.512095" lon="10.4267642"><ele>179.2</ele><time>2026-03-29T08:03:26.511Z</time></trkpt><trkpt lat="45.5121002" lon="10.426593"><ele>179.39999999999998</ele><time>2026-03-29T08:03:27.51Z</time></trkpt><trkpt lat="45.5120848" lon="10.4264402"><ele>179.6</ele><time>2026-03-29T08:03:28.511Z</time></trkpt><trkpt lat="45.5120658" lon="10.4263007"><ele>179.8</ele><time>2026-03-29T08:03:29.511Z</time></trkpt><trkpt lat="45.5120487" lon="10.4261765"><ele>180.0</ele><time>2026-03-29T08:03:30.511Z</time></trkpt><trkpt lat="45.5120342" lon="10.4260778"><ele>180.0</ele><time>2026-03-29T08:03:31.512Z</time></trkpt><trkpt lat="45.5120103" lon="10.4258895"><ele>180.0</ele><time>2026-03-29T08:03:33.514Z</time></trkpt><trkpt lat="45.5119933" lon="10.425751"><ele>180.0</ele><time>2026-03-29T08:03:34.512Z</time></trkpt><trkpt lat="45.5119622" lon="10.4255828"><ele>180.0</ele><time>2026-03-29T08:03:35.512Z</time></trkpt><trkpt lat="45.5119307" lon="10.4253985"><ele>180.4</ele><time>2026-03-29T08:03:36.514Z</time></trkpt><trkpt lat="45.511902" lon="10.4252192"><ele>180.8</ele><time>2026-03-29T08:03:37.513Z</time></trkpt><trkpt lat="45.511877" lon="10.42506"><ele>181.2</ele><time>2026-03-29T08:03:38.511Z</time></trkpt><trkpt lat="45.511857" lon="10.4249273"><ele>181.6</ele><time>2026-03-29T08:03:39.509Z</time></trkpt><trkpt lat="45.5118405" lon="10.424824"><ele>182.0</ele><time>2026-03-29T08:03:40.51Z</time></trkpt><trkpt lat="45.5117787" lon="10.4247258"><ele>182.0</ele><time>2026-03-29T08:03:42.511Z</time></trkpt><trkpt lat="45.511715" lon="10.4247982"><ele>182.0</ele><time>2026-03-29T08:03:44.51Z</time></trkpt><trkpt lat="45.5116753" lon="10.4248757"><ele>182.0</ele><time>2026-03-29T08:03:45.509Z</time></trkpt><trkpt lat="45.5116287" lon="10.4249595"><ele>182.0</ele><time>2026-03-29T08:03:46.508Z</time></trkpt><trkpt lat="45.5115745" lon="10.4250473"><ele>182.0</ele><time>2026-03-29T08:03:47.509Z</time></trkpt><trkpt lat="45.5115108" lon="10.4251463"><ele>182.0</ele><time>2026-03-29T08:03:48.509Z</time></trkpt><trkpt lat="45.5114445" lon="10.4252462"><ele>182.0</ele><time>2026-03-29T08:03:49.511Z</time></trkpt><trkpt lat="45.5113775" lon="10.4253433"><ele>182.0</ele><time>2026-03-29T08:03:50.511Z</time></trkpt><trkpt lat="45.5113107" lon="10.4254427"><ele>182.0</ele><time>2026-03-29T08:03:51.51Z</time></trkpt><trkpt lat="45.511234" lon="10.4255513"><ele>182.0</ele><time>2026-03-29T08:03:52.511Z</time></trkpt><trkpt lat="45.5111498" lon="10.4256658"><ele>182.0</ele><time>2026-03-29T08:03:53.51Z</time></trkpt><trkpt lat="45.5110627" lon="10.4257787"><ele>180.39999999999998</ele><time>2026-03-29T08:03:54.511Z</time></trkpt><trkpt lat="45.5109767" lon="10.425886"><ele>178.79999999999998</ele><time>2026-03-29T08:03:55.511Z</time></trkpt><trkpt lat="45.5108967" lon="10.4259875"><ele>177.2</ele><time>2026-03-29T08:03:56.511Z</time></trkpt><trkpt lat="45.5108188" lon="10.4260877"><ele>175.6</ele><time>2026-03-29T08:03:57.514Z</time></trkpt><trkpt lat="45.5107342" lon="10.42618"><ele>174.0</ele><time>2026-03-29T08:03:58.514Z</time></trkpt><trkpt lat="45.5106457" lon="10.426245"><ele>174.0</ele><time>2026-03-29T08:03:59.512Z</time></trkpt><trkpt lat="45.5105555" lon="10.4262643"><ele>174.0</ele><time>2026-03-29T08:04:00.511Z</time></trkpt><trkpt lat="45.5104605" lon="10.4262368"><ele>174.0</ele><time>2026-03-29T08:04:01.511Z</time></trkpt><trkpt lat="45.5103523" lon="10.4261835"><ele>174.0</ele><time>2026-03-29T08:04:02.507Z</time></trkpt><trkpt lat="45.5102273" lon="10.4261207"><ele>174.0</ele><time>2026-03-29T08:04:03.509Z</time></trkpt><trkpt lat="45.510091" lon="10.4260523"><ele>173.5</ele><time>2026-03-29T08:04:04.513Z</time></trkpt><trkpt lat="45.5099552" lon="10.4259895"><ele>173.0</ele><time>2026-03-29T08:04:05.512Z</time></trkpt><trkpt lat="45.5098163" lon="10.4259252"><ele>172.5</ele><time>2026-03-29T08:04:06.509Z</time></trkpt><trkpt lat="45.5096735" lon="10.4258587"><ele>172.0</ele><time>2026-03-29T08:04:07.509Z</time></trkpt><trkpt lat="45.5095345" lon="10.4257913"><ele>172.0</ele><time>2026-03-29T08:04:08.511Z</time></trkpt><trkpt lat="45.509402" lon="10.4257277"><ele>172.0</ele><time>2026-03-29T08:04:09.507Z</time></trkpt><trkpt lat="45.5092758" lon="10.425668"><ele>172.0</ele><time>2026-03-29T08:04:10.508Z</time></trkpt><trkpt lat="45.5091565" lon="10.4256128"><ele>172.0</ele><time>2026-03-29T08:04:11.506Z</time></trkpt><trkpt lat="45.5090428" lon="10.4255602"><ele>172.0</ele><time>2026-03-29T08:04:12.507Z</time></trkpt><trkpt lat="45.508943" lon="10.4255127"><ele>172.0</ele><time>2026-03-29T08:04:13.508Z</time></trkpt><trkpt lat="45.5088582" lon="10.425469"><ele>172.0</ele><time>2026-03-29T08:04:14.509Z</time></trkpt><trkpt lat="45.5088023" lon="10.425419"><ele>172.0</ele><time>2026-03-29T08:04:15.511Z</time></trkpt><trkpt lat="45.508727" lon="10.4252738"><ele>172.0</ele><time>2026-03-29T08:04:17.51Z</time></trkpt><trkpt lat="45.5086662" lon="10.4252452"><ele>171.2</ele><time>2026-03-29T08:04:18.512Z</time></trkpt><trkpt lat="45.5085943" lon="10.425248"><ele>170.39999999999998</ele><time>2026-03-29T08:04:19.509Z</time></trkpt><trkpt lat="45.508517" lon="10.425216"><ele>169.60000000000002</ele><time>2026-03-29T08:04:20.51Z</time></trkpt><trkpt lat="45.50843" lon="10.4251325"><ele>168.8</ele><time>2026-03-29T08:04:21.513Z</time></trkpt><trkpt lat="45.5083258" lon="10.4250083"><ele>168.0</ele><time>2026-03-29T08:04:22.513Z</time></trkpt><trkpt lat="45.508213" lon="10.4248807"><ele>168.0</ele><time>2026-03-29T08:04:23.51Z</time></trkpt><trkpt lat="45.5080912" lon="10.4247468"><ele>168.0</ele><time>2026-03-29T08:04:24.513Z</time></trkpt><trkpt lat="45.507972" lon="10.424615"><ele>168.0</ele><time>2026-03-29T08:04:25.511Z</time></trkpt><trkpt lat="45.5078588" lon="10.4244902"><ele>168.0</ele><time>2026-03-29T08:04:26.51Z</time></trkpt><trkpt lat="45.5077585" lon="10.4243792"><ele>168.16666666666666</ele><time>2026-03-29T08:04:27.513Z</time></trkpt><trkpt lat="45.5076727" lon="10.4242832"><ele>168.33333333333334</ele><time>2026-03-29T08:04:28.511Z</time></trkpt><trkpt lat="45.5076012" lon="10.4242"><ele>168.5</ele><time>2026-03-29T08:04:29.51Z</time></trkpt><trkpt lat="45.5075465" lon="10.42413"><ele>168.66666666666669</ele><time>2026-03-29T08:04:30.51Z</time></trkpt><trkpt lat="45.507503" lon="10.4240513"><ele>168.83333333333334</ele><time>2026-03-29T08:04:31.509Z</time></trkpt><trkpt lat="45.5074565" lon="10.4239473"><ele>169.0</ele><time>2026-03-29T08:04:32.511Z</time></trkpt><trkpt lat="45.5074005" lon="10.4238388"><ele>169.25</ele><time>2026-03-29T08:04:33.51Z</time></trkpt><trkpt lat="45.5073205" lon="10.4237417"><ele>169.5</ele><time>2026-03-29T08:04:34.508Z</time></trkpt><trkpt lat="45.507215" lon="10.4236608"><ele>169.75</ele><time>2026-03-29T08:04:35.507Z</time></trkpt><trkpt lat="45.50709" lon="10.423603"><ele>170.0</ele><time>2026-03-29T08:04:36.506Z</time></trkpt><trkpt lat="45.5069458" lon="10.4235587"><ele>169.25</ele><time>2026-03-29T08:04:37.509Z</time></trkpt><trkpt lat="45.5068017" lon="10.4235277"><ele>168.5</ele><time>2026-03-29T08:04:38.51Z</time></trkpt><trkpt lat="45.5066657" lon="10.4235068"><ele>167.75</ele><time>2026-03-29T08:04:39.511Z</time></trkpt><trkpt lat="45.5065378" lon="10.4234927"><ele>167.0</ele><time>2026-03-29T08:04:40.509Z</time></trkpt><trkpt lat="45.506418" lon="10.4234797"><ele>167.0</ele><time>2026-03-29T08:04:41.509Z</time></trkpt><trkpt lat="45.5063038" lon="10.4234693"><ele>167.0</ele><time>2026-03-29T08:04:42.508Z</time></trkpt><trkpt lat="45.506192" lon="10.4234602"><ele>167.0</ele><time>2026-03-29T08:04:43.508Z</time></trkpt><trkpt lat="45.5060785" lon="10.423458"><ele>167.0</ele><time>2026-03-29T08:04:44.507Z</time></trkpt><trkpt lat="45.505963" lon="10.4234497"><ele>167.0</ele><time>2026-03-29T08:04:45.507Z</time></trkpt><trkpt lat="45.505843" lon="10.4234373"><ele>167.0</ele><time>2026-03-29T08:04:46.508Z</time></trkpt><trkpt lat="45.505732" lon="10.4233962"><ele>167.0</ele><time>2026-03-29T08:04:47.509Z</time></trkpt><trkpt lat="45.5056322" lon="10.4233278"><ele>167.0</ele><time>2026-03-29T08:04:48.509Z</time></trkpt><trkpt lat="45.5055353" lon="10.4232343"><ele>167.0</ele><time>2026-03-29T08:04:49.509Z</time></trkpt><trkpt lat="45.5054322" lon="10.4231288"><ele>167.0</ele><time>2026-03-29T08:04:50.508Z</time></trkpt><trkpt lat="45.5053318" lon="10.4230305"><ele>167.0</ele><time>2026-03-29T08:04:51.508Z</time></trkpt><trkpt lat="45.5052358" lon="10.4229435"><ele>167.0</ele><time>2026-03-29T08:04:52.509Z</time></trkpt><trkpt lat="45.5051442" lon="10.4228805"><ele>167.2</ele><time>2026-03-29T08:04:53.508Z</time></trkpt><trkpt lat="45.505052" lon="10.4228465"><ele>167.39999999999998</ele><time>2026-03-29T08:04:54.509Z</time></trkpt><trkpt lat="45.5049543" lon="10.4228357"><ele>167.60000000000002</ele><time>2026-03-29T08:04:55.511Z</time></trkpt><trkpt lat="45.5048433" lon="10.4228303"><ele>167.8</ele><time>2026-03-29T08:04:56.508Z</time></trkpt><trkpt lat="45.5047187" lon="10.4228257"><ele>168.0</ele><time>2026-03-29T08:04:57.506Z</time></trkpt><trkpt lat="45.504594" lon="10.4228195"><ele>168.0</ele><time>2026-03-29T08:04:58.506Z</time></trkpt><trkpt lat="45.5044723" lon="10.4228205"><ele>168.0</ele><time>2026-03-29T08:04:59.505Z</time></trkpt><trkpt lat="45.5043635" lon="10.4228165"><ele>168.0</ele><time>2026-03-29T08:05:00.505Z</time></trkpt><trkpt lat="45.5042568" lon="10.4227982"><ele>168.0</ele><time>2026-03-29T08:05:01.505Z</time></trkpt><trkpt lat="45.5041478" lon="10.4227752"><ele>168.0</ele><time>2026-03-29T08:05:02.506Z</time></trkpt><trkpt lat="45.504041" lon="10.4227545"><ele>168.0</ele><time>2026-03-29T08:05:03.507Z</time></trkpt><trkpt lat="45.5039437" lon="10.422728"><ele>168.0</ele><time>2026-03-29T08:05:04.507Z</time></trkpt><trkpt lat="45.5038565" lon="10.422701"><ele>168.0</ele><time>2026-03-29T08:05:05.506Z</time></trkpt><trkpt lat="45.5037637" lon="10.422685"><ele>168.0</ele><time>2026-03-29T08:05:06.507Z</time></trkpt><trkpt lat="45.5036697" lon="10.4226932"><ele>168.0</ele><time>2026-03-29T08:05:07.508Z</time></trkpt><trkpt lat="45.5035632" lon="10.4227322"><ele>167.75</ele><time>2026-03-29T08:05:08.508Z</time></trkpt><trkpt lat="45.503462" lon="10.4227833"><ele>167.5</ele><time>2026-03-29T08:05:09.508Z</time></trkpt><trkpt lat="45.5033615" lon="10.4228377"><ele>167.25</ele><time>2026-03-29T08:05:10.507Z</time></trkpt><trkpt lat="45.5032493" lon="10.4229107"><ele>167.0</ele><time>2026-03-29T08:05:11.508Z</time></trkpt><trkpt lat="45.50312" lon="10.4230045"><ele>166.66666666666666</ele><time>2026-03-29T08:05:12.511Z</time></trkpt><trkpt lat="45.5029907" lon="10.4231107"><ele>166.33333333333334</ele><time>2026-03-29T08:05:13.511Z</time></trkpt><trkpt lat="45.5028557" lon="10.4232322"><ele>166.0</ele><time>2026-03-29T08:05:14.51Z</time></trkpt><trkpt lat="45.5027117" lon="10.4233542"><ele>165.33333333333334</ele><time>2026-03-29T08:05:15.51Z</time></trkpt><trkpt lat="45.5025672" lon="10.4234492"><ele>164.66666666666666</ele><time>2026-03-29T08:05:16.508Z</time></trkpt><trkpt lat="45.5024165" lon="10.4235162"><ele>164.0</ele><time>2026-03-29T08:05:17.509Z</time></trkpt><trkpt lat="45.5022642" lon="10.4235515"><ele>164.0</ele><time>2026-03-29T08:05:18.512Z</time></trkpt><trkpt lat="45.5021283" lon="10.4235548"><ele>164.0</ele><time>2026-03-29T08:05:19.511Z</time></trkpt><trkpt lat="45.5020105" lon="10.4235392"><ele>164.0</ele><time>2026-03-29T08:05:20.509Z</time></trkpt><trkpt lat="45.5019038" lon="10.423522"><ele>164.0</ele><time>2026-03-29T08:05:21.51Z</time></trkpt><trkpt lat="45.5018" lon="10.4235225"><ele>163.6</ele><time>2026-03-29T08:05:22.508Z</time></trkpt><trkpt lat="45.5016938" lon="10.4235377"><ele>163.2</ele><time>2026-03-29T08:05:23.507Z</time></trkpt><trkpt lat="45.5015957" lon="10.4235592"><ele>162.79999999999998</ele><time>2026-03-29T08:05:24.507Z</time></trkpt><trkpt lat="45.5014978" lon="10.42358"><ele>162.39999999999998</ele><time>2026-03-29T08:05:25.508Z</time></trkpt><trkpt lat="45.5013913" lon="10.4235973"><ele>162.0</ele><time>2026-03-29T08:05:26.507Z</time></trkpt><trkpt lat="45.5012618" lon="10.4236143"><ele>161.75</ele><time>2026-03-29T08:05:27.511Z</time></trkpt><trkpt lat="45.5011195" lon="10.4236282"><ele>161.5</ele><time>2026-03-29T08:05:28.511Z</time></trkpt><trkpt lat="45.5009725" lon="10.4236378"><ele>161.25</ele><time>2026-03-29T08:05:29.51Z</time></trkpt><trkpt lat="45.5008215" lon="10.4236455"><ele>161.0</ele><time>2026-03-29T08:05:30.512Z</time></trkpt><trkpt lat="45.5006678" lon="10.4236592"><ele>161.0</ele><time>2026-03-29T08:05:31.515Z</time></trkpt><trkpt lat="45.5005108" lon="10.423677"><ele>161.0</ele><time>2026-03-29T08:05:32.512Z</time></trkpt><trkpt lat="45.5003617" lon="10.4236962"><ele>161.0</ele><time>2026-03-29T08:05:33.512Z</time></trkpt><trkpt lat="45.5002273" lon="10.423712"><ele>161.0</ele><time>2026-03-29T08:05:34.513Z</time></trkpt><trkpt lat="45.5001012" lon="10.4237373"><ele>160.75</ele><time>2026-03-29T08:05:35.512Z</time></trkpt><trkpt lat="45.4999802" lon="10.4237833"><ele>160.5</ele><time>2026-03-29T08:05:36.51Z</time></trkpt><trkpt lat="45.4998578" lon="10.4238538"><ele>160.25</ele><time>2026-03-29T08:05:37.511Z</time></trkpt><trkpt lat="45.499731" lon="10.423937"><ele>160.0</ele><time>2026-03-29T08:05:38.512Z</time></trkpt><trkpt lat="45.4995917" lon="10.4240297"><ele>159.66666666666669</ele><time>2026-03-29T08:05:39.512Z</time></trkpt><trkpt lat="45.4994428" lon="10.4241333"><ele>159.33333333333334</ele><time>2026-03-29T08:05:40.512Z</time></trkpt><trkpt lat="45.4992855" lon="10.4242423"><ele>159.0</ele><time>2026-03-29T08:05:41.511Z</time></trkpt><trkpt lat="45.4991262" lon="10.4243473"><ele>159.0</ele><time>2026-03-29T08:05:42.509Z</time></trkpt><trkpt lat="45.4989635" lon="10.4244455"><ele>159.0</ele><time>2026-03-29T08:05:43.513Z</time></trkpt><trkpt lat="45.4988002" lon="10.424536"><ele>159.0</ele><time>2026-03-29T08:05:44.51Z</time></trkpt><trkpt lat="45.4986398" lon="10.4246315"><ele>159.0</ele><time>2026-03-29T08:05:45.511Z</time></trkpt><trkpt lat="45.4984798" lon="10.4247373"><ele>159.0</ele><time>2026-03-29T08:05:46.51Z</time></trkpt><trkpt lat="45.4983105" lon="10.4248565"><ele>159.0</ele><time>2026-03-29T08:05:47.508Z</time></trkpt><trkpt lat="45.49815" lon="10.424972"><ele>159.0</ele><time>2026-03-29T08:05:48.509Z</time></trkpt><trkpt lat="45.497995" lon="10.4250845"><ele>159.0</ele><time>2026-03-29T08:05:49.509Z</time></trkpt><trkpt lat="45.4978355" lon="10.425203"><ele>159.0</ele><time>2026-03-29T08:05:50.508Z</time></trkpt><trkpt lat="45.4976758" lon="10.425326"><ele>158.33333333333334</ele><time>2026-03-29T08:05:51.512Z</time></trkpt><trkpt lat="45.4975268" lon="10.4254433"><ele>157.66666666666669</ele><time>2026-03-29T08:05:52.511Z</time></trkpt><trkpt lat="45.4973877" lon="10.4255533"><ele>157.0</ele><time>2026-03-29T08:05:53.51Z</time></trkpt><trkpt lat="45.4972465" lon="10.4256693"><ele>157.0</ele><time>2026-03-29T08:05:54.511Z</time></trkpt><trkpt lat="45.4970975" lon="10.4257998"><ele>157.0</ele><time>2026-03-29T08:05:55.513Z</time></trkpt><trkpt lat="45.4969497" lon="10.4259505"><ele>157.0</ele><time>2026-03-29T08:05:56.511Z</time></trkpt><trkpt lat="45.4968103" lon="10.426107"><ele>157.0</ele><time>2026-03-29T08:05:57.511Z</time></trkpt><trkpt lat="45.496682" lon="10.4262557"><ele>157.0</ele><time>2026-03-29T08:05:58.512Z</time></trkpt><trkpt lat="45.4965585" lon="10.4264017"><ele>157.0</ele><time>2026-03-29T08:05:59.511Z</time></trkpt><trkpt lat="45.4964347" lon="10.4265448"><ele>157.0</ele><time>2026-03-29T08:06:00.512Z</time></trkpt><trkpt lat="45.4963163" lon="10.4266793"><ele>157.0</ele><time>2026-03-29T08:06:01.512Z</time></trkpt><trkpt lat="45.4961973" lon="10.4268147"><ele>157.0</ele><time>2026-03-29T08:06:02.511Z</time></trkpt><trkpt lat="45.4960767" lon="10.4269555"><ele>157.0</ele><time>2026-03-29T08:06:03.513Z</time></trkpt><trkpt lat="45.4959545" lon="10.427101"><ele>157.0</ele><time>2026-03-29T08:06:04.511Z</time></trkpt><trkpt lat="45.4958323" lon="10.4272453"><ele>157.0</ele><time>2026-03-29T08:06:05.509Z</time></trkpt><trkpt lat="45.495714" lon="10.4273757"><ele>157.0</ele><time>2026-03-29T08:06:06.512Z</time></trkpt><trkpt lat="45.4955893" lon="10.4274953"><ele>157.0</ele><time>2026-03-29T08:06:07.513Z</time></trkpt><trkpt lat="45.4954597" lon="10.4276108"><ele>157.0</ele><time>2026-03-29T08:06:08.509Z</time></trkpt><trkpt lat="45.495327" lon="10.4277268"><ele>156.66666666666669</ele><time>2026-03-29T08:06:09.51Z</time></trkpt><trkpt lat="45.4951925" lon="10.4278448"><ele>156.33333333333334</ele><time>2026-03-29T08:06:10.513Z</time></trkpt><trkpt lat="45.4950618" lon="10.4279595"><ele>156.0</ele><time>2026-03-29T08:06:11.509Z</time></trkpt><trkpt lat="45.4949308" lon="10.4280748"><ele>155.66666666666666</ele><time>2026-03-29T08:06:12.506Z</time></trkpt><trkpt lat="45.4948005" lon="10.428192"><ele>155.33333333333331</ele><time>2026-03-29T08:06:13.509Z</time></trkpt><trkpt lat="45.4946763" lon="10.4283065"><ele>155.0</ele><time>2026-03-29T08:06:14.508Z</time></trkpt><trkpt lat="45.4945525" lon="10.4284217"><ele>155.0</ele><time>2026-03-29T08:06:15.51Z</time></trkpt><trkpt lat="45.4944295" lon="10.4285318"><ele>155.0</ele><time>2026-03-29T08:06:16.512Z</time></trkpt><trkpt lat="45.4943133" lon="10.4286345"><ele>155.0</ele><time>2026-03-29T08:06:17.512Z</time></trkpt><trkpt lat="45.4942008" lon="10.4287347"><ele>155.0</ele><time>2026-03-29T08:06:18.514Z</time></trkpt><trkpt lat="45.4940848" lon="10.4288377"><ele>155.25</ele><time>2026-03-29T08:06:19.514Z</time></trkpt><trkpt lat="45.4939645" lon="10.4289457"><ele>155.5</ele><time>2026-03-29T08:06:20.512Z</time></trkpt><trkpt lat="45.4938537" lon="10.4290483"><ele>155.75</ele><time>2026-03-29T08:06:21.511Z</time></trkpt><trkpt lat="45.4937535" lon="10.4291467"><ele>156.0</ele><time>2026-03-29T08:06:22.512Z</time></trkpt><trkpt lat="45.4936625" lon="10.4292348"><ele>155.6</ele><time>2026-03-29T08:06:23.509Z</time></trkpt><trkpt lat="45.4935825" lon="10.4293112"><ele>155.2</ele><time>2026-03-29T08:06:24.511Z</time></trkpt><trkpt lat="45.493503" lon="10.4293933"><ele>154.8</ele><time>2026-03-29T08:06:25.511Z</time></trkpt><trkpt lat="45.4934168" lon="10.4294847"><ele>154.4</ele><time>2026-03-29T08:06:26.512Z</time></trkpt><trkpt lat="45.4933422" lon="10.4295705"><ele>154.0</ele><time>2026-03-29T08:06:27.512Z</time></trkpt><trkpt lat="45.4932772" lon="10.4296462"><ele>154.0</ele><time>2026-03-29T08:06:28.511Z</time></trkpt><trkpt lat="45.4932108" lon="10.4297"><ele>154.0</ele><time>2026-03-29T08:06:29.512Z</time></trkpt><trkpt lat="45.4931292" lon="10.4297183"><ele>154.0</ele><time>2026-03-29T08:06:30.513Z</time></trkpt><trkpt lat="45.4930358" lon="10.4296845"><ele>154.0</ele><time>2026-03-29T08:06:31.512Z</time></trkpt><trkpt lat="45.4929305" lon="10.4296015"><ele>154.0</ele><time>2026-03-29T08:06:32.512Z</time></trkpt><trkpt lat="45.4928262" lon="10.4294997"><ele>154.0</ele><time>2026-03-29T08:06:33.514Z</time></trkpt><trkpt lat="45.4927207" lon="10.4293998"><ele>154.0</ele><time>2026-03-29T08:06:34.513Z</time></trkpt><trkpt lat="45.4926173" lon="10.4293207"><ele>154.0</ele><time>2026-03-29T08:06:35.512Z</time></trkpt><trkpt lat="45.4925143" lon="10.4292693"><ele>154.0</ele><time>2026-03-29T08:06:36.509Z</time></trkpt><trkpt lat="45.4924125" lon="10.429246"><ele>154.0</ele><time>2026-03-29T08:06:37.511Z</time></trkpt><trkpt lat="45.4923055" lon="10.4292392"><ele>154.0</ele><time>2026-03-29T08:06:38.508Z</time></trkpt><trkpt lat="45.4921932" lon="10.4292433"><ele>154.0</ele><time>2026-03-29T08:06:39.509Z</time></trkpt><trkpt lat="45.4920768" lon="10.4292505"><ele>154.0</ele><time>2026-03-29T08:06:40.514Z</time></trkpt><trkpt lat="45.4919582" lon="10.4292542"><ele>153.75</ele><time>2026-03-29T08:06:41.511Z</time></trkpt><trkpt lat="45.4918425" lon="10.4292537"><ele>153.5</ele><time>2026-03-29T08:06:42.513Z</time></trkpt><trkpt lat="45.4917262" lon="10.4292492"><ele>153.25</ele><time>2026-03-29T08:06:43.512Z</time></trkpt><trkpt lat="45.4916092" lon="10.429243"><ele>153.0</ele><time>2026-03-29T08:06:44.513Z</time></trkpt><trkpt lat="45.491494" lon="10.4292342"><ele>153.0</ele><time>2026-03-29T08:06:45.53Z</time></trkpt><trkpt lat="45.4913875" lon="10.4292215"><ele>153.0</ele><time>2026-03-29T08:06:46.513Z</time></trkpt><trkpt lat="45.4912907" lon="10.4292065"><ele>153.0</ele><time>2026-03-29T08:06:47.511Z</time></trkpt><trkpt lat="45.4912008" lon="10.4291892"><ele>153.0</ele><time>2026-03-29T08:06:48.51Z</time></trkpt><trkpt lat="45.4911117" lon="10.4291717"><ele>153.0</ele><time>2026-03-29T08:06:49.512Z</time></trkpt><trkpt lat="45.4910203" lon="10.4291652"><ele>153.20000000000002</ele><time>2026-03-29T08:06:50.511Z</time></trkpt><trkpt lat="45.4909332" lon="10.4292"><ele>153.4</ele><time>2026-03-29T08:06:51.511Z</time></trkpt><trkpt lat="45.4908627" lon="10.4292842"><ele>153.60000000000002</ele><time>2026-03-29T08:06:52.512Z</time></trkpt><trkpt lat="45.4908158" lon="10.4294073"><ele>153.8</ele><time>2026-03-29T08:06:53.51Z</time></trkpt><trkpt lat="45.4907852" lon="10.4295522"><ele>154.0</ele><time>2026-03-29T08:06:54.514Z</time></trkpt><trkpt lat="45.4907595" lon="10.4297062"><ele>154.0</ele><time>2026-03-29T08:06:55.514Z</time></trkpt><trkpt lat="45.4907333" lon="10.4298642"><ele>154.0</ele><time>2026-03-29T08:06:56.512Z</time></trkpt><trkpt lat="45.4907075" lon="10.4300222"><ele>154.0</ele><time>2026-03-29T08:06:57.514Z</time></trkpt><trkpt lat="45.4906843" lon="10.4301773"><ele>154.0</ele><time>2026-03-29T08:06:58.514Z</time></trkpt><trkpt lat="45.490661" lon="10.4303228"><ele>154.0</ele><time>2026-03-29T08:06:59.512Z</time></trkpt><trkpt lat="45.4906378" lon="10.4304607"><ele>153.2</ele><time>2026-03-29T08:07:00.51Z</time></trkpt><trkpt lat="45.4906168" lon="10.4305925"><ele>152.4</ele><time>2026-03-29T08:07:01.509Z</time></trkpt><trkpt lat="45.490595" lon="10.4307288"><ele>151.6</ele><time>2026-03-29T08:07:02.51Z</time></trkpt><trkpt lat="45.49057" lon="10.4308723"><ele>150.8</ele><time>2026-03-29T08:07:03.509Z</time></trkpt><trkpt lat="45.490546" lon="10.4310073"><ele>150.0</ele><time>2026-03-29T08:07:04.511Z</time></trkpt><trkpt lat="45.4905217" lon="10.4311322"><ele>150.0</ele><time>2026-03-29T08:07:05.51Z</time></trkpt><trkpt lat="45.4904883" lon="10.4312435"><ele>150.0</ele><time>2026-03-29T08:07:06.512Z</time></trkpt><trkpt lat="45.4904325" lon="10.4313413"><ele>150.0</ele><time>2026-03-29T08:07:07.511Z</time></trkpt><trkpt lat="45.4903503" lon="10.431416"><ele>150.0</ele><time>2026-03-29T08:07:08.512Z</time></trkpt><trkpt lat="45.4902515" lon="10.4314703"><ele>150.0</ele><time>2026-03-29T08:07:09.512Z</time></trkpt><trkpt lat="45.4901423" lon="10.431516"><ele>150.25</ele><time>2026-03-29T08:07:10.514Z</time></trkpt><trkpt lat="45.4900277" lon="10.4315645"><ele>150.5</ele><time>2026-03-29T08:07:11.513Z</time></trkpt><trkpt lat="45.4899057" lon="10.4316135"><ele>150.75</ele><time>2026-03-29T08:07:12.514Z</time></trkpt><trkpt lat="45.4897743" lon="10.4316563"><ele>151.0</ele><time>2026-03-29T08:07:13.513Z</time></trkpt><trkpt lat="45.489637" lon="10.4316898"><ele>150.66666666666669</ele><time>2026-03-29T08:07:14.511Z</time></trkpt><trkpt lat="45.4894882" lon="10.431716"><ele>150.33333333333334</ele><time>2026-03-29T08:07:15.511Z</time></trkpt><trkpt lat="45.4893328" lon="10.4317347"><ele>150.0</ele><time>2026-03-29T08:07:16.513Z</time></trkpt><trkpt lat="45.4891748" lon="10.4317513"><ele>150.0</ele><time>2026-03-29T08:07:17.513Z</time></trkpt><trkpt lat="45.489016" lon="10.431772"><ele>150.0</ele><time>2026-03-29T08:07:18.513Z</time></trkpt><trkpt lat="45.4888557" lon="10.4318017"><ele>150.0</ele><time>2026-03-29T08:07:19.514Z</time></trkpt><trkpt lat="45.4886942" lon="10.4318435"><ele>150.0</ele><time>2026-03-29T08:07:20.514Z</time></trkpt><trkpt lat="45.488529" lon="10.4318985"><ele>150.0</ele><time>2026-03-29T08:07:21.512Z</time></trkpt><trkpt lat="45.4883608" lon="10.4319655"><ele>150.0</ele><time>2026-03-29T08:07:22.512Z</time></trkpt><trkpt lat="45.4881878" lon="10.432044"><ele>150.0</ele><time>2026-03-29T08:07:23.514Z</time></trkpt><trkpt lat="45.4880048" lon="10.4321292"><ele>150.0</ele><time>2026-03-29T08:07:24.511Z</time></trkpt><trkpt lat="45.4878277" lon="10.4322102"><ele>150.0</ele><time>2026-03-29T08:07:25.509Z</time></trkpt><trkpt lat="45.4876563" lon="10.4322897"><ele>150.33333333333334</ele><time>2026-03-29T08:07:26.508Z</time></trkpt><trkpt lat="45.4874828" lon="10.432373"><ele>150.66666666666669</ele><time>2026-03-29T08:07:27.51Z</time></trkpt><trkpt lat="45.4873108" lon="10.4324562"><ele>151.0</ele><time>2026-03-29T08:07:28.51Z</time></trkpt><trkpt lat="45.4871402" lon="10.4325337"><ele>151.0</ele><time>2026-03-29T08:07:29.512Z</time></trkpt><trkpt lat="45.4869623" lon="10.4325995"><ele>151.0</ele><time>2026-03-29T08:07:30.512Z</time></trkpt><trkpt lat="45.4867772" lon="10.432656"><ele>151.0</ele><time>2026-03-29T08:07:31.511Z</time></trkpt><trkpt lat="45.4865982" lon="10.4327083"><ele>151.0</ele><time>2026-03-29T08:07:32.511Z</time></trkpt><trkpt lat="45.4864273" lon="10.432757"><ele>151.0</ele><time>2026-03-29T08:07:33.509Z</time></trkpt><trkpt lat="45.4862652" lon="10.4327997"><ele>151.0</ele><time>2026-03-29T08:07:34.51Z</time></trkpt><trkpt lat="45.4861087" lon="10.4328268"><ele>150.33333333333334</ele><time>2026-03-29T08:07:35.511Z</time></trkpt><trkpt lat="45.4859547" lon="10.4328222"><ele>149.66666666666666</ele><time>2026-03-29T08:07:36.512Z</time></trkpt><trkpt lat="45.4857983" lon="10.4327675"><ele>149.0</ele><time>2026-03-29T08:07:37.512Z</time></trkpt><trkpt lat="45.4856327" lon="10.4326635"><ele>149.0</ele><time>2026-03-29T08:07:38.511Z</time></trkpt><trkpt lat="45.4854495" lon="10.4325363"><ele>149.0</ele><time>2026-03-29T08:07:39.517Z</time></trkpt><trkpt lat="45.4852618" lon="10.432418"><ele>149.0</ele><time>2026-03-29T08:07:40.51Z</time></trkpt><trkpt lat="45.4850678" lon="10.4323185"><ele>149.0</ele><time>2026-03-29T08:07:41.512Z</time></trkpt><trkpt lat="45.484854" lon="10.4322347"><ele>149.0</ele><time>2026-03-29T08:07:42.511Z</time></trkpt><trkpt lat="45.484621" lon="10.4321575"><ele>148.5</ele><time>2026-03-29T08:07:43.511Z</time></trkpt><trkpt lat="45.4843827" lon="10.4320763"><ele>148.0</ele><time>2026-03-29T08:07:44.509Z</time></trkpt><trkpt lat="45.4841585" lon="10.4319928"><ele>148.0</ele><time>2026-03-29T08:07:45.51Z</time></trkpt><trkpt lat="45.4839415" lon="10.431911"><ele>148.0</ele><time>2026-03-29T08:07:46.508Z</time></trkpt><trkpt lat="45.4837325" lon="10.4318323"><ele>148.0</ele><time>2026-03-29T08:07:47.511Z</time></trkpt><trkpt lat="45.4835285" lon="10.431757"><ele>147.0</ele><time>2026-03-29T08:07:48.51Z</time></trkpt><trkpt lat="45.4833317" lon="10.431686"><ele>146.0</ele><time>2026-03-29T08:07:49.51Z</time></trkpt><trkpt lat="45.4831353" lon="10.4316192"><ele>145.0</ele><time>2026-03-29T08:07:50.51Z</time></trkpt><trkpt lat="45.4829343" lon="10.4315603"><ele>145.33333333333334</ele><time>2026-03-29T08:07:51.508Z</time></trkpt><trkpt lat="45.482739" lon="10.431512"><ele>145.66666666666666</ele><time>2026-03-29T08:07:52.508Z</time></trkpt><trkpt lat="45.4825535" lon="10.431471"><ele>146.0</ele><time>2026-03-29T08:07:53.509Z</time></trkpt><trkpt lat="45.4823767" lon="10.4314367"><ele>146.0</ele><time>2026-03-29T08:07:54.508Z</time></trkpt><trkpt lat="45.4822087" lon="10.4314093"><ele>146.0</ele><time>2026-03-29T08:07:55.511Z</time></trkpt><trkpt lat="45.482049" lon="10.4313935"><ele>146.0</ele><time>2026-03-29T08:07:56.51Z</time></trkpt><trkpt lat="45.4818993" lon="10.4313937"><ele>145.75</ele><time>2026-03-29T08:07:57.51Z</time></trkpt><trkpt lat="45.4817578" lon="10.4314015"><ele>145.5</ele><time>2026-03-29T08:07:58.51Z</time></trkpt><trkpt lat="45.4816248" lon="10.4314162"><ele>145.25</ele><time>2026-03-29T08:07:59.511Z</time></trkpt><trkpt lat="45.4814963" lon="10.431433"><ele>145.0</ele><time>2026-03-29T08:08:00.512Z</time></trkpt><trkpt lat="45.4813655" lon="10.4314513"><ele>144.75</ele><time>2026-03-29T08:08:01.512Z</time></trkpt><trkpt lat="45.481231" lon="10.4314667"><ele>144.5</ele><time>2026-03-29T08:08:02.514Z</time></trkpt><trkpt lat="45.4810963" lon="10.4314712"><ele>144.25</ele><time>2026-03-29T08:08:03.512Z</time></trkpt><trkpt lat="45.4809613" lon="10.4314548"><ele>144.0</ele><time>2026-03-29T08:08:04.51Z</time></trkpt><trkpt lat="45.4808268" lon="10.4314122"><ele>144.0</ele><time>2026-03-29T08:08:05.511Z</time></trkpt><trkpt lat="45.480691" lon="10.4313413"><ele>144.0</ele><time>2026-03-29T08:08:06.511Z</time></trkpt><trkpt lat="45.4805547" lon="10.4312565"><ele>144.0</ele><time>2026-03-29T08:08:07.51Z</time></trkpt><trkpt lat="45.480417" lon="10.4311633"><ele>144.0</ele><time>2026-03-29T08:08:08.509Z</time></trkpt><trkpt lat="45.4802762" lon="10.4310635"><ele>143.66666666666666</ele><time>2026-03-29T08:08:09.509Z</time></trkpt><trkpt lat="45.4801327" lon="10.4309583"><ele>143.33333333333331</ele><time>2026-03-29T08:08:10.512Z</time></trkpt><trkpt lat="45.4799873" lon="10.4308517"><ele>143.0</ele><time>2026-03-29T08:08:11.51Z</time></trkpt><trkpt lat="45.4798372" lon="10.43075"><ele>143.0</ele><time>2026-03-29T08:08:12.514Z</time></trkpt><trkpt lat="45.4796808" lon="10.4306577"><ele>143.0</ele><time>2026-03-29T08:08:13.511Z</time></trkpt><trkpt lat="45.4795193" lon="10.4305787"><ele>143.0</ele><time>2026-03-29T08:08:14.513Z</time></trkpt><trkpt lat="45.4793537" lon="10.4305135"><ele>142.33333333333331</ele><time>2026-03-29T08:08:15.511Z</time></trkpt><trkpt lat="45.4791898" lon="10.4304547"><ele>141.66666666666666</ele><time>2026-03-29T08:08:16.509Z</time></trkpt><trkpt lat="45.4790363" lon="10.4304028"><ele>141.0</ele><time>2026-03-29T08:08:17.51Z</time></trkpt><trkpt lat="45.478892" lon="10.4303557"><ele>141.0</ele><time>2026-03-29T08:08:18.514Z</time></trkpt><trkpt lat="45.4787498" lon="10.4303083"><ele>141.0</ele><time>2026-03-29T08:08:19.511Z</time></trkpt><trkpt lat="45.4786082" lon="10.4302603"><ele>141.0</ele><time>2026-03-29T08:08:20.513Z</time></trkpt><trkpt lat="45.478465" lon="10.430212"><ele>141.0</ele><time>2026-03-29T08:08:21.512Z</time></trkpt><trkpt lat="45.4783183" lon="10.4301648"><ele>141.0</ele><time>2026-03-29T08:08:22.508Z</time></trkpt><trkpt lat="45.4781668" lon="10.4301225"><ele>141.0</ele><time>2026-03-29T08:08:23.51Z</time></trkpt><trkpt lat="45.4780152" lon="10.4300838"><ele>141.0</ele><time>2026-03-29T08:08:24.512Z</time></trkpt><trkpt lat="45.4778647" lon="10.43005"><ele>140.75</ele><time>2026-03-29T08:08:25.511Z</time></trkpt><trkpt lat="45.4777157" lon="10.4300198"><ele>140.5</ele><time>2026-03-29T08:08:26.513Z</time></trkpt><trkpt lat="45.4775713" lon="10.4299932"><ele>140.25</ele><time>2026-03-29T08:08:27.513Z</time></trkpt><trkpt lat="45.4774372" lon="10.42997"><ele>140.0</ele><time>2026-03-29T08:08:28.512Z</time></trkpt><trkpt lat="45.477322" lon="10.4299603"><ele>140.0</ele><time>2026-03-29T08:08:29.513Z</time></trkpt><trkpt lat="45.4772265" lon="10.429983"><ele>140.0</ele><time>2026-03-29T08:08:30.51Z</time></trkpt><trkpt lat="45.4771528" lon="10.4300507"><ele>140.0</ele><time>2026-03-29T08:08:31.511Z</time></trkpt><trkpt lat="45.4771038" lon="10.43016"><ele>140.0</ele><time>2026-03-29T08:08:32.511Z</time></trkpt><trkpt lat="45.4770678" lon="10.4303112"><ele>140.0</ele><time>2026-03-29T08:08:33.511Z</time></trkpt><trkpt lat="45.4770318" lon="10.430481"><ele>139.8</ele><time>2026-03-29T08:08:34.51Z</time></trkpt><trkpt lat="45.4769953" lon="10.4306392"><ele>139.6</ele><time>2026-03-29T08:08:35.511Z</time></trkpt><trkpt lat="45.4769477" lon="10.4307753"><ele>139.4</ele><time>2026-03-29T08:08:36.511Z</time></trkpt><trkpt lat="45.4768783" lon="10.4308845"><ele>139.2</ele><time>2026-03-29T08:08:37.509Z</time></trkpt><trkpt lat="45.4767853" lon="10.430948"><ele>139.0</ele><time>2026-03-29T08:08:38.511Z</time></trkpt><trkpt lat="45.4766732" lon="10.4309565"><ele>139.0</ele><time>2026-03-29T08:08:39.513Z</time></trkpt><trkpt lat="45.4765498" lon="10.4309142"><ele>139.0</ele><time>2026-03-29T08:08:40.509Z</time></trkpt><trkpt lat="45.4764158" lon="10.430847"><ele>139.0</ele><time>2026-03-29T08:08:41.509Z</time></trkpt><trkpt lat="45.4762778" lon="10.430783"><ele>139.0</ele><time>2026-03-29T08:08:42.511Z</time></trkpt><trkpt lat="45.4761318" lon="10.4307215"><ele>139.33333333333334</ele><time>2026-03-29T08:08:43.511Z</time></trkpt><trkpt lat="45.4759772" lon="10.430656"><ele>139.66666666666666</ele><time>2026-03-29T08:08:44.512Z</time></trkpt><trkpt lat="45.4758142" lon="10.430583"><ele>140.0</ele><time>2026-03-29T08:08:45.511Z</time></trkpt><trkpt lat="45.4756503" lon="10.4304998"><ele>139.66666666666666</ele><time>2026-03-29T08:08:46.511Z</time></trkpt><trkpt lat="45.4754853" lon="10.4304042"><ele>139.33333333333334</ele><time>2026-03-29T08:08:47.511Z</time></trkpt><trkpt lat="45.4753165" lon="10.4303015"><ele>139.0</ele><time>2026-03-29T08:08:48.513Z</time></trkpt><trkpt lat="45.4751435" lon="10.4302053"><ele>139.0</ele><time>2026-03-29T08:08:49.512Z</time></trkpt><trkpt lat="45.4749653" lon="10.4301157"><ele>139.0</ele><time>2026-03-29T08:08:50.512Z</time></trkpt><trkpt lat="45.4747863" lon="10.4300252"><ele>139.0</ele><time>2026-03-29T08:08:51.511Z</time></trkpt><trkpt lat="45.4746112" lon="10.4299338"><ele>138.66666666666669</ele><time>2026-03-29T08:08:52.513Z</time></trkpt><trkpt lat="45.4744502" lon="10.4298502"><ele>138.33333333333334</ele><time>2026-03-29T08:08:53.514Z</time></trkpt><trkpt lat="45.474305" lon="10.429776"><ele>138.0</ele><time>2026-03-29T08:08:54.512Z</time></trkpt><trkpt lat="45.4741697" lon="10.4297083"><ele>138.0</ele><time>2026-03-29T08:08:55.513Z</time></trkpt><trkpt lat="45.4740485" lon="10.4296473"><ele>138.0</ele><time>2026-03-29T08:08:56.511Z</time></trkpt><trkpt lat="45.4739407" lon="10.4295918"><ele>138.0</ele><time>2026-03-29T08:08:57.512Z</time></trkpt><trkpt lat="45.4738483" lon="10.4295435"><ele>138.0</ele><time>2026-03-29T08:08:58.514Z</time></trkpt><trkpt lat="45.4737742" lon="10.4295063"><ele>138.0</ele><time>2026-03-29T08:08:59.512Z</time></trkpt><trkpt lat="45.4736875" lon="10.4294658"><ele>137.8</ele><time>2026-03-29T08:09:01.512Z</time></trkpt><trkpt lat="45.4736108" lon="10.429494"><ele>137.60000000000002</ele><time>2026-03-29T08:09:12.511Z</time></trkpt><trkpt lat="45.4735702" lon="10.4295753"><ele>137.39999999999998</ele><time>2026-03-29T08:09:13.512Z</time></trkpt><trkpt lat="45.4735428" lon="10.4297017"><ele>137.2</ele><time>2026-03-29T08:09:14.514Z</time></trkpt><trkpt lat="45.4735238" lon="10.42987"><ele>137.0</ele><time>2026-03-29T08:09:15.513Z</time></trkpt><trkpt lat="45.4735013" lon="10.43007"><ele>137.0</ele><time>2026-03-29T08:09:16.513Z</time></trkpt><trkpt lat="45.473471" lon="10.4302805"><ele>137.0</ele><time>2026-03-29T08:09:17.512Z</time></trkpt><trkpt lat="45.4734322" lon="10.4305058"><ele>137.0</ele><time>2026-03-29T08:09:18.512Z</time></trkpt><trkpt lat="45.4733857" lon="10.4307412"><ele>137.0</ele><time>2026-03-29T08:09:19.513Z</time></trkpt><trkpt lat="45.4733327" lon="10.4309642"><ele>137.0</ele><time>2026-03-29T08:09:20.51Z</time></trkpt><trkpt lat="45.4732767" lon="10.4311783"><ele>137.0</ele><time>2026-03-29T08:09:21.511Z</time></trkpt><trkpt lat="45.4732208" lon="10.431385"><ele>137.66666666666666</ele><time>2026-03-29T08:09:22.511Z</time></trkpt><trkpt lat="45.4731667" lon="10.4315882"><ele>138.33333333333334</ele><time>2026-03-29T08:09:23.51Z</time></trkpt><trkpt lat="45.4731143" lon="10.4317915"><ele>139.0</ele><time>2026-03-29T08:09:24.51Z</time></trkpt><trkpt lat="45.4730612" lon="10.4319948"><ele>139.0</ele><time>2026-03-29T08:09:25.512Z</time></trkpt><trkpt lat="45.4730057" lon="10.4321972"><ele>139.0</ele><time>2026-03-29T08:09:26.51Z</time></trkpt><trkpt lat="45.4729495" lon="10.4323998"><ele>139.0</ele><time>2026-03-29T08:09:27.508Z</time></trkpt><trkpt lat="45.4728935" lon="10.432605"><ele>139.0</ele><time>2026-03-29T08:09:28.51Z</time></trkpt><trkpt lat="45.472837" lon="10.432813"><ele>139.0</ele><time>2026-03-29T08:09:29.508Z</time></trkpt><trkpt lat="45.4727808" lon="10.433023"><ele>139.0</ele><time>2026-03-29T08:09:30.508Z</time></trkpt><trkpt lat="45.472726" lon="10.4332322"><ele>139.25</ele><time>2026-03-29T08:09:31.51Z</time></trkpt><trkpt lat="45.472672" lon="10.4334328"><ele>139.5</ele><time>2026-03-29T08:09:32.512Z</time></trkpt><trkpt lat="45.4726187" lon="10.4336252"><ele>139.75</ele><time>2026-03-29T08:09:33.511Z</time></trkpt><trkpt lat="45.4725665" lon="10.433809"><ele>140.0</ele><time>2026-03-29T08:09:34.512Z</time></trkpt><trkpt lat="45.4725165" lon="10.4339855"><ele>139.5</ele><time>2026-03-29T08:09:35.511Z</time></trkpt><trkpt lat="45.4724703" lon="10.4341563"><ele>139.0</ele><time>2026-03-29T08:09:36.512Z</time></trkpt><trkpt lat="45.4724275" lon="10.4343218"><ele>138.5</ele><time>2026-03-29T08:09:37.512Z</time></trkpt><trkpt lat="45.4723863" lon="10.4344805"><ele>138.0</ele><time>2026-03-29T08:09:38.512Z</time></trkpt><trkpt lat="45.4723475" lon="10.4346277"><ele>137.8</ele><time>2026-03-29T08:09:39.511Z</time></trkpt><trkpt lat="45.4723042" lon="10.4347648"><ele>137.60000000000002</ele><time>2026-03-29T08:09:40.513Z</time></trkpt><trkpt lat="45.47225" lon="10.4348837"><ele>137.39999999999998</ele><time>2026-03-29T08:09:41.511Z</time></trkpt><trkpt lat="45.4721922" lon="10.4349972"><ele>137.2</ele><time>2026-03-29T08:09:42.509Z</time></trkpt><trkpt lat="45.4721538" lon="10.4351265"><ele>137.0</ele><time>2026-03-29T08:09:43.509Z</time></trkpt><trkpt lat="45.4721388" lon="10.43526"><ele>137.0</ele><time>2026-03-29T08:09:44.509Z</time></trkpt><trkpt lat="45.472132" lon="10.4354015"><ele>137.0</ele><time>2026-03-29T08:09:45.511Z</time></trkpt><trkpt lat="45.4721155" lon="10.4355567"><ele>137.0</ele><time>2026-03-29T08:09:46.512Z</time></trkpt><trkpt lat="45.472085" lon="10.4357237"><ele>137.0</ele><time>2026-03-29T08:09:47.511Z</time></trkpt><trkpt lat="45.4720403" lon="10.4359143"><ele>137.66666666666666</ele><time>2026-03-29T08:09:48.51Z</time></trkpt><trkpt lat="45.471976" lon="10.4361343"><ele>138.33333333333334</ele><time>2026-03-29T08:09:49.512Z</time></trkpt><trkpt lat="45.4718948" lon="10.436366"><ele>139.0</ele><time>2026-03-29T08:09:50.511Z</time></trkpt><trkpt lat="45.4718033" lon="10.4366172"><ele>139.0</ele><time>2026-03-29T08:09:51.51Z</time></trkpt><trkpt lat="45.4717132" lon="10.4368862"><ele>139.0</ele><time>2026-03-29T08:09:52.51Z</time></trkpt><trkpt lat="45.4716248" lon="10.4371755"><ele>139.0</ele><time>2026-03-29T08:09:53.509Z</time></trkpt><trkpt lat="45.4715407" lon="10.4374627"><ele>138.66666666666669</ele><time>2026-03-29T08:09:54.508Z</time></trkpt><trkpt lat="45.471461" lon="10.4377362"><ele>138.33333333333334</ele><time>2026-03-29T08:09:55.51Z</time></trkpt><trkpt lat="45.471389" lon="10.4379948"><ele>138.0</ele><time>2026-03-29T08:09:56.513Z</time></trkpt><trkpt lat="45.47132" lon="10.4382488"><ele>138.0</ele><time>2026-03-29T08:09:57.512Z</time></trkpt><trkpt lat="45.4712527" lon="10.4384933"><ele>138.0</ele><time>2026-03-29T08:09:58.512Z</time></trkpt><trkpt lat="45.4711895" lon="10.4387215"><ele>138.0</ele><time>2026-03-29T08:09:59.511Z</time></trkpt><trkpt lat="45.471132" lon="10.4389343"><ele>138.0</ele><time>2026-03-29T08:10:00.512Z</time></trkpt><trkpt lat="45.4710798" lon="10.4391298"><ele>138.0</ele><time>2026-03-29T08:10:01.511Z</time></trkpt><trkpt lat="45.4710308" lon="10.4393113"><ele>138.0</ele><time>2026-03-29T08:10:02.511Z</time></trkpt><trkpt lat="45.470988" lon="10.4394833"><ele>138.0</ele><time>2026-03-29T08:10:03.512Z</time></trkpt><trkpt lat="45.4709552" lon="10.4396507"><ele>138.20000000000002</ele><time>2026-03-29T08:10:04.511Z</time></trkpt><trkpt lat="45.4709332" lon="10.4398105"><ele>138.4</ele><time>2026-03-29T08:10:05.511Z</time></trkpt><trkpt lat="45.4709162" lon="10.4399532"><ele>138.60000000000002</ele><time>2026-03-29T08:10:06.511Z</time></trkpt><trkpt lat="45.4708925" lon="10.4400822"><ele>138.8</ele><time>2026-03-29T08:10:07.511Z</time></trkpt><trkpt lat="45.4708577" lon="10.4401893"><ele>139.0</ele><time>2026-03-29T08:10:08.511Z</time></trkpt><trkpt lat="45.4708123" lon="10.4402642"><ele>139.0</ele><time>2026-03-29T08:10:09.511Z</time></trkpt><trkpt lat="45.4707175" lon="10.4403285"><ele>139.0</ele><time>2026-03-29T08:10:11.51Z</time></trkpt><trkpt lat="45.4705895" lon="10.4403377"><ele>139.0</ele><time>2026-03-29T08:10:13.509Z</time></trkpt><trkpt lat="45.4705103" lon="10.4403308"><ele>139.0</ele><time>2026-03-29T08:10:14.509Z</time></trkpt><trkpt lat="45.470416" lon="10.4403292"><ele>139.0</ele><time>2026-03-29T08:10:15.511Z</time></trkpt><trkpt lat="45.4703012" lon="10.4403318"><ele>139.25</ele><time>2026-03-29T08:10:16.509Z</time></trkpt><trkpt lat="45.4701823" lon="10.4403347"><ele>139.5</ele><time>2026-03-29T08:10:17.506Z</time></trkpt><trkpt lat="45.4700658" lon="10.440337"><ele>139.75</ele><time>2026-03-29T08:10:18.507Z</time></trkpt><trkpt lat="45.4699463" lon="10.4403442"><ele>140.0</ele><time>2026-03-29T08:10:19.505Z</time></trkpt><trkpt lat="45.46982" lon="10.4403583"><ele>140.0</ele><time>2026-03-29T08:10:20.505Z</time></trkpt><trkpt lat="45.4696932" lon="10.4403758"><ele>140.0</ele><time>2026-03-29T08:10:21.507Z</time></trkpt><trkpt lat="45.469569" lon="10.4403995"><ele>140.0</ele><time>2026-03-29T08:10:22.51Z</time></trkpt><trkpt lat="45.4694435" lon="10.4404282"><ele>140.0</ele><time>2026-03-29T08:10:23.51Z</time></trkpt><trkpt lat="45.46932" lon="10.440459"><ele>139.6</ele><time>2026-03-29T08:10:24.509Z</time></trkpt><trkpt lat="45.4692072" lon="10.4404878"><ele>139.2</ele><time>2026-03-29T08:10:25.511Z</time></trkpt><trkpt lat="45.4691072" lon="10.4405125"><ele>138.8</ele><time>2026-03-29T08:10:26.508Z</time></trkpt><trkpt lat="45.4690133" lon="10.4405347"><ele>138.4</ele><time>2026-03-29T08:10:27.51Z</time></trkpt><trkpt lat="45.4689235" lon="10.4405562"><ele>138.0</ele><time>2026-03-29T08:10:28.513Z</time></trkpt><trkpt lat="45.4688312" lon="10.4405773"><ele>138.4</ele><time>2026-03-29T08:10:29.51Z</time></trkpt><trkpt lat="45.4687323" lon="10.4406005"><ele>138.8</ele><time>2026-03-29T08:10:30.51Z</time></trkpt><trkpt lat="45.4686288" lon="10.4406252"><ele>139.2</ele><time>2026-03-29T08:10:31.51Z</time></trkpt><trkpt lat="45.4685235" lon="10.440648"><ele>139.6</ele><time>2026-03-29T08:10:32.51Z</time></trkpt><trkpt lat="45.468425" lon="10.4406673"><ele>140.0</ele><time>2026-03-29T08:10:33.509Z</time></trkpt><trkpt lat="45.4683392" lon="10.4406705"><ele>140.0</ele><time>2026-03-29T08:10:34.51Z</time></trkpt><trkpt lat="45.4682567" lon="10.4406438"><ele>140.0</ele><time>2026-03-29T08:10:35.509Z</time></trkpt><trkpt lat="45.4681807" lon="10.4406208"><ele>140.0</ele><time>2026-03-29T08:10:36.508Z</time></trkpt><trkpt lat="45.4681118" lon="10.4406058"><ele>140.0</ele><time>2026-03-29T08:10:37.51Z</time></trkpt><trkpt lat="45.4680263" lon="10.440607"><ele>140.0</ele><time>2026-03-29T08:10:38.509Z</time></trkpt><trkpt lat="45.4679245" lon="10.4406192"><ele>140.0</ele><time>2026-03-29T08:10:39.508Z</time></trkpt><trkpt lat="45.4678043" lon="10.4406432"><ele>139.75</ele><time>2026-03-29T08:10:40.509Z</time></trkpt><trkpt lat="45.4676755" lon="10.4406623"><ele>139.5</ele><time>2026-03-29T08:10:41.508Z</time></trkpt><trkpt lat="45.467534" lon="10.4406833"><ele>139.25</ele><time>2026-03-29T08:10:42.509Z</time></trkpt><trkpt lat="45.4673703" lon="10.4407077"><ele>139.0</ele><time>2026-03-29T08:10:43.511Z</time></trkpt><trkpt lat="45.4671983" lon="10.4407297"><ele>138.0</ele><time>2026-03-29T08:10:44.509Z</time></trkpt><trkpt lat="45.467026" lon="10.4407502"><ele>137.0</ele><time>2026-03-29T08:10:45.513Z</time></trkpt><trkpt lat="45.4668483" lon="10.4407738"><ele>136.0</ele><time>2026-03-29T08:10:46.513Z</time></trkpt><trkpt lat="45.4666697" lon="10.440798"><ele>136.0</ele><time>2026-03-29T08:10:47.514Z</time></trkpt><trkpt lat="45.4664953" lon="10.4408213"><ele>136.0</ele><time>2026-03-29T08:10:48.512Z</time></trkpt><trkpt lat="45.4663247" lon="10.4408487"><ele>136.0</ele><time>2026-03-29T08:10:49.512Z</time></trkpt><trkpt lat="45.4661565" lon="10.440882"><ele>135.66666666666669</ele><time>2026-03-29T08:10:50.511Z</time></trkpt><trkpt lat="45.4659875" lon="10.4409245"><ele>135.33333333333334</ele><time>2026-03-29T08:10:51.512Z</time></trkpt><trkpt lat="45.4658157" lon="10.4409735"><ele>135.0</ele><time>2026-03-29T08:10:52.513Z</time></trkpt><trkpt lat="45.4656492" lon="10.4410205"><ele>135.0</ele><time>2026-03-29T08:10:53.512Z</time></trkpt><trkpt lat="45.4654917" lon="10.4410642"><ele>135.0</ele><time>2026-03-29T08:10:54.515Z</time></trkpt><trkpt lat="45.4653357" lon="10.4411072"><ele>135.0</ele><time>2026-03-29T08:10:55.513Z</time></trkpt><trkpt lat="45.4651782" lon="10.4411517"><ele>134.75</ele><time>2026-03-29T08:10:56.512Z</time></trkpt><trkpt lat="45.465028" lon="10.441195"><ele>134.5</ele><time>2026-03-29T08:10:57.514Z</time></trkpt><trkpt lat="45.464887" lon="10.4412353"><ele>134.25</ele><time>2026-03-29T08:10:58.513Z</time></trkpt><trkpt lat="45.4647597" lon="10.4412722"><ele>134.0</ele><time>2026-03-29T08:10:59.512Z</time></trkpt><trkpt lat="45.46464" lon="10.441308"><ele>134.5</ele><time>2026-03-29T08:11:00.512Z</time></trkpt><trkpt lat="45.4645277" lon="10.4413372"><ele>135.0</ele><time>2026-03-29T08:11:01.512Z</time></trkpt><trkpt lat="45.4644118" lon="10.441356"><ele>135.5</ele><time>2026-03-29T08:11:02.512Z</time></trkpt><trkpt lat="45.4642885" lon="10.4413677"><ele>136.0</ele><time>2026-03-29T08:11:03.51Z</time></trkpt><trkpt lat="45.4641618" lon="10.4413765"><ele>136.0</ele><time>2026-03-29T08:11:04.51Z</time></trkpt><trkpt lat="45.4640322" lon="10.4413815"><ele>136.0</ele><time>2026-03-29T08:11:05.509Z</time></trkpt><trkpt lat="45.4638995" lon="10.4413853"><ele>136.0</ele><time>2026-03-29T08:11:06.508Z</time></trkpt><trkpt lat="45.4637547" lon="10.4413937"><ele>136.0</ele><time>2026-03-29T08:11:07.507Z</time></trkpt><trkpt lat="45.4635967" lon="10.4414073"><ele>135.66666666666669</ele><time>2026-03-29T08:11:08.509Z</time></trkpt><trkpt lat="45.4634217" lon="10.4414213"><ele>135.33333333333334</ele><time>2026-03-29T08:11:09.511Z</time></trkpt><trkpt lat="45.46324" lon="10.4414378"><ele>135.0</ele><time>2026-03-29T08:11:10.513Z</time></trkpt><trkpt lat="45.463054" lon="10.4414632"><ele>134.66666666666666</ele><time>2026-03-29T08:11:11.513Z</time></trkpt><trkpt lat="45.4628598" lon="10.4414997"><ele>134.33333333333331</ele><time>2026-03-29T08:11:12.512Z</time></trkpt><trkpt lat="45.4626623" lon="10.4415443"><ele>134.0</ele><time>2026-03-29T08:11:13.512Z</time></trkpt><trkpt lat="45.4624663" lon="10.4415938"><ele>134.0</ele><time>2026-03-29T08:11:14.512Z</time></trkpt><trkpt lat="45.4622742" lon="10.4416457"><ele>134.0</ele><time>2026-03-29T08:11:15.516Z</time></trkpt><trkpt lat="45.4620902" lon="10.4416975"><ele>134.0</ele><time>2026-03-29T08:11:16.514Z</time></trkpt><trkpt lat="45.4619128" lon="10.4417467"><ele>134.0</ele><time>2026-03-29T08:11:17.515Z</time></trkpt><trkpt lat="45.4617385" lon="10.4417948"><ele>134.0</ele><time>2026-03-29T08:11:18.513Z</time></trkpt><trkpt lat="45.4615657" lon="10.441843"><ele>134.0</ele><time>2026-03-29T08:11:19.513Z</time></trkpt><trkpt lat="45.4613942" lon="10.4418913"><ele>133.66666666666666</ele><time>2026-03-29T08:11:20.511Z</time></trkpt><trkpt lat="45.461225" lon="10.4419393"><ele>133.33333333333334</ele><time>2026-03-29T08:11:21.513Z</time></trkpt><trkpt lat="45.4610577" lon="10.4419875"><ele>133.0</ele><time>2026-03-29T08:11:22.513Z</time></trkpt><trkpt lat="45.460888" lon="10.4420362"><ele>133.0</ele><time>2026-03-29T08:11:23.511Z</time></trkpt><trkpt lat="45.4607135" lon="10.4420853"><ele>133.0</ele><time>2026-03-29T08:11:24.512Z</time></trkpt><trkpt lat="45.4605372" lon="10.4421337"><ele>133.0</ele><time>2026-03-29T08:11:25.513Z</time></trkpt><trkpt lat="45.4603587" lon="10.442183"><ele>133.0</ele><time>2026-03-29T08:11:26.513Z</time></trkpt><trkpt lat="45.4601777" lon="10.4422352"><ele>133.0</ele><time>2026-03-29T08:11:27.51Z</time></trkpt><trkpt lat="45.4599955" lon="10.4422882"><ele>133.0</ele><time>2026-03-29T08:11:28.512Z</time></trkpt><trkpt lat="45.4598172" lon="10.4423382"><ele>133.0</ele><time>2026-03-29T08:11:29.513Z</time></trkpt><trkpt lat="45.4596467" lon="10.4423855"><ele>133.0</ele><time>2026-03-29T08:11:30.51Z</time></trkpt><trkpt lat="45.4594887" lon="10.4424295"><ele>133.0</ele><time>2026-03-29T08:11:31.51Z</time></trkpt><trkpt lat="45.4593412" lon="10.4424712"><ele>132.5</ele><time>2026-03-29T08:11:32.511Z</time></trkpt><trkpt lat="45.4591997" lon="10.4425122"><ele>132.0</ele><time>2026-03-29T08:11:33.51Z</time></trkpt><trkpt lat="45.4590683" lon="10.44255"><ele>131.5</ele><time>2026-03-29T08:11:34.511Z</time></trkpt><trkpt lat="45.458946" lon="10.4425833"><ele>131.0</ele><time>2026-03-29T08:11:35.513Z</time></trkpt><trkpt lat="45.4588335" lon="10.442613"><ele>130.6</ele><time>2026-03-29T08:11:36.511Z</time></trkpt><trkpt lat="45.4587293" lon="10.4426408"><ele>130.2</ele><time>2026-03-29T08:11:37.512Z</time></trkpt><trkpt lat="45.4586343" lon="10.4426683"><ele>129.8</ele><time>2026-03-29T08:11:38.511Z</time></trkpt><trkpt lat="45.4585507" lon="10.4426988"><ele>129.4</ele><time>2026-03-29T08:11:39.513Z</time></trkpt><trkpt lat="45.458484" lon="10.4427355"><ele>129.0</ele><time>2026-03-29T08:11:40.511Z</time></trkpt><trkpt lat="45.4584287" lon="10.4428525"><ele>129.0</ele><time>2026-03-29T08:11:42.511Z</time></trkpt><trkpt lat="45.4584585" lon="10.4429493"><ele>129.0</ele><time>2026-03-29T08:11:45.513Z</time></trkpt></trkseg></trk></gpx>